<?xml version="1.0" encoding="UTF-8" standalone="no" ?>
<gpx xmlns="http://www.topografix.com/GPX/1/1" xmlns:xsi="http://www.w3.org/2001/XMLSchema-instance" xsi:schemaLocation="http://www.topografix.com/GPX/1/1 http://www.topografix.com/GPX/1/1/gpx.xsd" version="1.1" creator="VisuGPX - https://www.visugpx.com">
  <metadata>
    <name>2015-05-24 Aulp du Seuil</name>
    <desc><![CDATA[Froid et couvert en haut, dommage !]]></desc>
  </metadata>
  <trk>
    <name><![CDATA[aulp]]></name>
    <trkseg>
      <trkpt lat="45.35526" lon="5.9186">
        <ele>1058</ele>
        <time>2015-05-24T11:16:50Z</time>
      </trkpt>
      <trkpt lat="45.35523" lon="5.91861">
        <ele>1058</ele>
        <time>2015-05-24T11:17:10Z</time>
      </trkpt>
      <trkpt lat="45.35516" lon="5.91855">
        <ele>1068.013925533</ele>
        <time>2015-05-24T11:17:15Z</time>
      </trkpt>
      <trkpt lat="45.35515" lon="5.91844">
        <ele>1068.013925533</ele>
        <time>2015-05-24T11:17:20Z</time>
      </trkpt>
      <trkpt lat="45.35511" lon="5.91838">
        <ele>1071.936496047</ele>
        <time>2015-05-24T11:17:25Z</time>
      </trkpt>
      <trkpt lat="45.3551" lon="5.91833">
        <ele>1071.936496047</ele>
        <time>2015-05-24T11:17:30Z</time>
      </trkpt>
      <trkpt lat="45.35506" lon="5.91822">
        <ele>1076.461026086</ele>
        <time>2015-05-24T11:17:35Z</time>
      </trkpt>
      <trkpt lat="45.35503" lon="5.91817">
        <ele>1076.461026086</ele>
        <time>2015-05-24T11:17:41Z</time>
      </trkpt>
      <trkpt lat="45.35495" lon="5.91811">
        <ele>1081.789254959</ele>
        <time>2015-05-24T11:17:46Z</time>
      </trkpt>
      <trkpt lat="45.35488" lon="5.91812">
        <ele>1081.789254959</ele>
        <time>2015-05-24T11:17:51Z</time>
      </trkpt>
      <trkpt lat="45.35483" lon="5.91806">
        <ele>1087.485152404</ele>
        <time>2015-05-24T11:17:56Z</time>
      </trkpt>
      <trkpt lat="45.3548" lon="5.91798">
        <ele>1087.485152404</ele>
        <time>2015-05-24T11:18:01Z</time>
      </trkpt>
      <trkpt lat="45.3548" lon="5.91787">
        <ele>1092.772057018</ele>
        <time>2015-05-24T11:18:06Z</time>
      </trkpt>
      <trkpt lat="45.3548" lon="5.91778">
        <ele>1092.772057018</ele>
        <time>2015-05-24T11:18:11Z</time>
      </trkpt>
      <trkpt lat="45.35479" lon="5.91768">
        <ele>1096.635530237</ele>
        <time>2015-05-24T11:18:16Z</time>
      </trkpt>
      <trkpt lat="45.35476" lon="5.91763">
        <ele>1096.635530237</ele>
        <time>2015-05-24T11:18:21Z</time>
      </trkpt>
      <trkpt lat="45.35473" lon="5.91754">
        <ele>1100.683315599</ele>
        <time>2015-05-24T11:18:26Z</time>
      </trkpt>
      <trkpt lat="45.35471" lon="5.91745">
        <ele>1100.683315599</ele>
        <time>2015-05-24T11:18:31Z</time>
      </trkpt>
      <trkpt lat="45.35472" lon="5.91731">
        <ele>1102.692253404</ele>
        <time>2015-05-24T11:18:36Z</time>
      </trkpt>
      <trkpt lat="45.3547" lon="5.91721">
        <ele>1102.692253404</ele>
        <time>2015-05-24T11:18:41Z</time>
      </trkpt>
      <trkpt lat="45.35468" lon="5.91712">
        <ele>1103.28907765</ele>
        <time>2015-05-24T11:18:46Z</time>
      </trkpt>
      <trkpt lat="45.35466" lon="5.91702">
        <ele>1103.28907765</ele>
        <time>2015-05-24T11:18:51Z</time>
      </trkpt>
      <trkpt lat="45.35467" lon="5.91693">
        <ele>1103.562322242</ele>
        <time>2015-05-24T11:18:56Z</time>
      </trkpt>
      <trkpt lat="45.35465" lon="5.91688">
        <ele>1103.562322242</ele>
        <time>2015-05-24T11:19:01Z</time>
      </trkpt>
      <trkpt lat="45.35462" lon="5.91682">
        <ele>1103.562322242</ele>
        <time>2015-05-24T11:19:05Z</time>
      </trkpt>
      <trkpt lat="45.35459" lon="5.91674">
        <ele>1103.224829192</ele>
        <time>2015-05-24T11:19:10Z</time>
      </trkpt>
      <trkpt lat="45.35458" lon="5.91665">
        <ele>1103.224829192</ele>
        <time>2015-05-24T11:19:15Z</time>
      </trkpt>
      <trkpt lat="45.35456" lon="5.91658">
        <ele>1102.216754184</ele>
        <time>2015-05-24T11:19:22Z</time>
      </trkpt>
      <trkpt lat="45.35459" lon="5.91654">
        <ele>1102.216754184</ele>
        <time>2015-05-24T11:19:26Z</time>
      </trkpt>
      <trkpt lat="45.35459" lon="5.91654">
        <ele>1102.216754184</ele>
        <time>2015-05-24T11:19:31Z</time>
      </trkpt>
      <trkpt lat="45.35459" lon="5.91654">
        <ele>1102.216754184</ele>
        <time>2015-05-24T11:19:36Z</time>
      </trkpt>
      <trkpt lat="45.35458" lon="5.91654">
        <ele>1102.216754184</ele>
        <time>2015-05-24T11:19:41Z</time>
      </trkpt>
      <trkpt lat="45.35458" lon="5.91654">
        <ele>1102.216754184</ele>
        <time>2015-05-24T11:19:46Z</time>
      </trkpt>
      <trkpt lat="45.35453" lon="5.9165">
        <ele>1100.837686137</ele>
        <time>2015-05-24T11:19:51Z</time>
      </trkpt>
      <trkpt lat="45.35446" lon="5.91634">
        <ele>1099.532436292</ele>
        <time>2015-05-24T11:19:56Z</time>
      </trkpt>
      <trkpt lat="45.35443" lon="5.91626">
        <ele>1099.532436292</ele>
        <time>2015-05-24T11:20:01Z</time>
      </trkpt>
      <trkpt lat="45.35438" lon="5.9162">
        <ele>1099.35346533</ele>
        <time>2015-05-24T11:20:06Z</time>
      </trkpt>
      <trkpt lat="45.35435" lon="5.91612">
        <ele>1099.35346533</ele>
        <time>2015-05-24T11:20:11Z</time>
      </trkpt>
      <trkpt lat="45.3543" lon="5.91607">
        <ele>1099.41843669</ele>
        <time>2015-05-24T11:20:16Z</time>
      </trkpt>
      <trkpt lat="45.35426" lon="5.916">
        <ele>1099.41843669</ele>
        <time>2015-05-24T11:20:21Z</time>
      </trkpt>
      <trkpt lat="45.35424" lon="5.91595">
        <ele>1098.770126796</ele>
        <time>2015-05-24T11:20:26Z</time>
      </trkpt>
      <trkpt lat="45.35423" lon="5.91589">
        <ele>1098.770126796</ele>
        <time>2015-05-24T11:20:31Z</time>
      </trkpt>
      <trkpt lat="45.35419" lon="5.91581">
        <ele>1097.68084162</ele>
        <time>2015-05-24T11:20:36Z</time>
      </trkpt>
      <trkpt lat="45.35415" lon="5.91575">
        <ele>1097.68084162</ele>
        <time>2015-05-24T11:20:41Z</time>
      </trkpt>
      <trkpt lat="45.3541" lon="5.91564">
        <ele>1096.543156026</ele>
        <time>2015-05-24T11:20:46Z</time>
      </trkpt>
      <trkpt lat="45.35408" lon="5.91556">
        <ele>1096.543156026</ele>
        <time>2015-05-24T11:20:51Z</time>
      </trkpt>
      <trkpt lat="45.35407" lon="5.91548">
        <ele>1095.229936306</ele>
        <time>2015-05-24T11:20:56Z</time>
      </trkpt>
      <trkpt lat="45.35401" lon="5.91544">
        <ele>1095.229936306</ele>
        <time>2015-05-24T11:21:01Z</time>
      </trkpt>
      <trkpt lat="45.35396" lon="5.91537">
        <ele>1094.690531635</ele>
        <time>2015-05-24T11:21:06Z</time>
      </trkpt>
      <trkpt lat="45.35396" lon="5.91527">
        <ele>1094.690531635</ele>
        <time>2015-05-24T11:21:10Z</time>
      </trkpt>
      <trkpt lat="45.3539" lon="5.91523">
        <ele>1094.246796846</ele>
        <time>2015-05-24T11:21:16Z</time>
      </trkpt>
      <trkpt lat="45.35387" lon="5.91516">
        <ele>1094.246796846</ele>
        <time>2015-05-24T11:21:21Z</time>
      </trkpt>
      <trkpt lat="45.35382" lon="5.91511">
        <ele>1093.598168933</ele>
        <time>2015-05-24T11:21:26Z</time>
      </trkpt>
      <trkpt lat="45.35383" lon="5.91506">
        <ele>1093.598168933</ele>
        <time>2015-05-24T11:21:30Z</time>
      </trkpt>
      <trkpt lat="45.3538" lon="5.915">
        <ele>1093.598168933</ele>
        <time>2015-05-24T11:21:35Z</time>
      </trkpt>
      <trkpt lat="45.3538" lon="5.9149">
        <ele>1093.061552859</ele>
        <time>2015-05-24T11:21:41Z</time>
      </trkpt>
      <trkpt lat="45.35378" lon="5.91484">
        <ele>1093.061552859</ele>
        <time>2015-05-24T11:21:46Z</time>
      </trkpt>
      <trkpt lat="45.35378" lon="5.91473">
        <ele>1092.338227781</ele>
        <time>2015-05-24T11:21:51Z</time>
      </trkpt>
      <trkpt lat="45.35377" lon="5.91466">
        <ele>1092.338227781</ele>
        <time>2015-05-24T11:21:56Z</time>
      </trkpt>
      <trkpt lat="45.35377" lon="5.91458">
        <ele>1092.158822936</ele>
        <time>2015-05-24T11:22:01Z</time>
      </trkpt>
      <trkpt lat="45.35376" lon="5.91449">
        <ele>1092.158822936</ele>
        <time>2015-05-24T11:22:06Z</time>
      </trkpt>
      <trkpt lat="45.35377" lon="5.91443">
        <ele>1091.763386485</ele>
        <time>2015-05-24T11:22:11Z</time>
      </trkpt>
      <trkpt lat="45.35377" lon="5.91434">
        <ele>1091.763386485</ele>
        <time>2015-05-24T11:22:16Z</time>
      </trkpt>
      <trkpt lat="45.35375" lon="5.91427">
        <ele>1091.730429301</ele>
        <time>2015-05-24T11:22:21Z</time>
      </trkpt>
      <trkpt lat="45.35375" lon="5.91418">
        <ele>1091.730429301</ele>
        <time>2015-05-24T11:22:26Z</time>
      </trkpt>
      <trkpt lat="45.35376" lon="5.91409">
        <ele>1092.026319045</ele>
        <time>2015-05-24T11:22:31Z</time>
      </trkpt>
      <trkpt lat="45.35374" lon="5.91402">
        <ele>1092.026319045</ele>
        <time>2015-05-24T11:22:36Z</time>
      </trkpt>
      <trkpt lat="45.35373" lon="5.91394">
        <ele>1092.06632892</ele>
        <time>2015-05-24T11:22:41Z</time>
      </trkpt>
      <trkpt lat="45.3537" lon="5.91386">
        <ele>1092.06632892</ele>
        <time>2015-05-24T11:22:46Z</time>
      </trkpt>
      <trkpt lat="45.3537" lon="5.91377">
        <ele>1092.423843137</ele>
        <time>2015-05-24T11:22:51Z</time>
      </trkpt>
      <trkpt lat="45.35369" lon="5.91371">
        <ele>1092.423843137</ele>
        <time>2015-05-24T11:22:56Z</time>
      </trkpt>
      <trkpt lat="45.35365" lon="5.91364">
        <ele>1092.658330392</ele>
        <time>2015-05-24T11:23:01Z</time>
      </trkpt>
      <trkpt lat="45.35359" lon="5.91359">
        <ele>1092.658330392</ele>
        <time>2015-05-24T11:23:06Z</time>
      </trkpt>
      <trkpt lat="45.35357" lon="5.9135">
        <ele>1092.777943039</ele>
        <time>2015-05-24T11:23:11Z</time>
      </trkpt>
      <trkpt lat="45.35352" lon="5.91344">
        <ele>1092.777943039</ele>
        <time>2015-05-24T11:23:16Z</time>
      </trkpt>
      <trkpt lat="45.3535" lon="5.91338">
        <ele>1092.930186543</ele>
        <time>2015-05-24T11:23:21Z</time>
      </trkpt>
      <trkpt lat="45.35346" lon="5.91332">
        <ele>1092.930186543</ele>
        <time>2015-05-24T11:23:26Z</time>
      </trkpt>
      <trkpt lat="45.35342" lon="5.91327">
        <ele>1093.394580848</ele>
        <time>2015-05-24T11:23:31Z</time>
      </trkpt>
      <trkpt lat="45.35338" lon="5.91321">
        <ele>1093.394580848</ele>
        <time>2015-05-24T11:23:36Z</time>
      </trkpt>
      <trkpt lat="45.35334" lon="5.91317">
        <ele>1094.576674707</ele>
        <time>2015-05-24T11:23:41Z</time>
      </trkpt>
      <trkpt lat="45.35335" lon="5.91308">
        <ele>1094.576674707</ele>
        <time>2015-05-24T11:23:46Z</time>
      </trkpt>
      <trkpt lat="45.35339" lon="5.91298">
        <ele>1095.726177065</ele>
        <time>2015-05-24T11:23:51Z</time>
      </trkpt>
      <trkpt lat="45.35343" lon="5.91295">
        <ele>1095.726177065</ele>
        <time>2015-05-24T11:23:56Z</time>
      </trkpt>
      <trkpt lat="45.35349" lon="5.9129">
        <ele>1096.845267018</ele>
        <time>2015-05-24T11:24:01Z</time>
      </trkpt>
      <trkpt lat="45.35355" lon="5.91292">
        <ele>1096.845267018</ele>
        <time>2015-05-24T11:24:06Z</time>
      </trkpt>
      <trkpt lat="45.35357" lon="5.91293">
        <ele>1096.845267018</ele>
        <time>2015-05-24T11:24:10Z</time>
      </trkpt>
      <trkpt lat="45.3537" lon="5.91306">
        <ele>1098.079870819</ele>
        <time>2015-05-24T11:24:17Z</time>
      </trkpt>
      <trkpt lat="45.35371" lon="5.91305">
        <ele>1098.079870819</ele>
        <time>2015-05-24T11:24:21Z</time>
      </trkpt>
      <trkpt lat="45.35378" lon="5.91307">
        <ele>1098.079870819</ele>
        <time>2015-05-24T11:24:26Z</time>
      </trkpt>
      <trkpt lat="45.35385" lon="5.91306">
        <ele>1098.555245225</ele>
        <time>2015-05-24T11:24:31Z</time>
      </trkpt>
      <trkpt lat="45.35384" lon="5.91316">
        <ele>1098.555245225</ele>
        <time>2015-05-24T11:24:36Z</time>
      </trkpt>
      <trkpt lat="45.35388" lon="5.91322">
        <ele>1099.046249474</ele>
        <time>2015-05-24T11:24:41Z</time>
      </trkpt>
      <trkpt lat="45.35386" lon="5.91329">
        <ele>1099.046249474</ele>
        <time>2015-05-24T11:24:46Z</time>
      </trkpt>
      <trkpt lat="45.35393" lon="5.91338">
        <ele>1099.408610308</ele>
        <time>2015-05-24T11:24:51Z</time>
      </trkpt>
      <trkpt lat="45.35396" lon="5.91344">
        <ele>1099.408610308</ele>
        <time>2015-05-24T11:24:56Z</time>
      </trkpt>
      <trkpt lat="45.35401" lon="5.91346">
        <ele>1100.243883832</ele>
        <time>2015-05-24T11:25:01Z</time>
      </trkpt>
      <trkpt lat="45.35411" lon="5.91349">
        <ele>1100.486879056</ele>
        <time>2015-05-24T11:25:06Z</time>
      </trkpt>
      <trkpt lat="45.35411" lon="5.91356">
        <ele>1100.486879056</ele>
        <time>2015-05-24T11:25:11Z</time>
      </trkpt>
      <trkpt lat="45.35415" lon="5.91358">
        <ele>1100.477276538</ele>
        <time>2015-05-24T11:25:16Z</time>
      </trkpt>
      <trkpt lat="45.3542" lon="5.91366">
        <ele>1100.477276538</ele>
        <time>2015-05-24T11:25:21Z</time>
      </trkpt>
      <trkpt lat="45.35422" lon="5.91371">
        <ele>1101.134424968</ele>
        <time>2015-05-24T11:25:26Z</time>
      </trkpt>
      <trkpt lat="45.35422" lon="5.91371">
        <ele>1101.134424968</ele>
        <time>2015-05-24T11:25:31Z</time>
      </trkpt>
      <trkpt lat="45.35429" lon="5.91373">
        <ele>1101.134424968</ele>
        <time>2015-05-24T11:25:36Z</time>
      </trkpt>
      <trkpt lat="45.35439" lon="5.91378">
        <ele>1101.515449155</ele>
        <time>2015-05-24T11:25:41Z</time>
      </trkpt>
      <trkpt lat="45.35439" lon="5.91385">
        <ele>1101.515449155</ele>
        <time>2015-05-24T11:25:46Z</time>
      </trkpt>
      <trkpt lat="45.35441" lon="5.9139">
        <ele>1102.69577779</ele>
        <time>2015-05-24T11:25:51Z</time>
      </trkpt>
      <trkpt lat="45.35446" lon="5.91393">
        <ele>1102.69577779</ele>
        <time>2015-05-24T11:25:56Z</time>
      </trkpt>
      <trkpt lat="45.35451" lon="5.914">
        <ele>1103.864618629</ele>
        <time>2015-05-24T11:26:01Z</time>
      </trkpt>
      <trkpt lat="45.35455" lon="5.91399">
        <ele>1103.864618629</ele>
        <time>2015-05-24T11:26:06Z</time>
      </trkpt>
      <trkpt lat="45.35461" lon="5.91404">
        <ele>1105.173242292</ele>
        <time>2015-05-24T11:26:11Z</time>
      </trkpt>
      <trkpt lat="45.35468" lon="5.91404">
        <ele>1105.173242292</ele>
        <time>2015-05-24T11:26:16Z</time>
      </trkpt>
      <trkpt lat="45.35472" lon="5.91409">
        <ele>1107.365039479</ele>
        <time>2015-05-24T11:26:21Z</time>
      </trkpt>
      <trkpt lat="45.35474" lon="5.91421">
        <ele>1107.365039479</ele>
        <time>2015-05-24T11:26:26Z</time>
      </trkpt>
      <trkpt lat="45.35476" lon="5.91424">
        <ele>1109.009580854</ele>
        <time>2015-05-24T11:26:31Z</time>
      </trkpt>
      <trkpt lat="45.35478" lon="5.91429">
        <ele>1109.009580854</ele>
        <time>2015-05-24T11:26:36Z</time>
      </trkpt>
      <trkpt lat="45.35486" lon="5.91429">
        <ele>1110.901433436</ele>
        <time>2015-05-24T11:26:41Z</time>
      </trkpt>
      <trkpt lat="45.35499" lon="5.91416">
        <ele>1113.319648462</ele>
        <time>2015-05-24T11:26:46Z</time>
      </trkpt>
      <trkpt lat="45.35491" lon="5.91437">
        <ele>1115.314495506</ele>
        <time>2015-05-24T11:26:51Z</time>
      </trkpt>
      <trkpt lat="45.35495" lon="5.91445">
        <ele>1115.314495506</ele>
        <time>2015-05-24T11:26:56Z</time>
      </trkpt>
      <trkpt lat="45.35497" lon="5.91449">
        <ele>1117.367809566</ele>
        <time>2015-05-24T11:27:00Z</time>
      </trkpt>
      <trkpt lat="45.35504" lon="5.91447">
        <ele>1117.367809566</ele>
        <time>2015-05-24T11:27:06Z</time>
      </trkpt>
      <trkpt lat="45.35504" lon="5.91453">
        <ele>1119.321884368</ele>
        <time>2015-05-24T11:27:10Z</time>
      </trkpt>
      <trkpt lat="45.35511" lon="5.91453">
        <ele>1119.321884368</ele>
        <time>2015-05-24T11:27:16Z</time>
      </trkpt>
      <trkpt lat="45.35516" lon="5.91449">
        <ele>1120.733330807</ele>
        <time>2015-05-24T11:27:21Z</time>
      </trkpt>
      <trkpt lat="45.35519" lon="5.9145">
        <ele>1120.733330807</ele>
        <time>2015-05-24T11:27:25Z</time>
      </trkpt>
      <trkpt lat="45.35524" lon="5.91458">
        <ele>1121.944361692</ele>
        <time>2015-05-24T11:27:30Z</time>
      </trkpt>
      <trkpt lat="45.35527" lon="5.9146">
        <ele>1121.944361692</ele>
        <time>2015-05-24T11:27:36Z</time>
      </trkpt>
      <trkpt lat="45.35532" lon="5.91462">
        <ele>1121.944361692</ele>
        <time>2015-05-24T11:27:41Z</time>
      </trkpt>
      <trkpt lat="45.35537" lon="5.91465">
        <ele>1122.971298952</ele>
        <time>2015-05-24T11:27:47Z</time>
      </trkpt>
      <trkpt lat="45.35543" lon="5.91463">
        <ele>1122.971298952</ele>
        <time>2015-05-24T11:27:51Z</time>
      </trkpt>
      <trkpt lat="45.35548" lon="5.91465">
        <ele>1124.423942511</ele>
        <time>2015-05-24T11:27:56Z</time>
      </trkpt>
      <trkpt lat="45.35553" lon="5.91465">
        <ele>1124.423942511</ele>
        <time>2015-05-24T11:28:01Z</time>
      </trkpt>
      <trkpt lat="45.35557" lon="5.91477">
        <ele>1125.970325213</ele>
        <time>2015-05-24T11:28:06Z</time>
      </trkpt>
      <trkpt lat="45.35562" lon="5.91476">
        <ele>1125.970325213</ele>
        <time>2015-05-24T11:28:11Z</time>
      </trkpt>
      <trkpt lat="45.35566" lon="5.91477">
        <ele>1125.970325213</ele>
        <time>2015-05-24T11:28:16Z</time>
      </trkpt>
      <trkpt lat="45.3557" lon="5.91475">
        <ele>1126.862689497</ele>
        <time>2015-05-24T11:28:21Z</time>
      </trkpt>
      <trkpt lat="45.35568" lon="5.91468">
        <ele>1126.862689497</ele>
        <time>2015-05-24T11:28:26Z</time>
      </trkpt>
      <trkpt lat="45.35564" lon="5.91458">
        <ele>1127.44999712</ele>
        <time>2015-05-24T11:28:31Z</time>
      </trkpt>
      <trkpt lat="45.35562" lon="5.91454">
        <ele>1127.44999712</ele>
        <time>2015-05-24T11:28:36Z</time>
      </trkpt>
      <trkpt lat="45.35559" lon="5.91451">
        <ele>1127.44999712</ele>
        <time>2015-05-24T11:28:41Z</time>
      </trkpt>
      <trkpt lat="45.35555" lon="5.91443">
        <ele>1128.347029957</ele>
        <time>2015-05-24T11:28:46Z</time>
      </trkpt>
      <trkpt lat="45.35554" lon="5.91439">
        <ele>1128.347029957</ele>
        <time>2015-05-24T11:28:51Z</time>
      </trkpt>
      <trkpt lat="45.35553" lon="5.91434">
        <ele>1128.347029957</ele>
        <time>2015-05-24T11:28:56Z</time>
      </trkpt>
      <trkpt lat="45.35547" lon="5.91432">
        <ele>1129.969918768</ele>
        <time>2015-05-24T11:29:01Z</time>
      </trkpt>
      <trkpt lat="45.35543" lon="5.91429">
        <ele>1129.969918768</ele>
        <time>2015-05-24T11:29:06Z</time>
      </trkpt>
      <trkpt lat="45.35544" lon="5.91416">
        <ele>1131.234037277</ele>
        <time>2015-05-24T11:29:11Z</time>
      </trkpt>
      <trkpt lat="45.35541" lon="5.91407">
        <ele>1131.234037277</ele>
        <time>2015-05-24T11:29:16Z</time>
      </trkpt>
      <trkpt lat="45.35534" lon="5.91406">
        <ele>1132.46021455</ele>
        <time>2015-05-24T11:29:21Z</time>
      </trkpt>
      <trkpt lat="45.35531" lon="5.91401">
        <ele>1132.46021455</ele>
        <time>2015-05-24T11:29:26Z</time>
      </trkpt>
      <trkpt lat="45.35525" lon="5.91403">
        <ele>1133.067791705</ele>
        <time>2015-05-24T11:29:31Z</time>
      </trkpt>
      <trkpt lat="45.35522" lon="5.91393">
        <ele>1133.067791705</ele>
        <time>2015-05-24T11:29:36Z</time>
      </trkpt>
      <trkpt lat="45.35521" lon="5.91381">
        <ele>1134.126585909</ele>
        <time>2015-05-24T11:29:41Z</time>
      </trkpt>
      <trkpt lat="45.35516" lon="5.91378">
        <ele>1134.126585909</ele>
        <time>2015-05-24T11:29:46Z</time>
      </trkpt>
      <trkpt lat="45.35516" lon="5.91369">
        <ele>1135.019924742</ele>
        <time>2015-05-24T11:29:51Z</time>
      </trkpt>
      <trkpt lat="45.3552" lon="5.9136">
        <ele>1135.019924742</ele>
        <time>2015-05-24T11:29:56Z</time>
      </trkpt>
      <trkpt lat="45.35521" lon="5.91357">
        <ele>1136.051917806</ele>
        <time>2015-05-24T11:30:00Z</time>
      </trkpt>
      <trkpt lat="45.35525" lon="5.9136">
        <ele>1136.051917806</ele>
        <time>2015-05-24T11:30:06Z</time>
      </trkpt>
      <trkpt lat="45.35529" lon="5.9136">
        <ele>1136.051917806</ele>
        <time>2015-05-24T11:30:11Z</time>
      </trkpt>
      <trkpt lat="45.35536" lon="5.91354">
        <ele>1136.632144702</ele>
        <time>2015-05-24T11:30:16Z</time>
      </trkpt>
      <trkpt lat="45.35535" lon="5.91354">
        <ele>1136.632144702</ele>
        <time>2015-05-24T11:30:21Z</time>
      </trkpt>
      <trkpt lat="45.35539" lon="5.91357">
        <ele>1136.632144702</ele>
        <time>2015-05-24T11:30:26Z</time>
      </trkpt>
      <trkpt lat="45.35544" lon="5.9136">
        <ele>1137.52130847</ele>
        <time>2015-05-24T11:30:31Z</time>
      </trkpt>
      <trkpt lat="45.35548" lon="5.91356">
        <ele>1137.52130847</ele>
        <time>2015-05-24T11:30:35Z</time>
      </trkpt>
      <trkpt lat="45.35553" lon="5.91357">
        <ele>1138.551868284</ele>
        <time>2015-05-24T11:30:41Z</time>
      </trkpt>
      <trkpt lat="45.35557" lon="5.91359">
        <ele>1138.551868284</ele>
        <time>2015-05-24T11:30:46Z</time>
      </trkpt>
      <trkpt lat="45.35561" lon="5.91361">
        <ele>1139.568919089</ele>
        <time>2015-05-24T11:30:50Z</time>
      </trkpt>
      <trkpt lat="45.35568" lon="5.91362">
        <ele>1139.568919089</ele>
        <time>2015-05-24T11:30:56Z</time>
      </trkpt>
      <trkpt lat="45.35574" lon="5.91366">
        <ele>1140.573976</ele>
        <time>2015-05-24T11:31:00Z</time>
      </trkpt>
      <trkpt lat="45.3558" lon="5.91363">
        <ele>1140.573976</ele>
        <time>2015-05-24T11:31:07Z</time>
      </trkpt>
      <trkpt lat="45.35581" lon="5.91369">
        <ele>1141.712887318</ele>
        <time>2015-05-24T11:31:11Z</time>
      </trkpt>
      <trkpt lat="45.35584" lon="5.91371">
        <ele>1141.712887318</ele>
        <time>2015-05-24T11:31:16Z</time>
      </trkpt>
      <trkpt lat="45.35589" lon="5.91368">
        <ele>1142.687065241</ele>
        <time>2015-05-24T11:31:21Z</time>
      </trkpt>
      <trkpt lat="45.3559" lon="5.91366">
        <ele>1142.687065241</ele>
        <time>2015-05-24T11:31:26Z</time>
      </trkpt>
      <trkpt lat="45.35594" lon="5.9136">
        <ele>1142.687065241</ele>
        <time>2015-05-24T11:31:31Z</time>
      </trkpt>
      <trkpt lat="45.35597" lon="5.9136">
        <ele>1144.375209628</ele>
        <time>2015-05-24T11:31:36Z</time>
      </trkpt>
      <trkpt lat="45.35601" lon="5.91357">
        <ele>1144.375209628</ele>
        <time>2015-05-24T11:31:41Z</time>
      </trkpt>
      <trkpt lat="45.35602" lon="5.91357">
        <ele>1144.375209628</ele>
        <time>2015-05-24T11:31:46Z</time>
      </trkpt>
      <trkpt lat="45.35604" lon="5.91355">
        <ele>1144.375209628</ele>
        <time>2015-05-24T11:31:51Z</time>
      </trkpt>
      <trkpt lat="45.35606" lon="5.91353">
        <ele>1146.867122085</ele>
        <time>2015-05-24T11:31:56Z</time>
      </trkpt>
      <trkpt lat="45.35607" lon="5.91354">
        <ele>1146.867122085</ele>
        <time>2015-05-24T11:32:01Z</time>
      </trkpt>
      <trkpt lat="45.35606" lon="5.91354">
        <ele>1146.867122085</ele>
        <time>2015-05-24T11:32:06Z</time>
      </trkpt>
      <trkpt lat="45.35606" lon="5.91354">
        <ele>1146.867122085</ele>
        <time>2015-05-24T11:32:11Z</time>
      </trkpt>
      <trkpt lat="45.35612" lon="5.91354">
        <ele>1146.867122085</ele>
        <time>2015-05-24T11:32:16Z</time>
      </trkpt>
      <trkpt lat="45.35621" lon="5.91353">
        <ele>1148.801645717</ele>
        <time>2015-05-24T11:32:21Z</time>
      </trkpt>
      <trkpt lat="45.35628" lon="5.91356">
        <ele>1148.801645717</ele>
        <time>2015-05-24T11:32:26Z</time>
      </trkpt>
      <trkpt lat="45.35636" lon="5.91358">
        <ele>1151.515858059</ele>
        <time>2015-05-24T11:32:31Z</time>
      </trkpt>
      <trkpt lat="45.35641" lon="5.91355">
        <ele>1151.515858059</ele>
        <time>2015-05-24T11:32:36Z</time>
      </trkpt>
      <trkpt lat="45.35645" lon="5.91355">
        <ele>1151.515858059</ele>
        <time>2015-05-24T11:32:41Z</time>
      </trkpt>
      <trkpt lat="45.3565" lon="5.91353">
        <ele>1153.794542308</ele>
        <time>2015-05-24T11:32:46Z</time>
      </trkpt>
      <trkpt lat="45.35653" lon="5.91354">
        <ele>1153.794542308</ele>
        <time>2015-05-24T11:32:51Z</time>
      </trkpt>
      <trkpt lat="45.35655" lon="5.91354">
        <ele>1153.794542308</ele>
        <time>2015-05-24T11:32:56Z</time>
      </trkpt>
      <trkpt lat="45.35655" lon="5.91354">
        <ele>1153.794542308</ele>
        <time>2015-05-24T11:33:01Z</time>
      </trkpt>
      <trkpt lat="45.35656" lon="5.91354">
        <ele>1153.794542308</ele>
        <time>2015-05-24T11:33:06Z</time>
      </trkpt>
      <trkpt lat="45.35656" lon="5.91354">
        <ele>1153.794542308</ele>
        <time>2015-05-24T11:33:11Z</time>
      </trkpt>
      <trkpt lat="45.35663" lon="5.91348">
        <ele>1155.378496031</ele>
        <time>2015-05-24T11:33:16Z</time>
      </trkpt>
      <trkpt lat="45.35671" lon="5.91346">
        <ele>1155.378496031</ele>
        <time>2015-05-24T11:33:21Z</time>
      </trkpt>
      <trkpt lat="45.35677" lon="5.91344">
        <ele>1156.894523698</ele>
        <time>2015-05-24T11:33:26Z</time>
      </trkpt>
      <trkpt lat="45.35685" lon="5.91343">
        <ele>1156.894523698</ele>
        <time>2015-05-24T11:33:31Z</time>
      </trkpt>
      <trkpt lat="45.35687" lon="5.91342">
        <ele>1157.48173237</ele>
        <time>2015-05-24T11:33:36Z</time>
      </trkpt>
      <trkpt lat="45.35688" lon="5.91343">
        <ele>1157.48173237</ele>
        <time>2015-05-24T11:33:41Z</time>
      </trkpt>
      <trkpt lat="45.35689" lon="5.91345">
        <ele>1157.48173237</ele>
        <time>2015-05-24T11:33:46Z</time>
      </trkpt>
      <trkpt lat="45.35689" lon="5.91345">
        <ele>1157.48173237</ele>
        <time>2015-05-24T11:33:51Z</time>
      </trkpt>
      <trkpt lat="45.35689" lon="5.91346">
        <ele>1157.48173237</ele>
        <time>2015-05-24T11:33:56Z</time>
      </trkpt>
      <trkpt lat="45.3569" lon="5.91346">
        <ele>1157.48173237</ele>
        <time>2015-05-24T11:34:01Z</time>
      </trkpt>
      <trkpt lat="45.3569" lon="5.91346">
        <ele>1157.48173237</ele>
        <time>2015-05-24T11:34:05Z</time>
      </trkpt>
      <trkpt lat="45.3569" lon="5.91346">
        <ele>1157.48173237</ele>
        <time>2015-05-24T11:34:11Z</time>
      </trkpt>
      <trkpt lat="45.3569" lon="5.91346">
        <ele>1157.48173237</ele>
        <time>2015-05-24T11:34:16Z</time>
      </trkpt>
      <trkpt lat="45.3569" lon="5.91346">
        <ele>1157.48173237</ele>
        <time>2015-05-24T11:34:20Z</time>
      </trkpt>
      <trkpt lat="45.3569" lon="5.91346">
        <ele>1157.48173237</ele>
        <time>2015-05-24T11:34:26Z</time>
      </trkpt>
      <trkpt lat="45.3569" lon="5.91346">
        <ele>1157.48173237</ele>
        <time>2015-05-24T11:34:31Z</time>
      </trkpt>
      <trkpt lat="45.3569" lon="5.91346">
        <ele>1157.48173237</ele>
        <time>2015-05-24T11:34:36Z</time>
      </trkpt>
      <trkpt lat="45.3569" lon="5.91346">
        <ele>1157.48173237</ele>
        <time>2015-05-24T11:34:41Z</time>
      </trkpt>
      <trkpt lat="45.3569" lon="5.91346">
        <ele>1157.48173237</ele>
        <time>2015-05-24T11:34:46Z</time>
      </trkpt>
      <trkpt lat="45.35702" lon="5.91336">
        <ele>1158.36357663</ele>
        <time>2015-05-24T11:34:51Z</time>
      </trkpt>
      <trkpt lat="45.35706" lon="5.91334">
        <ele>1158.36357663</ele>
        <time>2015-05-24T11:34:56Z</time>
      </trkpt>
      <trkpt lat="45.35708" lon="5.91334">
        <ele>1158.36357663</ele>
        <time>2015-05-24T11:35:01Z</time>
      </trkpt>
      <trkpt lat="45.35709" lon="5.91333">
        <ele>1158.36357663</ele>
        <time>2015-05-24T11:35:06Z</time>
      </trkpt>
      <trkpt lat="45.35709" lon="5.91333">
        <ele>1158.36357663</ele>
        <time>2015-05-24T11:35:11Z</time>
      </trkpt>
      <trkpt lat="45.35718" lon="5.91332">
        <ele>1159.519415412</ele>
        <time>2015-05-24T11:35:16Z</time>
      </trkpt>
      <trkpt lat="45.35727" lon="5.91328">
        <ele>1159.519415412</ele>
        <time>2015-05-24T11:35:21Z</time>
      </trkpt>
      <trkpt lat="45.35732" lon="5.91324">
        <ele>1160.929391075</ele>
        <time>2015-05-24T11:35:26Z</time>
      </trkpt>
      <trkpt lat="45.35739" lon="5.91323">
        <ele>1160.929391075</ele>
        <time>2015-05-24T11:35:31Z</time>
      </trkpt>
      <trkpt lat="45.35739" lon="5.91322">
        <ele>1160.929391075</ele>
        <time>2015-05-24T11:35:36Z</time>
      </trkpt>
      <trkpt lat="45.35743" lon="5.91322">
        <ele>1162.71861677</ele>
        <time>2015-05-24T11:35:41Z</time>
      </trkpt>
      <trkpt lat="45.35744" lon="5.91323">
        <ele>1162.71861677</ele>
        <time>2015-05-24T11:35:46Z</time>
      </trkpt>
      <trkpt lat="45.3575" lon="5.91323">
        <ele>1162.71861677</ele>
        <time>2015-05-24T11:35:51Z</time>
      </trkpt>
      <trkpt lat="45.35756" lon="5.91323">
        <ele>1164.857776489</ele>
        <time>2015-05-24T11:35:56Z</time>
      </trkpt>
      <trkpt lat="45.35758" lon="5.91318">
        <ele>1164.857776489</ele>
        <time>2015-05-24T11:36:01Z</time>
      </trkpt>
      <trkpt lat="45.3576" lon="5.91315">
        <ele>1164.857776489</ele>
        <time>2015-05-24T11:36:06Z</time>
      </trkpt>
      <trkpt lat="45.35761" lon="5.91315">
        <ele>1164.857776489</ele>
        <time>2015-05-24T11:36:11Z</time>
      </trkpt>
      <trkpt lat="45.3576" lon="5.91314">
        <ele>1164.857776489</ele>
        <time>2015-05-24T11:36:16Z</time>
      </trkpt>
      <trkpt lat="45.3576" lon="5.91314">
        <ele>1164.857776489</ele>
        <time>2015-05-24T11:36:21Z</time>
      </trkpt>
      <trkpt lat="45.3576" lon="5.91314">
        <ele>1164.857776489</ele>
        <time>2015-05-24T11:36:26Z</time>
      </trkpt>
      <trkpt lat="45.35763" lon="5.91312">
        <ele>1167.03029849</ele>
        <time>2015-05-24T11:36:31Z</time>
      </trkpt>
      <trkpt lat="45.3577" lon="5.9131">
        <ele>1167.03029849</ele>
        <time>2015-05-24T11:36:36Z</time>
      </trkpt>
      <trkpt lat="45.35779" lon="5.9131">
        <ele>1169.375430905</ele>
        <time>2015-05-24T11:36:41Z</time>
      </trkpt>
      <trkpt lat="45.35785" lon="5.91308">
        <ele>1169.375430905</ele>
        <time>2015-05-24T11:36:46Z</time>
      </trkpt>
      <trkpt lat="45.35792" lon="5.91306">
        <ele>1171.877517535</ele>
        <time>2015-05-24T11:36:51Z</time>
      </trkpt>
      <trkpt lat="45.358" lon="5.91301">
        <ele>1171.877517535</ele>
        <time>2015-05-24T11:36:57Z</time>
      </trkpt>
      <trkpt lat="45.35802" lon="5.91298">
        <ele>1175.387067459</ele>
        <time>2015-05-24T11:37:00Z</time>
      </trkpt>
      <trkpt lat="45.3581" lon="5.91297">
        <ele>1175.387067459</ele>
        <time>2015-05-24T11:37:06Z</time>
      </trkpt>
      <trkpt lat="45.35812" lon="5.91294">
        <ele>1178.669969181</ele>
        <time>2015-05-24T11:37:11Z</time>
      </trkpt>
      <trkpt lat="45.35815" lon="5.91291">
        <ele>1178.669969181</ele>
        <time>2015-05-24T11:37:16Z</time>
      </trkpt>
      <trkpt lat="45.35818" lon="5.91289">
        <ele>1178.669969181</ele>
        <time>2015-05-24T11:37:21Z</time>
      </trkpt>
      <trkpt lat="45.35815" lon="5.91285">
        <ele>1181.59314455</ele>
        <time>2015-05-24T11:37:26Z</time>
      </trkpt>
      <trkpt lat="45.35819" lon="5.91282">
        <ele>1181.59314455</ele>
        <time>2015-05-24T11:37:30Z</time>
      </trkpt>
      <trkpt lat="45.35822" lon="5.9128">
        <ele>1181.59314455</ele>
        <time>2015-05-24T11:37:35Z</time>
      </trkpt>
      <trkpt lat="45.35822" lon="5.91277">
        <ele>1183.890147612</ele>
        <time>2015-05-24T11:37:40Z</time>
      </trkpt>
      <trkpt lat="45.35826" lon="5.91274">
        <ele>1183.890147612</ele>
        <time>2015-05-24T11:37:46Z</time>
      </trkpt>
      <trkpt lat="45.35829" lon="5.91275">
        <ele>1183.890147612</ele>
        <time>2015-05-24T11:37:50Z</time>
      </trkpt>
      <trkpt lat="45.35831" lon="5.91274">
        <ele>1186.325685671</ele>
        <time>2015-05-24T11:37:57Z</time>
      </trkpt>
      <trkpt lat="45.35825" lon="5.91269">
        <ele>1186.325685671</ele>
        <time>2015-05-24T11:38:01Z</time>
      </trkpt>
      <trkpt lat="45.35826" lon="5.91274">
        <ele>1189.030958799</ele>
        <time>2015-05-24T11:38:06Z</time>
      </trkpt>
      <trkpt lat="45.3583" lon="5.91267">
        <ele>1189.030958799</ele>
        <time>2015-05-24T11:38:11Z</time>
      </trkpt>
      <trkpt lat="45.35833" lon="5.91267">
        <ele>1191.261403888</ele>
        <time>2015-05-24T11:38:16Z</time>
      </trkpt>
      <trkpt lat="45.35838" lon="5.91263">
        <ele>1191.261403888</ele>
        <time>2015-05-24T11:38:21Z</time>
      </trkpt>
      <trkpt lat="45.35838" lon="5.91261">
        <ele>1191.261403888</ele>
        <time>2015-05-24T11:38:26Z</time>
      </trkpt>
      <trkpt lat="45.35839" lon="5.91252">
        <ele>1193.482562405</ele>
        <time>2015-05-24T11:38:31Z</time>
      </trkpt>
      <trkpt lat="45.35842" lon="5.9125">
        <ele>1193.482562405</ele>
        <time>2015-05-24T11:38:36Z</time>
      </trkpt>
      <trkpt lat="45.35847" lon="5.91253">
        <ele>1193.482562405</ele>
        <time>2015-05-24T11:38:41Z</time>
      </trkpt>
      <trkpt lat="45.3585" lon="5.91249">
        <ele>1195.837361656</ele>
        <time>2015-05-24T11:38:46Z</time>
      </trkpt>
      <trkpt lat="45.35856" lon="5.91245">
        <ele>1195.837361656</ele>
        <time>2015-05-24T11:38:51Z</time>
      </trkpt>
      <trkpt lat="45.3586" lon="5.91243">
        <ele>1197.592572553</ele>
        <time>2015-05-24T11:38:56Z</time>
      </trkpt>
      <trkpt lat="45.35864" lon="5.91233">
        <ele>1197.592572553</ele>
        <time>2015-05-24T11:39:01Z</time>
      </trkpt>
      <trkpt lat="45.35868" lon="5.91231">
        <ele>1198.647615221</ele>
        <time>2015-05-24T11:39:06Z</time>
      </trkpt>
      <trkpt lat="45.35869" lon="5.91234">
        <ele>1198.647615221</ele>
        <time>2015-05-24T11:39:11Z</time>
      </trkpt>
      <trkpt lat="45.35866" lon="5.91233">
        <ele>1198.647615221</ele>
        <time>2015-05-24T11:39:16Z</time>
      </trkpt>
      <trkpt lat="45.35869" lon="5.91233">
        <ele>1198.647615221</ele>
        <time>2015-05-24T11:39:21Z</time>
      </trkpt>
      <trkpt lat="45.35869" lon="5.91231">
        <ele>1198.647615221</ele>
        <time>2015-05-24T11:39:26Z</time>
      </trkpt>
      <trkpt lat="45.3587" lon="5.91231">
        <ele>1198.647615221</ele>
        <time>2015-05-24T11:39:31Z</time>
      </trkpt>
      <trkpt lat="45.35869" lon="5.91231">
        <ele>1200.065052863</ele>
        <time>2015-05-24T11:39:36Z</time>
      </trkpt>
      <trkpt lat="45.3587" lon="5.91231">
        <ele>1200.065052863</ele>
        <time>2015-05-24T11:39:41Z</time>
      </trkpt>
      <trkpt lat="45.3587" lon="5.91231">
        <ele>1200.065052863</ele>
        <time>2015-05-24T11:39:46Z</time>
      </trkpt>
      <trkpt lat="45.3587" lon="5.91231">
        <ele>1200.065052863</ele>
        <time>2015-05-24T11:39:51Z</time>
      </trkpt>
      <trkpt lat="45.35876" lon="5.91223">
        <ele>1201.097781604</ele>
        <time>2015-05-24T11:39:56Z</time>
      </trkpt>
      <trkpt lat="45.3588" lon="5.9122">
        <ele>1201.097781604</ele>
        <time>2015-05-24T11:40:01Z</time>
      </trkpt>
      <trkpt lat="45.35879" lon="5.91219">
        <ele>1201.097781604</ele>
        <time>2015-05-24T11:40:06Z</time>
      </trkpt>
      <trkpt lat="45.3588" lon="5.91218">
        <ele>1201.097781604</ele>
        <time>2015-05-24T11:40:11Z</time>
      </trkpt>
      <trkpt lat="45.3588" lon="5.91218">
        <ele>1201.097781604</ele>
        <time>2015-05-24T11:40:16Z</time>
      </trkpt>
      <trkpt lat="45.3588" lon="5.91218">
        <ele>1201.097781604</ele>
        <time>2015-05-24T11:40:21Z</time>
      </trkpt>
      <trkpt lat="45.3588" lon="5.91218">
        <ele>1201.097781604</ele>
        <time>2015-05-24T11:40:26Z</time>
      </trkpt>
      <trkpt lat="45.3588" lon="5.91218">
        <ele>1201.097781604</ele>
        <time>2015-05-24T11:40:31Z</time>
      </trkpt>
      <trkpt lat="45.35883" lon="5.91212">
        <ele>1202.352644057</ele>
        <time>2015-05-24T11:40:36Z</time>
      </trkpt>
      <trkpt lat="45.35889" lon="5.91204">
        <ele>1202.352644057</ele>
        <time>2015-05-24T11:40:41Z</time>
      </trkpt>
      <trkpt lat="45.35891" lon="5.912">
        <ele>1203.381884296</ele>
        <time>2015-05-24T11:40:46Z</time>
      </trkpt>
      <trkpt lat="45.35895" lon="5.912">
        <ele>1203.381884296</ele>
        <time>2015-05-24T11:40:51Z</time>
      </trkpt>
      <trkpt lat="45.35897" lon="5.91194">
        <ele>1203.381884296</ele>
        <time>2015-05-24T11:40:56Z</time>
      </trkpt>
      <trkpt lat="45.35901" lon="5.91193">
        <ele>1203.915591742</ele>
        <time>2015-05-24T11:41:00Z</time>
      </trkpt>
      <trkpt lat="45.35903" lon="5.91191">
        <ele>1203.915591742</ele>
        <time>2015-05-24T11:41:06Z</time>
      </trkpt>
      <trkpt lat="45.35904" lon="5.91189">
        <ele>1203.915591742</ele>
        <time>2015-05-24T11:41:10Z</time>
      </trkpt>
      <trkpt lat="45.35905" lon="5.91188">
        <ele>1203.915591742</ele>
        <time>2015-05-24T11:41:16Z</time>
      </trkpt>
      <trkpt lat="45.35905" lon="5.91188">
        <ele>1203.915591742</ele>
        <time>2015-05-24T11:41:20Z</time>
      </trkpt>
      <trkpt lat="45.35908" lon="5.91184">
        <ele>1204.13768127</ele>
        <time>2015-05-24T11:41:26Z</time>
      </trkpt>
      <trkpt lat="45.35914" lon="5.91181">
        <ele>1204.13768127</ele>
        <time>2015-05-24T11:41:30Z</time>
      </trkpt>
      <trkpt lat="45.35915" lon="5.9118">
        <ele>1204.13768127</ele>
        <time>2015-05-24T11:41:36Z</time>
      </trkpt>
      <trkpt lat="45.35914" lon="5.91178">
        <ele>1205.084413115</ele>
        <time>2015-05-24T11:41:41Z</time>
      </trkpt>
      <trkpt lat="45.35915" lon="5.91177">
        <ele>1205.084413115</ele>
        <time>2015-05-24T11:41:46Z</time>
      </trkpt>
      <trkpt lat="45.35914" lon="5.91177">
        <ele>1205.084413115</ele>
        <time>2015-05-24T11:41:51Z</time>
      </trkpt>
      <trkpt lat="45.35915" lon="5.91177">
        <ele>1205.084413115</ele>
        <time>2015-05-24T11:41:56Z</time>
      </trkpt>
      <trkpt lat="45.35915" lon="5.91177">
        <ele>1205.084413115</ele>
        <time>2015-05-24T11:42:01Z</time>
      </trkpt>
      <trkpt lat="45.35915" lon="5.91177">
        <ele>1205.084413115</ele>
        <time>2015-05-24T11:42:06Z</time>
      </trkpt>
      <trkpt lat="45.35915" lon="5.91176">
        <ele>1205.084413115</ele>
        <time>2015-05-24T11:42:11Z</time>
      </trkpt>
      <trkpt lat="45.35917" lon="5.91175">
        <ele>1205.084413115</ele>
        <time>2015-05-24T11:42:16Z</time>
      </trkpt>
      <trkpt lat="45.35929" lon="5.9116">
        <ele>1206.127950361</ele>
        <time>2015-05-24T11:42:21Z</time>
      </trkpt>
      <trkpt lat="45.35948" lon="5.91158">
        <ele>1206.974733428</ele>
        <time>2015-05-24T11:42:26Z</time>
      </trkpt>
      <trkpt lat="45.35949" lon="5.91148">
        <ele>1206.974733428</ele>
        <time>2015-05-24T11:42:31Z</time>
      </trkpt>
      <trkpt lat="45.35938" lon="5.91129">
        <ele>1208.074103195</ele>
        <time>2015-05-24T11:42:36Z</time>
      </trkpt>
      <trkpt lat="45.35937" lon="5.91135">
        <ele>1208.074103195</ele>
        <time>2015-05-24T11:42:41Z</time>
      </trkpt>
      <trkpt lat="45.35938" lon="5.91136">
        <ele>1208.074103195</ele>
        <time>2015-05-24T11:42:46Z</time>
      </trkpt>
      <trkpt lat="45.3594" lon="5.91138">
        <ele>1208.074103195</ele>
        <time>2015-05-24T11:42:51Z</time>
      </trkpt>
      <trkpt lat="45.35942" lon="5.91138">
        <ele>1208.688465973</ele>
        <time>2015-05-24T11:42:56Z</time>
      </trkpt>
      <trkpt lat="45.35943" lon="5.91138">
        <ele>1208.688465973</ele>
        <time>2015-05-24T11:43:01Z</time>
      </trkpt>
      <trkpt lat="45.35943" lon="5.91138">
        <ele>1208.688465973</ele>
        <time>2015-05-24T11:43:06Z</time>
      </trkpt>
      <trkpt lat="45.35943" lon="5.91138">
        <ele>1208.688465973</ele>
        <time>2015-05-24T11:43:11Z</time>
      </trkpt>
      <trkpt lat="45.35943" lon="5.91138">
        <ele>1208.688465973</ele>
        <time>2015-05-24T11:43:16Z</time>
      </trkpt>
      <trkpt lat="45.35943" lon="5.91138">
        <ele>1208.688465973</ele>
        <time>2015-05-24T11:43:21Z</time>
      </trkpt>
      <trkpt lat="45.35943" lon="5.91137">
        <ele>1208.688465973</ele>
        <time>2015-05-24T11:43:26Z</time>
      </trkpt>
      <trkpt lat="45.35943" lon="5.91137">
        <ele>1208.688465973</ele>
        <time>2015-05-24T11:43:31Z</time>
      </trkpt>
      <trkpt lat="45.35943" lon="5.91137">
        <ele>1208.688465973</ele>
        <time>2015-05-24T11:43:36Z</time>
      </trkpt>
      <trkpt lat="45.35943" lon="5.91137">
        <ele>1208.688465973</ele>
        <time>2015-05-24T11:43:41Z</time>
      </trkpt>
      <trkpt lat="45.35943" lon="5.91137">
        <ele>1208.688465973</ele>
        <time>2015-05-24T11:43:46Z</time>
      </trkpt>
      <trkpt lat="45.35943" lon="5.91137">
        <ele>1208.688465973</ele>
        <time>2015-05-24T11:43:51Z</time>
      </trkpt>
      <trkpt lat="45.35943" lon="5.91137">
        <ele>1208.688465973</ele>
        <time>2015-05-24T11:43:56Z</time>
      </trkpt>
      <trkpt lat="45.35943" lon="5.91137">
        <ele>1208.688465973</ele>
        <time>2015-05-24T11:44:01Z</time>
      </trkpt>
      <trkpt lat="45.35942" lon="5.91137">
        <ele>1208.688465973</ele>
        <time>2015-05-24T11:44:06Z</time>
      </trkpt>
      <trkpt lat="45.35937" lon="5.91138">
        <ele>1208.688465973</ele>
        <time>2015-05-24T11:44:11Z</time>
      </trkpt>
      <trkpt lat="45.3593" lon="5.91141">
        <ele>1210.153784222</ele>
        <time>2015-05-24T11:44:16Z</time>
      </trkpt>
      <trkpt lat="45.35924" lon="5.91142">
        <ele>1210.153784222</ele>
        <time>2015-05-24T11:44:21Z</time>
      </trkpt>
      <trkpt lat="45.35915" lon="5.91134">
        <ele>1211.687446777</ele>
        <time>2015-05-24T11:44:26Z</time>
      </trkpt>
      <trkpt lat="45.35907" lon="5.91138">
        <ele>1213.573119745</ele>
        <time>2015-05-24T11:44:31Z</time>
      </trkpt>
      <trkpt lat="45.35903" lon="5.91134">
        <ele>1213.573119745</ele>
        <time>2015-05-24T11:44:36Z</time>
      </trkpt>
      <trkpt lat="45.35902" lon="5.91132">
        <ele>1213.573119745</ele>
        <time>2015-05-24T11:44:40Z</time>
      </trkpt>
      <trkpt lat="45.35899" lon="5.91132">
        <ele>1215.351968692</ele>
        <time>2015-05-24T11:44:46Z</time>
      </trkpt>
      <trkpt lat="45.359" lon="5.91131">
        <ele>1215.351968692</ele>
        <time>2015-05-24T11:44:50Z</time>
      </trkpt>
      <trkpt lat="45.35899" lon="5.91131">
        <ele>1215.351968692</ele>
        <time>2015-05-24T11:44:55Z</time>
      </trkpt>
      <trkpt lat="45.35899" lon="5.91131">
        <ele>1215.351968692</ele>
        <time>2015-05-24T11:45:02Z</time>
      </trkpt>
      <trkpt lat="45.35899" lon="5.91131">
        <ele>1215.351968692</ele>
        <time>2015-05-24T11:45:06Z</time>
      </trkpt>
      <trkpt lat="45.35899" lon="5.91131">
        <ele>1215.351968692</ele>
        <time>2015-05-24T11:45:11Z</time>
      </trkpt>
      <trkpt lat="45.35899" lon="5.91131">
        <ele>1215.351968692</ele>
        <time>2015-05-24T11:45:16Z</time>
      </trkpt>
      <trkpt lat="45.35895" lon="5.91129">
        <ele>1215.351968692</ele>
        <time>2015-05-24T11:45:21Z</time>
      </trkpt>
      <trkpt lat="45.35887" lon="5.91122">
        <ele>1218.040417579</ele>
        <time>2015-05-24T11:45:26Z</time>
      </trkpt>
      <trkpt lat="45.35882" lon="5.91115">
        <ele>1218.040417579</ele>
        <time>2015-05-24T11:45:31Z</time>
      </trkpt>
      <trkpt lat="45.35878" lon="5.91111">
        <ele>1222.145233123</ele>
        <time>2015-05-24T11:45:36Z</time>
      </trkpt>
      <trkpt lat="45.35873" lon="5.91108">
        <ele>1222.145233123</ele>
        <time>2015-05-24T11:45:41Z</time>
      </trkpt>
      <trkpt lat="45.35867" lon="5.91111">
        <ele>1226.690782343</ele>
        <time>2015-05-24T11:45:46Z</time>
      </trkpt>
      <trkpt lat="45.35862" lon="5.91108">
        <ele>1226.690782343</ele>
        <time>2015-05-24T11:45:51Z</time>
      </trkpt>
      <trkpt lat="45.35863" lon="5.91103">
        <ele>1226.690782343</ele>
        <time>2015-05-24T11:45:56Z</time>
      </trkpt>
      <trkpt lat="45.35865" lon="5.91099">
        <ele>1231.348407874</ele>
        <time>2015-05-24T11:46:01Z</time>
      </trkpt>
      <trkpt lat="45.35864" lon="5.91098">
        <ele>1231.348407874</ele>
        <time>2015-05-24T11:46:06Z</time>
      </trkpt>
      <trkpt lat="45.35863" lon="5.91097">
        <ele>1231.348407874</ele>
        <time>2015-05-24T11:46:11Z</time>
      </trkpt>
      <trkpt lat="45.35863" lon="5.91096">
        <ele>1231.348407874</ele>
        <time>2015-05-24T11:46:16Z</time>
      </trkpt>
      <trkpt lat="45.35857" lon="5.9109">
        <ele>1236.533910292</ele>
        <time>2015-05-24T11:46:21Z</time>
      </trkpt>
      <trkpt lat="45.35854" lon="5.91084">
        <ele>1236.533910292</ele>
        <time>2015-05-24T11:46:26Z</time>
      </trkpt>
      <trkpt lat="45.3585" lon="5.91078">
        <ele>1241.766427602</ele>
        <time>2015-05-24T11:46:31Z</time>
      </trkpt>
      <trkpt lat="45.3585" lon="5.91076">
        <ele>1241.766427602</ele>
        <time>2015-05-24T11:46:36Z</time>
      </trkpt>
      <trkpt lat="45.35851" lon="5.91074">
        <ele>1241.766427602</ele>
        <time>2015-05-24T11:46:41Z</time>
      </trkpt>
      <trkpt lat="45.3585" lon="5.9107">
        <ele>1241.766427602</ele>
        <time>2015-05-24T11:46:46Z</time>
      </trkpt>
      <trkpt lat="45.35846" lon="5.91063">
        <ele>1246.60038517</ele>
        <time>2015-05-24T11:46:51Z</time>
      </trkpt>
      <trkpt lat="45.35845" lon="5.91058">
        <ele>1246.60038517</ele>
        <time>2015-05-24T11:46:56Z</time>
      </trkpt>
      <trkpt lat="45.35844" lon="5.91052">
        <ele>1246.60038517</ele>
        <time>2015-05-24T11:47:01Z</time>
      </trkpt>
      <trkpt lat="45.35845" lon="5.91043">
        <ele>1251.77707229</ele>
        <time>2015-05-24T11:47:06Z</time>
      </trkpt>
      <trkpt lat="45.35841" lon="5.91042">
        <ele>1251.77707229</ele>
        <time>2015-05-24T11:47:11Z</time>
      </trkpt>
      <trkpt lat="45.35839" lon="5.91041">
        <ele>1251.77707229</ele>
        <time>2015-05-24T11:47:16Z</time>
      </trkpt>
      <trkpt lat="45.35839" lon="5.91037">
        <ele>1251.77707229</ele>
        <time>2015-05-24T11:47:21Z</time>
      </trkpt>
      <trkpt lat="45.35837" lon="5.9103">
        <ele>1256.541348927</ele>
        <time>2015-05-24T11:47:26Z</time>
      </trkpt>
      <trkpt lat="45.35835" lon="5.91026">
        <ele>1256.541348927</ele>
        <time>2015-05-24T11:47:31Z</time>
      </trkpt>
      <trkpt lat="45.35833" lon="5.91023">
        <ele>1256.541348927</ele>
        <time>2015-05-24T11:47:36Z</time>
      </trkpt>
      <trkpt lat="45.35833" lon="5.91019">
        <ele>1261.347750462</ele>
        <time>2015-05-24T11:47:41Z</time>
      </trkpt>
      <trkpt lat="45.35835" lon="5.91014">
        <ele>1261.347750462</ele>
        <time>2015-05-24T11:47:46Z</time>
      </trkpt>
      <trkpt lat="45.35835" lon="5.9101">
        <ele>1261.347750462</ele>
        <time>2015-05-24T11:47:51Z</time>
      </trkpt>
      <trkpt lat="45.35834" lon="5.91005">
        <ele>1266.617458129</ele>
        <time>2015-05-24T11:47:56Z</time>
      </trkpt>
      <trkpt lat="45.35833" lon="5.91001">
        <ele>1266.617458129</ele>
        <time>2015-05-24T11:48:01Z</time>
      </trkpt>
      <trkpt lat="45.35834" lon="5.90996">
        <ele>1266.617458129</ele>
        <time>2015-05-24T11:48:05Z</time>
      </trkpt>
      <trkpt lat="45.35831" lon="5.90993">
        <ele>1271.442571046</ele>
        <time>2015-05-24T11:48:10Z</time>
      </trkpt>
      <trkpt lat="45.35832" lon="5.90992">
        <ele>1271.442571046</ele>
        <time>2015-05-24T11:48:16Z</time>
      </trkpt>
      <trkpt lat="45.35833" lon="5.90986">
        <ele>1271.442571046</ele>
        <time>2015-05-24T11:48:21Z</time>
      </trkpt>
      <trkpt lat="45.35832" lon="5.90979">
        <ele>1275.559759803</ele>
        <time>2015-05-24T11:48:26Z</time>
      </trkpt>
      <trkpt lat="45.35834" lon="5.90976">
        <ele>1275.559759803</ele>
        <time>2015-05-24T11:48:31Z</time>
      </trkpt>
      <trkpt lat="45.35834" lon="5.90973">
        <ele>1275.559759803</ele>
        <time>2015-05-24T11:48:36Z</time>
      </trkpt>
      <trkpt lat="45.35837" lon="5.90968">
        <ele>1279.591890182</ele>
        <time>2015-05-24T11:48:41Z</time>
      </trkpt>
      <trkpt lat="45.35835" lon="5.90966">
        <ele>1279.591890182</ele>
        <time>2015-05-24T11:48:46Z</time>
      </trkpt>
      <trkpt lat="45.35832" lon="5.90967">
        <ele>1279.591890182</ele>
        <time>2015-05-24T11:48:51Z</time>
      </trkpt>
      <trkpt lat="45.35836" lon="5.90978">
        <ele>1284.548849399</ele>
        <time>2015-05-24T11:48:56Z</time>
      </trkpt>
      <trkpt lat="45.35833" lon="5.90977">
        <ele>1284.548849399</ele>
        <time>2015-05-24T11:49:01Z</time>
      </trkpt>
      <trkpt lat="45.35835" lon="5.90973">
        <ele>1284.548849399</ele>
        <time>2015-05-24T11:49:06Z</time>
      </trkpt>
      <trkpt lat="45.35834" lon="5.90971">
        <ele>1284.548849399</ele>
        <time>2015-05-24T11:49:11Z</time>
      </trkpt>
      <trkpt lat="45.35834" lon="5.90971">
        <ele>1284.548849399</ele>
        <time>2015-05-24T11:49:16Z</time>
      </trkpt>
      <trkpt lat="45.35835" lon="5.9097">
        <ele>1284.548849399</ele>
        <time>2015-05-24T11:49:21Z</time>
      </trkpt>
      <trkpt lat="45.35837" lon="5.9096">
        <ele>1288.769907046</ele>
        <time>2015-05-24T11:49:26Z</time>
      </trkpt>
      <trkpt lat="45.35836" lon="5.90952">
        <ele>1288.769907046</ele>
        <time>2015-05-24T11:49:31Z</time>
      </trkpt>
      <trkpt lat="45.35835" lon="5.90954">
        <ele>1288.769907046</ele>
        <time>2015-05-24T11:49:36Z</time>
      </trkpt>
      <trkpt lat="45.35833" lon="5.90954">
        <ele>1288.769907046</ele>
        <time>2015-05-24T11:49:41Z</time>
      </trkpt>
      <trkpt lat="45.35833" lon="5.90951">
        <ele>1293.600863063</ele>
        <time>2015-05-24T11:49:46Z</time>
      </trkpt>
      <trkpt lat="45.35834" lon="5.9095">
        <ele>1293.600863063</ele>
        <time>2015-05-24T11:49:51Z</time>
      </trkpt>
      <trkpt lat="45.35834" lon="5.9095">
        <ele>1293.600863063</ele>
        <time>2015-05-24T11:49:56Z</time>
      </trkpt>
      <trkpt lat="45.35833" lon="5.9095">
        <ele>1293.600863063</ele>
        <time>2015-05-24T11:50:01Z</time>
      </trkpt>
      <trkpt lat="45.3583" lon="5.90939">
        <ele>1296.540191331</ele>
        <time>2015-05-24T11:50:06Z</time>
      </trkpt>
      <trkpt lat="45.35824" lon="5.90927">
        <ele>1298.878478948</ele>
        <time>2015-05-24T11:50:11Z</time>
      </trkpt>
      <trkpt lat="45.35817" lon="5.90922">
        <ele>1298.878478948</ele>
        <time>2015-05-24T11:50:16Z</time>
      </trkpt>
      <trkpt lat="45.35817" lon="5.90909">
        <ele>1300.804590704</ele>
        <time>2015-05-24T11:50:21Z</time>
      </trkpt>
      <trkpt lat="45.35813" lon="5.90912">
        <ele>1300.804590704</ele>
        <time>2015-05-24T11:50:26Z</time>
      </trkpt>
      <trkpt lat="45.35811" lon="5.90904">
        <ele>1302.206624018</ele>
        <time>2015-05-24T11:50:31Z</time>
      </trkpt>
      <trkpt lat="45.35806" lon="5.90907">
        <ele>1302.206624018</ele>
        <time>2015-05-24T11:50:36Z</time>
      </trkpt>
      <trkpt lat="45.35808" lon="5.90897">
        <ele>1304.423674999</ele>
        <time>2015-05-24T11:50:41Z</time>
      </trkpt>
      <trkpt lat="45.35805" lon="5.90895">
        <ele>1304.423674999</ele>
        <time>2015-05-24T11:50:46Z</time>
      </trkpt>
      <trkpt lat="45.35807" lon="5.90891">
        <ele>1304.423674999</ele>
        <time>2015-05-24T11:50:51Z</time>
      </trkpt>
      <trkpt lat="45.35805" lon="5.90888">
        <ele>1307.397295679</ele>
        <time>2015-05-24T11:50:56Z</time>
      </trkpt>
      <trkpt lat="45.35805" lon="5.90879">
        <ele>1307.397295679</ele>
        <time>2015-05-24T11:51:01Z</time>
      </trkpt>
      <trkpt lat="45.35804" lon="5.90875">
        <ele>1309.918417521</ele>
        <time>2015-05-24T11:51:06Z</time>
      </trkpt>
      <trkpt lat="45.35804" lon="5.90874">
        <ele>1309.918417521</ele>
        <time>2015-05-24T11:51:10Z</time>
      </trkpt>
      <trkpt lat="45.35802" lon="5.90871">
        <ele>1309.918417521</ele>
        <time>2015-05-24T11:51:16Z</time>
      </trkpt>
      <trkpt lat="45.35802" lon="5.9087">
        <ele>1309.918417521</ele>
        <time>2015-05-24T11:51:20Z</time>
      </trkpt>
      <trkpt lat="45.35801" lon="5.90869">
        <ele>1309.918417521</ele>
        <time>2015-05-24T11:51:25Z</time>
      </trkpt>
      <trkpt lat="45.358" lon="5.90866">
        <ele>1309.918417521</ele>
        <time>2015-05-24T11:51:31Z</time>
      </trkpt>
      <trkpt lat="45.3579" lon="5.90856">
        <ele>1311.444632715</ele>
        <time>2015-05-24T11:51:35Z</time>
      </trkpt>
      <trkpt lat="45.35792" lon="5.90849">
        <ele>1311.444632715</ele>
        <time>2015-05-24T11:51:41Z</time>
      </trkpt>
      <trkpt lat="45.35791" lon="5.90847">
        <ele>1311.444632715</ele>
        <time>2015-05-24T11:51:46Z</time>
      </trkpt>
      <trkpt lat="45.35795" lon="5.90845">
        <ele>1313.349764197</ele>
        <time>2015-05-24T11:51:51Z</time>
      </trkpt>
      <trkpt lat="45.35797" lon="5.90842">
        <ele>1313.349764197</ele>
        <time>2015-05-24T11:51:56Z</time>
      </trkpt>
      <trkpt lat="45.35799" lon="5.90838">
        <ele>1313.349764197</ele>
        <time>2015-05-24T11:52:01Z</time>
      </trkpt>
      <trkpt lat="45.35801" lon="5.90836">
        <ele>1313.349764197</ele>
        <time>2015-05-24T11:52:06Z</time>
      </trkpt>
      <trkpt lat="45.35799" lon="5.90828">
        <ele>1314.888127366</ele>
        <time>2015-05-24T11:52:11Z</time>
      </trkpt>
      <trkpt lat="45.35804" lon="5.90826">
        <ele>1314.888127366</ele>
        <time>2015-05-24T11:52:16Z</time>
      </trkpt>
      <trkpt lat="45.35801" lon="5.9082">
        <ele>1316.234604272</ele>
        <time>2015-05-24T11:52:21Z</time>
      </trkpt>
      <trkpt lat="45.35803" lon="5.90816">
        <ele>1316.234604272</ele>
        <time>2015-05-24T11:52:26Z</time>
      </trkpt>
      <trkpt lat="45.35801" lon="5.90812">
        <ele>1316.234604272</ele>
        <time>2015-05-24T11:52:31Z</time>
      </trkpt>
      <trkpt lat="45.35804" lon="5.90811">
        <ele>1317.551820764</ele>
        <time>2015-05-24T11:52:36Z</time>
      </trkpt>
      <trkpt lat="45.35805" lon="5.90809">
        <ele>1317.551820764</ele>
        <time>2015-05-24T11:52:41Z</time>
      </trkpt>
      <trkpt lat="45.35804" lon="5.90809">
        <ele>1317.551820764</ele>
        <time>2015-05-24T11:52:46Z</time>
      </trkpt>
      <trkpt lat="45.35804" lon="5.90808">
        <ele>1317.551820764</ele>
        <time>2015-05-24T11:52:51Z</time>
      </trkpt>
      <trkpt lat="45.35804" lon="5.90808">
        <ele>1317.551820764</ele>
        <time>2015-05-24T11:52:56Z</time>
      </trkpt>
      <trkpt lat="45.35804" lon="5.90808">
        <ele>1317.551820764</ele>
        <time>2015-05-24T11:53:01Z</time>
      </trkpt>
      <trkpt lat="45.35804" lon="5.90808">
        <ele>1317.551820764</ele>
        <time>2015-05-24T11:53:06Z</time>
      </trkpt>
      <trkpt lat="45.35802" lon="5.90802">
        <ele>1317.551820764</ele>
        <time>2015-05-24T11:53:11Z</time>
      </trkpt>
      <trkpt lat="45.35803" lon="5.90798">
        <ele>1319.711147346</ele>
        <time>2015-05-24T11:53:16Z</time>
      </trkpt>
      <trkpt lat="45.35802" lon="5.90798">
        <ele>1319.711147346</ele>
        <time>2015-05-24T11:53:21Z</time>
      </trkpt>
      <trkpt lat="45.35802" lon="5.90798">
        <ele>1319.711147346</ele>
        <time>2015-05-24T11:53:26Z</time>
      </trkpt>
      <trkpt lat="45.35802" lon="5.90798">
        <ele>1319.711147346</ele>
        <time>2015-05-24T11:53:31Z</time>
      </trkpt>
      <trkpt lat="45.35803" lon="5.90799">
        <ele>1319.711147346</ele>
        <time>2015-05-24T11:53:36Z</time>
      </trkpt>
      <trkpt lat="45.35803" lon="5.90799">
        <ele>1319.711147346</ele>
        <time>2015-05-24T11:53:41Z</time>
      </trkpt>
      <trkpt lat="45.35803" lon="5.90799">
        <ele>1319.711147346</ele>
        <time>2015-05-24T11:53:46Z</time>
      </trkpt>
      <trkpt lat="45.35803" lon="5.90799">
        <ele>1319.711147346</ele>
        <time>2015-05-24T11:53:51Z</time>
      </trkpt>
      <trkpt lat="45.35803" lon="5.90799">
        <ele>1319.711147346</ele>
        <time>2015-05-24T11:53:56Z</time>
      </trkpt>
      <trkpt lat="45.35803" lon="5.90799">
        <ele>1319.711147346</ele>
        <time>2015-05-24T11:54:01Z</time>
      </trkpt>
      <trkpt lat="45.35803" lon="5.90799">
        <ele>1319.711147346</ele>
        <time>2015-05-24T11:54:06Z</time>
      </trkpt>
      <trkpt lat="45.35803" lon="5.90799">
        <ele>1319.711147346</ele>
        <time>2015-05-24T11:54:11Z</time>
      </trkpt>
      <trkpt lat="45.35803" lon="5.90799">
        <ele>1319.711147346</ele>
        <time>2015-05-24T11:54:16Z</time>
      </trkpt>
      <trkpt lat="45.35803" lon="5.90799">
        <ele>1319.711147346</ele>
        <time>2015-05-24T11:54:21Z</time>
      </trkpt>
      <trkpt lat="45.35803" lon="5.90794">
        <ele>1319.711147346</ele>
        <time>2015-05-24T11:54:26Z</time>
      </trkpt>
      <trkpt lat="45.35802" lon="5.90785">
        <ele>1322.797031667</ele>
        <time>2015-05-24T11:54:31Z</time>
      </trkpt>
      <trkpt lat="45.35798" lon="5.90774">
        <ele>1322.797031667</ele>
        <time>2015-05-24T11:54:35Z</time>
      </trkpt>
      <trkpt lat="45.35796" lon="5.90768">
        <ele>1324.723422836</ele>
        <time>2015-05-24T11:54:40Z</time>
      </trkpt>
      <trkpt lat="45.35794" lon="5.90765">
        <ele>1324.723422836</ele>
        <time>2015-05-24T11:54:46Z</time>
      </trkpt>
      <trkpt lat="45.35792" lon="5.90763">
        <ele>1324.723422836</ele>
        <time>2015-05-24T11:54:50Z</time>
      </trkpt>
      <trkpt lat="45.35788" lon="5.90769">
        <ele>1327.595971265</ele>
        <time>2015-05-24T11:54:56Z</time>
      </trkpt>
      <trkpt lat="45.35785" lon="5.90767">
        <ele>1327.595971265</ele>
        <time>2015-05-24T11:55:01Z</time>
      </trkpt>
      <trkpt lat="45.35784" lon="5.90766">
        <ele>1327.595971265</ele>
        <time>2015-05-24T11:55:06Z</time>
      </trkpt>
      <trkpt lat="45.35784" lon="5.90768">
        <ele>1327.595971265</ele>
        <time>2015-05-24T11:55:11Z</time>
      </trkpt>
      <trkpt lat="45.35785" lon="5.90769">
        <ele>1327.595971265</ele>
        <time>2015-05-24T11:55:16Z</time>
      </trkpt>
      <trkpt lat="45.35785" lon="5.90769">
        <ele>1327.595971265</ele>
        <time>2015-05-24T11:55:21Z</time>
      </trkpt>
      <trkpt lat="45.35785" lon="5.90769">
        <ele>1327.595971265</ele>
        <time>2015-05-24T11:55:26Z</time>
      </trkpt>
      <trkpt lat="45.35785" lon="5.90769">
        <ele>1327.595971265</ele>
        <time>2015-05-24T11:55:31Z</time>
      </trkpt>
      <trkpt lat="45.35785" lon="5.90769">
        <ele>1327.595971265</ele>
        <time>2015-05-24T11:55:36Z</time>
      </trkpt>
      <trkpt lat="45.35785" lon="5.90769">
        <ele>1327.595971265</ele>
        <time>2015-05-24T11:55:41Z</time>
      </trkpt>
      <trkpt lat="45.35785" lon="5.9077">
        <ele>1327.595971265</ele>
        <time>2015-05-24T11:55:46Z</time>
      </trkpt>
      <trkpt lat="45.35786" lon="5.90769">
        <ele>1327.595971265</ele>
        <time>2015-05-24T11:55:51Z</time>
      </trkpt>
      <trkpt lat="45.35786" lon="5.90769">
        <ele>1327.595971265</ele>
        <time>2015-05-24T11:55:56Z</time>
      </trkpt>
      <trkpt lat="45.35786" lon="5.90769">
        <ele>1327.595971265</ele>
        <time>2015-05-24T11:56:01Z</time>
      </trkpt>
      <trkpt lat="45.35786" lon="5.90769">
        <ele>1327.595971265</ele>
        <time>2015-05-24T11:56:06Z</time>
      </trkpt>
      <trkpt lat="45.35786" lon="5.90769">
        <ele>1327.595971265</ele>
        <time>2015-05-24T11:56:11Z</time>
      </trkpt>
      <trkpt lat="45.35786" lon="5.90769">
        <ele>1327.595971265</ele>
        <time>2015-05-24T11:56:16Z</time>
      </trkpt>
      <trkpt lat="45.35786" lon="5.90769">
        <ele>1327.595971265</ele>
        <time>2015-05-24T11:56:21Z</time>
      </trkpt>
      <trkpt lat="45.35786" lon="5.90769">
        <ele>1327.595971265</ele>
        <time>2015-05-24T11:56:26Z</time>
      </trkpt>
      <trkpt lat="45.35783" lon="5.90771">
        <ele>1331.345396768</ele>
        <time>2015-05-24T11:56:31Z</time>
      </trkpt>
      <trkpt lat="45.35781" lon="5.90764">
        <ele>1331.345396768</ele>
        <time>2015-05-24T11:56:36Z</time>
      </trkpt>
      <trkpt lat="45.35775" lon="5.90757">
        <ele>1335.040375062</ele>
        <time>2015-05-24T11:56:41Z</time>
      </trkpt>
      <trkpt lat="45.35773" lon="5.90756">
        <ele>1335.040375062</ele>
        <time>2015-05-24T11:56:46Z</time>
      </trkpt>
      <trkpt lat="45.35769" lon="5.90755">
        <ele>1335.040375062</ele>
        <time>2015-05-24T11:56:51Z</time>
      </trkpt>
      <trkpt lat="45.35767" lon="5.90748">
        <ele>1338.394615512</ele>
        <time>2015-05-24T11:56:56Z</time>
      </trkpt>
      <trkpt lat="45.35761" lon="5.90746">
        <ele>1338.394615512</ele>
        <time>2015-05-24T11:57:01Z</time>
      </trkpt>
      <trkpt lat="45.35761" lon="5.90744">
        <ele>1338.394615512</ele>
        <time>2015-05-24T11:57:06Z</time>
      </trkpt>
      <trkpt lat="45.3576" lon="5.90738">
        <ele>1341.287939492</ele>
        <time>2015-05-24T11:57:11Z</time>
      </trkpt>
      <trkpt lat="45.35758" lon="5.90734">
        <ele>1341.287939492</ele>
        <time>2015-05-24T11:57:16Z</time>
      </trkpt>
      <trkpt lat="45.35756" lon="5.90732">
        <ele>1341.287939492</ele>
        <time>2015-05-24T11:57:21Z</time>
      </trkpt>
      <trkpt lat="45.35753" lon="5.90728">
        <ele>1343.61030226</ele>
        <time>2015-05-24T11:57:26Z</time>
      </trkpt>
      <trkpt lat="45.35754" lon="5.90721">
        <ele>1343.61030226</ele>
        <time>2015-05-24T11:57:31Z</time>
      </trkpt>
      <trkpt lat="45.3575" lon="5.90723">
        <ele>1346.126031837</ele>
        <time>2015-05-24T11:57:36Z</time>
      </trkpt>
      <trkpt lat="45.3575" lon="5.90718">
        <ele>1346.126031837</ele>
        <time>2015-05-24T11:57:41Z</time>
      </trkpt>
      <trkpt lat="45.35748" lon="5.90709">
        <ele>1348.678095977</ele>
        <time>2015-05-24T11:57:46Z</time>
      </trkpt>
      <trkpt lat="45.35744" lon="5.90708">
        <ele>1348.678095977</ele>
        <time>2015-05-24T11:57:51Z</time>
      </trkpt>
      <trkpt lat="45.35742" lon="5.90704">
        <ele>1348.678095977</ele>
        <time>2015-05-24T11:57:56Z</time>
      </trkpt>
      <trkpt lat="45.35741" lon="5.90701">
        <ele>1351.409125291</ele>
        <time>2015-05-24T11:58:02Z</time>
      </trkpt>
      <trkpt lat="45.3574" lon="5.90697">
        <ele>1351.409125291</ele>
        <time>2015-05-24T11:58:05Z</time>
      </trkpt>
      <trkpt lat="45.35736" lon="5.90693">
        <ele>1351.409125291</ele>
        <time>2015-05-24T11:58:11Z</time>
      </trkpt>
      <trkpt lat="45.35735" lon="5.90685">
        <ele>1353.730209107</ele>
        <time>2015-05-24T11:58:16Z</time>
      </trkpt>
      <trkpt lat="45.35733" lon="5.9068">
        <ele>1353.730209107</ele>
        <time>2015-05-24T11:58:21Z</time>
      </trkpt>
      <trkpt lat="45.35732" lon="5.90677">
        <ele>1353.730209107</ele>
        <time>2015-05-24T11:58:26Z</time>
      </trkpt>
      <trkpt lat="45.35731" lon="5.90675">
        <ele>1353.730209107</ele>
        <time>2015-05-24T11:58:31Z</time>
      </trkpt>
      <trkpt lat="45.35732" lon="5.90672">
        <ele>1355.961517415</ele>
        <time>2015-05-24T11:58:36Z</time>
      </trkpt>
      <trkpt lat="45.3573" lon="5.90665">
        <ele>1355.961517415</ele>
        <time>2015-05-24T11:58:41Z</time>
      </trkpt>
      <trkpt lat="45.3573" lon="5.90663">
        <ele>1355.961517415</ele>
        <time>2015-05-24T11:58:46Z</time>
      </trkpt>
      <trkpt lat="45.35728" lon="5.90662">
        <ele>1355.961517415</ele>
        <time>2015-05-24T11:58:51Z</time>
      </trkpt>
      <trkpt lat="45.35727" lon="5.90662">
        <ele>1358.255830614</ele>
        <time>2015-05-24T11:58:56Z</time>
      </trkpt>
      <trkpt lat="45.35727" lon="5.90662">
        <ele>1358.255830614</ele>
        <time>2015-05-24T11:59:01Z</time>
      </trkpt>
      <trkpt lat="45.35727" lon="5.9065">
        <ele>1358.255830614</ele>
        <time>2015-05-24T11:59:06Z</time>
      </trkpt>
      <trkpt lat="45.35721" lon="5.90641">
        <ele>1360.898627678</ele>
        <time>2015-05-24T11:59:11Z</time>
      </trkpt>
      <trkpt lat="45.35718" lon="5.90634">
        <ele>1360.898627678</ele>
        <time>2015-05-24T11:59:16Z</time>
      </trkpt>
      <trkpt lat="45.35714" lon="5.90631">
        <ele>1363.144639502</ele>
        <time>2015-05-24T11:59:21Z</time>
      </trkpt>
      <trkpt lat="45.35709" lon="5.90625">
        <ele>1363.144639502</ele>
        <time>2015-05-24T11:59:26Z</time>
      </trkpt>
      <trkpt lat="45.3571" lon="5.9062">
        <ele>1365.745554018</ele>
        <time>2015-05-24T11:59:31Z</time>
      </trkpt>
      <trkpt lat="45.35709" lon="5.90614">
        <ele>1365.745554018</ele>
        <time>2015-05-24T11:59:36Z</time>
      </trkpt>
      <trkpt lat="45.35711" lon="5.90611">
        <ele>1365.745554018</ele>
        <time>2015-05-24T11:59:41Z</time>
      </trkpt>
      <trkpt lat="45.35709" lon="5.90611">
        <ele>1367.811593341</ele>
        <time>2015-05-24T11:59:46Z</time>
      </trkpt>
      <trkpt lat="45.35709" lon="5.9061">
        <ele>1367.811593341</ele>
        <time>2015-05-24T11:59:51Z</time>
      </trkpt>
      <trkpt lat="45.35709" lon="5.90611">
        <ele>1367.811593341</ele>
        <time>2015-05-24T11:59:56Z</time>
      </trkpt>
      <trkpt lat="45.35709" lon="5.90611">
        <ele>1367.811593341</ele>
        <time>2015-05-24T12:00:01Z</time>
      </trkpt>
      <trkpt lat="45.35708" lon="5.90608">
        <ele>1367.811593341</ele>
        <time>2015-05-24T12:00:06Z</time>
      </trkpt>
      <trkpt lat="45.35702" lon="5.90599">
        <ele>1368.952149619</ele>
        <time>2015-05-24T12:00:11Z</time>
      </trkpt>
      <trkpt lat="45.35698" lon="5.90596">
        <ele>1368.952149619</ele>
        <time>2015-05-24T12:00:16Z</time>
      </trkpt>
      <trkpt lat="45.35698" lon="5.9059">
        <ele>1368.952149619</ele>
        <time>2015-05-24T12:00:21Z</time>
      </trkpt>
      <trkpt lat="45.35693" lon="5.90585">
        <ele>1370.537206887</ele>
        <time>2015-05-24T12:00:26Z</time>
      </trkpt>
      <trkpt lat="45.35693" lon="5.9058">
        <ele>1370.537206887</ele>
        <time>2015-05-24T12:00:31Z</time>
      </trkpt>
      <trkpt lat="45.3569" lon="5.90581">
        <ele>1370.537206887</ele>
        <time>2015-05-24T12:00:36Z</time>
      </trkpt>
      <trkpt lat="45.3569" lon="5.90582">
        <ele>1370.537206887</ele>
        <time>2015-05-24T12:00:41Z</time>
      </trkpt>
      <trkpt lat="45.35686" lon="5.90584">
        <ele>1372.537819097</ele>
        <time>2015-05-24T12:00:46Z</time>
      </trkpt>
      <trkpt lat="45.35684" lon="5.90579">
        <ele>1372.537819097</ele>
        <time>2015-05-24T12:00:51Z</time>
      </trkpt>
      <trkpt lat="45.35679" lon="5.90576">
        <ele>1375.070064833</ele>
        <time>2015-05-24T12:00:56Z</time>
      </trkpt>
      <trkpt lat="45.35677" lon="5.90572">
        <ele>1375.070064833</ele>
        <time>2015-05-24T12:01:01Z</time>
      </trkpt>
      <trkpt lat="45.35674" lon="5.90566">
        <ele>1375.070064833</ele>
        <time>2015-05-24T12:01:05Z</time>
      </trkpt>
      <trkpt lat="45.35671" lon="5.9056">
        <ele>1377.087061667</ele>
        <time>2015-05-24T12:01:11Z</time>
      </trkpt>
      <trkpt lat="45.35669" lon="5.90558">
        <ele>1377.087061667</ele>
        <time>2015-05-24T12:01:17Z</time>
      </trkpt>
      <trkpt lat="45.35667" lon="5.90554">
        <ele>1377.087061667</ele>
        <time>2015-05-24T12:01:21Z</time>
      </trkpt>
      <trkpt lat="45.35667" lon="5.90548">
        <ele>1380.070113776</ele>
        <time>2015-05-24T12:01:25Z</time>
      </trkpt>
      <trkpt lat="45.35668" lon="5.90544">
        <ele>1380.070113776</ele>
        <time>2015-05-24T12:01:30Z</time>
      </trkpt>
      <trkpt lat="45.35666" lon="5.90542">
        <ele>1380.070113776</ele>
        <time>2015-05-24T12:01:36Z</time>
      </trkpt>
      <trkpt lat="45.35664" lon="5.90536">
        <ele>1383.083166781</ele>
        <time>2015-05-24T12:01:41Z</time>
      </trkpt>
      <trkpt lat="45.35663" lon="5.90533">
        <ele>1383.083166781</ele>
        <time>2015-05-24T12:01:46Z</time>
      </trkpt>
      <trkpt lat="45.35664" lon="5.90527">
        <ele>1383.083166781</ele>
        <time>2015-05-24T12:01:51Z</time>
      </trkpt>
      <trkpt lat="45.35662" lon="5.90525">
        <ele>1384.970570288</ele>
        <time>2015-05-24T12:01:56Z</time>
      </trkpt>
      <trkpt lat="45.3566" lon="5.90521">
        <ele>1384.970570288</ele>
        <time>2015-05-24T12:02:01Z</time>
      </trkpt>
      <trkpt lat="45.35657" lon="5.90517">
        <ele>1384.970570288</ele>
        <time>2015-05-24T12:02:05Z</time>
      </trkpt>
      <trkpt lat="45.35658" lon="5.90511">
        <ele>1386.970453632</ele>
        <time>2015-05-24T12:02:11Z</time>
      </trkpt>
      <trkpt lat="45.35656" lon="5.90508">
        <ele>1386.970453632</ele>
        <time>2015-05-24T12:02:16Z</time>
      </trkpt>
      <trkpt lat="45.35652" lon="5.90505">
        <ele>1386.970453632</ele>
        <time>2015-05-24T12:02:21Z</time>
      </trkpt>
      <trkpt lat="45.35649" lon="5.90498">
        <ele>1389.797295421</ele>
        <time>2015-05-24T12:02:26Z</time>
      </trkpt>
      <trkpt lat="45.3565" lon="5.90497">
        <ele>1389.797295421</ele>
        <time>2015-05-24T12:02:31Z</time>
      </trkpt>
      <trkpt lat="45.35647" lon="5.9049">
        <ele>1389.797295421</ele>
        <time>2015-05-24T12:02:36Z</time>
      </trkpt>
      <trkpt lat="45.35646" lon="5.90484">
        <ele>1392.525497479</ele>
        <time>2015-05-24T12:02:41Z</time>
      </trkpt>
      <trkpt lat="45.35644" lon="5.9048">
        <ele>1392.525497479</ele>
        <time>2015-05-24T12:02:46Z</time>
      </trkpt>
      <trkpt lat="45.35643" lon="5.90475">
        <ele>1392.525497479</ele>
        <time>2015-05-24T12:02:51Z</time>
      </trkpt>
      <trkpt lat="45.35642" lon="5.9047">
        <ele>1395.162351837</ele>
        <time>2015-05-24T12:02:56Z</time>
      </trkpt>
      <trkpt lat="45.35642" lon="5.90465">
        <ele>1395.162351837</ele>
        <time>2015-05-24T12:03:01Z</time>
      </trkpt>
      <trkpt lat="45.35642" lon="5.90467">
        <ele>1395.162351837</ele>
        <time>2015-05-24T12:03:05Z</time>
      </trkpt>
      <trkpt lat="45.35647" lon="5.9047">
        <ele>1398.291271616</ele>
        <time>2015-05-24T12:03:11Z</time>
      </trkpt>
      <trkpt lat="45.35649" lon="5.90471">
        <ele>1398.291271616</ele>
        <time>2015-05-24T12:03:16Z</time>
      </trkpt>
      <trkpt lat="45.3565" lon="5.90472">
        <ele>1398.291271616</ele>
        <time>2015-05-24T12:03:21Z</time>
      </trkpt>
      <trkpt lat="45.3565" lon="5.90472">
        <ele>1398.291271616</ele>
        <time>2015-05-24T12:03:26Z</time>
      </trkpt>
      <trkpt lat="45.3565" lon="5.90471">
        <ele>1398.291271616</ele>
        <time>2015-05-24T12:03:31Z</time>
      </trkpt>
      <trkpt lat="45.3565" lon="5.90471">
        <ele>1398.291271616</ele>
        <time>2015-05-24T12:03:36Z</time>
      </trkpt>
      <trkpt lat="45.3565" lon="5.90472">
        <ele>1398.291271616</ele>
        <time>2015-05-24T12:03:41Z</time>
      </trkpt>
      <trkpt lat="45.3565" lon="5.90471">
        <ele>1398.291271616</ele>
        <time>2015-05-24T12:03:46Z</time>
      </trkpt>
      <trkpt lat="45.35645" lon="5.9046">
        <ele>1400.2897223</ele>
        <time>2015-05-24T12:03:51Z</time>
      </trkpt>
      <trkpt lat="45.35636" lon="5.90449">
        <ele>1401.098601065</ele>
        <time>2015-05-24T12:03:56Z</time>
      </trkpt>
      <trkpt lat="45.35631" lon="5.90437">
        <ele>1401.386993709</ele>
        <time>2015-05-24T12:04:01Z</time>
      </trkpt>
      <trkpt lat="45.35629" lon="5.90426">
        <ele>1401.386993709</ele>
        <time>2015-05-24T12:04:05Z</time>
      </trkpt>
      <trkpt lat="45.35626" lon="5.90416">
        <ele>1401.19979502</ele>
        <time>2015-05-24T12:04:11Z</time>
      </trkpt>
      <trkpt lat="45.35626" lon="5.90406">
        <ele>1401.19979502</ele>
        <time>2015-05-24T12:04:15Z</time>
      </trkpt>
      <trkpt lat="45.35621" lon="5.90405">
        <ele>1400.723977159</ele>
        <time>2015-05-24T12:04:21Z</time>
      </trkpt>
      <trkpt lat="45.35619" lon="5.90404">
        <ele>1400.723977159</ele>
        <time>2015-05-24T12:04:26Z</time>
      </trkpt>
      <trkpt lat="45.35614" lon="5.90405">
        <ele>1400.723977159</ele>
        <time>2015-05-24T12:04:31Z</time>
      </trkpt>
      <trkpt lat="45.35609" lon="5.904">
        <ele>1400.854057095</ele>
        <time>2015-05-24T12:04:36Z</time>
      </trkpt>
      <trkpt lat="45.35606" lon="5.90397">
        <ele>1400.854057095</ele>
        <time>2015-05-24T12:04:41Z</time>
      </trkpt>
      <trkpt lat="45.35604" lon="5.90395">
        <ele>1400.854057095</ele>
        <time>2015-05-24T12:04:46Z</time>
      </trkpt>
      <trkpt lat="45.35597" lon="5.90391">
        <ele>1401.696483976</ele>
        <time>2015-05-24T12:04:51Z</time>
      </trkpt>
      <trkpt lat="45.35591" lon="5.904">
        <ele>1401.906661571</ele>
        <time>2015-05-24T12:04:56Z</time>
      </trkpt>
      <trkpt lat="45.35591" lon="5.90377">
        <ele>1402.113861494</ele>
        <time>2015-05-24T12:05:01Z</time>
      </trkpt>
      <trkpt lat="45.35586" lon="5.9038">
        <ele>1402.113861494</ele>
        <time>2015-05-24T12:05:05Z</time>
      </trkpt>
      <trkpt lat="45.35587" lon="5.90378">
        <ele>1402.113861494</ele>
        <time>2015-05-24T12:05:11Z</time>
      </trkpt>
      <trkpt lat="45.35586" lon="5.90378">
        <ele>1402.113861494</ele>
        <time>2015-05-24T12:05:16Z</time>
      </trkpt>
      <trkpt lat="45.35585" lon="5.90377">
        <ele>1402.113861494</ele>
        <time>2015-05-24T12:05:21Z</time>
      </trkpt>
      <trkpt lat="45.35586" lon="5.90378">
        <ele>1402.113861494</ele>
        <time>2015-05-24T12:05:26Z</time>
      </trkpt>
      <trkpt lat="45.35585" lon="5.90377">
        <ele>1402.324558681</ele>
        <time>2015-05-24T12:05:31Z</time>
      </trkpt>
      <trkpt lat="45.35584" lon="5.90375">
        <ele>1402.324558681</ele>
        <time>2015-05-24T12:05:36Z</time>
      </trkpt>
      <trkpt lat="45.3558" lon="5.90374">
        <ele>1402.324558681</ele>
        <time>2015-05-24T12:05:41Z</time>
      </trkpt>
      <trkpt lat="45.35576" lon="5.90372">
        <ele>1403.841604371</ele>
        <time>2015-05-24T12:05:46Z</time>
      </trkpt>
      <trkpt lat="45.35573" lon="5.9037">
        <ele>1403.841604371</ele>
        <time>2015-05-24T12:05:51Z</time>
      </trkpt>
      <trkpt lat="45.35572" lon="5.90371">
        <ele>1403.841604371</ele>
        <time>2015-05-24T12:05:56Z</time>
      </trkpt>
      <trkpt lat="45.35572" lon="5.90372">
        <ele>1403.841604371</ele>
        <time>2015-05-24T12:06:01Z</time>
      </trkpt>
      <trkpt lat="45.35572" lon="5.90372">
        <ele>1403.841604371</ele>
        <time>2015-05-24T12:06:05Z</time>
      </trkpt>
      <trkpt lat="45.35572" lon="5.90372">
        <ele>1403.841604371</ele>
        <time>2015-05-24T12:06:11Z</time>
      </trkpt>
      <trkpt lat="45.35561" lon="5.90366">
        <ele>1405.850778066</ele>
        <time>2015-05-24T12:06:16Z</time>
      </trkpt>
      <trkpt lat="45.35552" lon="5.90345">
        <ele>1407.163814388</ele>
        <time>2015-05-24T12:06:21Z</time>
      </trkpt>
      <trkpt lat="45.35548" lon="5.90341">
        <ele>1407.163814388</ele>
        <time>2015-05-24T12:06:26Z</time>
      </trkpt>
      <trkpt lat="45.35544" lon="5.90341">
        <ele>1407.163814388</ele>
        <time>2015-05-24T12:06:30Z</time>
      </trkpt>
      <trkpt lat="45.35539" lon="5.9034">
        <ele>1408.987331473</ele>
        <time>2015-05-24T12:06:35Z</time>
      </trkpt>
      <trkpt lat="45.35535" lon="5.90344">
        <ele>1408.987331473</ele>
        <time>2015-05-24T12:06:41Z</time>
      </trkpt>
      <trkpt lat="45.35528" lon="5.90347">
        <ele>1410.564298179</ele>
        <time>2015-05-24T12:06:46Z</time>
      </trkpt>
      <trkpt lat="45.35527" lon="5.90348">
        <ele>1410.564298179</ele>
        <time>2015-05-24T12:06:51Z</time>
      </trkpt>
      <trkpt lat="45.35524" lon="5.90342">
        <ele>1410.564298179</ele>
        <time>2015-05-24T12:06:56Z</time>
      </trkpt>
      <trkpt lat="45.35525" lon="5.90338">
        <ele>1411.482079747</ele>
        <time>2015-05-24T12:07:01Z</time>
      </trkpt>
      <trkpt lat="45.35515" lon="5.9033">
        <ele>1410.351294528</ele>
        <time>2015-05-24T12:07:05Z</time>
      </trkpt>
      <trkpt lat="45.35514" lon="5.9033">
        <ele>1410.351294528</ele>
        <time>2015-05-24T12:07:11Z</time>
      </trkpt>
      <trkpt lat="45.35514" lon="5.90328">
        <ele>1410.351294528</ele>
        <time>2015-05-24T12:07:16Z</time>
      </trkpt>
      <trkpt lat="45.35514" lon="5.90327">
        <ele>1410.351294528</ele>
        <time>2015-05-24T12:07:20Z</time>
      </trkpt>
      <trkpt lat="45.35516" lon="5.90327">
        <ele>1410.351294528</ele>
        <time>2015-05-24T12:07:25Z</time>
      </trkpt>
      <trkpt lat="45.35514" lon="5.90321">
        <ele>1409.781242277</ele>
        <time>2015-05-24T12:07:30Z</time>
      </trkpt>
      <trkpt lat="45.35512" lon="5.90321">
        <ele>1409.781242277</ele>
        <time>2015-05-24T12:07:35Z</time>
      </trkpt>
      <trkpt lat="45.35508" lon="5.90308">
        <ele>1410.314387842</ele>
        <time>2015-05-24T12:07:42Z</time>
      </trkpt>
      <trkpt lat="45.35509" lon="5.90308">
        <ele>1410.314387842</ele>
        <time>2015-05-24T12:07:46Z</time>
      </trkpt>
      <trkpt lat="45.35509" lon="5.90309">
        <ele>1410.314387842</ele>
        <time>2015-05-24T12:07:51Z</time>
      </trkpt>
      <trkpt lat="45.35508" lon="5.90309">
        <ele>1410.314387842</ele>
        <time>2015-05-24T12:07:55Z</time>
      </trkpt>
      <trkpt lat="45.35509" lon="5.90311">
        <ele>1410.314387842</ele>
        <time>2015-05-24T12:08:00Z</time>
      </trkpt>
      <trkpt lat="45.3551" lon="5.90308">
        <ele>1410.314387842</ele>
        <time>2015-05-24T12:08:05Z</time>
      </trkpt>
      <trkpt lat="45.35512" lon="5.90306">
        <ele>1413.747113322</ele>
        <time>2015-05-24T12:08:10Z</time>
      </trkpt>
      <trkpt lat="45.35512" lon="5.90305">
        <ele>1413.747113322</ele>
        <time>2015-05-24T12:08:17Z</time>
      </trkpt>
      <trkpt lat="45.35513" lon="5.90305">
        <ele>1413.747113322</ele>
        <time>2015-05-24T12:08:21Z</time>
      </trkpt>
      <trkpt lat="45.35513" lon="5.90305">
        <ele>1413.747113322</ele>
        <time>2015-05-24T12:08:26Z</time>
      </trkpt>
      <trkpt lat="45.35513" lon="5.90305">
        <ele>1413.747113322</ele>
        <time>2015-05-24T12:08:31Z</time>
      </trkpt>
      <trkpt lat="45.35513" lon="5.90305">
        <ele>1413.747113322</ele>
        <time>2015-05-24T12:08:36Z</time>
      </trkpt>
      <trkpt lat="45.35513" lon="5.90305">
        <ele>1413.747113322</ele>
        <time>2015-05-24T12:08:41Z</time>
      </trkpt>
      <trkpt lat="45.35513" lon="5.90305">
        <ele>1413.747113322</ele>
        <time>2015-05-24T12:08:46Z</time>
      </trkpt>
      <trkpt lat="45.35513" lon="5.90305">
        <ele>1413.747113322</ele>
        <time>2015-05-24T12:08:51Z</time>
      </trkpt>
      <trkpt lat="45.35513" lon="5.90305">
        <ele>1413.747113322</ele>
        <time>2015-05-24T12:08:56Z</time>
      </trkpt>
      <trkpt lat="45.35508" lon="5.90302">
        <ele>1413.747113322</ele>
        <time>2015-05-24T12:09:01Z</time>
      </trkpt>
      <trkpt lat="45.35502" lon="5.90299">
        <ele>1418.276901034</ele>
        <time>2015-05-24T12:09:06Z</time>
      </trkpt>
      <trkpt lat="45.35499" lon="5.90295">
        <ele>1418.276901034</ele>
        <time>2015-05-24T12:09:11Z</time>
      </trkpt>
      <trkpt lat="45.35502" lon="5.9029">
        <ele>1422.806893426</ele>
        <time>2015-05-24T12:09:16Z</time>
      </trkpt>
      <trkpt lat="45.35494" lon="5.90291">
        <ele>1422.806893426</ele>
        <time>2015-05-24T12:09:21Z</time>
      </trkpt>
      <trkpt lat="45.35493" lon="5.90289">
        <ele>1427.185378885</ele>
        <time>2015-05-24T12:09:26Z</time>
      </trkpt>
      <trkpt lat="45.35491" lon="5.90288">
        <ele>1427.185378885</ele>
        <time>2015-05-24T12:09:31Z</time>
      </trkpt>
      <trkpt lat="45.35492" lon="5.90288">
        <ele>1427.185378885</ele>
        <time>2015-05-24T12:09:36Z</time>
      </trkpt>
      <trkpt lat="45.35492" lon="5.90288">
        <ele>1427.185378885</ele>
        <time>2015-05-24T12:09:41Z</time>
      </trkpt>
      <trkpt lat="45.35492" lon="5.90288">
        <ele>1427.185378885</ele>
        <time>2015-05-24T12:09:46Z</time>
      </trkpt>
      <trkpt lat="45.35487" lon="5.90288">
        <ele>1427.185378885</ele>
        <time>2015-05-24T12:09:51Z</time>
      </trkpt>
      <trkpt lat="45.3548" lon="5.90288">
        <ele>1430.983924888</ele>
        <time>2015-05-24T12:09:56Z</time>
      </trkpt>
      <trkpt lat="45.35478" lon="5.9029">
        <ele>1430.983924888</ele>
        <time>2015-05-24T12:10:01Z</time>
      </trkpt>
      <trkpt lat="45.35478" lon="5.90291">
        <ele>1430.983924888</ele>
        <time>2015-05-24T12:10:06Z</time>
      </trkpt>
      <trkpt lat="45.35475" lon="5.90289">
        <ele>1430.983924888</ele>
        <time>2015-05-24T12:10:11Z</time>
      </trkpt>
      <trkpt lat="45.35476" lon="5.90286">
        <ele>1435.968825994</ele>
        <time>2015-05-24T12:10:15Z</time>
      </trkpt>
      <trkpt lat="45.35476" lon="5.90285">
        <ele>1435.968825994</ele>
        <time>2015-05-24T12:10:20Z</time>
      </trkpt>
      <trkpt lat="45.35476" lon="5.90286">
        <ele>1435.968825994</ele>
        <time>2015-05-24T12:10:25Z</time>
      </trkpt>
      <trkpt lat="45.35475" lon="5.90285">
        <ele>1435.968825994</ele>
        <time>2015-05-24T12:10:30Z</time>
      </trkpt>
      <trkpt lat="45.35475" lon="5.90285">
        <ele>1435.968825994</ele>
        <time>2015-05-24T12:10:35Z</time>
      </trkpt>
      <trkpt lat="45.35475" lon="5.90285">
        <ele>1435.968825994</ele>
        <time>2015-05-24T12:10:40Z</time>
      </trkpt>
      <trkpt lat="45.35475" lon="5.90285">
        <ele>1435.968825994</ele>
        <time>2015-05-24T12:10:46Z</time>
      </trkpt>
      <trkpt lat="45.35475" lon="5.90285">
        <ele>1435.968825994</ele>
        <time>2015-05-24T12:10:50Z</time>
      </trkpt>
      <trkpt lat="45.35475" lon="5.90285">
        <ele>1435.968825994</ele>
        <time>2015-05-24T12:10:56Z</time>
      </trkpt>
      <trkpt lat="45.35475" lon="5.90285">
        <ele>1435.968825994</ele>
        <time>2015-05-24T12:11:01Z</time>
      </trkpt>
      <trkpt lat="45.35475" lon="5.90285">
        <ele>1435.968825994</ele>
        <time>2015-05-24T12:11:06Z</time>
      </trkpt>
      <trkpt lat="45.35472" lon="5.90286">
        <ele>1435.968825994</ele>
        <time>2015-05-24T12:11:11Z</time>
      </trkpt>
      <trkpt lat="45.3547" lon="5.90286">
        <ele>1435.968825994</ele>
        <time>2015-05-24T12:11:16Z</time>
      </trkpt>
      <trkpt lat="45.35468" lon="5.90286">
        <ele>1441.611616285</ele>
        <time>2015-05-24T12:11:21Z</time>
      </trkpt>
      <trkpt lat="45.35468" lon="5.90286">
        <ele>1441.611616285</ele>
        <time>2015-05-24T12:11:26Z</time>
      </trkpt>
      <trkpt lat="45.35468" lon="5.90286">
        <ele>1441.611616285</ele>
        <time>2015-05-24T12:11:31Z</time>
      </trkpt>
      <trkpt lat="45.35468" lon="5.90286">
        <ele>1441.611616285</ele>
        <time>2015-05-24T12:11:36Z</time>
      </trkpt>
      <trkpt lat="45.35468" lon="5.90286">
        <ele>1441.611616285</ele>
        <time>2015-05-24T12:11:41Z</time>
      </trkpt>
      <trkpt lat="45.35468" lon="5.90286">
        <ele>1441.611616285</ele>
        <time>2015-05-24T12:11:46Z</time>
      </trkpt>
      <trkpt lat="45.35468" lon="5.90286">
        <ele>1441.611616285</ele>
        <time>2015-05-24T12:11:51Z</time>
      </trkpt>
      <trkpt lat="45.35468" lon="5.90286">
        <ele>1441.611616285</ele>
        <time>2015-05-24T12:11:56Z</time>
      </trkpt>
      <trkpt lat="45.35468" lon="5.90286">
        <ele>1441.611616285</ele>
        <time>2015-05-24T12:12:01Z</time>
      </trkpt>
      <trkpt lat="45.35468" lon="5.90286">
        <ele>1441.611616285</ele>
        <time>2015-05-24T12:12:06Z</time>
      </trkpt>
      <trkpt lat="45.35468" lon="5.90286">
        <ele>1441.611616285</ele>
        <time>2015-05-24T12:12:11Z</time>
      </trkpt>
      <trkpt lat="45.35468" lon="5.90286">
        <ele>1441.611616285</ele>
        <time>2015-05-24T12:12:16Z</time>
      </trkpt>
      <trkpt lat="45.35468" lon="5.90286">
        <ele>1441.611616285</ele>
        <time>2015-05-24T12:12:21Z</time>
      </trkpt>
      <trkpt lat="45.35468" lon="5.90286">
        <ele>1441.611616285</ele>
        <time>2015-05-24T12:12:26Z</time>
      </trkpt>
      <trkpt lat="45.35468" lon="5.90286">
        <ele>1441.611616285</ele>
        <time>2015-05-24T12:12:31Z</time>
      </trkpt>
      <trkpt lat="45.35468" lon="5.90286">
        <ele>1441.611616285</ele>
        <time>2015-05-24T12:12:36Z</time>
      </trkpt>
      <trkpt lat="45.35468" lon="5.90286">
        <ele>1441.611616285</ele>
        <time>2015-05-24T12:12:41Z</time>
      </trkpt>
      <trkpt lat="45.35468" lon="5.90286">
        <ele>1441.611616285</ele>
        <time>2015-05-24T12:12:46Z</time>
      </trkpt>
      <trkpt lat="45.35468" lon="5.90286">
        <ele>1441.611616285</ele>
        <time>2015-05-24T12:12:51Z</time>
      </trkpt>
      <trkpt lat="45.35468" lon="5.90286">
        <ele>1441.611616285</ele>
        <time>2015-05-24T12:12:56Z</time>
      </trkpt>
      <trkpt lat="45.35468" lon="5.90286">
        <ele>1441.611616285</ele>
        <time>2015-05-24T12:13:01Z</time>
      </trkpt>
      <trkpt lat="45.35469" lon="5.9028">
        <ele>1441.611616285</ele>
        <time>2015-05-24T12:13:06Z</time>
      </trkpt>
      <trkpt lat="45.35469" lon="5.90275">
        <ele>1441.611616285</ele>
        <time>2015-05-24T12:13:11Z</time>
      </trkpt>
      <trkpt lat="45.3547" lon="5.9027">
        <ele>1447.132596344</ele>
        <time>2015-05-24T12:13:16Z</time>
      </trkpt>
      <trkpt lat="45.35469" lon="5.90268">
        <ele>1447.132596344</ele>
        <time>2015-05-24T12:13:21Z</time>
      </trkpt>
      <trkpt lat="45.3547" lon="5.90265">
        <ele>1447.132596344</ele>
        <time>2015-05-24T12:13:26Z</time>
      </trkpt>
      <trkpt lat="45.35469" lon="5.9026">
        <ele>1447.132596344</ele>
        <time>2015-05-24T12:13:31Z</time>
      </trkpt>
      <trkpt lat="45.35472" lon="5.90258">
        <ele>1451.953835881</ele>
        <time>2015-05-24T12:13:36Z</time>
      </trkpt>
      <trkpt lat="45.35471" lon="5.90253">
        <ele>1451.953835881</ele>
        <time>2015-05-24T12:13:41Z</time>
      </trkpt>
      <trkpt lat="45.35472" lon="5.90247">
        <ele>1451.953835881</ele>
        <time>2015-05-24T12:13:46Z</time>
      </trkpt>
      <trkpt lat="45.35472" lon="5.9024">
        <ele>1456.983000052</ele>
        <time>2015-05-24T12:13:51Z</time>
      </trkpt>
      <trkpt lat="45.35473" lon="5.90234">
        <ele>1456.983000052</ele>
        <time>2015-05-24T12:13:56Z</time>
      </trkpt>
      <trkpt lat="45.35473" lon="5.90228">
        <ele>1456.983000052</ele>
        <time>2015-05-24T12:14:01Z</time>
      </trkpt>
      <trkpt lat="45.35475" lon="5.90224">
        <ele>1461.043025505</ele>
        <time>2015-05-24T12:14:05Z</time>
      </trkpt>
      <trkpt lat="45.35474" lon="5.90218">
        <ele>1461.043025505</ele>
        <time>2015-05-24T12:14:11Z</time>
      </trkpt>
      <trkpt lat="45.35475" lon="5.90211">
        <ele>1464.775473156</ele>
        <time>2015-05-24T12:14:15Z</time>
      </trkpt>
      <trkpt lat="45.35477" lon="5.90204">
        <ele>1464.775473156</ele>
        <time>2015-05-24T12:14:21Z</time>
      </trkpt>
      <trkpt lat="45.3548" lon="5.90199">
        <ele>1468.775811846</ele>
        <time>2015-05-24T12:14:25Z</time>
      </trkpt>
      <trkpt lat="45.35483" lon="5.90192">
        <ele>1468.775811846</ele>
        <time>2015-05-24T12:14:30Z</time>
      </trkpt>
      <trkpt lat="45.35485" lon="5.90188">
        <ele>1471.865807615</ele>
        <time>2015-05-24T12:14:36Z</time>
      </trkpt>
      <trkpt lat="45.35485" lon="5.90182">
        <ele>1471.865807615</ele>
        <time>2015-05-24T12:14:41Z</time>
      </trkpt>
      <trkpt lat="45.35486" lon="5.90179">
        <ele>1471.865807615</ele>
        <time>2015-05-24T12:14:46Z</time>
      </trkpt>
      <trkpt lat="45.35488" lon="5.90174">
        <ele>1474.541684866</ele>
        <time>2015-05-24T12:14:51Z</time>
      </trkpt>
      <trkpt lat="45.35494" lon="5.90169">
        <ele>1474.541684866</ele>
        <time>2015-05-24T12:14:56Z</time>
      </trkpt>
      <trkpt lat="45.35494" lon="5.90165">
        <ele>1477.120395819</ele>
        <time>2015-05-24T12:15:01Z</time>
      </trkpt>
      <trkpt lat="45.35497" lon="5.90161">
        <ele>1477.120395819</ele>
        <time>2015-05-24T12:15:06Z</time>
      </trkpt>
      <trkpt lat="45.35498" lon="5.90159">
        <ele>1477.120395819</ele>
        <time>2015-05-24T12:15:11Z</time>
      </trkpt>
      <trkpt lat="45.355" lon="5.90159">
        <ele>1477.120395819</ele>
        <time>2015-05-24T12:15:16Z</time>
      </trkpt>
      <trkpt lat="45.35503" lon="5.90157">
        <ele>1480.328343949</ele>
        <time>2015-05-24T12:15:21Z</time>
      </trkpt>
      <trkpt lat="45.35505" lon="5.90156">
        <ele>1480.328343949</ele>
        <time>2015-05-24T12:15:26Z</time>
      </trkpt>
      <trkpt lat="45.3551" lon="5.90155">
        <ele>1480.328343949</ele>
        <time>2015-05-24T12:15:31Z</time>
      </trkpt>
      <trkpt lat="45.35514" lon="5.90156">
        <ele>1483.539931067</ele>
        <time>2015-05-24T12:15:36Z</time>
      </trkpt>
      <trkpt lat="45.35517" lon="5.90158">
        <ele>1483.539931067</ele>
        <time>2015-05-24T12:15:41Z</time>
      </trkpt>
      <trkpt lat="45.35518" lon="5.9016">
        <ele>1483.539931067</ele>
        <time>2015-05-24T12:15:46Z</time>
      </trkpt>
      <trkpt lat="45.35521" lon="5.90158">
        <ele>1486.31973789</ele>
        <time>2015-05-24T12:15:51Z</time>
      </trkpt>
      <trkpt lat="45.35531" lon="5.90151">
        <ele>1488.40977092</ele>
        <time>2015-05-24T12:15:56Z</time>
      </trkpt>
      <trkpt lat="45.35532" lon="5.90152">
        <ele>1488.40977092</ele>
        <time>2015-05-24T12:16:01Z</time>
      </trkpt>
      <trkpt lat="45.35534" lon="5.90156">
        <ele>1488.40977092</ele>
        <time>2015-05-24T12:16:05Z</time>
      </trkpt>
      <trkpt lat="45.35536" lon="5.90159">
        <ele>1488.40977092</ele>
        <time>2015-05-24T12:16:10Z</time>
      </trkpt>
      <trkpt lat="45.35538" lon="5.90162">
        <ele>1490.87003743</ele>
        <time>2015-05-24T12:16:15Z</time>
      </trkpt>
      <trkpt lat="45.35541" lon="5.90162">
        <ele>1490.87003743</ele>
        <time>2015-05-24T12:16:20Z</time>
      </trkpt>
      <trkpt lat="45.35544" lon="5.90162">
        <ele>1490.87003743</ele>
        <time>2015-05-24T12:16:25Z</time>
      </trkpt>
      <trkpt lat="45.35542" lon="5.90162">
        <ele>1490.87003743</ele>
        <time>2015-05-24T12:16:31Z</time>
      </trkpt>
      <trkpt lat="45.35545" lon="5.90159">
        <ele>1493.961190719</ele>
        <time>2015-05-24T12:16:36Z</time>
      </trkpt>
      <trkpt lat="45.35549" lon="5.90159">
        <ele>1493.961190719</ele>
        <time>2015-05-24T12:16:41Z</time>
      </trkpt>
      <trkpt lat="45.35551" lon="5.90159">
        <ele>1493.961190719</ele>
        <time>2015-05-24T12:16:46Z</time>
      </trkpt>
      <trkpt lat="45.35553" lon="5.90162">
        <ele>1493.961190719</ele>
        <time>2015-05-24T12:16:51Z</time>
      </trkpt>
      <trkpt lat="45.35558" lon="5.90159">
        <ele>1497.346625199</ele>
        <time>2015-05-24T12:16:56Z</time>
      </trkpt>
      <trkpt lat="45.35565" lon="5.90157">
        <ele>1497.346625199</ele>
        <time>2015-05-24T12:17:01Z</time>
      </trkpt>
      <trkpt lat="45.35564" lon="5.90154">
        <ele>1497.346625199</ele>
        <time>2015-05-24T12:17:06Z</time>
      </trkpt>
      <trkpt lat="45.35565" lon="5.90155">
        <ele>1501.001959034</ele>
        <time>2015-05-24T12:17:11Z</time>
      </trkpt>
      <trkpt lat="45.3556" lon="5.90163">
        <ele>1501.001959034</ele>
        <time>2015-05-24T12:17:16Z</time>
      </trkpt>
      <trkpt lat="45.3556" lon="5.9016">
        <ele>1504.615721745</ele>
        <time>2015-05-24T12:17:21Z</time>
      </trkpt>
      <trkpt lat="45.35564" lon="5.9016">
        <ele>1504.615721745</ele>
        <time>2015-05-24T12:17:26Z</time>
      </trkpt>
      <trkpt lat="45.35569" lon="5.90158">
        <ele>1507.75542899</ele>
        <time>2015-05-24T12:17:31Z</time>
      </trkpt>
      <trkpt lat="45.3557" lon="5.90157">
        <ele>1507.75542899</ele>
        <time>2015-05-24T12:17:36Z</time>
      </trkpt>
      <trkpt lat="45.35574" lon="5.9016">
        <ele>1507.75542899</ele>
        <time>2015-05-24T12:17:40Z</time>
      </trkpt>
      <trkpt lat="45.35576" lon="5.90157">
        <ele>1510.598241108</ele>
        <time>2015-05-24T12:17:45Z</time>
      </trkpt>
      <trkpt lat="45.35585" lon="5.90157">
        <ele>1510.598241108</ele>
        <time>2015-05-24T12:17:51Z</time>
      </trkpt>
      <trkpt lat="45.35592" lon="5.90146">
        <ele>1512.300455632</ele>
        <time>2015-05-24T12:17:56Z</time>
      </trkpt>
      <trkpt lat="45.35595" lon="5.9015">
        <ele>1512.300455632</ele>
        <time>2015-05-24T12:18:01Z</time>
      </trkpt>
      <trkpt lat="45.356" lon="5.90149">
        <ele>1512.300455632</ele>
        <time>2015-05-24T12:18:06Z</time>
      </trkpt>
      <trkpt lat="45.356" lon="5.90154">
        <ele>1513.668859865</ele>
        <time>2015-05-24T12:18:11Z</time>
      </trkpt>
      <trkpt lat="45.35598" lon="5.90151">
        <ele>1513.668859865</ele>
        <time>2015-05-24T12:18:16Z</time>
      </trkpt>
      <trkpt lat="45.35597" lon="5.90151">
        <ele>1513.668859865</ele>
        <time>2015-05-24T12:18:21Z</time>
      </trkpt>
      <trkpt lat="45.35601" lon="5.90151">
        <ele>1513.668859865</ele>
        <time>2015-05-24T12:18:26Z</time>
      </trkpt>
      <trkpt lat="45.35601" lon="5.90154">
        <ele>1515.7402133</ele>
        <time>2015-05-24T12:18:31Z</time>
      </trkpt>
      <trkpt lat="45.35602" lon="5.90156">
        <ele>1515.7402133</ele>
        <time>2015-05-24T12:18:36Z</time>
      </trkpt>
      <trkpt lat="45.35606" lon="5.90154">
        <ele>1515.7402133</ele>
        <time>2015-05-24T12:18:41Z</time>
      </trkpt>
      <trkpt lat="45.35603" lon="5.90155">
        <ele>1515.7402133</ele>
        <time>2015-05-24T12:18:46Z</time>
      </trkpt>
      <trkpt lat="45.35603" lon="5.90147">
        <ele>1517.45565457</ele>
        <time>2015-05-24T12:18:51Z</time>
      </trkpt>
      <trkpt lat="45.35603" lon="5.90146">
        <ele>1517.45565457</ele>
        <time>2015-05-24T12:18:56Z</time>
      </trkpt>
      <trkpt lat="45.35604" lon="5.90148">
        <ele>1517.45565457</ele>
        <time>2015-05-24T12:19:01Z</time>
      </trkpt>
      <trkpt lat="45.35605" lon="5.90148">
        <ele>1517.45565457</ele>
        <time>2015-05-24T12:19:06Z</time>
      </trkpt>
      <trkpt lat="45.35605" lon="5.90148">
        <ele>1517.45565457</ele>
        <time>2015-05-24T12:19:11Z</time>
      </trkpt>
      <trkpt lat="45.35606" lon="5.90148">
        <ele>1517.45565457</ele>
        <time>2015-05-24T12:19:16Z</time>
      </trkpt>
      <trkpt lat="45.35606" lon="5.90149">
        <ele>1517.45565457</ele>
        <time>2015-05-24T12:19:21Z</time>
      </trkpt>
      <trkpt lat="45.35606" lon="5.90148">
        <ele>1517.45565457</ele>
        <time>2015-05-24T12:19:26Z</time>
      </trkpt>
      <trkpt lat="45.35619" lon="5.90158">
        <ele>1519.56449317</ele>
        <time>2015-05-24T12:19:31Z</time>
      </trkpt>
      <trkpt lat="45.35622" lon="5.90161">
        <ele>1519.56449317</ele>
        <time>2015-05-24T12:19:36Z</time>
      </trkpt>
      <trkpt lat="45.35623" lon="5.90161">
        <ele>1519.56449317</ele>
        <time>2015-05-24T12:19:41Z</time>
      </trkpt>
      <trkpt lat="45.35623" lon="5.9016">
        <ele>1519.56449317</ele>
        <time>2015-05-24T12:19:46Z</time>
      </trkpt>
      <trkpt lat="45.35624" lon="5.9016">
        <ele>1519.56449317</ele>
        <time>2015-05-24T12:19:51Z</time>
      </trkpt>
      <trkpt lat="45.35632" lon="5.90154">
        <ele>1521.17471187</ele>
        <time>2015-05-24T12:19:56Z</time>
      </trkpt>
      <trkpt lat="45.35635" lon="5.90149">
        <ele>1521.17471187</ele>
        <time>2015-05-24T12:20:01Z</time>
      </trkpt>
      <trkpt lat="45.35635" lon="5.90152">
        <ele>1521.17471187</ele>
        <time>2015-05-24T12:20:06Z</time>
      </trkpt>
      <trkpt lat="45.35636" lon="5.90153">
        <ele>1521.17471187</ele>
        <time>2015-05-24T12:20:11Z</time>
      </trkpt>
      <trkpt lat="45.35637" lon="5.90152">
        <ele>1521.17471187</ele>
        <time>2015-05-24T12:20:16Z</time>
      </trkpt>
      <trkpt lat="45.35637" lon="5.90151">
        <ele>1523.911144285</ele>
        <time>2015-05-24T12:20:21Z</time>
      </trkpt>
      <trkpt lat="45.35637" lon="5.90152">
        <ele>1523.911144285</ele>
        <time>2015-05-24T12:20:26Z</time>
      </trkpt>
      <trkpt lat="45.35642" lon="5.90147">
        <ele>1523.911144285</ele>
        <time>2015-05-24T12:20:31Z</time>
      </trkpt>
      <trkpt lat="45.35646" lon="5.90151">
        <ele>1526.970355245</ele>
        <time>2015-05-24T12:20:36Z</time>
      </trkpt>
      <trkpt lat="45.35652" lon="5.90149">
        <ele>1526.970355245</ele>
        <time>2015-05-24T12:20:41Z</time>
      </trkpt>
      <trkpt lat="45.35653" lon="5.90148">
        <ele>1526.970355245</ele>
        <time>2015-05-24T12:20:46Z</time>
      </trkpt>
      <trkpt lat="45.35652" lon="5.90148">
        <ele>1526.970355245</ele>
        <time>2015-05-24T12:20:51Z</time>
      </trkpt>
      <trkpt lat="45.35653" lon="5.90148">
        <ele>1529.318825159</ele>
        <time>2015-05-24T12:20:56Z</time>
      </trkpt>
      <trkpt lat="45.35654" lon="5.90148">
        <ele>1529.318825159</ele>
        <time>2015-05-24T12:21:01Z</time>
      </trkpt>
      <trkpt lat="45.35654" lon="5.90148">
        <ele>1529.318825159</ele>
        <time>2015-05-24T12:21:05Z</time>
      </trkpt>
      <trkpt lat="45.35655" lon="5.90148">
        <ele>1529.318825159</ele>
        <time>2015-05-24T12:21:10Z</time>
      </trkpt>
      <trkpt lat="45.35668" lon="5.90144">
        <ele>1532.306749886</ele>
        <time>2015-05-24T12:21:16Z</time>
      </trkpt>
      <trkpt lat="45.35674" lon="5.90142">
        <ele>1532.306749886</ele>
        <time>2015-05-24T12:21:22Z</time>
      </trkpt>
      <trkpt lat="45.35675" lon="5.90147">
        <ele>1535.309922141</ele>
        <time>2015-05-24T12:21:26Z</time>
      </trkpt>
      <trkpt lat="45.35675" lon="5.90149">
        <ele>1535.309922141</ele>
        <time>2015-05-24T12:21:31Z</time>
      </trkpt>
      <trkpt lat="45.35677" lon="5.90144">
        <ele>1535.309922141</ele>
        <time>2015-05-24T12:21:36Z</time>
      </trkpt>
      <trkpt lat="45.35678" lon="5.90138">
        <ele>1538.03818783</ele>
        <time>2015-05-24T12:21:41Z</time>
      </trkpt>
      <trkpt lat="45.35677" lon="5.90137">
        <ele>1538.03818783</ele>
        <time>2015-05-24T12:21:46Z</time>
      </trkpt>
      <trkpt lat="45.35677" lon="5.90137">
        <ele>1538.03818783</ele>
        <time>2015-05-24T12:21:51Z</time>
      </trkpt>
      <trkpt lat="45.35677" lon="5.90137">
        <ele>1538.03818783</ele>
        <time>2015-05-24T12:21:56Z</time>
      </trkpt>
      <trkpt lat="45.35677" lon="5.90137">
        <ele>1538.03818783</ele>
        <time>2015-05-24T12:22:01Z</time>
      </trkpt>
      <trkpt lat="45.35677" lon="5.90137">
        <ele>1538.03818783</ele>
        <time>2015-05-24T12:22:06Z</time>
      </trkpt>
      <trkpt lat="45.35677" lon="5.90137">
        <ele>1538.03818783</ele>
        <time>2015-05-24T12:22:11Z</time>
      </trkpt>
      <trkpt lat="45.35677" lon="5.90137">
        <ele>1538.03818783</ele>
        <time>2015-05-24T12:22:16Z</time>
      </trkpt>
      <trkpt lat="45.35677" lon="5.90137">
        <ele>1538.03818783</ele>
        <time>2015-05-24T12:22:21Z</time>
      </trkpt>
      <trkpt lat="45.35677" lon="5.90137">
        <ele>1538.03818783</ele>
        <time>2015-05-24T12:22:26Z</time>
      </trkpt>
      <trkpt lat="45.35677" lon="5.90137">
        <ele>1538.03818783</ele>
        <time>2015-05-24T12:22:31Z</time>
      </trkpt>
      <trkpt lat="45.35677" lon="5.90138">
        <ele>1538.03818783</ele>
        <time>2015-05-24T12:22:36Z</time>
      </trkpt>
      <trkpt lat="45.35677" lon="5.90138">
        <ele>1538.03818783</ele>
        <time>2015-05-24T12:22:41Z</time>
      </trkpt>
      <trkpt lat="45.35677" lon="5.90138">
        <ele>1538.03818783</ele>
        <time>2015-05-24T12:22:46Z</time>
      </trkpt>
      <trkpt lat="45.35677" lon="5.90138">
        <ele>1538.03818783</ele>
        <time>2015-05-24T12:22:51Z</time>
      </trkpt>
      <trkpt lat="45.35677" lon="5.90138">
        <ele>1538.03818783</ele>
        <time>2015-05-24T12:22:56Z</time>
      </trkpt>
      <trkpt lat="45.35677" lon="5.90138">
        <ele>1538.03818783</ele>
        <time>2015-05-24T12:23:01Z</time>
      </trkpt>
      <trkpt lat="45.35677" lon="5.90138">
        <ele>1538.03818783</ele>
        <time>2015-05-24T12:23:06Z</time>
      </trkpt>
      <trkpt lat="45.35677" lon="5.90138">
        <ele>1538.03818783</ele>
        <time>2015-05-24T12:23:11Z</time>
      </trkpt>
      <trkpt lat="45.35677" lon="5.90138">
        <ele>1538.03818783</ele>
        <time>2015-05-24T12:23:16Z</time>
      </trkpt>
      <trkpt lat="45.35677" lon="5.90138">
        <ele>1538.03818783</ele>
        <time>2015-05-24T12:23:21Z</time>
      </trkpt>
      <trkpt lat="45.35677" lon="5.90138">
        <ele>1538.03818783</ele>
        <time>2015-05-24T12:23:26Z</time>
      </trkpt>
      <trkpt lat="45.35677" lon="5.90138">
        <ele>1538.03818783</ele>
        <time>2015-05-24T12:23:31Z</time>
      </trkpt>
      <trkpt lat="45.35677" lon="5.90138">
        <ele>1538.03818783</ele>
        <time>2015-05-24T12:23:36Z</time>
      </trkpt>
      <trkpt lat="45.35677" lon="5.90138">
        <ele>1538.03818783</ele>
        <time>2015-05-24T12:23:41Z</time>
      </trkpt>
      <trkpt lat="45.35677" lon="5.90138">
        <ele>1538.03818783</ele>
        <time>2015-05-24T12:23:46Z</time>
      </trkpt>
      <trkpt lat="45.35674" lon="5.90117">
        <ele>1540.51171941</ele>
        <time>2015-05-24T12:23:51Z</time>
      </trkpt>
      <trkpt lat="45.35668" lon="5.90106">
        <ele>1542.173493237</ele>
        <time>2015-05-24T12:23:56Z</time>
      </trkpt>
      <trkpt lat="45.3567" lon="5.90108">
        <ele>1542.173493237</ele>
        <time>2015-05-24T12:24:01Z</time>
      </trkpt>
      <trkpt lat="45.35667" lon="5.90099">
        <ele>1543.806693196</ele>
        <time>2015-05-24T12:24:05Z</time>
      </trkpt>
      <trkpt lat="45.35663" lon="5.90095">
        <ele>1543.806693196</ele>
        <time>2015-05-24T12:24:10Z</time>
      </trkpt>
      <trkpt lat="45.35656" lon="5.90095">
        <ele>1546.569390788</ele>
        <time>2015-05-24T12:24:17Z</time>
      </trkpt>
      <trkpt lat="45.35653" lon="5.9009">
        <ele>1546.569390788</ele>
        <time>2015-05-24T12:24:21Z</time>
      </trkpt>
      <trkpt lat="45.35648" lon="5.90088">
        <ele>1549.513862692</ele>
        <time>2015-05-24T12:24:26Z</time>
      </trkpt>
      <trkpt lat="45.35649" lon="5.90085">
        <ele>1549.513862692</ele>
        <time>2015-05-24T12:24:31Z</time>
      </trkpt>
      <trkpt lat="45.35646" lon="5.90085">
        <ele>1549.513862692</ele>
        <time>2015-05-24T12:24:36Z</time>
      </trkpt>
      <trkpt lat="45.35643" lon="5.90084">
        <ele>1549.513862692</ele>
        <time>2015-05-24T12:24:41Z</time>
      </trkpt>
      <trkpt lat="45.3564" lon="5.90081">
        <ele>1552.626160496</ele>
        <time>2015-05-24T12:24:46Z</time>
      </trkpt>
      <trkpt lat="45.35638" lon="5.90081">
        <ele>1552.626160496</ele>
        <time>2015-05-24T12:24:51Z</time>
      </trkpt>
      <trkpt lat="45.35638" lon="5.90079">
        <ele>1552.626160496</ele>
        <time>2015-05-24T12:24:56Z</time>
      </trkpt>
      <trkpt lat="45.35637" lon="5.90078">
        <ele>1552.626160496</ele>
        <time>2015-05-24T12:25:01Z</time>
      </trkpt>
      <trkpt lat="45.35637" lon="5.90077">
        <ele>1552.626160496</ele>
        <time>2015-05-24T12:25:06Z</time>
      </trkpt>
      <trkpt lat="45.35637" lon="5.90077">
        <ele>1552.626160496</ele>
        <time>2015-05-24T12:25:11Z</time>
      </trkpt>
      <trkpt lat="45.35637" lon="5.90072">
        <ele>1552.626160496</ele>
        <time>2015-05-24T12:25:16Z</time>
      </trkpt>
      <trkpt lat="45.35634" lon="5.90067">
        <ele>1555.748777385</ele>
        <time>2015-05-24T12:25:21Z</time>
      </trkpt>
      <trkpt lat="45.35632" lon="5.90056">
        <ele>1555.748777385</ele>
        <time>2015-05-24T12:25:26Z</time>
      </trkpt>
      <trkpt lat="45.35628" lon="5.90051">
        <ele>1558.015192084</ele>
        <time>2015-05-24T12:25:31Z</time>
      </trkpt>
      <trkpt lat="45.35628" lon="5.90047">
        <ele>1558.015192084</ele>
        <time>2015-05-24T12:25:36Z</time>
      </trkpt>
      <trkpt lat="45.35625" lon="5.90035">
        <ele>1559.921939642</ele>
        <time>2015-05-24T12:25:41Z</time>
      </trkpt>
      <trkpt lat="45.35625" lon="5.90028">
        <ele>1559.921939642</ele>
        <time>2015-05-24T12:25:46Z</time>
      </trkpt>
      <trkpt lat="45.35624" lon="5.90025">
        <ele>1559.921939642</ele>
        <time>2015-05-24T12:25:51Z</time>
      </trkpt>
      <trkpt lat="45.35621" lon="5.90023">
        <ele>1562.074198078</ele>
        <time>2015-05-24T12:25:56Z</time>
      </trkpt>
      <trkpt lat="45.3562" lon="5.90018">
        <ele>1562.074198078</ele>
        <time>2015-05-24T12:26:01Z</time>
      </trkpt>
      <trkpt lat="45.35619" lon="5.9001">
        <ele>1564.023216417</ele>
        <time>2015-05-24T12:26:06Z</time>
      </trkpt>
      <trkpt lat="45.35621" lon="5.90006">
        <ele>1564.023216417</ele>
        <time>2015-05-24T12:26:11Z</time>
      </trkpt>
      <trkpt lat="45.35617" lon="5.90005">
        <ele>1564.023216417</ele>
        <time>2015-05-24T12:26:16Z</time>
      </trkpt>
      <trkpt lat="45.35616" lon="5.90003">
        <ele>1564.023216417</ele>
        <time>2015-05-24T12:26:21Z</time>
      </trkpt>
      <trkpt lat="45.35613" lon="5.90002">
        <ele>1566.362546206</ele>
        <time>2015-05-24T12:26:26Z</time>
      </trkpt>
      <trkpt lat="45.35613" lon="5.89994">
        <ele>1566.362546206</ele>
        <time>2015-05-24T12:26:31Z</time>
      </trkpt>
      <trkpt lat="45.3562" lon="5.8999">
        <ele>1568.776360231</ele>
        <time>2015-05-24T12:26:36Z</time>
      </trkpt>
      <trkpt lat="45.35618" lon="5.89982">
        <ele>1568.776360231</ele>
        <time>2015-05-24T12:26:41Z</time>
      </trkpt>
      <trkpt lat="45.35618" lon="5.89979">
        <ele>1568.776360231</ele>
        <time>2015-05-24T12:26:46Z</time>
      </trkpt>
      <trkpt lat="45.35619" lon="5.89979">
        <ele>1568.776360231</ele>
        <time>2015-05-24T12:26:51Z</time>
      </trkpt>
      <trkpt lat="45.35617" lon="5.89978">
        <ele>1571.548250336</ele>
        <time>2015-05-24T12:26:56Z</time>
      </trkpt>
      <trkpt lat="45.35617" lon="5.89978">
        <ele>1571.548250336</ele>
        <time>2015-05-24T12:27:01Z</time>
      </trkpt>
      <trkpt lat="45.35616" lon="5.89978">
        <ele>1571.548250336</ele>
        <time>2015-05-24T12:27:05Z</time>
      </trkpt>
      <trkpt lat="45.35616" lon="5.89977">
        <ele>1571.548250336</ele>
        <time>2015-05-24T12:27:11Z</time>
      </trkpt>
      <trkpt lat="45.35616" lon="5.89977">
        <ele>1571.548250336</ele>
        <time>2015-05-24T12:27:15Z</time>
      </trkpt>
      <trkpt lat="45.35617" lon="5.89976">
        <ele>1571.548250336</ele>
        <time>2015-05-24T12:27:21Z</time>
      </trkpt>
      <trkpt lat="45.35617" lon="5.89966">
        <ele>1571.548250336</ele>
        <time>2015-05-24T12:27:26Z</time>
      </trkpt>
      <trkpt lat="45.35618" lon="5.89964">
        <ele>1574.795842965</ele>
        <time>2015-05-24T12:27:31Z</time>
      </trkpt>
      <trkpt lat="45.3562" lon="5.89962">
        <ele>1574.795842965</ele>
        <time>2015-05-24T12:27:36Z</time>
      </trkpt>
      <trkpt lat="45.3562" lon="5.89955">
        <ele>1574.795842965</ele>
        <time>2015-05-24T12:27:41Z</time>
      </trkpt>
      <trkpt lat="45.3562" lon="5.89954">
        <ele>1574.795842965</ele>
        <time>2015-05-24T12:27:46Z</time>
      </trkpt>
      <trkpt lat="45.3562" lon="5.89953">
        <ele>1574.795842965</ele>
        <time>2015-05-24T12:27:51Z</time>
      </trkpt>
      <trkpt lat="45.3562" lon="5.89953">
        <ele>1574.795842965</ele>
        <time>2015-05-24T12:27:56Z</time>
      </trkpt>
      <trkpt lat="45.35624" lon="5.89946">
        <ele>1577.473883771</ele>
        <time>2015-05-24T12:28:01Z</time>
      </trkpt>
      <trkpt lat="45.35627" lon="5.89941">
        <ele>1577.473883771</ele>
        <time>2015-05-24T12:28:06Z</time>
      </trkpt>
      <trkpt lat="45.35625" lon="5.89937">
        <ele>1577.473883771</ele>
        <time>2015-05-24T12:28:11Z</time>
      </trkpt>
      <trkpt lat="45.35631" lon="5.89932">
        <ele>1580.777154372</ele>
        <time>2015-05-24T12:28:16Z</time>
      </trkpt>
      <trkpt lat="45.35632" lon="5.89928">
        <ele>1580.777154372</ele>
        <time>2015-05-24T12:28:21Z</time>
      </trkpt>
      <trkpt lat="45.35636" lon="5.89922">
        <ele>1580.777154372</ele>
        <time>2015-05-24T12:28:26Z</time>
      </trkpt>
      <trkpt lat="45.35635" lon="5.89922">
        <ele>1583.216902914</ele>
        <time>2015-05-24T12:28:31Z</time>
      </trkpt>
      <trkpt lat="45.35637" lon="5.89918">
        <ele>1583.216902914</ele>
        <time>2015-05-24T12:28:36Z</time>
      </trkpt>
      <trkpt lat="45.35638" lon="5.89919">
        <ele>1583.216902914</ele>
        <time>2015-05-24T12:28:41Z</time>
      </trkpt>
      <trkpt lat="45.35639" lon="5.89911">
        <ele>1585.721933046</ele>
        <time>2015-05-24T12:28:46Z</time>
      </trkpt>
      <trkpt lat="45.35635" lon="5.89912">
        <ele>1585.721933046</ele>
        <time>2015-05-24T12:28:51Z</time>
      </trkpt>
      <trkpt lat="45.35634" lon="5.89911">
        <ele>1585.721933046</ele>
        <time>2015-05-24T12:28:56Z</time>
      </trkpt>
      <trkpt lat="45.35635" lon="5.89909">
        <ele>1585.721933046</ele>
        <time>2015-05-24T12:29:01Z</time>
      </trkpt>
      <trkpt lat="45.35634" lon="5.89909">
        <ele>1585.721933046</ele>
        <time>2015-05-24T12:29:06Z</time>
      </trkpt>
      <trkpt lat="45.35633" lon="5.89909">
        <ele>1585.721933046</ele>
        <time>2015-05-24T12:29:11Z</time>
      </trkpt>
      <trkpt lat="45.35633" lon="5.89909">
        <ele>1585.721933046</ele>
        <time>2015-05-24T12:29:16Z</time>
      </trkpt>
      <trkpt lat="45.35636" lon="5.89901">
        <ele>1588.287961344</ele>
        <time>2015-05-24T12:29:21Z</time>
      </trkpt>
      <trkpt lat="45.35635" lon="5.89893">
        <ele>1588.287961344</ele>
        <time>2015-05-24T12:29:26Z</time>
      </trkpt>
      <trkpt lat="45.35629" lon="5.89888">
        <ele>1591.487286289</ele>
        <time>2015-05-24T12:29:31Z</time>
      </trkpt>
      <trkpt lat="45.35631" lon="5.89878">
        <ele>1591.487286289</ele>
        <time>2015-05-24T12:29:36Z</time>
      </trkpt>
      <trkpt lat="45.3563" lon="5.89875">
        <ele>1594.551383158</ele>
        <time>2015-05-24T12:29:41Z</time>
      </trkpt>
      <trkpt lat="45.3563" lon="5.89869">
        <ele>1594.551383158</ele>
        <time>2015-05-24T12:29:46Z</time>
      </trkpt>
      <trkpt lat="45.35631" lon="5.89866">
        <ele>1594.551383158</ele>
        <time>2015-05-24T12:29:51Z</time>
      </trkpt>
      <trkpt lat="45.35629" lon="5.89858">
        <ele>1598.065560002</ele>
        <time>2015-05-24T12:29:56Z</time>
      </trkpt>
      <trkpt lat="45.35627" lon="5.89851">
        <ele>1598.065560002</ele>
        <time>2015-05-24T12:30:01Z</time>
      </trkpt>
      <trkpt lat="45.35626" lon="5.89842">
        <ele>1600.985643961</ele>
        <time>2015-05-24T12:30:06Z</time>
      </trkpt>
      <trkpt lat="45.35626" lon="5.89835">
        <ele>1600.985643961</ele>
        <time>2015-05-24T12:30:11Z</time>
      </trkpt>
      <trkpt lat="45.35624" lon="5.89833">
        <ele>1600.985643961</ele>
        <time>2015-05-24T12:30:15Z</time>
      </trkpt>
      <trkpt lat="45.35627" lon="5.89833">
        <ele>1604.65161782</ele>
        <time>2015-05-24T12:30:21Z</time>
      </trkpt>
      <trkpt lat="45.35629" lon="5.89834">
        <ele>1604.65161782</ele>
        <time>2015-05-24T12:30:26Z</time>
      </trkpt>
      <trkpt lat="45.35632" lon="5.89833">
        <ele>1604.65161782</ele>
        <time>2015-05-24T12:30:31Z</time>
      </trkpt>
      <trkpt lat="45.35636" lon="5.89836">
        <ele>1608.141281025</ele>
        <time>2015-05-24T12:30:36Z</time>
      </trkpt>
      <trkpt lat="45.35642" lon="5.89836">
        <ele>1608.141281025</ele>
        <time>2015-05-24T12:30:41Z</time>
      </trkpt>
      <trkpt lat="45.35638" lon="5.89837">
        <ele>1611.897689074</ele>
        <time>2015-05-24T12:30:46Z</time>
      </trkpt>
      <trkpt lat="45.35635" lon="5.89837">
        <ele>1611.897689074</ele>
        <time>2015-05-24T12:30:51Z</time>
      </trkpt>
      <trkpt lat="45.35636" lon="5.89838">
        <ele>1611.897689074</ele>
        <time>2015-05-24T12:30:56Z</time>
      </trkpt>
      <trkpt lat="45.35638" lon="5.89838">
        <ele>1611.897689074</ele>
        <time>2015-05-24T12:31:01Z</time>
      </trkpt>
      <trkpt lat="45.35638" lon="5.89837">
        <ele>1611.897689074</ele>
        <time>2015-05-24T12:31:06Z</time>
      </trkpt>
      <trkpt lat="45.35635" lon="5.89834">
        <ele>1615.033623509</ele>
        <time>2015-05-24T12:31:11Z</time>
      </trkpt>
      <trkpt lat="45.35635" lon="5.89832">
        <ele>1615.033623509</ele>
        <time>2015-05-24T12:31:16Z</time>
      </trkpt>
      <trkpt lat="45.35636" lon="5.89828">
        <ele>1615.033623509</ele>
        <time>2015-05-24T12:31:21Z</time>
      </trkpt>
      <trkpt lat="45.3564" lon="5.89821">
        <ele>1617.449361796</ele>
        <time>2015-05-24T12:31:26Z</time>
      </trkpt>
      <trkpt lat="45.35642" lon="5.89819">
        <ele>1617.449361796</ele>
        <time>2015-05-24T12:31:31Z</time>
      </trkpt>
      <trkpt lat="45.35637" lon="5.89813">
        <ele>1617.449361796</ele>
        <time>2015-05-24T12:31:36Z</time>
      </trkpt>
      <trkpt lat="45.35634" lon="5.89812">
        <ele>1620.207443382</ele>
        <time>2015-05-24T12:31:41Z</time>
      </trkpt>
      <trkpt lat="45.35634" lon="5.89812">
        <ele>1620.207443382</ele>
        <time>2015-05-24T12:31:46Z</time>
      </trkpt>
      <trkpt lat="45.35632" lon="5.89813">
        <ele>1620.207443382</ele>
        <time>2015-05-24T12:31:51Z</time>
      </trkpt>
      <trkpt lat="45.35635" lon="5.89815">
        <ele>1620.207443382</ele>
        <time>2015-05-24T12:31:56Z</time>
      </trkpt>
      <trkpt lat="45.35634" lon="5.89815">
        <ele>1620.207443382</ele>
        <time>2015-05-24T12:32:01Z</time>
      </trkpt>
      <trkpt lat="45.35634" lon="5.89818">
        <ele>1620.207443382</ele>
        <time>2015-05-24T12:32:06Z</time>
      </trkpt>
      <trkpt lat="45.35628" lon="5.89817">
        <ele>1624.867868204</ele>
        <time>2015-05-24T12:32:11Z</time>
      </trkpt>
      <trkpt lat="45.35624" lon="5.89815">
        <ele>1624.867868204</ele>
        <time>2015-05-24T12:32:16Z</time>
      </trkpt>
      <trkpt lat="45.35624" lon="5.89816">
        <ele>1624.867868204</ele>
        <time>2015-05-24T12:32:21Z</time>
      </trkpt>
      <trkpt lat="45.35627" lon="5.89813">
        <ele>1624.867868204</ele>
        <time>2015-05-24T12:32:26Z</time>
      </trkpt>
      <trkpt lat="45.35625" lon="5.89807">
        <ele>1627.826842468</ele>
        <time>2015-05-24T12:32:31Z</time>
      </trkpt>
      <trkpt lat="45.3563" lon="5.89798">
        <ele>1627.826842468</ele>
        <time>2015-05-24T12:32:36Z</time>
      </trkpt>
      <trkpt lat="45.35629" lon="5.89793">
        <ele>1629.641109821</ele>
        <time>2015-05-24T12:32:41Z</time>
      </trkpt>
      <trkpt lat="45.35625" lon="5.89789">
        <ele>1629.641109821</ele>
        <time>2015-05-24T12:32:46Z</time>
      </trkpt>
      <trkpt lat="45.35625" lon="5.89787">
        <ele>1629.641109821</ele>
        <time>2015-05-24T12:32:51Z</time>
      </trkpt>
      <trkpt lat="45.35626" lon="5.89784">
        <ele>1629.641109821</ele>
        <time>2015-05-24T12:32:56Z</time>
      </trkpt>
      <trkpt lat="45.35625" lon="5.8978">
        <ele>1631.406201007</ele>
        <time>2015-05-24T12:33:01Z</time>
      </trkpt>
      <trkpt lat="45.35626" lon="5.89776">
        <ele>1631.406201007</ele>
        <time>2015-05-24T12:33:06Z</time>
      </trkpt>
      <trkpt lat="45.35622" lon="5.89775">
        <ele>1631.406201007</ele>
        <time>2015-05-24T12:33:11Z</time>
      </trkpt>
      <trkpt lat="45.35621" lon="5.89773">
        <ele>1631.406201007</ele>
        <time>2015-05-24T12:33:16Z</time>
      </trkpt>
      <trkpt lat="45.35623" lon="5.89773">
        <ele>1632.984442973</ele>
        <time>2015-05-24T12:33:20Z</time>
      </trkpt>
      <trkpt lat="45.35623" lon="5.89773">
        <ele>1632.984442973</ele>
        <time>2015-05-24T12:33:26Z</time>
      </trkpt>
      <trkpt lat="45.35622" lon="5.8977">
        <ele>1632.984442973</ele>
        <time>2015-05-24T12:33:30Z</time>
      </trkpt>
      <trkpt lat="45.35622" lon="5.89771">
        <ele>1632.984442973</ele>
        <time>2015-05-24T12:33:36Z</time>
      </trkpt>
      <trkpt lat="45.35622" lon="5.89771">
        <ele>1632.984442973</ele>
        <time>2015-05-24T12:33:41Z</time>
      </trkpt>
      <trkpt lat="45.35623" lon="5.8977">
        <ele>1632.984442973</ele>
        <time>2015-05-24T12:33:45Z</time>
      </trkpt>
      <trkpt lat="45.35623" lon="5.8977">
        <ele>1632.984442973</ele>
        <time>2015-05-24T12:33:51Z</time>
      </trkpt>
      <trkpt lat="45.35622" lon="5.8977">
        <ele>1632.984442973</ele>
        <time>2015-05-24T12:33:56Z</time>
      </trkpt>
      <trkpt lat="45.35622" lon="5.8977">
        <ele>1632.984442973</ele>
        <time>2015-05-24T12:34:01Z</time>
      </trkpt>
      <trkpt lat="45.35622" lon="5.8977">
        <ele>1632.984442973</ele>
        <time>2015-05-24T12:34:06Z</time>
      </trkpt>
      <trkpt lat="45.35622" lon="5.8977">
        <ele>1632.984442973</ele>
        <time>2015-05-24T12:34:11Z</time>
      </trkpt>
      <trkpt lat="45.35622" lon="5.89771">
        <ele>1632.984442973</ele>
        <time>2015-05-24T12:34:16Z</time>
      </trkpt>
      <trkpt lat="45.35623" lon="5.89765">
        <ele>1634.681149264</ele>
        <time>2015-05-24T12:34:21Z</time>
      </trkpt>
      <trkpt lat="45.35622" lon="5.8976">
        <ele>1634.681149264</ele>
        <time>2015-05-24T12:34:26Z</time>
      </trkpt>
      <trkpt lat="45.35623" lon="5.89758">
        <ele>1634.681149264</ele>
        <time>2015-05-24T12:34:31Z</time>
      </trkpt>
      <trkpt lat="45.35623" lon="5.89755">
        <ele>1634.681149264</ele>
        <time>2015-05-24T12:34:36Z</time>
      </trkpt>
      <trkpt lat="45.35623" lon="5.89753">
        <ele>1634.681149264</ele>
        <time>2015-05-24T12:34:41Z</time>
      </trkpt>
      <trkpt lat="45.35622" lon="5.89748">
        <ele>1636.778878881</ele>
        <time>2015-05-24T12:34:46Z</time>
      </trkpt>
      <trkpt lat="45.35622" lon="5.89744">
        <ele>1636.778878881</ele>
        <time>2015-05-24T12:34:51Z</time>
      </trkpt>
      <trkpt lat="45.35622" lon="5.89741">
        <ele>1636.778878881</ele>
        <time>2015-05-24T12:34:56Z</time>
      </trkpt>
      <trkpt lat="45.35621" lon="5.8974">
        <ele>1636.778878881</ele>
        <time>2015-05-24T12:35:01Z</time>
      </trkpt>
      <trkpt lat="45.3562" lon="5.89737">
        <ele>1636.778878881</ele>
        <time>2015-05-24T12:35:06Z</time>
      </trkpt>
      <trkpt lat="45.35619" lon="5.89739">
        <ele>1639.105973495</ele>
        <time>2015-05-24T12:35:11Z</time>
      </trkpt>
      <trkpt lat="45.35619" lon="5.89739">
        <ele>1639.105973495</ele>
        <time>2015-05-24T12:35:16Z</time>
      </trkpt>
      <trkpt lat="45.35618" lon="5.89737">
        <ele>1639.105973495</ele>
        <time>2015-05-24T12:35:21Z</time>
      </trkpt>
      <trkpt lat="45.35618" lon="5.89736">
        <ele>1639.105973495</ele>
        <time>2015-05-24T12:35:26Z</time>
      </trkpt>
      <trkpt lat="45.35617" lon="5.89737">
        <ele>1639.105973495</ele>
        <time>2015-05-24T12:35:31Z</time>
      </trkpt>
      <trkpt lat="45.35617" lon="5.89736">
        <ele>1639.105973495</ele>
        <time>2015-05-24T12:35:36Z</time>
      </trkpt>
      <trkpt lat="45.35617" lon="5.89736">
        <ele>1639.105973495</ele>
        <time>2015-05-24T12:35:41Z</time>
      </trkpt>
      <trkpt lat="45.35617" lon="5.89736">
        <ele>1639.105973495</ele>
        <time>2015-05-24T12:35:46Z</time>
      </trkpt>
      <trkpt lat="45.35617" lon="5.89736">
        <ele>1639.105973495</ele>
        <time>2015-05-24T12:35:51Z</time>
      </trkpt>
      <trkpt lat="45.35617" lon="5.89736">
        <ele>1639.105973495</ele>
        <time>2015-05-24T12:35:56Z</time>
      </trkpt>
      <trkpt lat="45.35617" lon="5.89736">
        <ele>1639.105973495</ele>
        <time>2015-05-24T12:36:01Z</time>
      </trkpt>
      <trkpt lat="45.35617" lon="5.89736">
        <ele>1639.105973495</ele>
        <time>2015-05-24T12:36:06Z</time>
      </trkpt>
      <trkpt lat="45.35617" lon="5.89736">
        <ele>1639.105973495</ele>
        <time>2015-05-24T12:36:11Z</time>
      </trkpt>
      <trkpt lat="45.35617" lon="5.89736">
        <ele>1639.105973495</ele>
        <time>2015-05-24T12:36:16Z</time>
      </trkpt>
      <trkpt lat="45.35617" lon="5.89736">
        <ele>1639.105973495</ele>
        <time>2015-05-24T12:36:21Z</time>
      </trkpt>
      <trkpt lat="45.35617" lon="5.89736">
        <ele>1639.105973495</ele>
        <time>2015-05-24T12:36:26Z</time>
      </trkpt>
      <trkpt lat="45.35617" lon="5.89736">
        <ele>1639.105973495</ele>
        <time>2015-05-24T12:36:31Z</time>
      </trkpt>
      <trkpt lat="45.35617" lon="5.89736">
        <ele>1639.105973495</ele>
        <time>2015-05-24T12:36:36Z</time>
      </trkpt>
      <trkpt lat="45.35617" lon="5.89736">
        <ele>1639.105973495</ele>
        <time>2015-05-24T12:36:41Z</time>
      </trkpt>
      <trkpt lat="45.35617" lon="5.89736">
        <ele>1639.105973495</ele>
        <time>2015-05-24T12:36:45Z</time>
      </trkpt>
      <trkpt lat="45.35617" lon="5.89736">
        <ele>1639.105973495</ele>
        <time>2015-05-24T12:36:51Z</time>
      </trkpt>
      <trkpt lat="45.35617" lon="5.89736">
        <ele>1639.105973495</ele>
        <time>2015-05-24T12:36:55Z</time>
      </trkpt>
      <trkpt lat="45.35616" lon="5.8973">
        <ele>1639.105973495</ele>
        <time>2015-05-24T12:37:00Z</time>
      </trkpt>
      <trkpt lat="45.35613" lon="5.89727">
        <ele>1642.655624083</ele>
        <time>2015-05-24T12:37:05Z</time>
      </trkpt>
      <trkpt lat="45.35611" lon="5.89723">
        <ele>1642.655624083</ele>
        <time>2015-05-24T12:37:11Z</time>
      </trkpt>
      <trkpt lat="45.35612" lon="5.89723">
        <ele>1642.655624083</ele>
        <time>2015-05-24T12:37:16Z</time>
      </trkpt>
      <trkpt lat="45.35611" lon="5.8972">
        <ele>1642.655624083</ele>
        <time>2015-05-24T12:37:21Z</time>
      </trkpt>
      <trkpt lat="45.35611" lon="5.8972">
        <ele>1642.655624083</ele>
        <time>2015-05-24T12:37:26Z</time>
      </trkpt>
      <trkpt lat="45.35612" lon="5.8972">
        <ele>1642.655624083</ele>
        <time>2015-05-24T12:37:31Z</time>
      </trkpt>
      <trkpt lat="45.35614" lon="5.89715">
        <ele>1646.615292097</ele>
        <time>2015-05-24T12:37:36Z</time>
      </trkpt>
      <trkpt lat="45.35613" lon="5.89709">
        <ele>1646.615292097</ele>
        <time>2015-05-24T12:37:41Z</time>
      </trkpt>
      <trkpt lat="45.35615" lon="5.89708">
        <ele>1646.615292097</ele>
        <time>2015-05-24T12:37:46Z</time>
      </trkpt>
      <trkpt lat="45.35616" lon="5.89705">
        <ele>1650.519196885</ele>
        <time>2015-05-24T12:37:51Z</time>
      </trkpt>
      <trkpt lat="45.35616" lon="5.89702">
        <ele>1650.519196885</ele>
        <time>2015-05-24T12:37:56Z</time>
      </trkpt>
      <trkpt lat="45.35614" lon="5.89701">
        <ele>1650.519196885</ele>
        <time>2015-05-24T12:38:01Z</time>
      </trkpt>
      <trkpt lat="45.35614" lon="5.89699">
        <ele>1650.519196885</ele>
        <time>2015-05-24T12:38:06Z</time>
      </trkpt>
      <trkpt lat="45.35612" lon="5.89696">
        <ele>1650.519196885</ele>
        <time>2015-05-24T12:38:11Z</time>
      </trkpt>
      <trkpt lat="45.35611" lon="5.89691">
        <ele>1653.359487939</ele>
        <time>2015-05-24T12:38:16Z</time>
      </trkpt>
      <trkpt lat="45.35613" lon="5.89688">
        <ele>1653.359487939</ele>
        <time>2015-05-24T12:38:21Z</time>
      </trkpt>
      <trkpt lat="45.35617" lon="5.89688">
        <ele>1653.359487939</ele>
        <time>2015-05-24T12:38:26Z</time>
      </trkpt>
      <trkpt lat="45.35619" lon="5.89688">
        <ele>1655.790564893</ele>
        <time>2015-05-24T12:38:31Z</time>
      </trkpt>
      <trkpt lat="45.35619" lon="5.89687">
        <ele>1655.790564893</ele>
        <time>2015-05-24T12:38:36Z</time>
      </trkpt>
      <trkpt lat="45.35618" lon="5.89683">
        <ele>1655.790564893</ele>
        <time>2015-05-24T12:38:41Z</time>
      </trkpt>
      <trkpt lat="45.35616" lon="5.89681">
        <ele>1655.790564893</ele>
        <time>2015-05-24T12:38:46Z</time>
      </trkpt>
      <trkpt lat="45.35616" lon="5.89678">
        <ele>1655.790564893</ele>
        <time>2015-05-24T12:38:51Z</time>
      </trkpt>
      <trkpt lat="45.35614" lon="5.89675">
        <ele>1657.987579433</ele>
        <time>2015-05-24T12:38:56Z</time>
      </trkpt>
      <trkpt lat="45.35614" lon="5.89673">
        <ele>1657.987579433</ele>
        <time>2015-05-24T12:39:01Z</time>
      </trkpt>
      <trkpt lat="45.35612" lon="5.89672">
        <ele>1657.987579433</ele>
        <time>2015-05-24T12:39:06Z</time>
      </trkpt>
      <trkpt lat="45.35615" lon="5.89669">
        <ele>1657.987579433</ele>
        <time>2015-05-24T12:39:11Z</time>
      </trkpt>
      <trkpt lat="45.35617" lon="5.89664">
        <ele>1660.834038087</ele>
        <time>2015-05-24T12:39:16Z</time>
      </trkpt>
      <trkpt lat="45.35621" lon="5.89659">
        <ele>1660.834038087</ele>
        <time>2015-05-24T12:39:21Z</time>
      </trkpt>
      <trkpt lat="45.35621" lon="5.89655">
        <ele>1660.834038087</ele>
        <time>2015-05-24T12:39:26Z</time>
      </trkpt>
      <trkpt lat="45.35619" lon="5.89652">
        <ele>1663.993841464</ele>
        <time>2015-05-24T12:39:31Z</time>
      </trkpt>
      <trkpt lat="45.35616" lon="5.8965">
        <ele>1663.993841464</ele>
        <time>2015-05-24T12:39:35Z</time>
      </trkpt>
      <trkpt lat="45.35614" lon="5.89645">
        <ele>1663.993841464</ele>
        <time>2015-05-24T12:39:40Z</time>
      </trkpt>
      <trkpt lat="45.35615" lon="5.89644">
        <ele>1663.993841464</ele>
        <time>2015-05-24T12:39:45Z</time>
      </trkpt>
      <trkpt lat="45.35619" lon="5.89643">
        <ele>1667.875264135</ele>
        <time>2015-05-24T12:39:51Z</time>
      </trkpt>
      <trkpt lat="45.3562" lon="5.89641">
        <ele>1667.875264135</ele>
        <time>2015-05-24T12:39:56Z</time>
      </trkpt>
      <trkpt lat="45.35623" lon="5.89643">
        <ele>1667.875264135</ele>
        <time>2015-05-24T12:40:01Z</time>
      </trkpt>
      <trkpt lat="45.35623" lon="5.89644">
        <ele>1667.875264135</ele>
        <time>2015-05-24T12:40:06Z</time>
      </trkpt>
      <trkpt lat="45.35623" lon="5.89644">
        <ele>1667.875264135</ele>
        <time>2015-05-24T12:40:10Z</time>
      </trkpt>
      <trkpt lat="45.35623" lon="5.89642">
        <ele>1667.875264135</ele>
        <time>2015-05-24T12:40:16Z</time>
      </trkpt>
      <trkpt lat="45.35626" lon="5.89644">
        <ele>1671.701685635</ele>
        <time>2015-05-24T12:40:20Z</time>
      </trkpt>
      <trkpt lat="45.35633" lon="5.89645">
        <ele>1671.701685635</ele>
        <time>2015-05-24T12:40:25Z</time>
      </trkpt>
      <trkpt lat="45.35636" lon="5.89646">
        <ele>1674.321369993</ele>
        <time>2015-05-24T12:40:31Z</time>
      </trkpt>
      <trkpt lat="45.35636" lon="5.89647">
        <ele>1674.321369993</ele>
        <time>2015-05-24T12:40:36Z</time>
      </trkpt>
      <trkpt lat="45.35637" lon="5.89647">
        <ele>1674.321369993</ele>
        <time>2015-05-24T12:40:41Z</time>
      </trkpt>
      <trkpt lat="45.35637" lon="5.89647">
        <ele>1674.321369993</ele>
        <time>2015-05-24T12:40:46Z</time>
      </trkpt>
      <trkpt lat="45.35637" lon="5.89647">
        <ele>1674.321369993</ele>
        <time>2015-05-24T12:40:51Z</time>
      </trkpt>
      <trkpt lat="45.35637" lon="5.89646">
        <ele>1674.321369993</ele>
        <time>2015-05-24T12:40:56Z</time>
      </trkpt>
      <trkpt lat="45.3564" lon="5.89646">
        <ele>1674.321369993</ele>
        <time>2015-05-24T12:41:01Z</time>
      </trkpt>
      <trkpt lat="45.35645" lon="5.89649">
        <ele>1677.12047928</ele>
        <time>2015-05-24T12:41:06Z</time>
      </trkpt>
      <trkpt lat="45.35646" lon="5.89651">
        <ele>1677.12047928</ele>
        <time>2015-05-24T12:41:11Z</time>
      </trkpt>
      <trkpt lat="45.35647" lon="5.8965">
        <ele>1677.12047928</ele>
        <time>2015-05-24T12:41:16Z</time>
      </trkpt>
      <trkpt lat="45.35646" lon="5.89647">
        <ele>1677.12047928</ele>
        <time>2015-05-24T12:41:21Z</time>
      </trkpt>
      <trkpt lat="45.35647" lon="5.89646">
        <ele>1677.12047928</ele>
        <time>2015-05-24T12:41:26Z</time>
      </trkpt>
      <trkpt lat="45.35647" lon="5.89646">
        <ele>1677.12047928</ele>
        <time>2015-05-24T12:41:31Z</time>
      </trkpt>
      <trkpt lat="45.35646" lon="5.89647">
        <ele>1677.12047928</ele>
        <time>2015-05-24T12:41:36Z</time>
      </trkpt>
      <trkpt lat="45.35647" lon="5.89642">
        <ele>1680.950532789</ele>
        <time>2015-05-24T12:41:41Z</time>
      </trkpt>
      <trkpt lat="45.35648" lon="5.8964">
        <ele>1680.950532789</ele>
        <time>2015-05-24T12:41:46Z</time>
      </trkpt>
      <trkpt lat="45.35648" lon="5.89638">
        <ele>1680.950532789</ele>
        <time>2015-05-24T12:41:51Z</time>
      </trkpt>
      <trkpt lat="45.35647" lon="5.89635">
        <ele>1680.950532789</ele>
        <time>2015-05-24T12:41:56Z</time>
      </trkpt>
      <trkpt lat="45.3565" lon="5.8963">
        <ele>1685.156517836</ele>
        <time>2015-05-24T12:42:01Z</time>
      </trkpt>
      <trkpt lat="45.35649" lon="5.89627">
        <ele>1685.156517836</ele>
        <time>2015-05-24T12:42:06Z</time>
      </trkpt>
      <trkpt lat="45.35653" lon="5.89631">
        <ele>1685.156517836</ele>
        <time>2015-05-24T12:42:11Z</time>
      </trkpt>
      <trkpt lat="45.35654" lon="5.89629">
        <ele>1689.418734535</ele>
        <time>2015-05-24T12:42:16Z</time>
      </trkpt>
      <trkpt lat="45.35653" lon="5.89628">
        <ele>1689.418734535</ele>
        <time>2015-05-24T12:42:21Z</time>
      </trkpt>
      <trkpt lat="45.35653" lon="5.89627">
        <ele>1689.418734535</ele>
        <time>2015-05-24T12:42:26Z</time>
      </trkpt>
      <trkpt lat="45.35651" lon="5.89625">
        <ele>1689.418734535</ele>
        <time>2015-05-24T12:42:31Z</time>
      </trkpt>
      <trkpt lat="45.35651" lon="5.89622">
        <ele>1689.418734535</ele>
        <time>2015-05-24T12:42:36Z</time>
      </trkpt>
      <trkpt lat="45.35649" lon="5.89619">
        <ele>1694.881959235</ele>
        <time>2015-05-24T12:42:41Z</time>
      </trkpt>
      <trkpt lat="45.35647" lon="5.89619">
        <ele>1694.881959235</ele>
        <time>2015-05-24T12:42:46Z</time>
      </trkpt>
      <trkpt lat="45.35645" lon="5.89618">
        <ele>1694.881959235</ele>
        <time>2015-05-24T12:42:51Z</time>
      </trkpt>
      <trkpt lat="45.35646" lon="5.89612">
        <ele>1694.881959235</ele>
        <time>2015-05-24T12:42:56Z</time>
      </trkpt>
      <trkpt lat="45.35643" lon="5.89608">
        <ele>1700.009552477</ele>
        <time>2015-05-24T12:43:01Z</time>
      </trkpt>
      <trkpt lat="45.35643" lon="5.89604">
        <ele>1700.009552477</ele>
        <time>2015-05-24T12:43:06Z</time>
      </trkpt>
      <trkpt lat="45.35641" lon="5.89602">
        <ele>1700.009552477</ele>
        <time>2015-05-24T12:43:11Z</time>
      </trkpt>
      <trkpt lat="45.3564" lon="5.896">
        <ele>1700.009552477</ele>
        <time>2015-05-24T12:43:16Z</time>
      </trkpt>
      <trkpt lat="45.35637" lon="5.89598">
        <ele>1704.963981709</ele>
        <time>2015-05-24T12:43:21Z</time>
      </trkpt>
      <trkpt lat="45.35637" lon="5.89597">
        <ele>1704.963981709</ele>
        <time>2015-05-24T12:43:25Z</time>
      </trkpt>
      <trkpt lat="45.35637" lon="5.89593">
        <ele>1704.963981709</ele>
        <time>2015-05-24T12:43:32Z</time>
      </trkpt>
      <trkpt lat="45.35634" lon="5.8959">
        <ele>1704.963981709</ele>
        <time>2015-05-24T12:43:36Z</time>
      </trkpt>
      <trkpt lat="45.35634" lon="5.89589">
        <ele>1704.963981709</ele>
        <time>2015-05-24T12:43:41Z</time>
      </trkpt>
      <trkpt lat="45.35634" lon="5.89589">
        <ele>1709.60811772</ele>
        <time>2015-05-24T12:43:46Z</time>
      </trkpt>
      <trkpt lat="45.35636" lon="5.89588">
        <ele>1709.60811772</ele>
        <time>2015-05-24T12:43:51Z</time>
      </trkpt>
      <trkpt lat="45.35636" lon="5.89587">
        <ele>1709.60811772</ele>
        <time>2015-05-24T12:43:56Z</time>
      </trkpt>
      <trkpt lat="45.35636" lon="5.89587">
        <ele>1709.60811772</ele>
        <time>2015-05-24T12:44:01Z</time>
      </trkpt>
      <trkpt lat="45.35636" lon="5.89587">
        <ele>1709.60811772</ele>
        <time>2015-05-24T12:44:06Z</time>
      </trkpt>
      <trkpt lat="45.35636" lon="5.89587">
        <ele>1709.60811772</ele>
        <time>2015-05-24T12:44:11Z</time>
      </trkpt>
      <trkpt lat="45.35638" lon="5.89588">
        <ele>1709.60811772</ele>
        <time>2015-05-24T12:44:16Z</time>
      </trkpt>
      <trkpt lat="45.35638" lon="5.89589">
        <ele>1709.60811772</ele>
        <time>2015-05-24T12:44:21Z</time>
      </trkpt>
      <trkpt lat="45.35637" lon="5.89589">
        <ele>1709.60811772</ele>
        <time>2015-05-24T12:44:26Z</time>
      </trkpt>
      <trkpt lat="45.35637" lon="5.89589">
        <ele>1709.60811772</ele>
        <time>2015-05-24T12:44:31Z</time>
      </trkpt>
      <trkpt lat="45.35637" lon="5.89589">
        <ele>1709.60811772</ele>
        <time>2015-05-24T12:44:36Z</time>
      </trkpt>
      <trkpt lat="45.35637" lon="5.89589">
        <ele>1709.60811772</ele>
        <time>2015-05-24T12:44:41Z</time>
      </trkpt>
      <trkpt lat="45.35637" lon="5.89589">
        <ele>1709.60811772</ele>
        <time>2015-05-24T12:44:46Z</time>
      </trkpt>
      <trkpt lat="45.35637" lon="5.89589">
        <ele>1709.60811772</ele>
        <time>2015-05-24T12:44:51Z</time>
      </trkpt>
      <trkpt lat="45.35637" lon="5.89589">
        <ele>1709.60811772</ele>
        <time>2015-05-24T12:44:56Z</time>
      </trkpt>
      <trkpt lat="45.35637" lon="5.89589">
        <ele>1709.60811772</ele>
        <time>2015-05-24T12:45:01Z</time>
      </trkpt>
      <trkpt lat="45.35637" lon="5.89589">
        <ele>1709.60811772</ele>
        <time>2015-05-24T12:45:06Z</time>
      </trkpt>
      <trkpt lat="45.35637" lon="5.89589">
        <ele>1709.60811772</ele>
        <time>2015-05-24T12:45:11Z</time>
      </trkpt>
      <trkpt lat="45.35637" lon="5.89589">
        <ele>1709.60811772</ele>
        <time>2015-05-24T12:45:16Z</time>
      </trkpt>
      <trkpt lat="45.35633" lon="5.89583">
        <ele>1714.248195101</ele>
        <time>2015-05-24T12:45:21Z</time>
      </trkpt>
      <trkpt lat="45.35634" lon="5.89578">
        <ele>1714.248195101</ele>
        <time>2015-05-24T12:45:26Z</time>
      </trkpt>
      <trkpt lat="45.35637" lon="5.89574">
        <ele>1714.248195101</ele>
        <time>2015-05-24T12:45:31Z</time>
      </trkpt>
      <trkpt lat="45.35638" lon="5.89572">
        <ele>1718.591614385</ele>
        <time>2015-05-24T12:45:36Z</time>
      </trkpt>
      <trkpt lat="45.35638" lon="5.89571">
        <ele>1718.591614385</ele>
        <time>2015-05-24T12:45:41Z</time>
      </trkpt>
      <trkpt lat="45.35638" lon="5.8957">
        <ele>1718.591614385</ele>
        <time>2015-05-24T12:45:46Z</time>
      </trkpt>
      <trkpt lat="45.35642" lon="5.89571">
        <ele>1718.591614385</ele>
        <time>2015-05-24T12:45:51Z</time>
      </trkpt>
      <trkpt lat="45.35644" lon="5.89571">
        <ele>1718.591614385</ele>
        <time>2015-05-24T12:45:56Z</time>
      </trkpt>
      <trkpt lat="45.35648" lon="5.89572">
        <ele>1723.809317144</ele>
        <time>2015-05-24T12:46:01Z</time>
      </trkpt>
      <trkpt lat="45.3565" lon="5.89572">
        <ele>1723.809317144</ele>
        <time>2015-05-24T12:46:06Z</time>
      </trkpt>
      <trkpt lat="45.3565" lon="5.89571">
        <ele>1723.809317144</ele>
        <time>2015-05-24T12:46:11Z</time>
      </trkpt>
      <trkpt lat="45.35651" lon="5.89574">
        <ele>1723.809317144</ele>
        <time>2015-05-24T12:46:16Z</time>
      </trkpt>
      <trkpt lat="45.35652" lon="5.89575">
        <ele>1723.809317144</ele>
        <time>2015-05-24T12:46:21Z</time>
      </trkpt>
      <trkpt lat="45.35652" lon="5.89575">
        <ele>1723.809317144</ele>
        <time>2015-05-24T12:46:25Z</time>
      </trkpt>
      <trkpt lat="45.35652" lon="5.89575">
        <ele>1723.809317144</ele>
        <time>2015-05-24T12:46:31Z</time>
      </trkpt>
      <trkpt lat="45.35652" lon="5.89574">
        <ele>1723.809317144</ele>
        <time>2015-05-24T12:46:35Z</time>
      </trkpt>
      <trkpt lat="45.35653" lon="5.89572">
        <ele>1723.809317144</ele>
        <time>2015-05-24T12:46:40Z</time>
      </trkpt>
      <trkpt lat="45.35658" lon="5.8957">
        <ele>1728.678106518</ele>
        <time>2015-05-24T12:46:46Z</time>
      </trkpt>
      <trkpt lat="45.3566" lon="5.89569">
        <ele>1728.678106518</ele>
        <time>2015-05-24T12:46:51Z</time>
      </trkpt>
      <trkpt lat="45.35662" lon="5.89574">
        <ele>1728.678106518</ele>
        <time>2015-05-24T12:46:56Z</time>
      </trkpt>
      <trkpt lat="45.35661" lon="5.89574">
        <ele>1728.678106518</ele>
        <time>2015-05-24T12:47:01Z</time>
      </trkpt>
      <trkpt lat="45.35661" lon="5.89574">
        <ele>1728.678106518</ele>
        <time>2015-05-24T12:47:06Z</time>
      </trkpt>
      <trkpt lat="45.35661" lon="5.89574">
        <ele>1728.678106518</ele>
        <time>2015-05-24T12:47:11Z</time>
      </trkpt>
      <trkpt lat="45.35661" lon="5.89574">
        <ele>1728.678106518</ele>
        <time>2015-05-24T12:47:16Z</time>
      </trkpt>
      <trkpt lat="45.35661" lon="5.89573">
        <ele>1728.678106518</ele>
        <time>2015-05-24T12:47:21Z</time>
      </trkpt>
      <trkpt lat="45.35659" lon="5.89572">
        <ele>1733.795070184</ele>
        <time>2015-05-24T12:47:26Z</time>
      </trkpt>
      <trkpt lat="45.35655" lon="5.89567">
        <ele>1733.795070184</ele>
        <time>2015-05-24T12:47:31Z</time>
      </trkpt>
      <trkpt lat="45.35655" lon="5.89561">
        <ele>1733.795070184</ele>
        <time>2015-05-24T12:47:36Z</time>
      </trkpt>
      <trkpt lat="45.35656" lon="5.89556">
        <ele>1738.127637095</ele>
        <time>2015-05-24T12:47:41Z</time>
      </trkpt>
      <trkpt lat="45.35654" lon="5.89555">
        <ele>1738.127637095</ele>
        <time>2015-05-24T12:47:46Z</time>
      </trkpt>
      <trkpt lat="45.35652" lon="5.89555">
        <ele>1738.127637095</ele>
        <time>2015-05-24T12:47:51Z</time>
      </trkpt>
      <trkpt lat="45.35654" lon="5.89551">
        <ele>1738.127637095</ele>
        <time>2015-05-24T12:47:56Z</time>
      </trkpt>
      <trkpt lat="45.35655" lon="5.89552">
        <ele>1738.127637095</ele>
        <time>2015-05-24T12:48:01Z</time>
      </trkpt>
      <trkpt lat="45.35655" lon="5.89555">
        <ele>1742.738972315</ele>
        <time>2015-05-24T12:48:06Z</time>
      </trkpt>
      <trkpt lat="45.35656" lon="5.89555">
        <ele>1742.738972315</ele>
        <time>2015-05-24T12:48:11Z</time>
      </trkpt>
      <trkpt lat="45.3566" lon="5.89556">
        <ele>1742.738972315</ele>
        <time>2015-05-24T12:48:16Z</time>
      </trkpt>
      <trkpt lat="45.35663" lon="5.89554">
        <ele>1742.738972315</ele>
        <time>2015-05-24T12:48:21Z</time>
      </trkpt>
      <trkpt lat="45.35666" lon="5.89553">
        <ele>1745.87537516</ele>
        <time>2015-05-24T12:48:26Z</time>
      </trkpt>
      <trkpt lat="45.35669" lon="5.89551">
        <ele>1745.87537516</ele>
        <time>2015-05-24T12:48:31Z</time>
      </trkpt>
      <trkpt lat="45.35669" lon="5.89551">
        <ele>1745.87537516</ele>
        <time>2015-05-24T12:48:36Z</time>
      </trkpt>
      <trkpt lat="45.35669" lon="5.89551">
        <ele>1745.87537516</ele>
        <time>2015-05-24T12:48:41Z</time>
      </trkpt>
      <trkpt lat="45.35669" lon="5.89551">
        <ele>1745.87537516</ele>
        <time>2015-05-24T12:48:46Z</time>
      </trkpt>
      <trkpt lat="45.35672" lon="5.89553">
        <ele>1745.87537516</ele>
        <time>2015-05-24T12:48:51Z</time>
      </trkpt>
      <trkpt lat="45.35677" lon="5.89556">
        <ele>1748.654345458</ele>
        <time>2015-05-24T12:48:56Z</time>
      </trkpt>
      <trkpt lat="45.35678" lon="5.89557">
        <ele>1748.654345458</ele>
        <time>2015-05-24T12:49:01Z</time>
      </trkpt>
      <trkpt lat="45.35679" lon="5.89558">
        <ele>1748.654345458</ele>
        <time>2015-05-24T12:49:06Z</time>
      </trkpt>
      <trkpt lat="45.35681" lon="5.89559">
        <ele>1748.654345458</ele>
        <time>2015-05-24T12:49:11Z</time>
      </trkpt>
      <trkpt lat="45.35683" lon="5.8956">
        <ele>1748.654345458</ele>
        <time>2015-05-24T12:49:16Z</time>
      </trkpt>
      <trkpt lat="45.35684" lon="5.89562">
        <ele>1748.654345458</ele>
        <time>2015-05-24T12:49:21Z</time>
      </trkpt>
      <trkpt lat="45.35684" lon="5.89563">
        <ele>1752.25652517</ele>
        <time>2015-05-24T12:49:26Z</time>
      </trkpt>
      <trkpt lat="45.35684" lon="5.89563">
        <ele>1752.25652517</ele>
        <time>2015-05-24T12:49:31Z</time>
      </trkpt>
      <trkpt lat="45.35684" lon="5.89563">
        <ele>1752.25652517</ele>
        <time>2015-05-24T12:49:36Z</time>
      </trkpt>
      <trkpt lat="45.35684" lon="5.89563">
        <ele>1752.25652517</ele>
        <time>2015-05-24T12:49:41Z</time>
      </trkpt>
      <trkpt lat="45.35687" lon="5.89563">
        <ele>1752.25652517</ele>
        <time>2015-05-24T12:49:46Z</time>
      </trkpt>
      <trkpt lat="45.35693" lon="5.89566">
        <ele>1756.764852324</ele>
        <time>2015-05-24T12:49:51Z</time>
      </trkpt>
      <trkpt lat="45.35697" lon="5.89566">
        <ele>1756.764852324</ele>
        <time>2015-05-24T12:49:55Z</time>
      </trkpt>
      <trkpt lat="45.35698" lon="5.89566">
        <ele>1756.764852324</ele>
        <time>2015-05-24T12:50:01Z</time>
      </trkpt>
      <trkpt lat="45.35697" lon="5.89562">
        <ele>1756.764852324</ele>
        <time>2015-05-24T12:50:05Z</time>
      </trkpt>
      <trkpt lat="45.35694" lon="5.89559">
        <ele>1761.244959023</ele>
        <time>2015-05-24T12:50:11Z</time>
      </trkpt>
      <trkpt lat="45.35692" lon="5.89557">
        <ele>1761.244959023</ele>
        <time>2015-05-24T12:50:15Z</time>
      </trkpt>
      <trkpt lat="45.3569" lon="5.89554">
        <ele>1761.244959023</ele>
        <time>2015-05-24T12:50:20Z</time>
      </trkpt>
      <trkpt lat="45.35689" lon="5.89548">
        <ele>1764.687185612</ele>
        <time>2015-05-24T12:50:26Z</time>
      </trkpt>
      <trkpt lat="45.35688" lon="5.89546">
        <ele>1764.687185612</ele>
        <time>2015-05-24T12:50:31Z</time>
      </trkpt>
      <trkpt lat="45.35688" lon="5.89542">
        <ele>1764.687185612</ele>
        <time>2015-05-24T12:50:36Z</time>
      </trkpt>
      <trkpt lat="45.35687" lon="5.89539">
        <ele>1764.687185612</ele>
        <time>2015-05-24T12:50:41Z</time>
      </trkpt>
      <trkpt lat="45.35686" lon="5.89536">
        <ele>1765.870825683</ele>
        <time>2015-05-24T12:50:46Z</time>
      </trkpt>
      <trkpt lat="45.35686" lon="5.89536">
        <ele>1765.870825683</ele>
        <time>2015-05-24T12:50:51Z</time>
      </trkpt>
      <trkpt lat="45.35686" lon="5.89536">
        <ele>1765.870825683</ele>
        <time>2015-05-24T12:50:56Z</time>
      </trkpt>
      <trkpt lat="45.35686" lon="5.89536">
        <ele>1765.870825683</ele>
        <time>2015-05-24T12:51:01Z</time>
      </trkpt>
      <trkpt lat="45.35686" lon="5.89536">
        <ele>1765.870825683</ele>
        <time>2015-05-24T12:51:06Z</time>
      </trkpt>
      <trkpt lat="45.35688" lon="5.89535">
        <ele>1765.870825683</ele>
        <time>2015-05-24T12:51:11Z</time>
      </trkpt>
      <trkpt lat="45.35684" lon="5.89537">
        <ele>1765.870825683</ele>
        <time>2015-05-24T12:51:16Z</time>
      </trkpt>
      <trkpt lat="45.35685" lon="5.89535">
        <ele>1765.870825683</ele>
        <time>2015-05-24T12:51:21Z</time>
      </trkpt>
      <trkpt lat="45.35685" lon="5.89535">
        <ele>1765.870825683</ele>
        <time>2015-05-24T12:51:26Z</time>
      </trkpt>
      <trkpt lat="45.35685" lon="5.89535">
        <ele>1765.870825683</ele>
        <time>2015-05-24T12:51:31Z</time>
      </trkpt>
      <trkpt lat="45.35685" lon="5.89535">
        <ele>1765.870825683</ele>
        <time>2015-05-24T12:51:36Z</time>
      </trkpt>
      <trkpt lat="45.35685" lon="5.89535">
        <ele>1765.870825683</ele>
        <time>2015-05-24T12:51:41Z</time>
      </trkpt>
      <trkpt lat="45.35685" lon="5.89535">
        <ele>1765.870825683</ele>
        <time>2015-05-24T12:51:46Z</time>
      </trkpt>
      <trkpt lat="45.35685" lon="5.89535">
        <ele>1765.870825683</ele>
        <time>2015-05-24T12:51:51Z</time>
      </trkpt>
      <trkpt lat="45.35689" lon="5.89528">
        <ele>1765.688819341</ele>
        <time>2015-05-24T12:51:56Z</time>
      </trkpt>
      <trkpt lat="45.35691" lon="5.89528">
        <ele>1765.688819341</ele>
        <time>2015-05-24T12:52:01Z</time>
      </trkpt>
      <trkpt lat="45.3569" lon="5.89531">
        <ele>1765.688819341</ele>
        <time>2015-05-24T12:52:06Z</time>
      </trkpt>
      <trkpt lat="45.35692" lon="5.89533">
        <ele>1765.688819341</ele>
        <time>2015-05-24T12:52:11Z</time>
      </trkpt>
      <trkpt lat="45.35694" lon="5.89534">
        <ele>1766.413516872</ele>
        <time>2015-05-24T12:52:16Z</time>
      </trkpt>
      <trkpt lat="45.35698" lon="5.89537">
        <ele>1766.413516872</ele>
        <time>2015-05-24T12:52:21Z</time>
      </trkpt>
      <trkpt lat="45.35698" lon="5.89538">
        <ele>1766.413516872</ele>
        <time>2015-05-24T12:52:26Z</time>
      </trkpt>
      <trkpt lat="45.357" lon="5.8954">
        <ele>1766.413516872</ele>
        <time>2015-05-24T12:52:31Z</time>
      </trkpt>
      <trkpt lat="45.357" lon="5.8954">
        <ele>1766.413516872</ele>
        <time>2015-05-24T12:52:36Z</time>
      </trkpt>
      <trkpt lat="45.35704" lon="5.89542">
        <ele>1767.697947278</ele>
        <time>2015-05-24T12:52:41Z</time>
      </trkpt>
      <trkpt lat="45.35706" lon="5.89542">
        <ele>1767.697947278</ele>
        <time>2015-05-24T12:52:46Z</time>
      </trkpt>
      <trkpt lat="45.35707" lon="5.89544">
        <ele>1767.697947278</ele>
        <time>2015-05-24T12:52:51Z</time>
      </trkpt>
      <trkpt lat="45.35709" lon="5.89546">
        <ele>1767.697947278</ele>
        <time>2015-05-24T12:52:56Z</time>
      </trkpt>
      <trkpt lat="45.35707" lon="5.89546">
        <ele>1767.697947278</ele>
        <time>2015-05-24T12:53:01Z</time>
      </trkpt>
      <trkpt lat="45.35708" lon="5.89548">
        <ele>1767.697947278</ele>
        <time>2015-05-24T12:53:06Z</time>
      </trkpt>
      <trkpt lat="45.35708" lon="5.89548">
        <ele>1769.5072924</ele>
        <time>2015-05-24T12:53:11Z</time>
      </trkpt>
      <trkpt lat="45.35708" lon="5.89548">
        <ele>1769.5072924</ele>
        <time>2015-05-24T12:53:16Z</time>
      </trkpt>
      <trkpt lat="45.35708" lon="5.89548">
        <ele>1769.5072924</ele>
        <time>2015-05-24T12:53:20Z</time>
      </trkpt>
      <trkpt lat="45.35707" lon="5.8955">
        <ele>1769.5072924</ele>
        <time>2015-05-24T12:53:26Z</time>
      </trkpt>
      <trkpt lat="45.35707" lon="5.89547">
        <ele>1769.5072924</ele>
        <time>2015-05-24T12:53:31Z</time>
      </trkpt>
      <trkpt lat="45.3571" lon="5.8954">
        <ele>1772.096033883</ele>
        <time>2015-05-24T12:53:35Z</time>
      </trkpt>
      <trkpt lat="45.35709" lon="5.89537">
        <ele>1772.096033883</ele>
        <time>2015-05-24T12:53:41Z</time>
      </trkpt>
      <trkpt lat="45.35709" lon="5.89533">
        <ele>1772.096033883</ele>
        <time>2015-05-24T12:53:45Z</time>
      </trkpt>
      <trkpt lat="45.35707" lon="5.89528">
        <ele>1774.544861461</ele>
        <time>2015-05-24T12:53:51Z</time>
      </trkpt>
      <trkpt lat="45.35708" lon="5.89524">
        <ele>1774.544861461</ele>
        <time>2015-05-24T12:53:56Z</time>
      </trkpt>
      <trkpt lat="45.35707" lon="5.89527">
        <ele>1774.544861461</ele>
        <time>2015-05-24T12:54:01Z</time>
      </trkpt>
      <trkpt lat="45.35706" lon="5.89528">
        <ele>1774.544861461</ele>
        <time>2015-05-24T12:54:06Z</time>
      </trkpt>
      <trkpt lat="45.35707" lon="5.89528">
        <ele>1774.544861461</ele>
        <time>2015-05-24T12:54:11Z</time>
      </trkpt>
      <trkpt lat="45.35707" lon="5.89528">
        <ele>1774.544861461</ele>
        <time>2015-05-24T12:54:16Z</time>
      </trkpt>
      <trkpt lat="45.35707" lon="5.89528">
        <ele>1774.544861461</ele>
        <time>2015-05-24T12:54:21Z</time>
      </trkpt>
      <trkpt lat="45.35707" lon="5.89528">
        <ele>1774.544861461</ele>
        <time>2015-05-24T12:54:26Z</time>
      </trkpt>
      <trkpt lat="45.35708" lon="5.89529">
        <ele>1777.011135516</ele>
        <time>2015-05-24T12:54:31Z</time>
      </trkpt>
      <trkpt lat="45.3571" lon="5.89536">
        <ele>1777.011135516</ele>
        <time>2015-05-24T12:54:36Z</time>
      </trkpt>
      <trkpt lat="45.35717" lon="5.89534">
        <ele>1778.63178915</ele>
        <time>2015-05-24T12:54:41Z</time>
      </trkpt>
      <trkpt lat="45.35719" lon="5.89543">
        <ele>1778.63178915</ele>
        <time>2015-05-24T12:54:45Z</time>
      </trkpt>
      <trkpt lat="45.35721" lon="5.89546">
        <ele>1780.338813546</ele>
        <time>2015-05-24T12:54:51Z</time>
      </trkpt>
      <trkpt lat="45.35722" lon="5.89549">
        <ele>1780.338813546</ele>
        <time>2015-05-24T12:54:56Z</time>
      </trkpt>
      <trkpt lat="45.35722" lon="5.8955">
        <ele>1780.338813546</ele>
        <time>2015-05-24T12:55:01Z</time>
      </trkpt>
      <trkpt lat="45.35722" lon="5.89551">
        <ele>1780.338813546</ele>
        <time>2015-05-24T12:55:06Z</time>
      </trkpt>
      <trkpt lat="45.35721" lon="5.89554">
        <ele>1780.338813546</ele>
        <time>2015-05-24T12:55:11Z</time>
      </trkpt>
      <trkpt lat="45.3572" lon="5.89559">
        <ele>1783.715995309</ele>
        <time>2015-05-24T12:55:16Z</time>
      </trkpt>
      <trkpt lat="45.35722" lon="5.89569">
        <ele>1783.715995309</ele>
        <time>2015-05-24T12:55:20Z</time>
      </trkpt>
      <trkpt lat="45.3573" lon="5.89569">
        <ele>1787.199698135</ele>
        <time>2015-05-24T12:55:26Z</time>
      </trkpt>
      <trkpt lat="45.35732" lon="5.89578">
        <ele>1787.199698135</ele>
        <time>2015-05-24T12:55:31Z</time>
      </trkpt>
      <trkpt lat="45.35733" lon="5.89583">
        <ele>1790.205456401</ele>
        <time>2015-05-24T12:55:36Z</time>
      </trkpt>
      <trkpt lat="45.35743" lon="5.89584">
        <ele>1792.337129272</ele>
        <time>2015-05-24T12:55:42Z</time>
      </trkpt>
      <trkpt lat="45.35743" lon="5.89589">
        <ele>1792.337129272</ele>
        <time>2015-05-24T12:55:46Z</time>
      </trkpt>
      <trkpt lat="45.35741" lon="5.89596">
        <ele>1792.337129272</ele>
        <time>2015-05-24T12:55:51Z</time>
      </trkpt>
      <trkpt lat="45.35738" lon="5.89602">
        <ele>1794.238844554</ele>
        <time>2015-05-24T12:55:56Z</time>
      </trkpt>
      <trkpt lat="45.3574" lon="5.89599">
        <ele>1794.238844554</ele>
        <time>2015-05-24T12:56:01Z</time>
      </trkpt>
      <trkpt lat="45.3574" lon="5.89599">
        <ele>1794.238844554</ele>
        <time>2015-05-24T12:56:06Z</time>
      </trkpt>
      <trkpt lat="45.3574" lon="5.89599">
        <ele>1794.238844554</ele>
        <time>2015-05-24T12:56:11Z</time>
      </trkpt>
      <trkpt lat="45.35741" lon="5.89599">
        <ele>1794.238844554</ele>
        <time>2015-05-24T12:56:16Z</time>
      </trkpt>
      <trkpt lat="45.35741" lon="5.89599">
        <ele>1794.238844554</ele>
        <time>2015-05-24T12:56:21Z</time>
      </trkpt>
      <trkpt lat="45.35741" lon="5.89599">
        <ele>1794.238844554</ele>
        <time>2015-05-24T12:56:26Z</time>
      </trkpt>
      <trkpt lat="45.3574" lon="5.89599">
        <ele>1794.238844554</ele>
        <time>2015-05-24T12:56:31Z</time>
      </trkpt>
      <trkpt lat="45.3574" lon="5.89599">
        <ele>1794.238844554</ele>
        <time>2015-05-24T12:56:36Z</time>
      </trkpt>
      <trkpt lat="45.3574" lon="5.89599">
        <ele>1794.238844554</ele>
        <time>2015-05-24T12:56:41Z</time>
      </trkpt>
      <trkpt lat="45.3574" lon="5.89599">
        <ele>1794.238844554</ele>
        <time>2015-05-24T12:56:45Z</time>
      </trkpt>
      <trkpt lat="45.3574" lon="5.89599">
        <ele>1794.238844554</ele>
        <time>2015-05-24T12:56:50Z</time>
      </trkpt>
      <trkpt lat="45.3574" lon="5.89599">
        <ele>1794.238844554</ele>
        <time>2015-05-24T12:56:56Z</time>
      </trkpt>
      <trkpt lat="45.3574" lon="5.89599">
        <ele>1794.238844554</ele>
        <time>2015-05-24T12:57:00Z</time>
      </trkpt>
      <trkpt lat="45.3574" lon="5.896">
        <ele>1794.238844554</ele>
        <time>2015-05-24T12:57:06Z</time>
      </trkpt>
      <trkpt lat="45.35741" lon="5.89601">
        <ele>1794.238844554</ele>
        <time>2015-05-24T12:57:11Z</time>
      </trkpt>
      <trkpt lat="45.35758" lon="5.89622">
        <ele>1794.922768169</ele>
        <time>2015-05-24T12:57:16Z</time>
      </trkpt>
      <trkpt lat="45.35761" lon="5.89632">
        <ele>1794.922768169</ele>
        <time>2015-05-24T12:57:21Z</time>
      </trkpt>
      <trkpt lat="45.35761" lon="5.89637">
        <ele>1795.494528291</ele>
        <time>2015-05-24T12:57:26Z</time>
      </trkpt>
      <trkpt lat="45.35759" lon="5.89639">
        <ele>1795.494528291</ele>
        <time>2015-05-24T12:57:31Z</time>
      </trkpt>
      <trkpt lat="45.35758" lon="5.89639">
        <ele>1795.494528291</ele>
        <time>2015-05-24T12:57:36Z</time>
      </trkpt>
      <trkpt lat="45.35758" lon="5.8964">
        <ele>1795.494528291</ele>
        <time>2015-05-24T12:57:41Z</time>
      </trkpt>
      <trkpt lat="45.35758" lon="5.8964">
        <ele>1795.494528291</ele>
        <time>2015-05-24T12:57:46Z</time>
      </trkpt>
      <trkpt lat="45.35761" lon="5.8965">
        <ele>1796.690539132</ele>
        <time>2015-05-24T12:57:51Z</time>
      </trkpt>
      <trkpt lat="45.35771" lon="5.89666">
        <ele>1797.894266738</ele>
        <time>2015-05-24T12:57:56Z</time>
      </trkpt>
      <trkpt lat="45.35777" lon="5.89677">
        <ele>1799.254890174</ele>
        <time>2015-05-24T12:58:01Z</time>
      </trkpt>
      <trkpt lat="45.35761" lon="5.89686">
        <ele>1799.90129002</ele>
        <time>2015-05-24T12:58:06Z</time>
      </trkpt>
      <trkpt lat="45.35755" lon="5.89701">
        <ele>1800.469323518</ele>
        <time>2015-05-24T12:58:11Z</time>
      </trkpt>
      <trkpt lat="45.35752" lon="5.89706">
        <ele>1800.469323518</ele>
        <time>2015-05-24T12:58:16Z</time>
      </trkpt>
      <trkpt lat="45.35745" lon="5.8971">
        <ele>1801.404107867</ele>
        <time>2015-05-24T12:58:21Z</time>
      </trkpt>
      <trkpt lat="45.35745" lon="5.89711">
        <ele>1801.404107867</ele>
        <time>2015-05-24T12:58:26Z</time>
      </trkpt>
      <trkpt lat="45.35744" lon="5.89711">
        <ele>1801.404107867</ele>
        <time>2015-05-24T12:58:31Z</time>
      </trkpt>
      <trkpt lat="45.35745" lon="5.89711">
        <ele>1801.404107867</ele>
        <time>2015-05-24T12:58:36Z</time>
      </trkpt>
      <trkpt lat="45.35745" lon="5.89711">
        <ele>1801.404107867</ele>
        <time>2015-05-24T12:58:41Z</time>
      </trkpt>
      <trkpt lat="45.35745" lon="5.89711">
        <ele>1801.404107867</ele>
        <time>2015-05-24T12:58:46Z</time>
      </trkpt>
      <trkpt lat="45.35747" lon="5.8972">
        <ele>1801.387550398</ele>
        <time>2015-05-24T12:58:51Z</time>
      </trkpt>
      <trkpt lat="45.35742" lon="5.89734">
        <ele>1801.794895917</ele>
        <time>2015-05-24T12:58:56Z</time>
      </trkpt>
      <trkpt lat="45.3574" lon="5.89741">
        <ele>1801.794895917</ele>
        <time>2015-05-24T12:59:01Z</time>
      </trkpt>
      <trkpt lat="45.35747" lon="5.89749">
        <ele>1801.449116402</ele>
        <time>2015-05-24T12:59:06Z</time>
      </trkpt>
      <trkpt lat="45.35748" lon="5.89759">
        <ele>1801.449116402</ele>
        <time>2015-05-24T12:59:11Z</time>
      </trkpt>
      <trkpt lat="45.35747" lon="5.89764">
        <ele>1801.279137114</ele>
        <time>2015-05-24T12:59:16Z</time>
      </trkpt>
      <trkpt lat="45.3575" lon="5.89767">
        <ele>1801.279137114</ele>
        <time>2015-05-24T12:59:21Z</time>
      </trkpt>
      <trkpt lat="45.35754" lon="5.89775">
        <ele>1801.856740373</ele>
        <time>2015-05-24T12:59:26Z</time>
      </trkpt>
      <trkpt lat="45.35757" lon="5.89777">
        <ele>1801.856740373</ele>
        <time>2015-05-24T12:59:31Z</time>
      </trkpt>
      <trkpt lat="45.35758" lon="5.89775">
        <ele>1801.856740373</ele>
        <time>2015-05-24T12:59:36Z</time>
      </trkpt>
      <trkpt lat="45.35761" lon="5.89775">
        <ele>1801.856740373</ele>
        <time>2015-05-24T12:59:41Z</time>
      </trkpt>
      <trkpt lat="45.3576" lon="5.89783">
        <ele>1803.421190955</ele>
        <time>2015-05-24T12:59:46Z</time>
      </trkpt>
      <trkpt lat="45.35761" lon="5.89784">
        <ele>1803.421190955</ele>
        <time>2015-05-24T12:59:51Z</time>
      </trkpt>
      <trkpt lat="45.35766" lon="5.89789">
        <ele>1803.421190955</ele>
        <time>2015-05-24T12:59:56Z</time>
      </trkpt>
      <trkpt lat="45.3577" lon="5.89788">
        <ele>1804.750098837</ele>
        <time>2015-05-24T13:00:01Z</time>
      </trkpt>
      <trkpt lat="45.35773" lon="5.89792">
        <ele>1804.750098837</ele>
        <time>2015-05-24T13:00:05Z</time>
      </trkpt>
      <trkpt lat="45.35778" lon="5.89797">
        <ele>1806.440667983</ele>
        <time>2015-05-24T13:00:10Z</time>
      </trkpt>
      <trkpt lat="45.35779" lon="5.89799">
        <ele>1806.440667983</ele>
        <time>2015-05-24T13:00:16Z</time>
      </trkpt>
      <trkpt lat="45.35779" lon="5.89801">
        <ele>1806.440667983</ele>
        <time>2015-05-24T13:00:20Z</time>
      </trkpt>
      <trkpt lat="45.35779" lon="5.89802">
        <ele>1806.440667983</ele>
        <time>2015-05-24T13:00:27Z</time>
      </trkpt>
      <trkpt lat="45.35779" lon="5.89802">
        <ele>1806.440667983</ele>
        <time>2015-05-24T13:00:31Z</time>
      </trkpt>
      <trkpt lat="45.35779" lon="5.89802">
        <ele>1806.440667983</ele>
        <time>2015-05-24T13:00:36Z</time>
      </trkpt>
      <trkpt lat="45.35782" lon="5.89792">
        <ele>1808.180358905</ele>
        <time>2015-05-24T13:00:41Z</time>
      </trkpt>
      <trkpt lat="45.35785" lon="5.89791">
        <ele>1808.180358905</ele>
        <time>2015-05-24T13:00:46Z</time>
      </trkpt>
      <trkpt lat="45.3579" lon="5.89784">
        <ele>1810.543936799</ele>
        <time>2015-05-24T13:00:51Z</time>
      </trkpt>
      <trkpt lat="45.35791" lon="5.89778">
        <ele>1810.543936799</ele>
        <time>2015-05-24T13:00:56Z</time>
      </trkpt>
      <trkpt lat="45.35796" lon="5.89774">
        <ele>1812.47679711</ele>
        <time>2015-05-24T13:01:01Z</time>
      </trkpt>
      <trkpt lat="45.35802" lon="5.89771">
        <ele>1812.47679711</ele>
        <time>2015-05-24T13:01:06Z</time>
      </trkpt>
      <trkpt lat="45.35807" lon="5.89774">
        <ele>1815.164518036</ele>
        <time>2015-05-24T13:01:11Z</time>
      </trkpt>
      <trkpt lat="45.3581" lon="5.89776">
        <ele>1815.164518036</ele>
        <time>2015-05-24T13:01:16Z</time>
      </trkpt>
      <trkpt lat="45.35817" lon="5.89775">
        <ele>1817.68576023</ele>
        <time>2015-05-24T13:01:21Z</time>
      </trkpt>
      <trkpt lat="45.35812" lon="5.89774">
        <ele>1817.68576023</ele>
        <time>2015-05-24T13:01:26Z</time>
      </trkpt>
      <trkpt lat="45.35815" lon="5.89775">
        <ele>1817.68576023</ele>
        <time>2015-05-24T13:01:31Z</time>
      </trkpt>
      <trkpt lat="45.35815" lon="5.89773">
        <ele>1817.68576023</ele>
        <time>2015-05-24T13:01:36Z</time>
      </trkpt>
      <trkpt lat="45.35814" lon="5.89773">
        <ele>1819.47541455</ele>
        <time>2015-05-24T13:01:41Z</time>
      </trkpt>
      <trkpt lat="45.35816" lon="5.89773">
        <ele>1819.47541455</ele>
        <time>2015-05-24T13:01:46Z</time>
      </trkpt>
      <trkpt lat="45.3582" lon="5.89768">
        <ele>1819.47541455</ele>
        <time>2015-05-24T13:01:51Z</time>
      </trkpt>
      <trkpt lat="45.3582" lon="5.89759">
        <ele>1820.732362147</ele>
        <time>2015-05-24T13:01:56Z</time>
      </trkpt>
      <trkpt lat="45.35816" lon="5.89756">
        <ele>1820.732362147</ele>
        <time>2015-05-24T13:02:01Z</time>
      </trkpt>
      <trkpt lat="45.35821" lon="5.89757">
        <ele>1822.074579951</ele>
        <time>2015-05-24T13:02:06Z</time>
      </trkpt>
      <trkpt lat="45.35824" lon="5.89756">
        <ele>1822.074579951</ele>
        <time>2015-05-24T13:02:11Z</time>
      </trkpt>
      <trkpt lat="45.35828" lon="5.89756">
        <ele>1822.074579951</ele>
        <time>2015-05-24T13:02:16Z</time>
      </trkpt>
      <trkpt lat="45.35825" lon="5.89753">
        <ele>1823.497847631</ele>
        <time>2015-05-24T13:02:21Z</time>
      </trkpt>
      <trkpt lat="45.35823" lon="5.89749">
        <ele>1823.497847631</ele>
        <time>2015-05-24T13:02:26Z</time>
      </trkpt>
      <trkpt lat="45.3582" lon="5.89749">
        <ele>1823.497847631</ele>
        <time>2015-05-24T13:02:31Z</time>
      </trkpt>
      <trkpt lat="45.35821" lon="5.89746">
        <ele>1823.497847631</ele>
        <time>2015-05-24T13:02:36Z</time>
      </trkpt>
      <trkpt lat="45.35821" lon="5.89747">
        <ele>1823.497847631</ele>
        <time>2015-05-24T13:02:41Z</time>
      </trkpt>
      <trkpt lat="45.3582" lon="5.8974">
        <ele>1824.709691073</ele>
        <time>2015-05-24T13:02:46Z</time>
      </trkpt>
      <trkpt lat="45.35814" lon="5.89745">
        <ele>1824.709691073</ele>
        <time>2015-05-24T13:02:51Z</time>
      </trkpt>
      <trkpt lat="45.35813" lon="5.89739">
        <ele>1825.15137899</ele>
        <time>2015-05-24T13:02:56Z</time>
      </trkpt>
      <trkpt lat="45.35814" lon="5.89738">
        <ele>1825.15137899</ele>
        <time>2015-05-24T13:03:01Z</time>
      </trkpt>
      <trkpt lat="45.35814" lon="5.89736">
        <ele>1825.15137899</ele>
        <time>2015-05-24T13:03:06Z</time>
      </trkpt>
      <trkpt lat="45.35813" lon="5.89736">
        <ele>1825.15137899</ele>
        <time>2015-05-24T13:03:11Z</time>
      </trkpt>
      <trkpt lat="45.35813" lon="5.89737">
        <ele>1825.15137899</ele>
        <time>2015-05-24T13:03:16Z</time>
      </trkpt>
      <trkpt lat="45.35813" lon="5.89736">
        <ele>1825.15137899</ele>
        <time>2015-05-24T13:03:20Z</time>
      </trkpt>
      <trkpt lat="45.35813" lon="5.89736">
        <ele>1825.15137899</ele>
        <time>2015-05-24T13:03:25Z</time>
      </trkpt>
      <trkpt lat="45.35813" lon="5.89736">
        <ele>1825.15137899</ele>
        <time>2015-05-24T13:03:31Z</time>
      </trkpt>
      <trkpt lat="45.35813" lon="5.89736">
        <ele>1825.15137899</ele>
        <time>2015-05-24T13:03:36Z</time>
      </trkpt>
      <trkpt lat="45.35813" lon="5.89734">
        <ele>1825.15137899</ele>
        <time>2015-05-24T13:03:41Z</time>
      </trkpt>
      <trkpt lat="45.35813" lon="5.89734">
        <ele>1825.15137899</ele>
        <time>2015-05-24T13:03:46Z</time>
      </trkpt>
      <trkpt lat="45.35814" lon="5.89726">
        <ele>1825.748383921</ele>
        <time>2015-05-24T13:03:51Z</time>
      </trkpt>
      <trkpt lat="45.35819" lon="5.89719">
        <ele>1825.748383921</ele>
        <time>2015-05-24T13:03:56Z</time>
      </trkpt>
      <trkpt lat="45.35823" lon="5.89711">
        <ele>1826.348866559</ele>
        <time>2015-05-24T13:04:01Z</time>
      </trkpt>
      <trkpt lat="45.35826" lon="5.89703">
        <ele>1826.348866559</ele>
        <time>2015-05-24T13:04:06Z</time>
      </trkpt>
      <trkpt lat="45.35823" lon="5.897">
        <ele>1826.66790495</ele>
        <time>2015-05-24T13:04:11Z</time>
      </trkpt>
      <trkpt lat="45.35822" lon="5.89697">
        <ele>1826.66790495</ele>
        <time>2015-05-24T13:04:16Z</time>
      </trkpt>
      <trkpt lat="45.35816" lon="5.89693">
        <ele>1827.162734231</ele>
        <time>2015-05-24T13:04:21Z</time>
      </trkpt>
      <trkpt lat="45.3581" lon="5.89693">
        <ele>1827.162734231</ele>
        <time>2015-05-24T13:04:26Z</time>
      </trkpt>
      <trkpt lat="45.35812" lon="5.8969">
        <ele>1827.162734231</ele>
        <time>2015-05-24T13:04:31Z</time>
      </trkpt>
      <trkpt lat="45.35812" lon="5.8969">
        <ele>1827.162734231</ele>
        <time>2015-05-24T13:04:36Z</time>
      </trkpt>
      <trkpt lat="45.35811" lon="5.8969">
        <ele>1828.112277047</ele>
        <time>2015-05-24T13:04:41Z</time>
      </trkpt>
      <trkpt lat="45.35812" lon="5.8969">
        <ele>1828.112277047</ele>
        <time>2015-05-24T13:04:46Z</time>
      </trkpt>
      <trkpt lat="45.35813" lon="5.89691">
        <ele>1828.112277047</ele>
        <time>2015-05-24T13:04:50Z</time>
      </trkpt>
      <trkpt lat="45.35813" lon="5.8969">
        <ele>1828.112277047</ele>
        <time>2015-05-24T13:04:55Z</time>
      </trkpt>
      <trkpt lat="45.35814" lon="5.8969">
        <ele>1828.112277047</ele>
        <time>2015-05-24T13:05:00Z</time>
      </trkpt>
      <trkpt lat="45.35815" lon="5.8969">
        <ele>1828.112277047</ele>
        <time>2015-05-24T13:05:07Z</time>
      </trkpt>
      <trkpt lat="45.35815" lon="5.89691">
        <ele>1828.112277047</ele>
        <time>2015-05-24T13:05:11Z</time>
      </trkpt>
      <trkpt lat="45.35815" lon="5.8969">
        <ele>1828.112277047</ele>
        <time>2015-05-24T13:05:16Z</time>
      </trkpt>
      <trkpt lat="45.35816" lon="5.89691">
        <ele>1828.112277047</ele>
        <time>2015-05-24T13:05:21Z</time>
      </trkpt>
      <trkpt lat="45.35816" lon="5.8969">
        <ele>1828.112277047</ele>
        <time>2015-05-24T13:05:26Z</time>
      </trkpt>
      <trkpt lat="45.35816" lon="5.8969">
        <ele>1829.917683042</ele>
        <time>2015-05-24T13:05:31Z</time>
      </trkpt>
      <trkpt lat="45.35816" lon="5.8969">
        <ele>1829.917683042</ele>
        <time>2015-05-24T13:05:36Z</time>
      </trkpt>
      <trkpt lat="45.35816" lon="5.8969">
        <ele>1829.917683042</ele>
        <time>2015-05-24T13:05:41Z</time>
      </trkpt>
      <trkpt lat="45.35816" lon="5.8969">
        <ele>1829.917683042</ele>
        <time>2015-05-24T13:05:46Z</time>
      </trkpt>
      <trkpt lat="45.35816" lon="5.8969">
        <ele>1829.917683042</ele>
        <time>2015-05-24T13:05:51Z</time>
      </trkpt>
      <trkpt lat="45.35818" lon="5.89695">
        <ele>1829.917683042</ele>
        <time>2015-05-24T13:05:56Z</time>
      </trkpt>
      <trkpt lat="45.3582" lon="5.89699">
        <ele>1829.917683042</ele>
        <time>2015-05-24T13:06:01Z</time>
      </trkpt>
      <trkpt lat="45.35821" lon="5.89703">
        <ele>1831.074670576</ele>
        <time>2015-05-24T13:06:06Z</time>
      </trkpt>
      <trkpt lat="45.35824" lon="5.89712">
        <ele>1831.074670576</ele>
        <time>2015-05-24T13:06:11Z</time>
      </trkpt>
      <trkpt lat="45.35825" lon="5.89716">
        <ele>1831.920501498</ele>
        <time>2015-05-24T13:06:16Z</time>
      </trkpt>
      <trkpt lat="45.35825" lon="5.89715">
        <ele>1831.920501498</ele>
        <time>2015-05-24T13:06:21Z</time>
      </trkpt>
      <trkpt lat="45.35826" lon="5.89716">
        <ele>1831.920501498</ele>
        <time>2015-05-24T13:06:26Z</time>
      </trkpt>
      <trkpt lat="45.35826" lon="5.89717">
        <ele>1831.920501498</ele>
        <time>2015-05-24T13:06:30Z</time>
      </trkpt>
      <trkpt lat="45.35826" lon="5.89716">
        <ele>1831.920501498</ele>
        <time>2015-05-24T13:06:36Z</time>
      </trkpt>
      <trkpt lat="45.35826" lon="5.89716">
        <ele>1831.920501498</ele>
        <time>2015-05-24T13:06:40Z</time>
      </trkpt>
      <trkpt lat="45.35826" lon="5.89716">
        <ele>1831.920501498</ele>
        <time>2015-05-24T13:06:46Z</time>
      </trkpt>
      <trkpt lat="45.35826" lon="5.89716">
        <ele>1831.920501498</ele>
        <time>2015-05-24T13:06:50Z</time>
      </trkpt>
      <trkpt lat="45.35826" lon="5.89716">
        <ele>1831.920501498</ele>
        <time>2015-05-24T13:06:57Z</time>
      </trkpt>
      <trkpt lat="45.35826" lon="5.89719">
        <ele>1831.920501498</ele>
        <time>2015-05-24T13:07:01Z</time>
      </trkpt>
      <trkpt lat="45.35825" lon="5.89718">
        <ele>1831.920501498</ele>
        <time>2015-05-24T13:07:06Z</time>
      </trkpt>
      <trkpt lat="45.35826" lon="5.89718">
        <ele>1831.920501498</ele>
        <time>2015-05-24T13:07:11Z</time>
      </trkpt>
      <trkpt lat="45.35827" lon="5.89717">
        <ele>1831.920501498</ele>
        <time>2015-05-24T13:07:16Z</time>
      </trkpt>
      <trkpt lat="45.35827" lon="5.89717">
        <ele>1831.920501498</ele>
        <time>2015-05-24T13:07:21Z</time>
      </trkpt>
      <trkpt lat="45.35828" lon="5.89717">
        <ele>1831.920501498</ele>
        <time>2015-05-24T13:07:26Z</time>
      </trkpt>
      <trkpt lat="45.35826" lon="5.89718">
        <ele>1831.920501498</ele>
        <time>2015-05-24T13:07:31Z</time>
      </trkpt>
      <trkpt lat="45.35828" lon="5.89717">
        <ele>1833.488983841</ele>
        <time>2015-05-24T13:07:36Z</time>
      </trkpt>
      <trkpt lat="45.35828" lon="5.89717">
        <ele>1833.488983841</ele>
        <time>2015-05-24T13:07:41Z</time>
      </trkpt>
      <trkpt lat="45.35829" lon="5.89718">
        <ele>1833.488983841</ele>
        <time>2015-05-24T13:07:46Z</time>
      </trkpt>
      <trkpt lat="45.35832" lon="5.89721">
        <ele>1833.488983841</ele>
        <time>2015-05-24T13:07:51Z</time>
      </trkpt>
      <trkpt lat="45.35832" lon="5.89721">
        <ele>1833.488983841</ele>
        <time>2015-05-24T13:07:56Z</time>
      </trkpt>
      <trkpt lat="45.35832" lon="5.89721">
        <ele>1833.488983841</ele>
        <time>2015-05-24T13:08:01Z</time>
      </trkpt>
      <trkpt lat="45.35831" lon="5.8972">
        <ele>1833.488983841</ele>
        <time>2015-05-24T13:08:06Z</time>
      </trkpt>
      <trkpt lat="45.35831" lon="5.8972">
        <ele>1833.488983841</ele>
        <time>2015-05-24T13:08:11Z</time>
      </trkpt>
      <trkpt lat="45.35833" lon="5.89717">
        <ele>1834.57418541</ele>
        <time>2015-05-24T13:08:16Z</time>
      </trkpt>
      <trkpt lat="45.35833" lon="5.89722">
        <ele>1834.57418541</ele>
        <time>2015-05-24T13:08:21Z</time>
      </trkpt>
      <trkpt lat="45.35832" lon="5.89723">
        <ele>1834.57418541</ele>
        <time>2015-05-24T13:08:26Z</time>
      </trkpt>
      <trkpt lat="45.35832" lon="5.89723">
        <ele>1834.57418541</ele>
        <time>2015-05-24T13:08:31Z</time>
      </trkpt>
      <trkpt lat="45.35832" lon="5.89723">
        <ele>1834.57418541</ele>
        <time>2015-05-24T13:08:36Z</time>
      </trkpt>
      <trkpt lat="45.35832" lon="5.89722">
        <ele>1834.57418541</ele>
        <time>2015-05-24T13:08:41Z</time>
      </trkpt>
      <trkpt lat="45.35832" lon="5.89722">
        <ele>1834.57418541</ele>
        <time>2015-05-24T13:08:46Z</time>
      </trkpt>
      <trkpt lat="45.35832" lon="5.89722">
        <ele>1834.57418541</ele>
        <time>2015-05-24T13:08:51Z</time>
      </trkpt>
      <trkpt lat="45.35832" lon="5.89722">
        <ele>1834.57418541</ele>
        <time>2015-05-24T13:08:55Z</time>
      </trkpt>
      <trkpt lat="45.35832" lon="5.89722">
        <ele>1834.57418541</ele>
        <time>2015-05-24T13:09:01Z</time>
      </trkpt>
      <trkpt lat="45.35832" lon="5.89722">
        <ele>1834.57418541</ele>
        <time>2015-05-24T13:09:05Z</time>
      </trkpt>
      <trkpt lat="45.35832" lon="5.89722">
        <ele>1834.57418541</ele>
        <time>2015-05-24T13:09:12Z</time>
      </trkpt>
      <trkpt lat="45.35832" lon="5.89722">
        <ele>1834.57418541</ele>
        <time>2015-05-24T13:09:16Z</time>
      </trkpt>
      <trkpt lat="45.3583" lon="5.89719">
        <ele>1834.57418541</ele>
        <time>2015-05-24T13:09:21Z</time>
      </trkpt>
      <trkpt lat="45.35828" lon="5.89717">
        <ele>1835.645241289</ele>
        <time>2015-05-24T13:09:26Z</time>
      </trkpt>
      <trkpt lat="45.35829" lon="5.89717">
        <ele>1835.645241289</ele>
        <time>2015-05-24T13:09:31Z</time>
      </trkpt>
      <trkpt lat="45.35829" lon="5.89717">
        <ele>1835.645241289</ele>
        <time>2015-05-24T13:09:36Z</time>
      </trkpt>
      <trkpt lat="45.35829" lon="5.89717">
        <ele>1835.645241289</ele>
        <time>2015-05-24T13:09:41Z</time>
      </trkpt>
      <trkpt lat="45.35829" lon="5.89717">
        <ele>1835.645241289</ele>
        <time>2015-05-24T13:09:46Z</time>
      </trkpt>
      <trkpt lat="45.35829" lon="5.89717">
        <ele>1835.645241289</ele>
        <time>2015-05-24T13:09:51Z</time>
      </trkpt>
      <trkpt lat="45.3583" lon="5.89718">
        <ele>1835.645241289</ele>
        <time>2015-05-24T13:09:56Z</time>
      </trkpt>
      <trkpt lat="45.35835" lon="5.89721">
        <ele>1835.645241289</ele>
        <time>2015-05-24T13:10:01Z</time>
      </trkpt>
      <trkpt lat="45.35835" lon="5.8972">
        <ele>1835.645241289</ele>
        <time>2015-05-24T13:10:06Z</time>
      </trkpt>
      <trkpt lat="45.35835" lon="5.8972">
        <ele>1835.645241289</ele>
        <time>2015-05-24T13:10:11Z</time>
      </trkpt>
      <trkpt lat="45.35835" lon="5.8972">
        <ele>1836.416213291</ele>
        <time>2015-05-24T13:10:16Z</time>
      </trkpt>
      <trkpt lat="45.35835" lon="5.8972">
        <ele>1836.416213291</ele>
        <time>2015-05-24T13:10:21Z</time>
      </trkpt>
      <trkpt lat="45.35835" lon="5.8972">
        <ele>1836.416213291</ele>
        <time>2015-05-24T13:10:26Z</time>
      </trkpt>
      <trkpt lat="45.35835" lon="5.8972">
        <ele>1836.416213291</ele>
        <time>2015-05-24T13:10:31Z</time>
      </trkpt>
      <trkpt lat="45.35836" lon="5.8972">
        <ele>1836.416213291</ele>
        <time>2015-05-24T13:10:36Z</time>
      </trkpt>
      <trkpt lat="45.35836" lon="5.8972">
        <ele>1836.416213291</ele>
        <time>2015-05-24T13:10:41Z</time>
      </trkpt>
      <trkpt lat="45.35836" lon="5.89719">
        <ele>1836.416213291</ele>
        <time>2015-05-24T13:10:46Z</time>
      </trkpt>
      <trkpt lat="45.35836" lon="5.89719">
        <ele>1836.416213291</ele>
        <time>2015-05-24T13:10:51Z</time>
      </trkpt>
      <trkpt lat="45.35836" lon="5.89719">
        <ele>1836.416213291</ele>
        <time>2015-05-24T13:10:56Z</time>
      </trkpt>
      <trkpt lat="45.35836" lon="5.89718">
        <ele>1836.416213291</ele>
        <time>2015-05-24T13:11:01Z</time>
      </trkpt>
      <trkpt lat="45.35835" lon="5.89718">
        <ele>1836.416213291</ele>
        <time>2015-05-24T13:11:06Z</time>
      </trkpt>
      <trkpt lat="45.35834" lon="5.89717">
        <ele>1836.416213291</ele>
        <time>2015-05-24T13:11:10Z</time>
      </trkpt>
      <trkpt lat="45.3584" lon="5.89719">
        <ele>1837.055251683</ele>
        <time>2015-05-24T13:11:15Z</time>
      </trkpt>
      <trkpt lat="45.35843" lon="5.8972">
        <ele>1837.055251683</ele>
        <time>2015-05-24T13:11:21Z</time>
      </trkpt>
      <trkpt lat="45.35844" lon="5.89718">
        <ele>1837.055251683</ele>
        <time>2015-05-24T13:11:25Z</time>
      </trkpt>
      <trkpt lat="45.35851" lon="5.89727">
        <ele>1836.709654595</ele>
        <time>2015-05-24T13:11:30Z</time>
      </trkpt>
      <trkpt lat="45.35854" lon="5.89733">
        <ele>1836.709654595</ele>
        <time>2015-05-24T13:11:36Z</time>
      </trkpt>
      <trkpt lat="45.35854" lon="5.89735">
        <ele>1836.709654595</ele>
        <time>2015-05-24T13:11:41Z</time>
      </trkpt>
      <trkpt lat="45.3586" lon="5.89732">
        <ele>1836.753695586</ele>
        <time>2015-05-24T13:11:46Z</time>
      </trkpt>
      <trkpt lat="45.3586" lon="5.89733">
        <ele>1836.753695586</ele>
        <time>2015-05-24T13:11:51Z</time>
      </trkpt>
      <trkpt lat="45.35862" lon="5.89733">
        <ele>1836.753695586</ele>
        <time>2015-05-24T13:11:56Z</time>
      </trkpt>
      <trkpt lat="45.35866" lon="5.89734">
        <ele>1836.753695586</ele>
        <time>2015-05-24T13:12:01Z</time>
      </trkpt>
      <trkpt lat="45.35871" lon="5.89738">
        <ele>1836.586059897</ele>
        <time>2015-05-24T13:12:06Z</time>
      </trkpt>
      <trkpt lat="45.3587" lon="5.89738">
        <ele>1836.586059897</ele>
        <time>2015-05-24T13:12:11Z</time>
      </trkpt>
      <trkpt lat="45.35871" lon="5.89739">
        <ele>1836.586059897</ele>
        <time>2015-05-24T13:12:16Z</time>
      </trkpt>
      <trkpt lat="45.35871" lon="5.89738">
        <ele>1836.586059897</ele>
        <time>2015-05-24T13:12:21Z</time>
      </trkpt>
      <trkpt lat="45.35871" lon="5.89738">
        <ele>1836.586059897</ele>
        <time>2015-05-24T13:12:26Z</time>
      </trkpt>
      <trkpt lat="45.35875" lon="5.89743">
        <ele>1836.586059897</ele>
        <time>2015-05-24T13:12:31Z</time>
      </trkpt>
      <trkpt lat="45.35879" lon="5.89746">
        <ele>1836.370653188</ele>
        <time>2015-05-24T13:12:36Z</time>
      </trkpt>
      <trkpt lat="45.35882" lon="5.89752">
        <ele>1836.370653188</ele>
        <time>2015-05-24T13:12:41Z</time>
      </trkpt>
      <trkpt lat="45.35881" lon="5.89754">
        <ele>1836.370653188</ele>
        <time>2015-05-24T13:12:46Z</time>
      </trkpt>
      <trkpt lat="45.3588" lon="5.89756">
        <ele>1836.370653188</ele>
        <time>2015-05-24T13:12:51Z</time>
      </trkpt>
      <trkpt lat="45.35883" lon="5.89759">
        <ele>1837.268148289</ele>
        <time>2015-05-24T13:12:56Z</time>
      </trkpt>
      <trkpt lat="45.35882" lon="5.89764">
        <ele>1837.268148289</ele>
        <time>2015-05-24T13:13:01Z</time>
      </trkpt>
      <trkpt lat="45.35884" lon="5.89766">
        <ele>1837.268148289</ele>
        <time>2015-05-24T13:13:06Z</time>
      </trkpt>
      <trkpt lat="45.35885" lon="5.89766">
        <ele>1837.268148289</ele>
        <time>2015-05-24T13:13:11Z</time>
      </trkpt>
      <trkpt lat="45.35886" lon="5.89766">
        <ele>1837.268148289</ele>
        <time>2015-05-24T13:13:16Z</time>
      </trkpt>
      <trkpt lat="45.35886" lon="5.89766">
        <ele>1837.268148289</ele>
        <time>2015-05-24T13:13:21Z</time>
      </trkpt>
      <trkpt lat="45.35886" lon="5.89766">
        <ele>1837.268148289</ele>
        <time>2015-05-24T13:13:25Z</time>
      </trkpt>
      <trkpt lat="45.35886" lon="5.89766">
        <ele>1837.268148289</ele>
        <time>2015-05-24T13:13:31Z</time>
      </trkpt>
      <trkpt lat="45.35885" lon="5.89766">
        <ele>1837.268148289</ele>
        <time>2015-05-24T13:13:35Z</time>
      </trkpt>
      <trkpt lat="45.35884" lon="5.89764">
        <ele>1838.189060527</ele>
        <time>2015-05-24T13:13:41Z</time>
      </trkpt>
      <trkpt lat="45.35884" lon="5.89764">
        <ele>1838.189060527</ele>
        <time>2015-05-24T13:13:46Z</time>
      </trkpt>
      <trkpt lat="45.35884" lon="5.89764">
        <ele>1838.189060527</ele>
        <time>2015-05-24T13:13:50Z</time>
      </trkpt>
      <trkpt lat="45.35884" lon="5.89764">
        <ele>1838.189060527</ele>
        <time>2015-05-24T13:13:56Z</time>
      </trkpt>
      <trkpt lat="45.35884" lon="5.89765">
        <ele>1838.189060527</ele>
        <time>2015-05-24T13:14:01Z</time>
      </trkpt>
      <trkpt lat="45.35885" lon="5.89766">
        <ele>1838.189060527</ele>
        <time>2015-05-24T13:14:06Z</time>
      </trkpt>
      <trkpt lat="45.35886" lon="5.89766">
        <ele>1838.189060527</ele>
        <time>2015-05-24T13:14:11Z</time>
      </trkpt>
      <trkpt lat="45.35886" lon="5.89766">
        <ele>1838.189060527</ele>
        <time>2015-05-24T13:14:16Z</time>
      </trkpt>
      <trkpt lat="45.35886" lon="5.89766">
        <ele>1838.189060527</ele>
        <time>2015-05-24T13:14:21Z</time>
      </trkpt>
      <trkpt lat="45.35886" lon="5.89766">
        <ele>1838.189060527</ele>
        <time>2015-05-24T13:14:26Z</time>
      </trkpt>
      <trkpt lat="45.35886" lon="5.89766">
        <ele>1838.189060527</ele>
        <time>2015-05-24T13:14:31Z</time>
      </trkpt>
      <trkpt lat="45.35886" lon="5.89766">
        <ele>1838.189060527</ele>
        <time>2015-05-24T13:14:36Z</time>
      </trkpt>
      <trkpt lat="45.35886" lon="5.89766">
        <ele>1838.189060527</ele>
        <time>2015-05-24T13:14:41Z</time>
      </trkpt>
      <trkpt lat="45.35889" lon="5.89769">
        <ele>1838.189060527</ele>
        <time>2015-05-24T13:14:46Z</time>
      </trkpt>
      <trkpt lat="45.35895" lon="5.89776">
        <ele>1839.420769139</ele>
        <time>2015-05-24T13:14:51Z</time>
      </trkpt>
      <trkpt lat="45.35895" lon="5.89776">
        <ele>1839.420769139</ele>
        <time>2015-05-24T13:14:56Z</time>
      </trkpt>
      <trkpt lat="45.35897" lon="5.89776">
        <ele>1839.420769139</ele>
        <time>2015-05-24T13:15:01Z</time>
      </trkpt>
      <trkpt lat="45.35898" lon="5.89777">
        <ele>1839.420769139</ele>
        <time>2015-05-24T13:15:06Z</time>
      </trkpt>
      <trkpt lat="45.35898" lon="5.89777">
        <ele>1839.420769139</ele>
        <time>2015-05-24T13:15:11Z</time>
      </trkpt>
      <trkpt lat="45.35898" lon="5.89777">
        <ele>1839.420769139</ele>
        <time>2015-05-24T13:15:16Z</time>
      </trkpt>
      <trkpt lat="45.35898" lon="5.89779">
        <ele>1839.420769139</ele>
        <time>2015-05-24T13:15:21Z</time>
      </trkpt>
      <trkpt lat="45.35898" lon="5.8978">
        <ele>1839.420769139</ele>
        <time>2015-05-24T13:15:26Z</time>
      </trkpt>
      <trkpt lat="45.35898" lon="5.89779">
        <ele>1839.420769139</ele>
        <time>2015-05-24T13:15:31Z</time>
      </trkpt>
      <trkpt lat="45.35898" lon="5.89779">
        <ele>1839.420769139</ele>
        <time>2015-05-24T13:15:36Z</time>
      </trkpt>
      <trkpt lat="45.35901" lon="5.89777">
        <ele>1840.796238347</ele>
        <time>2015-05-24T13:15:41Z</time>
      </trkpt>
      <trkpt lat="45.35908" lon="5.89781">
        <ele>1840.796238347</ele>
        <time>2015-05-24T13:15:46Z</time>
      </trkpt>
      <trkpt lat="45.3591" lon="5.89785">
        <ele>1841.295539185</ele>
        <time>2015-05-24T13:15:51Z</time>
      </trkpt>
      <trkpt lat="45.35919" lon="5.89782">
        <ele>1841.295539185</ele>
        <time>2015-05-24T13:15:56Z</time>
      </trkpt>
      <trkpt lat="45.35924" lon="5.89783">
        <ele>1841.273035608</ele>
        <time>2015-05-24T13:16:01Z</time>
      </trkpt>
      <trkpt lat="45.35923" lon="5.89787">
        <ele>1841.273035608</ele>
        <time>2015-05-24T13:16:06Z</time>
      </trkpt>
      <trkpt lat="45.35924" lon="5.89788">
        <ele>1841.273035608</ele>
        <time>2015-05-24T13:16:10Z</time>
      </trkpt>
      <trkpt lat="45.35923" lon="5.89788">
        <ele>1841.273035608</ele>
        <time>2015-05-24T13:16:16Z</time>
      </trkpt>
      <trkpt lat="45.35924" lon="5.89788">
        <ele>1841.273035608</ele>
        <time>2015-05-24T13:16:21Z</time>
      </trkpt>
      <trkpt lat="45.35924" lon="5.89788">
        <ele>1841.273035608</ele>
        <time>2015-05-24T13:16:26Z</time>
      </trkpt>
      <trkpt lat="45.35924" lon="5.89788">
        <ele>1841.273035608</ele>
        <time>2015-05-24T13:16:31Z</time>
      </trkpt>
      <trkpt lat="45.35931" lon="5.89793">
        <ele>1841.490771599</ele>
        <time>2015-05-24T13:16:36Z</time>
      </trkpt>
      <trkpt lat="45.3593" lon="5.89796">
        <ele>1841.490771599</ele>
        <time>2015-05-24T13:16:41Z</time>
      </trkpt>
      <trkpt lat="45.35929" lon="5.89801">
        <ele>1841.490771599</ele>
        <time>2015-05-24T13:16:46Z</time>
      </trkpt>
      <trkpt lat="45.35934" lon="5.89801">
        <ele>1841.50116296</ele>
        <time>2015-05-24T13:16:51Z</time>
      </trkpt>
      <trkpt lat="45.35933" lon="5.8981">
        <ele>1841.50116296</ele>
        <time>2015-05-24T13:16:56Z</time>
      </trkpt>
      <trkpt lat="45.35938" lon="5.89809">
        <ele>1841.322332533</ele>
        <time>2015-05-24T13:17:01Z</time>
      </trkpt>
      <trkpt lat="45.35941" lon="5.89813">
        <ele>1841.322332533</ele>
        <time>2015-05-24T13:17:06Z</time>
      </trkpt>
      <trkpt lat="45.35945" lon="5.89814">
        <ele>1841.322332533</ele>
        <time>2015-05-24T13:17:10Z</time>
      </trkpt>
      <trkpt lat="45.35952" lon="5.8982">
        <ele>1840.82740128</ele>
        <time>2015-05-24T13:17:15Z</time>
      </trkpt>
      <trkpt lat="45.35955" lon="5.89824">
        <ele>1840.82740128</ele>
        <time>2015-05-24T13:17:21Z</time>
      </trkpt>
      <trkpt lat="45.35955" lon="5.89824">
        <ele>1840.82740128</ele>
        <time>2015-05-24T13:17:25Z</time>
      </trkpt>
      <trkpt lat="45.35954" lon="5.89824">
        <ele>1840.82740128</ele>
        <time>2015-05-24T13:17:31Z</time>
      </trkpt>
      <trkpt lat="45.35954" lon="5.89824">
        <ele>1840.82740128</ele>
        <time>2015-05-24T13:17:36Z</time>
      </trkpt>
      <trkpt lat="45.35958" lon="5.89828">
        <ele>1839.611380287</ele>
        <time>2015-05-24T13:17:41Z</time>
      </trkpt>
      <trkpt lat="45.35959" lon="5.89828">
        <ele>1839.611380287</ele>
        <time>2015-05-24T13:17:46Z</time>
      </trkpt>
      <trkpt lat="45.35961" lon="5.89827">
        <ele>1839.611380287</ele>
        <time>2015-05-24T13:17:51Z</time>
      </trkpt>
      <trkpt lat="45.35966" lon="5.89832">
        <ele>1838.309730857</ele>
        <time>2015-05-24T13:17:56Z</time>
      </trkpt>
      <trkpt lat="45.35973" lon="5.89836">
        <ele>1838.309730857</ele>
        <time>2015-05-24T13:18:01Z</time>
      </trkpt>
      <trkpt lat="45.35979" lon="5.89838">
        <ele>1836.934920031</ele>
        <time>2015-05-24T13:18:06Z</time>
      </trkpt>
      <trkpt lat="45.35983" lon="5.89837">
        <ele>1836.934920031</ele>
        <time>2015-05-24T13:18:11Z</time>
      </trkpt>
      <trkpt lat="45.35985" lon="5.89838">
        <ele>1836.934920031</ele>
        <time>2015-05-24T13:18:16Z</time>
      </trkpt>
      <trkpt lat="45.35991" lon="5.89841">
        <ele>1835.786808467</ele>
        <time>2015-05-24T13:18:21Z</time>
      </trkpt>
      <trkpt lat="45.35996" lon="5.89837">
        <ele>1835.786808467</ele>
        <time>2015-05-24T13:18:26Z</time>
      </trkpt>
      <trkpt lat="45.36001" lon="5.89841">
        <ele>1834.998355723</ele>
        <time>2015-05-24T13:18:32Z</time>
      </trkpt>
      <trkpt lat="45.36005" lon="5.89843">
        <ele>1834.998355723</ele>
        <time>2015-05-24T13:18:36Z</time>
      </trkpt>
      <trkpt lat="45.36007" lon="5.89846">
        <ele>1834.998355723</ele>
        <time>2015-05-24T13:18:41Z</time>
      </trkpt>
      <trkpt lat="45.36009" lon="5.89846">
        <ele>1833.826944653</ele>
        <time>2015-05-24T13:18:45Z</time>
      </trkpt>
      <trkpt lat="45.36009" lon="5.89848">
        <ele>1833.826944653</ele>
        <time>2015-05-24T13:18:52Z</time>
      </trkpt>
      <trkpt lat="45.3601" lon="5.89848">
        <ele>1833.826944653</ele>
        <time>2015-05-24T13:18:56Z</time>
      </trkpt>
      <trkpt lat="45.36012" lon="5.89848">
        <ele>1833.826944653</ele>
        <time>2015-05-24T13:19:01Z</time>
      </trkpt>
      <trkpt lat="45.36014" lon="5.89849">
        <ele>1833.826944653</ele>
        <time>2015-05-24T13:19:06Z</time>
      </trkpt>
      <trkpt lat="45.36018" lon="5.89851">
        <ele>1832.738334803</ele>
        <time>2015-05-24T13:19:11Z</time>
      </trkpt>
      <trkpt lat="45.36024" lon="5.89857">
        <ele>1832.738334803</ele>
        <time>2015-05-24T13:19:16Z</time>
      </trkpt>
      <trkpt lat="45.36027" lon="5.89861">
        <ele>1831.443139291</ele>
        <time>2015-05-24T13:19:21Z</time>
      </trkpt>
      <trkpt lat="45.36031" lon="5.89864">
        <ele>1831.443139291</ele>
        <time>2015-05-24T13:19:26Z</time>
      </trkpt>
      <trkpt lat="45.36035" lon="5.89858">
        <ele>1830.682439861</ele>
        <time>2015-05-24T13:19:31Z</time>
      </trkpt>
      <trkpt lat="45.36037" lon="5.89857">
        <ele>1830.682439861</ele>
        <time>2015-05-24T13:19:36Z</time>
      </trkpt>
      <trkpt lat="45.36037" lon="5.89856">
        <ele>1830.682439861</ele>
        <time>2015-05-24T13:19:41Z</time>
      </trkpt>
      <trkpt lat="45.36038" lon="5.89856">
        <ele>1830.682439861</ele>
        <time>2015-05-24T13:19:46Z</time>
      </trkpt>
      <trkpt lat="45.36038" lon="5.89856">
        <ele>1830.682439861</ele>
        <time>2015-05-24T13:19:51Z</time>
      </trkpt>
      <trkpt lat="45.36038" lon="5.89856">
        <ele>1830.682439861</ele>
        <time>2015-05-24T13:19:56Z</time>
      </trkpt>
      <trkpt lat="45.36042" lon="5.89855">
        <ele>1830.682439861</ele>
        <time>2015-05-24T13:20:01Z</time>
      </trkpt>
      <trkpt lat="45.36047" lon="5.89853">
        <ele>1830.42067444</ele>
        <time>2015-05-24T13:20:06Z</time>
      </trkpt>
      <trkpt lat="45.36056" lon="5.89854">
        <ele>1830.42067444</ele>
        <time>2015-05-24T13:20:11Z</time>
      </trkpt>
      <trkpt lat="45.3606" lon="5.89855">
        <ele>1830.335122707</ele>
        <time>2015-05-24T13:20:16Z</time>
      </trkpt>
      <trkpt lat="45.36059" lon="5.89853">
        <ele>1830.335122707</ele>
        <time>2015-05-24T13:20:21Z</time>
      </trkpt>
      <trkpt lat="45.3606" lon="5.89852">
        <ele>1830.335122707</ele>
        <time>2015-05-24T13:20:26Z</time>
      </trkpt>
      <trkpt lat="45.3606" lon="5.89853">
        <ele>1830.335122707</ele>
        <time>2015-05-24T13:20:30Z</time>
      </trkpt>
      <trkpt lat="45.36063" lon="5.89854">
        <ele>1830.335122707</ele>
        <time>2015-05-24T13:20:36Z</time>
      </trkpt>
      <trkpt lat="45.3606" lon="5.89853">
        <ele>1830.335122707</ele>
        <time>2015-05-24T13:20:40Z</time>
      </trkpt>
      <trkpt lat="45.3606" lon="5.89852">
        <ele>1830.335122707</ele>
        <time>2015-05-24T13:20:46Z</time>
      </trkpt>
      <trkpt lat="45.36065" lon="5.89858">
        <ele>1829.982019553</ele>
        <time>2015-05-24T13:20:50Z</time>
      </trkpt>
      <trkpt lat="45.3607" lon="5.8986">
        <ele>1829.982019553</ele>
        <time>2015-05-24T13:20:56Z</time>
      </trkpt>
      <trkpt lat="45.36072" lon="5.89861">
        <ele>1829.982019553</ele>
        <time>2015-05-24T13:21:01Z</time>
      </trkpt>
      <trkpt lat="45.36077" lon="5.89861">
        <ele>1830.391920483</ele>
        <time>2015-05-24T13:21:06Z</time>
      </trkpt>
      <trkpt lat="45.3608" lon="5.89861">
        <ele>1830.391920483</ele>
        <time>2015-05-24T13:21:11Z</time>
      </trkpt>
      <trkpt lat="45.3608" lon="5.8986">
        <ele>1830.391920483</ele>
        <time>2015-05-24T13:21:16Z</time>
      </trkpt>
      <trkpt lat="45.36078" lon="5.89857">
        <ele>1830.391920483</ele>
        <time>2015-05-24T13:21:21Z</time>
      </trkpt>
      <trkpt lat="45.36078" lon="5.89857">
        <ele>1830.391920483</ele>
        <time>2015-05-24T13:21:26Z</time>
      </trkpt>
      <trkpt lat="45.36078" lon="5.89858">
        <ele>1830.391920483</ele>
        <time>2015-05-24T13:21:31Z</time>
      </trkpt>
      <trkpt lat="45.36077" lon="5.89858">
        <ele>1830.391920483</ele>
        <time>2015-05-24T13:21:36Z</time>
      </trkpt>
      <trkpt lat="45.36079" lon="5.89858">
        <ele>1831.652737977</ele>
        <time>2015-05-24T13:21:41Z</time>
      </trkpt>
      <trkpt lat="45.36083" lon="5.8986">
        <ele>1831.652737977</ele>
        <time>2015-05-24T13:21:46Z</time>
      </trkpt>
      <trkpt lat="45.36084" lon="5.8986">
        <ele>1831.652737977</ele>
        <time>2015-05-24T13:21:51Z</time>
      </trkpt>
      <trkpt lat="45.36084" lon="5.8986">
        <ele>1831.652737977</ele>
        <time>2015-05-24T13:21:56Z</time>
      </trkpt>
      <trkpt lat="45.36084" lon="5.8986">
        <ele>1831.652737977</ele>
        <time>2015-05-24T13:22:01Z</time>
      </trkpt>
      <trkpt lat="45.36088" lon="5.89854">
        <ele>1832.690529066</ele>
        <time>2015-05-24T13:22:06Z</time>
      </trkpt>
      <trkpt lat="45.36091" lon="5.89853">
        <ele>1832.690529066</ele>
        <time>2015-05-24T13:22:10Z</time>
      </trkpt>
      <trkpt lat="45.36095" lon="5.89854">
        <ele>1832.690529066</ele>
        <time>2015-05-24T13:22:16Z</time>
      </trkpt>
      <trkpt lat="45.36097" lon="5.89854">
        <ele>1834.384205601</ele>
        <time>2015-05-24T13:22:21Z</time>
      </trkpt>
      <trkpt lat="45.36099" lon="5.89853">
        <ele>1834.384205601</ele>
        <time>2015-05-24T13:22:26Z</time>
      </trkpt>
      <trkpt lat="45.36102" lon="5.89861">
        <ele>1834.384205601</ele>
        <time>2015-05-24T13:22:31Z</time>
      </trkpt>
      <trkpt lat="45.36102" lon="5.89863">
        <ele>1836.105072564</ele>
        <time>2015-05-24T13:22:36Z</time>
      </trkpt>
      <trkpt lat="45.36101" lon="5.89868">
        <ele>1836.105072564</ele>
        <time>2015-05-24T13:22:41Z</time>
      </trkpt>
      <trkpt lat="45.36101" lon="5.89871">
        <ele>1836.105072564</ele>
        <time>2015-05-24T13:22:46Z</time>
      </trkpt>
      <trkpt lat="45.36106" lon="5.89871">
        <ele>1837.991024874</ele>
        <time>2015-05-24T13:22:51Z</time>
      </trkpt>
      <trkpt lat="45.36107" lon="5.8987">
        <ele>1837.991024874</ele>
        <time>2015-05-24T13:22:56Z</time>
      </trkpt>
      <trkpt lat="45.36111" lon="5.89878">
        <ele>1837.991024874</ele>
        <time>2015-05-24T13:23:01Z</time>
      </trkpt>
      <trkpt lat="45.36112" lon="5.89878">
        <ele>1840.025198435</ele>
        <time>2015-05-24T13:23:06Z</time>
      </trkpt>
      <trkpt lat="45.36112" lon="5.89876">
        <ele>1840.025198435</ele>
        <time>2015-05-24T13:23:11Z</time>
      </trkpt>
      <trkpt lat="45.36112" lon="5.89872">
        <ele>1840.025198435</ele>
        <time>2015-05-24T13:23:16Z</time>
      </trkpt>
      <trkpt lat="45.36115" lon="5.89874">
        <ele>1840.025198435</ele>
        <time>2015-05-24T13:23:21Z</time>
      </trkpt>
      <trkpt lat="45.36116" lon="5.89875">
        <ele>1840.025198435</ele>
        <time>2015-05-24T13:23:26Z</time>
      </trkpt>
      <trkpt lat="45.36117" lon="5.89872">
        <ele>1842.767961418</ele>
        <time>2015-05-24T13:23:31Z</time>
      </trkpt>
      <trkpt lat="45.36117" lon="5.89873">
        <ele>1842.767961418</ele>
        <time>2015-05-24T13:23:36Z</time>
      </trkpt>
      <trkpt lat="45.36118" lon="5.89873">
        <ele>1842.767961418</ele>
        <time>2015-05-24T13:23:41Z</time>
      </trkpt>
      <trkpt lat="45.3612" lon="5.89873">
        <ele>1842.767961418</ele>
        <time>2015-05-24T13:23:46Z</time>
      </trkpt>
      <trkpt lat="45.3612" lon="5.89872">
        <ele>1842.767961418</ele>
        <time>2015-05-24T13:23:50Z</time>
      </trkpt>
      <trkpt lat="45.36121" lon="5.89874">
        <ele>1842.767961418</ele>
        <time>2015-05-24T13:23:56Z</time>
      </trkpt>
      <trkpt lat="45.36121" lon="5.89874">
        <ele>1842.767961418</ele>
        <time>2015-05-24T13:24:00Z</time>
      </trkpt>
      <trkpt lat="45.36123" lon="5.89871">
        <ele>1845.871847947</ele>
        <time>2015-05-24T13:24:06Z</time>
      </trkpt>
      <trkpt lat="45.36127" lon="5.89869">
        <ele>1845.871847947</ele>
        <time>2015-05-24T13:24:10Z</time>
      </trkpt>
      <trkpt lat="45.36129" lon="5.89868">
        <ele>1845.871847947</ele>
        <time>2015-05-24T13:24:15Z</time>
      </trkpt>
      <trkpt lat="45.36133" lon="5.89871">
        <ele>1848.869798879</ele>
        <time>2015-05-24T13:24:21Z</time>
      </trkpt>
      <trkpt lat="45.36133" lon="5.89872">
        <ele>1848.869798879</ele>
        <time>2015-05-24T13:24:26Z</time>
      </trkpt>
      <trkpt lat="45.36134" lon="5.89872">
        <ele>1848.869798879</ele>
        <time>2015-05-24T13:24:31Z</time>
      </trkpt>
      <trkpt lat="45.36139" lon="5.89875">
        <ele>1848.869798879</ele>
        <time>2015-05-24T13:24:36Z</time>
      </trkpt>
      <trkpt lat="45.36143" lon="5.89878">
        <ele>1851.617612188</ele>
        <time>2015-05-24T13:24:41Z</time>
      </trkpt>
      <trkpt lat="45.36148" lon="5.89881">
        <ele>1851.617612188</ele>
        <time>2015-05-24T13:24:46Z</time>
      </trkpt>
      <trkpt lat="45.36152" lon="5.89881">
        <ele>1851.617612188</ele>
        <time>2015-05-24T13:24:51Z</time>
      </trkpt>
      <trkpt lat="45.36157" lon="5.89883">
        <ele>1854.270651241</ele>
        <time>2015-05-24T13:24:56Z</time>
      </trkpt>
      <trkpt lat="45.36162" lon="5.89886">
        <ele>1854.270651241</ele>
        <time>2015-05-24T13:25:01Z</time>
      </trkpt>
      <trkpt lat="45.36165" lon="5.89888">
        <ele>1854.270651241</ele>
        <time>2015-05-24T13:25:06Z</time>
      </trkpt>
      <trkpt lat="45.3617" lon="5.89891">
        <ele>1857.117310787</ele>
        <time>2015-05-24T13:25:11Z</time>
      </trkpt>
      <trkpt lat="45.36174" lon="5.89894">
        <ele>1857.117310787</ele>
        <time>2015-05-24T13:25:16Z</time>
      </trkpt>
      <trkpt lat="45.36176" lon="5.89894">
        <ele>1857.117310787</ele>
        <time>2015-05-24T13:25:21Z</time>
      </trkpt>
      <trkpt lat="45.36174" lon="5.89898">
        <ele>1859.847896154</ele>
        <time>2015-05-24T13:25:26Z</time>
      </trkpt>
      <trkpt lat="45.36176" lon="5.89898">
        <ele>1859.847896154</ele>
        <time>2015-05-24T13:25:31Z</time>
      </trkpt>
      <trkpt lat="45.36177" lon="5.89898">
        <ele>1859.847896154</ele>
        <time>2015-05-24T13:25:36Z</time>
      </trkpt>
      <trkpt lat="45.36176" lon="5.89897">
        <ele>1859.847896154</ele>
        <time>2015-05-24T13:25:41Z</time>
      </trkpt>
      <trkpt lat="45.36176" lon="5.89897">
        <ele>1859.847896154</ele>
        <time>2015-05-24T13:25:46Z</time>
      </trkpt>
      <trkpt lat="45.36176" lon="5.89897">
        <ele>1859.847896154</ele>
        <time>2015-05-24T13:25:51Z</time>
      </trkpt>
      <trkpt lat="45.36176" lon="5.89897">
        <ele>1859.847896154</ele>
        <time>2015-05-24T13:25:56Z</time>
      </trkpt>
      <trkpt lat="45.36178" lon="5.89899">
        <ele>1859.847896154</ele>
        <time>2015-05-24T13:26:01Z</time>
      </trkpt>
      <trkpt lat="45.36182" lon="5.89899">
        <ele>1863.184665899</ele>
        <time>2015-05-24T13:26:06Z</time>
      </trkpt>
      <trkpt lat="45.36189" lon="5.89901">
        <ele>1863.184665899</ele>
        <time>2015-05-24T13:26:11Z</time>
      </trkpt>
      <trkpt lat="45.36192" lon="5.89904">
        <ele>1866.065901079</ele>
        <time>2015-05-24T13:26:16Z</time>
      </trkpt>
      <trkpt lat="45.36196" lon="5.89909">
        <ele>1866.065901079</ele>
        <time>2015-05-24T13:26:21Z</time>
      </trkpt>
      <trkpt lat="45.36199" lon="5.89914">
        <ele>1868.662169968</ele>
        <time>2015-05-24T13:26:26Z</time>
      </trkpt>
      <trkpt lat="45.36203" lon="5.89918">
        <ele>1868.662169968</ele>
        <time>2015-05-24T13:26:31Z</time>
      </trkpt>
      <trkpt lat="45.36206" lon="5.89922">
        <ele>1868.662169968</ele>
        <time>2015-05-24T13:26:36Z</time>
      </trkpt>
      <trkpt lat="45.36212" lon="5.89926">
        <ele>1871.276559697</ele>
        <time>2015-05-24T13:26:41Z</time>
      </trkpt>
      <trkpt lat="45.36216" lon="5.89928">
        <ele>1871.276559697</ele>
        <time>2015-05-24T13:26:46Z</time>
      </trkpt>
      <trkpt lat="45.3622" lon="5.89935">
        <ele>1873.469432979</ele>
        <time>2015-05-24T13:26:51Z</time>
      </trkpt>
      <trkpt lat="45.36224" lon="5.89938">
        <ele>1873.469432979</ele>
        <time>2015-05-24T13:26:55Z</time>
      </trkpt>
      <trkpt lat="45.36224" lon="5.8994">
        <ele>1873.469432979</ele>
        <time>2015-05-24T13:27:00Z</time>
      </trkpt>
      <trkpt lat="45.36224" lon="5.8994">
        <ele>1873.469432979</ele>
        <time>2015-05-24T13:27:05Z</time>
      </trkpt>
      <trkpt lat="45.36224" lon="5.8994">
        <ele>1873.469432979</ele>
        <time>2015-05-24T13:27:10Z</time>
      </trkpt>
      <trkpt lat="45.36224" lon="5.8994">
        <ele>1873.469432979</ele>
        <time>2015-05-24T13:27:15Z</time>
      </trkpt>
      <trkpt lat="45.36225" lon="5.89942">
        <ele>1873.469432979</ele>
        <time>2015-05-24T13:27:20Z</time>
      </trkpt>
      <trkpt lat="45.36227" lon="5.89946">
        <ele>1875.411227487</ele>
        <time>2015-05-24T13:27:25Z</time>
      </trkpt>
      <trkpt lat="45.36229" lon="5.8995">
        <ele>1875.411227487</ele>
        <time>2015-05-24T13:27:30Z</time>
      </trkpt>
      <trkpt lat="45.36233" lon="5.89957">
        <ele>1876.684274515</ele>
        <time>2015-05-24T13:27:36Z</time>
      </trkpt>
      <trkpt lat="45.36237" lon="5.89958">
        <ele>1876.684274515</ele>
        <time>2015-05-24T13:27:41Z</time>
      </trkpt>
      <trkpt lat="45.36239" lon="5.89964">
        <ele>1876.684274515</ele>
        <time>2015-05-24T13:27:46Z</time>
      </trkpt>
      <trkpt lat="45.3624" lon="5.89971">
        <ele>1877.768282985</ele>
        <time>2015-05-24T13:27:51Z</time>
      </trkpt>
      <trkpt lat="45.36244" lon="5.89975">
        <ele>1877.768282985</ele>
        <time>2015-05-24T13:27:56Z</time>
      </trkpt>
      <trkpt lat="45.36248" lon="5.89982">
        <ele>1878.676067722</ele>
        <time>2015-05-24T13:28:01Z</time>
      </trkpt>
      <trkpt lat="45.3625" lon="5.89989">
        <ele>1878.676067722</ele>
        <time>2015-05-24T13:28:06Z</time>
      </trkpt>
      <trkpt lat="45.36253" lon="5.89993">
        <ele>1879.42013742</ele>
        <time>2015-05-24T13:28:11Z</time>
      </trkpt>
      <trkpt lat="45.36255" lon="5.89998">
        <ele>1879.42013742</ele>
        <time>2015-05-24T13:28:16Z</time>
      </trkpt>
      <trkpt lat="45.36258" lon="5.90004">
        <ele>1880.589118374</ele>
        <time>2015-05-24T13:28:21Z</time>
      </trkpt>
      <trkpt lat="45.3626" lon="5.90009">
        <ele>1880.589118374</ele>
        <time>2015-05-24T13:28:26Z</time>
      </trkpt>
      <trkpt lat="45.36263" lon="5.90012">
        <ele>1880.589118374</ele>
        <time>2015-05-24T13:28:31Z</time>
      </trkpt>
      <trkpt lat="45.36265" lon="5.90018">
        <ele>1881.430327728</ele>
        <time>2015-05-24T13:28:36Z</time>
      </trkpt>
      <trkpt lat="45.36265" lon="5.9002">
        <ele>1881.430327728</ele>
        <time>2015-05-24T13:28:41Z</time>
      </trkpt>
      <trkpt lat="45.36266" lon="5.90019">
        <ele>1881.430327728</ele>
        <time>2015-05-24T13:28:46Z</time>
      </trkpt>
      <trkpt lat="45.36266" lon="5.90018">
        <ele>1881.430327728</ele>
        <time>2015-05-24T13:28:51Z</time>
      </trkpt>
      <trkpt lat="45.36266" lon="5.90019">
        <ele>1881.430327728</ele>
        <time>2015-05-24T13:28:56Z</time>
      </trkpt>
      <trkpt lat="45.3627" lon="5.90024">
        <ele>1881.430327728</ele>
        <time>2015-05-24T13:29:01Z</time>
      </trkpt>
      <trkpt lat="45.36269" lon="5.9003">
        <ele>1881.967963698</ele>
        <time>2015-05-24T13:29:06Z</time>
      </trkpt>
      <trkpt lat="45.36276" lon="5.90034">
        <ele>1881.967963698</ele>
        <time>2015-05-24T13:29:11Z</time>
      </trkpt>
      <trkpt lat="45.36281" lon="5.90036">
        <ele>1882.369514077</ele>
        <time>2015-05-24T13:29:16Z</time>
      </trkpt>
      <trkpt lat="45.36286" lon="5.90039">
        <ele>1882.369514077</ele>
        <time>2015-05-24T13:29:21Z</time>
      </trkpt>
      <trkpt lat="45.36292" lon="5.90043">
        <ele>1882.790639112</ele>
        <time>2015-05-24T13:29:26Z</time>
      </trkpt>
      <trkpt lat="45.36296" lon="5.90045">
        <ele>1882.790639112</ele>
        <time>2015-05-24T13:29:31Z</time>
      </trkpt>
      <trkpt lat="45.363" lon="5.90048">
        <ele>1882.943258751</ele>
        <time>2015-05-24T13:29:36Z</time>
      </trkpt>
      <trkpt lat="45.36304" lon="5.90049">
        <ele>1882.943258751</ele>
        <time>2015-05-24T13:29:41Z</time>
      </trkpt>
      <trkpt lat="45.36307" lon="5.90047">
        <ele>1882.943258751</ele>
        <time>2015-05-24T13:29:46Z</time>
      </trkpt>
      <trkpt lat="45.36313" lon="5.90049">
        <ele>1883.425946963</ele>
        <time>2015-05-24T13:29:51Z</time>
      </trkpt>
      <trkpt lat="45.36319" lon="5.90052">
        <ele>1883.425946963</ele>
        <time>2015-05-24T13:29:56Z</time>
      </trkpt>
      <trkpt lat="45.36322" lon="5.90059">
        <ele>1883.927774666</ele>
        <time>2015-05-24T13:30:01Z</time>
      </trkpt>
      <trkpt lat="45.36321" lon="5.90057">
        <ele>1883.927774666</ele>
        <time>2015-05-24T13:30:06Z</time>
      </trkpt>
      <trkpt lat="45.36332" lon="5.90064">
        <ele>1884.44887292</ele>
        <time>2015-05-24T13:30:11Z</time>
      </trkpt>
      <trkpt lat="45.36336" lon="5.90064">
        <ele>1884.44887292</ele>
        <time>2015-05-24T13:30:16Z</time>
      </trkpt>
      <trkpt lat="45.36342" lon="5.90066">
        <ele>1884.989350986</ele>
        <time>2015-05-24T13:30:21Z</time>
      </trkpt>
      <trkpt lat="45.36346" lon="5.90069">
        <ele>1884.989350986</ele>
        <time>2015-05-24T13:30:26Z</time>
      </trkpt>
      <trkpt lat="45.36348" lon="5.9007">
        <ele>1884.989350986</ele>
        <time>2015-05-24T13:30:31Z</time>
      </trkpt>
      <trkpt lat="45.36351" lon="5.90071">
        <ele>1885.261066984</ele>
        <time>2015-05-24T13:30:36Z</time>
      </trkpt>
      <trkpt lat="45.36358" lon="5.90073">
        <ele>1885.261066984</ele>
        <time>2015-05-24T13:30:41Z</time>
      </trkpt>
      <trkpt lat="45.3636" lon="5.90078">
        <ele>1884.853712922</ele>
        <time>2015-05-24T13:30:46Z</time>
      </trkpt>
      <trkpt lat="45.36366" lon="5.9008">
        <ele>1884.853712922</ele>
        <time>2015-05-24T13:30:51Z</time>
      </trkpt>
      <trkpt lat="45.3637" lon="5.90085">
        <ele>1884.541930672</ele>
        <time>2015-05-24T13:30:56Z</time>
      </trkpt>
      <trkpt lat="45.36374" lon="5.90087">
        <ele>1884.541930672</ele>
        <time>2015-05-24T13:31:00Z</time>
      </trkpt>
      <trkpt lat="45.36378" lon="5.90087">
        <ele>1884.541930672</ele>
        <time>2015-05-24T13:31:05Z</time>
      </trkpt>
      <trkpt lat="45.36381" lon="5.90088">
        <ele>1884.46674867</ele>
        <time>2015-05-24T13:31:10Z</time>
      </trkpt>
      <trkpt lat="45.36382" lon="5.90088">
        <ele>1884.46674867</ele>
        <time>2015-05-24T13:31:15Z</time>
      </trkpt>
      <trkpt lat="45.36387" lon="5.9009">
        <ele>1884.46674867</ele>
        <time>2015-05-24T13:31:21Z</time>
      </trkpt>
      <trkpt lat="45.36389" lon="5.90093">
        <ele>1884.46674867</ele>
        <time>2015-05-24T13:31:26Z</time>
      </trkpt>
      <trkpt lat="45.36394" lon="5.90095">
        <ele>1884.181719898</ele>
        <time>2015-05-24T13:31:31Z</time>
      </trkpt>
      <trkpt lat="45.36398" lon="5.90096">
        <ele>1884.181719898</ele>
        <time>2015-05-24T13:31:36Z</time>
      </trkpt>
      <trkpt lat="45.36404" lon="5.90095">
        <ele>1884.282542498</ele>
        <time>2015-05-24T13:31:41Z</time>
      </trkpt>
      <trkpt lat="45.36409" lon="5.90095">
        <ele>1884.282542498</ele>
        <time>2015-05-24T13:31:45Z</time>
      </trkpt>
      <trkpt lat="45.36412" lon="5.90098">
        <ele>1884.282542498</ele>
        <time>2015-05-24T13:31:51Z</time>
      </trkpt>
      <trkpt lat="45.36414" lon="5.90102">
        <ele>1884.311268119</ele>
        <time>2015-05-24T13:31:56Z</time>
      </trkpt>
      <trkpt lat="45.36421" lon="5.90104">
        <ele>1884.311268119</ele>
        <time>2015-05-24T13:32:01Z</time>
      </trkpt>
      <trkpt lat="45.36427" lon="5.9011">
        <ele>1883.987868081</ele>
        <time>2015-05-24T13:32:06Z</time>
      </trkpt>
      <trkpt lat="45.36432" lon="5.90115">
        <ele>1883.987868081</ele>
        <time>2015-05-24T13:32:11Z</time>
      </trkpt>
      <trkpt lat="45.36438" lon="5.90118">
        <ele>1883.774386404</ele>
        <time>2015-05-24T13:32:16Z</time>
      </trkpt>
      <trkpt lat="45.36441" lon="5.9012">
        <ele>1883.774386404</ele>
        <time>2015-05-24T13:32:21Z</time>
      </trkpt>
      <trkpt lat="45.36442" lon="5.90124">
        <ele>1883.774386404</ele>
        <time>2015-05-24T13:32:26Z</time>
      </trkpt>
      <trkpt lat="45.36444" lon="5.90129">
        <ele>1883.522124016</ele>
        <time>2015-05-24T13:32:31Z</time>
      </trkpt>
      <trkpt lat="45.36443" lon="5.90137">
        <ele>1883.522124016</ele>
        <time>2015-05-24T13:32:36Z</time>
      </trkpt>
      <trkpt lat="45.36441" lon="5.90139">
        <ele>1883.522124016</ele>
        <time>2015-05-24T13:32:41Z</time>
      </trkpt>
      <trkpt lat="45.36444" lon="5.90137">
        <ele>1883.381581063</ele>
        <time>2015-05-24T13:32:47Z</time>
      </trkpt>
      <trkpt lat="45.36444" lon="5.90137">
        <ele>1883.381581063</ele>
        <time>2015-05-24T13:32:51Z</time>
      </trkpt>
      <trkpt lat="45.36444" lon="5.90137">
        <ele>1883.381581063</ele>
        <time>2015-05-24T13:32:56Z</time>
      </trkpt>
      <trkpt lat="45.36444" lon="5.90137">
        <ele>1883.381581063</ele>
        <time>2015-05-24T13:33:01Z</time>
      </trkpt>
      <trkpt lat="45.36444" lon="5.90138">
        <ele>1883.381581063</ele>
        <time>2015-05-24T13:33:06Z</time>
      </trkpt>
      <trkpt lat="45.36444" lon="5.90138">
        <ele>1883.381581063</ele>
        <time>2015-05-24T13:33:11Z</time>
      </trkpt>
      <trkpt lat="45.36444" lon="5.90138">
        <ele>1883.381581063</ele>
        <time>2015-05-24T13:33:16Z</time>
      </trkpt>
      <trkpt lat="45.36444" lon="5.90138">
        <ele>1883.381581063</ele>
        <time>2015-05-24T13:33:21Z</time>
      </trkpt>
      <trkpt lat="45.36444" lon="5.90138">
        <ele>1883.381581063</ele>
        <time>2015-05-24T13:33:26Z</time>
      </trkpt>
      <trkpt lat="45.36444" lon="5.90138">
        <ele>1883.381581063</ele>
        <time>2015-05-24T13:33:30Z</time>
      </trkpt>
      <trkpt lat="45.36444" lon="5.90137">
        <ele>1883.381581063</ele>
        <time>2015-05-24T13:33:36Z</time>
      </trkpt>
      <trkpt lat="45.36443" lon="5.90137">
        <ele>1883.381581063</ele>
        <time>2015-05-24T13:33:40Z</time>
      </trkpt>
      <trkpt lat="45.36444" lon="5.90138">
        <ele>1883.381581063</ele>
        <time>2015-05-24T13:33:45Z</time>
      </trkpt>
      <trkpt lat="45.36444" lon="5.90138">
        <ele>1883.381581063</ele>
        <time>2015-05-24T13:33:51Z</time>
      </trkpt>
      <trkpt lat="45.36444" lon="5.90138">
        <ele>1883.381581063</ele>
        <time>2015-05-24T13:33:56Z</time>
      </trkpt>
      <trkpt lat="45.36444" lon="5.90138">
        <ele>1883.381581063</ele>
        <time>2015-05-24T13:34:01Z</time>
      </trkpt>
      <trkpt lat="45.36458" lon="5.90149">
        <ele>1882.771270552</ele>
        <time>2015-05-24T13:34:06Z</time>
      </trkpt>
      <trkpt lat="45.36462" lon="5.90148">
        <ele>1882.771270552</ele>
        <time>2015-05-24T13:34:11Z</time>
      </trkpt>
      <trkpt lat="45.36467" lon="5.90153">
        <ele>1882.883005433</ele>
        <time>2015-05-24T13:34:16Z</time>
      </trkpt>
      <trkpt lat="45.36469" lon="5.90154">
        <ele>1882.883005433</ele>
        <time>2015-05-24T13:34:21Z</time>
      </trkpt>
      <trkpt lat="45.36469" lon="5.90158">
        <ele>1882.883005433</ele>
        <time>2015-05-24T13:34:26Z</time>
      </trkpt>
      <trkpt lat="45.36469" lon="5.90164">
        <ele>1883.377840075</ele>
        <time>2015-05-24T13:34:31Z</time>
      </trkpt>
      <trkpt lat="45.36475" lon="5.90164">
        <ele>1883.377840075</ele>
        <time>2015-05-24T13:34:36Z</time>
      </trkpt>
      <trkpt lat="45.36475" lon="5.90164">
        <ele>1883.377840075</ele>
        <time>2015-05-24T13:34:41Z</time>
      </trkpt>
      <trkpt lat="45.36475" lon="5.90164">
        <ele>1883.377840075</ele>
        <time>2015-05-24T13:34:46Z</time>
      </trkpt>
      <trkpt lat="45.36475" lon="5.90164">
        <ele>1883.377840075</ele>
        <time>2015-05-24T13:34:51Z</time>
      </trkpt>
      <trkpt lat="45.36475" lon="5.90164">
        <ele>1883.377840075</ele>
        <time>2015-05-24T13:34:56Z</time>
      </trkpt>
      <trkpt lat="45.36475" lon="5.90165">
        <ele>1883.377840075</ele>
        <time>2015-05-24T13:35:01Z</time>
      </trkpt>
      <trkpt lat="45.36475" lon="5.90165">
        <ele>1883.377840075</ele>
        <time>2015-05-24T13:35:06Z</time>
      </trkpt>
      <trkpt lat="45.3648" lon="5.90166">
        <ele>1885.381693532</ele>
        <time>2015-05-24T13:35:11Z</time>
      </trkpt>
      <trkpt lat="45.36481" lon="5.90167">
        <ele>1885.381693532</ele>
        <time>2015-05-24T13:35:16Z</time>
      </trkpt>
      <trkpt lat="45.36486" lon="5.90168">
        <ele>1885.381693532</ele>
        <time>2015-05-24T13:35:21Z</time>
      </trkpt>
      <trkpt lat="45.3649" lon="5.90167">
        <ele>1887.483585831</ele>
        <time>2015-05-24T13:35:26Z</time>
      </trkpt>
      <trkpt lat="45.36495" lon="5.90174">
        <ele>1887.483585831</ele>
        <time>2015-05-24T13:35:31Z</time>
      </trkpt>
      <trkpt lat="45.36497" lon="5.90175">
        <ele>1889.384632214</ele>
        <time>2015-05-24T13:35:36Z</time>
      </trkpt>
      <trkpt lat="45.36497" lon="5.90179">
        <ele>1889.384632214</ele>
        <time>2015-05-24T13:35:41Z</time>
      </trkpt>
      <trkpt lat="45.36498" lon="5.90179">
        <ele>1889.384632214</ele>
        <time>2015-05-24T13:35:46Z</time>
      </trkpt>
      <trkpt lat="45.36498" lon="5.9018">
        <ele>1889.384632214</ele>
        <time>2015-05-24T13:35:51Z</time>
      </trkpt>
      <trkpt lat="45.36499" lon="5.90181">
        <ele>1889.384632214</ele>
        <time>2015-05-24T13:35:56Z</time>
      </trkpt>
      <trkpt lat="45.36501" lon="5.90193">
        <ele>1890.520197782</ele>
        <time>2015-05-24T13:36:01Z</time>
      </trkpt>
      <trkpt lat="45.36498" lon="5.90197">
        <ele>1890.520197782</ele>
        <time>2015-05-24T13:36:06Z</time>
      </trkpt>
      <trkpt lat="45.36499" lon="5.902">
        <ele>1890.520197782</ele>
        <time>2015-05-24T13:36:11Z</time>
      </trkpt>
      <trkpt lat="45.365" lon="5.902">
        <ele>1890.520197782</ele>
        <time>2015-05-24T13:36:16Z</time>
      </trkpt>
      <trkpt lat="45.36501" lon="5.902">
        <ele>1892.819128183</ele>
        <time>2015-05-24T13:36:21Z</time>
      </trkpt>
      <trkpt lat="45.36501" lon="5.902">
        <ele>1892.819128183</ele>
        <time>2015-05-24T13:36:26Z</time>
      </trkpt>
      <trkpt lat="45.36501" lon="5.902">
        <ele>1892.819128183</ele>
        <time>2015-05-24T13:36:30Z</time>
      </trkpt>
      <trkpt lat="45.36501" lon="5.902">
        <ele>1892.819128183</ele>
        <time>2015-05-24T13:36:36Z</time>
      </trkpt>
      <trkpt lat="45.36501" lon="5.902">
        <ele>1892.819128183</ele>
        <time>2015-05-24T13:36:41Z</time>
      </trkpt>
      <trkpt lat="45.36501" lon="5.902">
        <ele>1892.819128183</ele>
        <time>2015-05-24T13:36:45Z</time>
      </trkpt>
      <trkpt lat="45.36501" lon="5.902">
        <ele>1892.819128183</ele>
        <time>2015-05-24T13:36:51Z</time>
      </trkpt>
      <trkpt lat="45.36501" lon="5.902">
        <ele>1892.819128183</ele>
        <time>2015-05-24T13:36:56Z</time>
      </trkpt>
      <trkpt lat="45.36501" lon="5.902">
        <ele>1892.819128183</ele>
        <time>2015-05-24T13:37:00Z</time>
      </trkpt>
      <trkpt lat="45.36502" lon="5.90202">
        <ele>1892.819128183</ele>
        <time>2015-05-24T13:37:05Z</time>
      </trkpt>
      <trkpt lat="45.36503" lon="5.90212">
        <ele>1895.32717895</ele>
        <time>2015-05-24T13:37:11Z</time>
      </trkpt>
      <trkpt lat="45.36505" lon="5.90215">
        <ele>1895.32717895</ele>
        <time>2015-05-24T13:37:16Z</time>
      </trkpt>
      <trkpt lat="45.3651" lon="5.90217">
        <ele>1895.32717895</ele>
        <time>2015-05-24T13:37:21Z</time>
      </trkpt>
      <trkpt lat="45.36512" lon="5.90219">
        <ele>1898.888942497</ele>
        <time>2015-05-24T13:37:26Z</time>
      </trkpt>
      <trkpt lat="45.36514" lon="5.90225">
        <ele>1898.888942497</ele>
        <time>2015-05-24T13:37:31Z</time>
      </trkpt>
      <trkpt lat="45.36514" lon="5.90234">
        <ele>1901.69001686</ele>
        <time>2015-05-24T13:37:36Z</time>
      </trkpt>
      <trkpt lat="45.36513" lon="5.90238">
        <ele>1901.69001686</ele>
        <time>2015-05-24T13:37:41Z</time>
      </trkpt>
      <trkpt lat="45.36513" lon="5.90238">
        <ele>1901.69001686</ele>
        <time>2015-05-24T13:37:46Z</time>
      </trkpt>
      <trkpt lat="45.36511" lon="5.90241">
        <ele>1901.69001686</ele>
        <time>2015-05-24T13:37:51Z</time>
      </trkpt>
      <trkpt lat="45.36507" lon="5.90243">
        <ele>1906.230668229</ele>
        <time>2015-05-24T13:37:56Z</time>
      </trkpt>
      <trkpt lat="45.36508" lon="5.90246">
        <ele>1906.230668229</ele>
        <time>2015-05-24T13:38:01Z</time>
      </trkpt>
      <trkpt lat="45.36512" lon="5.90249">
        <ele>1906.230668229</ele>
        <time>2015-05-24T13:38:06Z</time>
      </trkpt>
      <trkpt lat="45.36517" lon="5.9025">
        <ele>1910.066991616</ele>
        <time>2015-05-24T13:38:11Z</time>
      </trkpt>
      <trkpt lat="45.36512" lon="5.90253">
        <ele>1910.066991616</ele>
        <time>2015-05-24T13:38:16Z</time>
      </trkpt>
      <trkpt lat="45.36511" lon="5.90257">
        <ele>1910.066991616</ele>
        <time>2015-05-24T13:38:21Z</time>
      </trkpt>
      <trkpt lat="45.36511" lon="5.90259">
        <ele>1913.962986591</ele>
        <time>2015-05-24T13:38:26Z</time>
      </trkpt>
      <trkpt lat="45.3651" lon="5.90259">
        <ele>1913.962986591</ele>
        <time>2015-05-24T13:38:31Z</time>
      </trkpt>
      <trkpt lat="45.3651" lon="5.90258">
        <ele>1913.962986591</ele>
        <time>2015-05-24T13:38:36Z</time>
      </trkpt>
      <trkpt lat="45.3651" lon="5.90259">
        <ele>1913.962986591</ele>
        <time>2015-05-24T13:38:41Z</time>
      </trkpt>
      <trkpt lat="45.3651" lon="5.90259">
        <ele>1913.962986591</ele>
        <time>2015-05-24T13:38:46Z</time>
      </trkpt>
      <trkpt lat="45.3651" lon="5.90259">
        <ele>1913.962986591</ele>
        <time>2015-05-24T13:38:51Z</time>
      </trkpt>
      <trkpt lat="45.3651" lon="5.90259">
        <ele>1913.962986591</ele>
        <time>2015-05-24T13:38:56Z</time>
      </trkpt>
      <trkpt lat="45.3651" lon="5.90259">
        <ele>1913.962986591</ele>
        <time>2015-05-24T13:39:01Z</time>
      </trkpt>
      <trkpt lat="45.3651" lon="5.90259">
        <ele>1913.962986591</ele>
        <time>2015-05-24T13:39:06Z</time>
      </trkpt>
      <trkpt lat="45.3651" lon="5.90259">
        <ele>1913.962986591</ele>
        <time>2015-05-24T13:39:11Z</time>
      </trkpt>
      <trkpt lat="45.3651" lon="5.90259">
        <ele>1913.962986591</ele>
        <time>2015-05-24T13:39:16Z</time>
      </trkpt>
      <trkpt lat="45.3651" lon="5.90259">
        <ele>1913.962986591</ele>
        <time>2015-05-24T13:39:21Z</time>
      </trkpt>
      <trkpt lat="45.3651" lon="5.90259">
        <ele>1913.962986591</ele>
        <time>2015-05-24T13:39:26Z</time>
      </trkpt>
      <trkpt lat="45.36514" lon="5.90261">
        <ele>1913.962986591</ele>
        <time>2015-05-24T13:39:31Z</time>
      </trkpt>
      <trkpt lat="45.36518" lon="5.90259">
        <ele>1917.473558975</ele>
        <time>2015-05-24T13:39:36Z</time>
      </trkpt>
      <trkpt lat="45.36519" lon="5.90264">
        <ele>1917.473558975</ele>
        <time>2015-05-24T13:39:41Z</time>
      </trkpt>
      <trkpt lat="45.36522" lon="5.90272">
        <ele>1920.763940762</ele>
        <time>2015-05-24T13:39:46Z</time>
      </trkpt>
      <trkpt lat="45.36525" lon="5.90272">
        <ele>1920.763940762</ele>
        <time>2015-05-24T13:39:51Z</time>
      </trkpt>
      <trkpt lat="45.36525" lon="5.9027">
        <ele>1920.763940762</ele>
        <time>2015-05-24T13:39:56Z</time>
      </trkpt>
      <trkpt lat="45.36524" lon="5.90268">
        <ele>1920.763940762</ele>
        <time>2015-05-24T13:40:01Z</time>
      </trkpt>
      <trkpt lat="45.36531" lon="5.90273">
        <ele>1922.835070648</ele>
        <time>2015-05-24T13:40:06Z</time>
      </trkpt>
      <trkpt lat="45.36537" lon="5.9027">
        <ele>1922.835070648</ele>
        <time>2015-05-24T13:40:11Z</time>
      </trkpt>
      <trkpt lat="45.36538" lon="5.90272">
        <ele>1922.835070648</ele>
        <time>2015-05-24T13:40:15Z</time>
      </trkpt>
      <trkpt lat="45.36536" lon="5.90273">
        <ele>1924.63826721</ele>
        <time>2015-05-24T13:40:21Z</time>
      </trkpt>
      <trkpt lat="45.36535" lon="5.90272">
        <ele>1924.63826721</ele>
        <time>2015-05-24T13:40:26Z</time>
      </trkpt>
      <trkpt lat="45.36533" lon="5.90273">
        <ele>1924.63826721</ele>
        <time>2015-05-24T13:40:30Z</time>
      </trkpt>
      <trkpt lat="45.36533" lon="5.90274">
        <ele>1924.63826721</ele>
        <time>2015-05-24T13:40:35Z</time>
      </trkpt>
      <trkpt lat="45.36534" lon="5.90275">
        <ele>1924.63826721</ele>
        <time>2015-05-24T13:40:40Z</time>
      </trkpt>
      <trkpt lat="45.36532" lon="5.90275">
        <ele>1924.63826721</ele>
        <time>2015-05-24T13:40:46Z</time>
      </trkpt>
      <trkpt lat="45.36531" lon="5.90274">
        <ele>1924.63826721</ele>
        <time>2015-05-24T13:40:50Z</time>
      </trkpt>
      <trkpt lat="45.36531" lon="5.90274">
        <ele>1924.63826721</ele>
        <time>2015-05-24T13:40:56Z</time>
      </trkpt>
      <trkpt lat="45.36531" lon="5.90274">
        <ele>1924.63826721</ele>
        <time>2015-05-24T13:41:01Z</time>
      </trkpt>
      <trkpt lat="45.36531" lon="5.90274">
        <ele>1924.63826721</ele>
        <time>2015-05-24T13:41:06Z</time>
      </trkpt>
      <trkpt lat="45.36531" lon="5.90274">
        <ele>1924.63826721</ele>
        <time>2015-05-24T13:41:11Z</time>
      </trkpt>
      <trkpt lat="45.36531" lon="5.90274">
        <ele>1924.63826721</ele>
        <time>2015-05-24T13:41:16Z</time>
      </trkpt>
      <trkpt lat="45.36531" lon="5.90274">
        <ele>1924.63826721</ele>
        <time>2015-05-24T13:41:21Z</time>
      </trkpt>
      <trkpt lat="45.36531" lon="5.90274">
        <ele>1924.63826721</ele>
        <time>2015-05-24T13:41:26Z</time>
      </trkpt>
      <trkpt lat="45.36531" lon="5.90274">
        <ele>1926.191176757</ele>
        <time>2015-05-24T13:41:31Z</time>
      </trkpt>
      <trkpt lat="45.3653" lon="5.90273">
        <ele>1926.191176757</ele>
        <time>2015-05-24T13:41:36Z</time>
      </trkpt>
      <trkpt lat="45.3653" lon="5.90272">
        <ele>1926.191176757</ele>
        <time>2015-05-24T13:41:41Z</time>
      </trkpt>
      <trkpt lat="45.3653" lon="5.90272">
        <ele>1926.191176757</ele>
        <time>2015-05-24T13:41:46Z</time>
      </trkpt>
      <trkpt lat="45.3653" lon="5.90272">
        <ele>1926.191176757</ele>
        <time>2015-05-24T13:41:51Z</time>
      </trkpt>
      <trkpt lat="45.36533" lon="5.9027">
        <ele>1926.191176757</ele>
        <time>2015-05-24T13:41:56Z</time>
      </trkpt>
      <trkpt lat="45.36533" lon="5.90269">
        <ele>1926.191176757</ele>
        <time>2015-05-24T13:42:01Z</time>
      </trkpt>
      <trkpt lat="45.36533" lon="5.90268">
        <ele>1926.191176757</ele>
        <time>2015-05-24T13:42:05Z</time>
      </trkpt>
      <trkpt lat="45.3653" lon="5.90271">
        <ele>1928.23153282</ele>
        <time>2015-05-24T13:42:10Z</time>
      </trkpt>
      <trkpt lat="45.3653" lon="5.90269">
        <ele>1928.23153282</ele>
        <time>2015-05-24T13:42:16Z</time>
      </trkpt>
      <trkpt lat="45.3653" lon="5.90269">
        <ele>1928.23153282</ele>
        <time>2015-05-24T13:42:21Z</time>
      </trkpt>
      <trkpt lat="45.36531" lon="5.90269">
        <ele>1928.23153282</ele>
        <time>2015-05-24T13:42:26Z</time>
      </trkpt>
      <trkpt lat="45.3653" lon="5.90269">
        <ele>1928.23153282</ele>
        <time>2015-05-24T13:42:31Z</time>
      </trkpt>
      <trkpt lat="45.36529" lon="5.90273">
        <ele>1928.23153282</ele>
        <time>2015-05-24T13:42:36Z</time>
      </trkpt>
      <trkpt lat="45.36529" lon="5.90273">
        <ele>1928.23153282</ele>
        <time>2015-05-24T13:42:41Z</time>
      </trkpt>
      <trkpt lat="45.36529" lon="5.90274">
        <ele>1928.23153282</ele>
        <time>2015-05-24T13:42:46Z</time>
      </trkpt>
      <trkpt lat="45.36528" lon="5.90272">
        <ele>1929.712295398</ele>
        <time>2015-05-24T13:42:51Z</time>
      </trkpt>
      <trkpt lat="45.36528" lon="5.90273">
        <ele>1929.712295398</ele>
        <time>2015-05-24T13:42:56Z</time>
      </trkpt>
      <trkpt lat="45.36528" lon="5.90276">
        <ele>1929.712295398</ele>
        <time>2015-05-24T13:43:01Z</time>
      </trkpt>
      <trkpt lat="45.36528" lon="5.90272">
        <ele>1929.712295398</ele>
        <time>2015-05-24T13:43:06Z</time>
      </trkpt>
      <trkpt lat="45.36526" lon="5.90277">
        <ele>1930.962025873</ele>
        <time>2015-05-24T13:43:11Z</time>
      </trkpt>
      <trkpt lat="45.36527" lon="5.90276">
        <ele>1930.962025873</ele>
        <time>2015-05-24T13:43:16Z</time>
      </trkpt>
      <trkpt lat="45.36525" lon="5.90277">
        <ele>1930.962025873</ele>
        <time>2015-05-24T13:43:21Z</time>
      </trkpt>
      <trkpt lat="45.36526" lon="5.9028">
        <ele>1930.962025873</ele>
        <time>2015-05-24T13:43:26Z</time>
      </trkpt>
      <trkpt lat="45.36526" lon="5.90277">
        <ele>1930.962025873</ele>
        <time>2015-05-24T13:43:31Z</time>
      </trkpt>
      <trkpt lat="45.36526" lon="5.9028">
        <ele>1931.709462367</ele>
        <time>2015-05-24T13:43:36Z</time>
      </trkpt>
      <trkpt lat="45.36526" lon="5.90281">
        <ele>1931.709462367</ele>
        <time>2015-05-24T13:43:41Z</time>
      </trkpt>
      <trkpt lat="45.36524" lon="5.90281">
        <ele>1931.709462367</ele>
        <time>2015-05-24T13:43:45Z</time>
      </trkpt>
      <trkpt lat="45.36529" lon="5.90279">
        <ele>1931.709462367</ele>
        <time>2015-05-24T13:43:50Z</time>
      </trkpt>
      <trkpt lat="45.36527" lon="5.90275">
        <ele>1931.99300126</ele>
        <time>2015-05-24T13:43:55Z</time>
      </trkpt>
      <trkpt lat="45.36526" lon="5.90272">
        <ele>1931.99300126</ele>
        <time>2015-05-24T13:44:01Z</time>
      </trkpt>
      <trkpt lat="45.36523" lon="5.9027">
        <ele>1931.99300126</ele>
        <time>2015-05-24T13:44:05Z</time>
      </trkpt>
      <trkpt lat="45.36526" lon="5.90266">
        <ele>1931.705496073</ele>
        <time>2015-05-24T13:44:11Z</time>
      </trkpt>
      <trkpt lat="45.36525" lon="5.90266">
        <ele>1931.705496073</ele>
        <time>2015-05-24T13:44:15Z</time>
      </trkpt>
      <trkpt lat="45.36526" lon="5.90271">
        <ele>1931.705496073</ele>
        <time>2015-05-24T13:44:21Z</time>
      </trkpt>
      <trkpt lat="45.36528" lon="5.90266">
        <ele>1931.705496073</ele>
        <time>2015-05-24T13:44:26Z</time>
      </trkpt>
      <trkpt lat="45.36526" lon="5.90261">
        <ele>1932.766904448</ele>
        <time>2015-05-24T13:44:31Z</time>
      </trkpt>
      <trkpt lat="45.36527" lon="5.90261">
        <ele>1932.766904448</ele>
        <time>2015-05-24T13:44:36Z</time>
      </trkpt>
      <trkpt lat="45.36526" lon="5.9026">
        <ele>1932.766904448</ele>
        <time>2015-05-24T13:44:41Z</time>
      </trkpt>
      <trkpt lat="45.36529" lon="5.90262">
        <ele>1932.766904448</ele>
        <time>2015-05-24T13:44:46Z</time>
      </trkpt>
      <trkpt lat="45.36529" lon="5.90262">
        <ele>1932.766904448</ele>
        <time>2015-05-24T13:44:51Z</time>
      </trkpt>
      <trkpt lat="45.36529" lon="5.90261">
        <ele>1932.766904448</ele>
        <time>2015-05-24T13:44:56Z</time>
      </trkpt>
      <trkpt lat="45.36529" lon="5.90261">
        <ele>1932.766904448</ele>
        <time>2015-05-24T13:45:01Z</time>
      </trkpt>
      <trkpt lat="45.36529" lon="5.90261">
        <ele>1932.766904448</ele>
        <time>2015-05-24T13:45:06Z</time>
      </trkpt>
      <trkpt lat="45.36529" lon="5.90261">
        <ele>1932.766904448</ele>
        <time>2015-05-24T13:45:11Z</time>
      </trkpt>
      <trkpt lat="45.36529" lon="5.90261">
        <ele>1932.766904448</ele>
        <time>2015-05-24T13:45:16Z</time>
      </trkpt>
      <trkpt lat="45.36529" lon="5.9026">
        <ele>1932.766904448</ele>
        <time>2015-05-24T13:45:21Z</time>
      </trkpt>
      <trkpt lat="45.3653" lon="5.90259">
        <ele>1932.766904448</ele>
        <time>2015-05-24T13:45:26Z</time>
      </trkpt>
      <trkpt lat="45.36528" lon="5.90256">
        <ele>1932.196751737</ele>
        <time>2015-05-24T13:45:31Z</time>
      </trkpt>
      <trkpt lat="45.36529" lon="5.90254">
        <ele>1932.196751737</ele>
        <time>2015-05-24T13:45:36Z</time>
      </trkpt>
      <trkpt lat="45.36528" lon="5.90253">
        <ele>1932.196751737</ele>
        <time>2015-05-24T13:45:41Z</time>
      </trkpt>
      <trkpt lat="45.36527" lon="5.90249">
        <ele>1932.196751737</ele>
        <time>2015-05-24T13:45:46Z</time>
      </trkpt>
      <trkpt lat="45.36524" lon="5.90244">
        <ele>1931.417351115</ele>
        <time>2015-05-24T13:45:51Z</time>
      </trkpt>
      <trkpt lat="45.36525" lon="5.90244">
        <ele>1931.417351115</ele>
        <time>2015-05-24T13:45:56Z</time>
      </trkpt>
      <trkpt lat="45.36527" lon="5.90243">
        <ele>1931.417351115</ele>
        <time>2015-05-24T13:46:01Z</time>
      </trkpt>
      <trkpt lat="45.3653" lon="5.90242">
        <ele>1931.417351115</ele>
        <time>2015-05-24T13:46:06Z</time>
      </trkpt>
      <trkpt lat="45.3653" lon="5.90242">
        <ele>1931.417351115</ele>
        <time>2015-05-24T13:46:11Z</time>
      </trkpt>
      <trkpt lat="45.36531" lon="5.90242">
        <ele>1931.417351115</ele>
        <time>2015-05-24T13:46:16Z</time>
      </trkpt>
      <trkpt lat="45.36532" lon="5.9024">
        <ele>1928.864920318</ele>
        <time>2015-05-24T13:46:21Z</time>
      </trkpt>
      <trkpt lat="45.36536" lon="5.90238">
        <ele>1928.864920318</ele>
        <time>2015-05-24T13:46:26Z</time>
      </trkpt>
      <trkpt lat="45.36536" lon="5.90238">
        <ele>1928.864920318</ele>
        <time>2015-05-24T13:46:31Z</time>
      </trkpt>
      <trkpt lat="45.36535" lon="5.90237">
        <ele>1928.864920318</ele>
        <time>2015-05-24T13:46:36Z</time>
      </trkpt>
      <trkpt lat="45.36535" lon="5.90236">
        <ele>1928.864920318</ele>
        <time>2015-05-24T13:46:41Z</time>
      </trkpt>
      <trkpt lat="45.36535" lon="5.90236">
        <ele>1928.864920318</ele>
        <time>2015-05-24T13:46:46Z</time>
      </trkpt>
      <trkpt lat="45.36535" lon="5.90236">
        <ele>1928.864920318</ele>
        <time>2015-05-24T13:46:51Z</time>
      </trkpt>
      <trkpt lat="45.36536" lon="5.90239">
        <ele>1928.864920318</ele>
        <time>2015-05-24T13:46:56Z</time>
      </trkpt>
      <trkpt lat="45.36536" lon="5.9024">
        <ele>1928.864920318</ele>
        <time>2015-05-24T13:47:01Z</time>
      </trkpt>
      <trkpt lat="45.36535" lon="5.90235">
        <ele>1927.707085726</ele>
        <time>2015-05-24T13:47:06Z</time>
      </trkpt>
      <trkpt lat="45.36533" lon="5.90234">
        <ele>1927.707085726</ele>
        <time>2015-05-24T13:47:11Z</time>
      </trkpt>
      <trkpt lat="45.36532" lon="5.90234">
        <ele>1927.707085726</ele>
        <time>2015-05-24T13:47:15Z</time>
      </trkpt>
      <trkpt lat="45.36532" lon="5.90234">
        <ele>1927.707085726</ele>
        <time>2015-05-24T13:47:20Z</time>
      </trkpt>
      <trkpt lat="45.36532" lon="5.90234">
        <ele>1927.707085726</ele>
        <time>2015-05-24T13:47:26Z</time>
      </trkpt>
      <trkpt lat="45.36532" lon="5.90234">
        <ele>1927.707085726</ele>
        <time>2015-05-24T13:47:30Z</time>
      </trkpt>
      <trkpt lat="45.36532" lon="5.90234">
        <ele>1927.707085726</ele>
        <time>2015-05-24T13:47:35Z</time>
      </trkpt>
      <trkpt lat="45.36532" lon="5.90234">
        <ele>1927.707085726</ele>
        <time>2015-05-24T13:47:41Z</time>
      </trkpt>
      <trkpt lat="45.36532" lon="5.90233">
        <ele>1927.707085726</ele>
        <time>2015-05-24T13:47:46Z</time>
      </trkpt>
      <trkpt lat="45.36532" lon="5.90232">
        <ele>1927.707085726</ele>
        <time>2015-05-24T13:47:51Z</time>
      </trkpt>
      <trkpt lat="45.36529" lon="5.90236">
        <ele>1926.5515143</ele>
        <time>2015-05-24T13:47:56Z</time>
      </trkpt>
      <trkpt lat="45.3653" lon="5.90234">
        <ele>1926.5515143</ele>
        <time>2015-05-24T13:48:01Z</time>
      </trkpt>
      <trkpt lat="45.3653" lon="5.90234">
        <ele>1926.5515143</ele>
        <time>2015-05-24T13:48:06Z</time>
      </trkpt>
      <trkpt lat="45.3653" lon="5.90235">
        <ele>1926.5515143</ele>
        <time>2015-05-24T13:48:11Z</time>
      </trkpt>
      <trkpt lat="45.3653" lon="5.90235">
        <ele>1926.5515143</ele>
        <time>2015-05-24T13:48:16Z</time>
      </trkpt>
      <trkpt lat="45.3653" lon="5.90235">
        <ele>1926.5515143</ele>
        <time>2015-05-24T13:48:21Z</time>
      </trkpt>
      <trkpt lat="45.3653" lon="5.90235">
        <ele>1926.5515143</ele>
        <time>2015-05-24T13:48:26Z</time>
      </trkpt>
      <trkpt lat="45.36531" lon="5.90234">
        <ele>1926.5515143</ele>
        <time>2015-05-24T13:48:31Z</time>
      </trkpt>
      <trkpt lat="45.3653" lon="5.90236">
        <ele>1926.5515143</ele>
        <time>2015-05-24T13:48:36Z</time>
      </trkpt>
      <trkpt lat="45.3653" lon="5.90236">
        <ele>1926.5515143</ele>
        <time>2015-05-24T13:48:41Z</time>
      </trkpt>
      <trkpt lat="45.3653" lon="5.90237">
        <ele>1926.5515143</ele>
        <time>2015-05-24T13:48:46Z</time>
      </trkpt>
      <trkpt lat="45.3653" lon="5.90237">
        <ele>1926.5515143</ele>
        <time>2015-05-24T13:48:51Z</time>
      </trkpt>
      <trkpt lat="45.3653" lon="5.90237">
        <ele>1926.5515143</ele>
        <time>2015-05-24T13:48:56Z</time>
      </trkpt>
      <trkpt lat="45.3653" lon="5.90237">
        <ele>1926.5515143</ele>
        <time>2015-05-24T13:49:01Z</time>
      </trkpt>
      <trkpt lat="45.3653" lon="5.90237">
        <ele>1926.5515143</ele>
        <time>2015-05-24T13:49:06Z</time>
      </trkpt>
      <trkpt lat="45.36536" lon="5.9023">
        <ele>1925.693327518</ele>
        <time>2015-05-24T13:49:11Z</time>
      </trkpt>
      <trkpt lat="45.36538" lon="5.90233">
        <ele>1925.693327518</ele>
        <time>2015-05-24T13:49:16Z</time>
      </trkpt>
      <trkpt lat="45.36538" lon="5.90234">
        <ele>1925.693327518</ele>
        <time>2015-05-24T13:49:21Z</time>
      </trkpt>
      <trkpt lat="45.36537" lon="5.90235">
        <ele>1925.693327518</ele>
        <time>2015-05-24T13:49:26Z</time>
      </trkpt>
      <trkpt lat="45.36537" lon="5.90235">
        <ele>1925.693327518</ele>
        <time>2015-05-24T13:49:31Z</time>
      </trkpt>
      <trkpt lat="45.36537" lon="5.90235">
        <ele>1925.693327518</ele>
        <time>2015-05-24T13:49:36Z</time>
      </trkpt>
      <trkpt lat="45.36537" lon="5.90235">
        <ele>1925.693327518</ele>
        <time>2015-05-24T13:49:41Z</time>
      </trkpt>
      <trkpt lat="45.36537" lon="5.90235">
        <ele>1925.693327518</ele>
        <time>2015-05-24T13:49:46Z</time>
      </trkpt>
      <trkpt lat="45.36537" lon="5.90235">
        <ele>1925.693327518</ele>
        <time>2015-05-24T13:49:51Z</time>
      </trkpt>
      <trkpt lat="45.36537" lon="5.90235">
        <ele>1925.693327518</ele>
        <time>2015-05-24T13:49:56Z</time>
      </trkpt>
      <trkpt lat="45.36533" lon="5.90241">
        <ele>1924.108070293</ele>
        <time>2015-05-24T13:50:01Z</time>
      </trkpt>
      <trkpt lat="45.36533" lon="5.9024">
        <ele>1924.108070293</ele>
        <time>2015-05-24T13:50:06Z</time>
      </trkpt>
      <trkpt lat="45.36533" lon="5.9024">
        <ele>1924.108070293</ele>
        <time>2015-05-24T13:50:11Z</time>
      </trkpt>
      <trkpt lat="45.36533" lon="5.9024">
        <ele>1924.108070293</ele>
        <time>2015-05-24T13:50:15Z</time>
      </trkpt>
      <trkpt lat="45.36533" lon="5.9024">
        <ele>1924.108070293</ele>
        <time>2015-05-24T13:50:21Z</time>
      </trkpt>
      <trkpt lat="45.36533" lon="5.9024">
        <ele>1924.108070293</ele>
        <time>2015-05-24T13:50:26Z</time>
      </trkpt>
      <trkpt lat="45.36533" lon="5.9024">
        <ele>1924.108070293</ele>
        <time>2015-05-24T13:50:31Z</time>
      </trkpt>
      <trkpt lat="45.36533" lon="5.9024">
        <ele>1924.108070293</ele>
        <time>2015-05-24T13:50:35Z</time>
      </trkpt>
      <trkpt lat="45.36533" lon="5.9024">
        <ele>1924.108070293</ele>
        <time>2015-05-24T13:50:40Z</time>
      </trkpt>
      <trkpt lat="45.36533" lon="5.9024">
        <ele>1924.108070293</ele>
        <time>2015-05-24T13:50:46Z</time>
      </trkpt>
      <trkpt lat="45.36533" lon="5.9024">
        <ele>1924.108070293</ele>
        <time>2015-05-24T13:50:51Z</time>
      </trkpt>
      <trkpt lat="45.36533" lon="5.9024">
        <ele>1924.108070293</ele>
        <time>2015-05-24T13:50:56Z</time>
      </trkpt>
      <trkpt lat="45.36536" lon="5.90237">
        <ele>1924.108070293</ele>
        <time>2015-05-24T13:51:01Z</time>
      </trkpt>
      <trkpt lat="45.36536" lon="5.90235">
        <ele>1924.108070293</ele>
        <time>2015-05-24T13:51:06Z</time>
      </trkpt>
      <trkpt lat="45.36536" lon="5.90234">
        <ele>1924.108070293</ele>
        <time>2015-05-24T13:51:11Z</time>
      </trkpt>
      <trkpt lat="45.36537" lon="5.90233">
        <ele>1924.108070293</ele>
        <time>2015-05-24T13:51:16Z</time>
      </trkpt>
      <trkpt lat="45.36537" lon="5.90233">
        <ele>1924.108070293</ele>
        <time>2015-05-24T13:51:21Z</time>
      </trkpt>
      <trkpt lat="45.36537" lon="5.90233">
        <ele>1924.108070293</ele>
        <time>2015-05-24T13:51:26Z</time>
      </trkpt>
      <trkpt lat="45.36537" lon="5.90233">
        <ele>1924.108070293</ele>
        <time>2015-05-24T13:51:30Z</time>
      </trkpt>
      <trkpt lat="45.36538" lon="5.90232">
        <ele>1922.577837632</ele>
        <time>2015-05-24T13:51:36Z</time>
      </trkpt>
      <trkpt lat="45.36536" lon="5.90232">
        <ele>1922.577837632</ele>
        <time>2015-05-24T13:51:41Z</time>
      </trkpt>
      <trkpt lat="45.36534" lon="5.90231">
        <ele>1922.577837632</ele>
        <time>2015-05-24T13:51:46Z</time>
      </trkpt>
      <trkpt lat="45.36534" lon="5.90231">
        <ele>1922.577837632</ele>
        <time>2015-05-24T13:51:51Z</time>
      </trkpt>
      <trkpt lat="45.36532" lon="5.9023">
        <ele>1922.577837632</ele>
        <time>2015-05-24T13:51:56Z</time>
      </trkpt>
      <trkpt lat="45.36531" lon="5.90231">
        <ele>1922.577837632</ele>
        <time>2015-05-24T13:52:01Z</time>
      </trkpt>
      <trkpt lat="45.36531" lon="5.90231">
        <ele>1922.577837632</ele>
        <time>2015-05-24T13:52:06Z</time>
      </trkpt>
      <trkpt lat="45.36531" lon="5.90231">
        <ele>1922.577837632</ele>
        <time>2015-05-24T13:52:11Z</time>
      </trkpt>
      <trkpt lat="45.36531" lon="5.90231">
        <ele>1922.577837632</ele>
        <time>2015-05-24T13:52:15Z</time>
      </trkpt>
      <trkpt lat="45.36531" lon="5.90231">
        <ele>1922.577837632</ele>
        <time>2015-05-24T13:52:21Z</time>
      </trkpt>
      <trkpt lat="45.36531" lon="5.90231">
        <ele>1922.577837632</ele>
        <time>2015-05-24T13:52:26Z</time>
      </trkpt>
      <trkpt lat="45.36531" lon="5.90231">
        <ele>1922.577837632</ele>
        <time>2015-05-24T13:52:31Z</time>
      </trkpt>
      <trkpt lat="45.36531" lon="5.90231">
        <ele>1922.577837632</ele>
        <time>2015-05-24T13:52:36Z</time>
      </trkpt>
      <trkpt lat="45.36531" lon="5.90231">
        <ele>1922.577837632</ele>
        <time>2015-05-24T13:52:41Z</time>
      </trkpt>
      <trkpt lat="45.36531" lon="5.90231">
        <ele>1922.577837632</ele>
        <time>2015-05-24T13:52:46Z</time>
      </trkpt>
      <trkpt lat="45.36531" lon="5.90231">
        <ele>1922.577837632</ele>
        <time>2015-05-24T13:52:51Z</time>
      </trkpt>
      <trkpt lat="45.36531" lon="5.90231">
        <ele>1922.577837632</ele>
        <time>2015-05-24T13:52:56Z</time>
      </trkpt>
      <trkpt lat="45.36531" lon="5.90231">
        <ele>1922.577837632</ele>
        <time>2015-05-24T13:53:01Z</time>
      </trkpt>
      <trkpt lat="45.36531" lon="5.90231">
        <ele>1922.577837632</ele>
        <time>2015-05-24T13:53:06Z</time>
      </trkpt>
      <trkpt lat="45.36531" lon="5.90231">
        <ele>1922.577837632</ele>
        <time>2015-05-24T13:53:11Z</time>
      </trkpt>
      <trkpt lat="45.36531" lon="5.90231">
        <ele>1922.577837632</ele>
        <time>2015-05-24T13:53:16Z</time>
      </trkpt>
      <trkpt lat="45.36531" lon="5.90231">
        <ele>1922.577837632</ele>
        <time>2015-05-24T13:53:21Z</time>
      </trkpt>
      <trkpt lat="45.36531" lon="5.90231">
        <ele>1922.577837632</ele>
        <time>2015-05-24T13:53:26Z</time>
      </trkpt>
      <trkpt lat="45.36531" lon="5.90231">
        <ele>1922.577837632</ele>
        <time>2015-05-24T13:53:31Z</time>
      </trkpt>
      <trkpt lat="45.36531" lon="5.90231">
        <ele>1922.577837632</ele>
        <time>2015-05-24T13:53:36Z</time>
      </trkpt>
      <trkpt lat="45.36531" lon="5.90231">
        <ele>1922.577837632</ele>
        <time>2015-05-24T13:53:40Z</time>
      </trkpt>
      <trkpt lat="45.36531" lon="5.90231">
        <ele>1922.577837632</ele>
        <time>2015-05-24T13:53:46Z</time>
      </trkpt>
      <trkpt lat="45.36532" lon="5.90228">
        <ele>1922.259357786</ele>
        <time>2015-05-24T13:53:51Z</time>
      </trkpt>
      <trkpt lat="45.36533" lon="5.9023">
        <ele>1922.259357786</ele>
        <time>2015-05-24T13:53:56Z</time>
      </trkpt>
      <trkpt lat="45.36533" lon="5.9023">
        <ele>1922.259357786</ele>
        <time>2015-05-24T13:54:01Z</time>
      </trkpt>
      <trkpt lat="45.36536" lon="5.90229">
        <ele>1922.259357786</ele>
        <time>2015-05-24T13:54:06Z</time>
      </trkpt>
      <trkpt lat="45.36539" lon="5.90227">
        <ele>1921.770991152</ele>
        <time>2015-05-24T13:54:11Z</time>
      </trkpt>
      <trkpt lat="45.36538" lon="5.90227">
        <ele>1921.770991152</ele>
        <time>2015-05-24T13:54:16Z</time>
      </trkpt>
      <trkpt lat="45.36535" lon="5.90227">
        <ele>1921.770991152</ele>
        <time>2015-05-24T13:54:21Z</time>
      </trkpt>
      <trkpt lat="45.36535" lon="5.90228">
        <ele>1921.770991152</ele>
        <time>2015-05-24T13:54:26Z</time>
      </trkpt>
      <trkpt lat="45.36536" lon="5.90228">
        <ele>1921.770991152</ele>
        <time>2015-05-24T13:54:31Z</time>
      </trkpt>
      <trkpt lat="45.36536" lon="5.90228">
        <ele>1921.770991152</ele>
        <time>2015-05-24T13:54:36Z</time>
      </trkpt>
      <trkpt lat="45.36535" lon="5.90229">
        <ele>1921.770991152</ele>
        <time>2015-05-24T13:54:41Z</time>
      </trkpt>
      <trkpt lat="45.36535" lon="5.9023">
        <ele>1921.770991152</ele>
        <time>2015-05-24T13:54:46Z</time>
      </trkpt>
      <trkpt lat="45.36535" lon="5.9023">
        <ele>1921.770991152</ele>
        <time>2015-05-24T13:54:51Z</time>
      </trkpt>
      <trkpt lat="45.36535" lon="5.9023">
        <ele>1921.770991152</ele>
        <time>2015-05-24T13:54:56Z</time>
      </trkpt>
      <trkpt lat="45.36535" lon="5.9023">
        <ele>1921.770991152</ele>
        <time>2015-05-24T13:55:01Z</time>
      </trkpt>
      <trkpt lat="45.36535" lon="5.90229">
        <ele>1921.770991152</ele>
        <time>2015-05-24T13:55:06Z</time>
      </trkpt>
      <trkpt lat="45.36535" lon="5.90229">
        <ele>1921.770991152</ele>
        <time>2015-05-24T13:55:11Z</time>
      </trkpt>
      <trkpt lat="45.36535" lon="5.90229">
        <ele>1921.770991152</ele>
        <time>2015-05-24T13:55:16Z</time>
      </trkpt>
      <trkpt lat="45.36535" lon="5.90229">
        <ele>1920.84173061</ele>
        <time>2015-05-24T13:55:21Z</time>
      </trkpt>
      <trkpt lat="45.36535" lon="5.9023">
        <ele>1920.84173061</ele>
        <time>2015-05-24T13:55:26Z</time>
      </trkpt>
      <trkpt lat="45.36534" lon="5.9023">
        <ele>1920.84173061</ele>
        <time>2015-05-24T13:55:31Z</time>
      </trkpt>
      <trkpt lat="45.36533" lon="5.90231">
        <ele>1920.84173061</ele>
        <time>2015-05-24T13:55:36Z</time>
      </trkpt>
      <trkpt lat="45.36533" lon="5.90231">
        <ele>1920.84173061</ele>
        <time>2015-05-24T13:55:41Z</time>
      </trkpt>
      <trkpt lat="45.36533" lon="5.90231">
        <ele>1920.84173061</ele>
        <time>2015-05-24T13:55:46Z</time>
      </trkpt>
      <trkpt lat="45.36533" lon="5.90231">
        <ele>1920.84173061</ele>
        <time>2015-05-24T13:55:51Z</time>
      </trkpt>
      <trkpt lat="45.36533" lon="5.90231">
        <ele>1920.84173061</ele>
        <time>2015-05-24T13:55:56Z</time>
      </trkpt>
      <trkpt lat="45.36533" lon="5.9023">
        <ele>1920.84173061</ele>
        <time>2015-05-24T13:56:01Z</time>
      </trkpt>
      <trkpt lat="45.36533" lon="5.9023">
        <ele>1920.84173061</ele>
        <time>2015-05-24T13:56:06Z</time>
      </trkpt>
      <trkpt lat="45.36533" lon="5.9023">
        <ele>1920.84173061</ele>
        <time>2015-05-24T13:56:11Z</time>
      </trkpt>
      <trkpt lat="45.36533" lon="5.9023">
        <ele>1920.84173061</ele>
        <time>2015-05-24T13:56:16Z</time>
      </trkpt>
      <trkpt lat="45.36533" lon="5.9023">
        <ele>1920.84173061</ele>
        <time>2015-05-24T13:56:21Z</time>
      </trkpt>
      <trkpt lat="45.36533" lon="5.9023">
        <ele>1920.84173061</ele>
        <time>2015-05-24T13:56:26Z</time>
      </trkpt>
      <trkpt lat="45.36533" lon="5.90228">
        <ele>1920.84173061</ele>
        <time>2015-05-24T13:56:31Z</time>
      </trkpt>
      <trkpt lat="45.36535" lon="5.90229">
        <ele>1920.84173061</ele>
        <time>2015-05-24T13:56:36Z</time>
      </trkpt>
      <trkpt lat="45.36535" lon="5.90229">
        <ele>1920.84173061</ele>
        <time>2015-05-24T13:56:40Z</time>
      </trkpt>
      <trkpt lat="45.36535" lon="5.90229">
        <ele>1920.84173061</ele>
        <time>2015-05-24T13:56:46Z</time>
      </trkpt>
      <trkpt lat="45.36536" lon="5.90229">
        <ele>1920.84173061</ele>
        <time>2015-05-24T13:56:51Z</time>
      </trkpt>
      <trkpt lat="45.36536" lon="5.90229">
        <ele>1920.84173061</ele>
        <time>2015-05-24T13:56:55Z</time>
      </trkpt>
      <trkpt lat="45.36535" lon="5.90229">
        <ele>1920.84173061</ele>
        <time>2015-05-24T13:57:01Z</time>
      </trkpt>
      <trkpt lat="45.36534" lon="5.90229">
        <ele>1920.84173061</ele>
        <time>2015-05-24T13:57:05Z</time>
      </trkpt>
      <trkpt lat="45.36535" lon="5.90227">
        <ele>1919.942145222</ele>
        <time>2015-05-24T13:57:11Z</time>
      </trkpt>
      <trkpt lat="45.36535" lon="5.90227">
        <ele>1919.942145222</ele>
        <time>2015-05-24T13:57:16Z</time>
      </trkpt>
      <trkpt lat="45.36535" lon="5.90227">
        <ele>1919.942145222</ele>
        <time>2015-05-24T13:57:21Z</time>
      </trkpt>
      <trkpt lat="45.36535" lon="5.90227">
        <ele>1919.942145222</ele>
        <time>2015-05-24T13:57:26Z</time>
      </trkpt>
      <trkpt lat="45.36537" lon="5.90228">
        <ele>1919.942145222</ele>
        <time>2015-05-24T13:57:31Z</time>
      </trkpt>
      <trkpt lat="45.36537" lon="5.90228">
        <ele>1919.942145222</ele>
        <time>2015-05-24T13:57:36Z</time>
      </trkpt>
      <trkpt lat="45.36537" lon="5.90228">
        <ele>1919.942145222</ele>
        <time>2015-05-24T13:57:41Z</time>
      </trkpt>
      <trkpt lat="45.36537" lon="5.90228">
        <ele>1919.942145222</ele>
        <time>2015-05-24T13:57:46Z</time>
      </trkpt>
      <trkpt lat="45.36537" lon="5.90227">
        <ele>1919.942145222</ele>
        <time>2015-05-24T13:57:51Z</time>
      </trkpt>
      <trkpt lat="45.36538" lon="5.9023">
        <ele>1919.942145222</ele>
        <time>2015-05-24T13:57:56Z</time>
      </trkpt>
      <trkpt lat="45.36539" lon="5.90229">
        <ele>1919.942145222</ele>
        <time>2015-05-24T13:58:01Z</time>
      </trkpt>
      <trkpt lat="45.36541" lon="5.90231">
        <ele>1917.778685965</ele>
        <time>2015-05-24T13:58:06Z</time>
      </trkpt>
      <trkpt lat="45.36539" lon="5.90231">
        <ele>1917.778685965</ele>
        <time>2015-05-24T13:58:11Z</time>
      </trkpt>
      <trkpt lat="45.36539" lon="5.9023">
        <ele>1917.778685965</ele>
        <time>2015-05-24T13:58:16Z</time>
      </trkpt>
      <trkpt lat="45.36539" lon="5.9023">
        <ele>1917.778685965</ele>
        <time>2015-05-24T13:58:21Z</time>
      </trkpt>
      <trkpt lat="45.36539" lon="5.9023">
        <ele>1917.778685965</ele>
        <time>2015-05-24T13:58:26Z</time>
      </trkpt>
      <trkpt lat="45.36539" lon="5.9023">
        <ele>1917.778685965</ele>
        <time>2015-05-24T13:58:31Z</time>
      </trkpt>
      <trkpt lat="45.36539" lon="5.9023">
        <ele>1917.778685965</ele>
        <time>2015-05-24T13:58:36Z</time>
      </trkpt>
      <trkpt lat="45.36538" lon="5.90228">
        <ele>1917.778685965</ele>
        <time>2015-05-24T13:58:41Z</time>
      </trkpt>
      <trkpt lat="45.36537" lon="5.90228">
        <ele>1917.778685965</ele>
        <time>2015-05-24T13:58:46Z</time>
      </trkpt>
      <trkpt lat="45.3654" lon="5.90231">
        <ele>1917.778685965</ele>
        <time>2015-05-24T13:58:51Z</time>
      </trkpt>
      <trkpt lat="45.36542" lon="5.90233">
        <ele>1915.750230543</ele>
        <time>2015-05-24T13:58:56Z</time>
      </trkpt>
      <trkpt lat="45.3654" lon="5.90233">
        <ele>1915.750230543</ele>
        <time>2015-05-24T13:59:01Z</time>
      </trkpt>
      <trkpt lat="45.36541" lon="5.90235">
        <ele>1915.750230543</ele>
        <time>2015-05-24T13:59:06Z</time>
      </trkpt>
      <trkpt lat="45.36541" lon="5.90236">
        <ele>1915.750230543</ele>
        <time>2015-05-24T13:59:11Z</time>
      </trkpt>
      <trkpt lat="45.36541" lon="5.90235">
        <ele>1915.750230543</ele>
        <time>2015-05-24T13:59:16Z</time>
      </trkpt>
      <trkpt lat="45.36542" lon="5.90234">
        <ele>1915.750230543</ele>
        <time>2015-05-24T13:59:21Z</time>
      </trkpt>
      <trkpt lat="45.36541" lon="5.90232">
        <ele>1915.750230543</ele>
        <time>2015-05-24T13:59:26Z</time>
      </trkpt>
      <trkpt lat="45.3654" lon="5.90232">
        <ele>1915.750230543</ele>
        <time>2015-05-24T13:59:31Z</time>
      </trkpt>
      <trkpt lat="45.3654" lon="5.90232">
        <ele>1915.750230543</ele>
        <time>2015-05-24T13:59:36Z</time>
      </trkpt>
      <trkpt lat="45.3654" lon="5.90232">
        <ele>1915.750230543</ele>
        <time>2015-05-24T13:59:41Z</time>
      </trkpt>
      <trkpt lat="45.3654" lon="5.90232">
        <ele>1915.750230543</ele>
        <time>2015-05-24T13:59:46Z</time>
      </trkpt>
      <trkpt lat="45.3654" lon="5.90232">
        <ele>1915.750230543</ele>
        <time>2015-05-24T13:59:51Z</time>
      </trkpt>
      <trkpt lat="45.3654" lon="5.90231">
        <ele>1915.750230543</ele>
        <time>2015-05-24T13:59:56Z</time>
      </trkpt>
      <trkpt lat="45.3654" lon="5.90231">
        <ele>1915.750230543</ele>
        <time>2015-05-24T14:00:01Z</time>
      </trkpt>
      <trkpt lat="45.3654" lon="5.90231">
        <ele>1915.750230543</ele>
        <time>2015-05-24T14:00:06Z</time>
      </trkpt>
      <trkpt lat="45.3654" lon="5.90231">
        <ele>1915.750230543</ele>
        <time>2015-05-24T14:00:10Z</time>
      </trkpt>
      <trkpt lat="45.3654" lon="5.90231">
        <ele>1915.750230543</ele>
        <time>2015-05-24T14:00:15Z</time>
      </trkpt>
      <trkpt lat="45.3654" lon="5.90231">
        <ele>1915.750230543</ele>
        <time>2015-05-24T14:00:21Z</time>
      </trkpt>
      <trkpt lat="45.3654" lon="5.90231">
        <ele>1915.750230543</ele>
        <time>2015-05-24T14:00:26Z</time>
      </trkpt>
      <trkpt lat="45.3654" lon="5.90231">
        <ele>1914.143584795</ele>
        <time>2015-05-24T14:00:31Z</time>
      </trkpt>
      <trkpt lat="45.3654" lon="5.90231">
        <ele>1914.143584795</ele>
        <time>2015-05-24T14:00:36Z</time>
      </trkpt>
      <trkpt lat="45.3654" lon="5.90231">
        <ele>1914.143584795</ele>
        <time>2015-05-24T14:00:41Z</time>
      </trkpt>
      <trkpt lat="45.3654" lon="5.90231">
        <ele>1914.143584795</ele>
        <time>2015-05-24T14:00:46Z</time>
      </trkpt>
      <trkpt lat="45.3654" lon="5.90232">
        <ele>1914.143584795</ele>
        <time>2015-05-24T14:00:51Z</time>
      </trkpt>
      <trkpt lat="45.3654" lon="5.90232">
        <ele>1914.143584795</ele>
        <time>2015-05-24T14:00:56Z</time>
      </trkpt>
      <trkpt lat="45.3654" lon="5.90232">
        <ele>1914.143584795</ele>
        <time>2015-05-24T14:01:01Z</time>
      </trkpt>
      <trkpt lat="45.3654" lon="5.90232">
        <ele>1914.143584795</ele>
        <time>2015-05-24T14:01:06Z</time>
      </trkpt>
      <trkpt lat="45.3654" lon="5.90232">
        <ele>1914.143584795</ele>
        <time>2015-05-24T14:01:11Z</time>
      </trkpt>
      <trkpt lat="45.3654" lon="5.90232">
        <ele>1914.143584795</ele>
        <time>2015-05-24T14:01:16Z</time>
      </trkpt>
      <trkpt lat="45.3654" lon="5.90232">
        <ele>1914.143584795</ele>
        <time>2015-05-24T14:01:21Z</time>
      </trkpt>
      <trkpt lat="45.3654" lon="5.90232">
        <ele>1914.143584795</ele>
        <time>2015-05-24T14:01:26Z</time>
      </trkpt>
      <trkpt lat="45.3654" lon="5.90232">
        <ele>1914.143584795</ele>
        <time>2015-05-24T14:01:31Z</time>
      </trkpt>
      <trkpt lat="45.3654" lon="5.90232">
        <ele>1914.143584795</ele>
        <time>2015-05-24T14:01:36Z</time>
      </trkpt>
      <trkpt lat="45.36541" lon="5.90229">
        <ele>1914.143584795</ele>
        <time>2015-05-24T14:01:41Z</time>
      </trkpt>
      <trkpt lat="45.3654" lon="5.90228">
        <ele>1914.143584795</ele>
        <time>2015-05-24T14:01:46Z</time>
      </trkpt>
      <trkpt lat="45.36539" lon="5.9023">
        <ele>1914.143584795</ele>
        <time>2015-05-24T14:01:51Z</time>
      </trkpt>
      <trkpt lat="45.36536" lon="5.90234">
        <ele>1912.646692558</ele>
        <time>2015-05-24T14:01:56Z</time>
      </trkpt>
      <trkpt lat="45.36536" lon="5.90235">
        <ele>1912.646692558</ele>
        <time>2015-05-24T14:02:01Z</time>
      </trkpt>
      <trkpt lat="45.36537" lon="5.90234">
        <ele>1912.646692558</ele>
        <time>2015-05-24T14:02:06Z</time>
      </trkpt>
      <trkpt lat="45.36537" lon="5.90233">
        <ele>1912.646692558</ele>
        <time>2015-05-24T14:02:11Z</time>
      </trkpt>
      <trkpt lat="45.36538" lon="5.90233">
        <ele>1912.646692558</ele>
        <time>2015-05-24T14:02:16Z</time>
      </trkpt>
      <trkpt lat="45.36538" lon="5.90233">
        <ele>1912.646692558</ele>
        <time>2015-05-24T14:02:21Z</time>
      </trkpt>
      <trkpt lat="45.36538" lon="5.90233">
        <ele>1912.646692558</ele>
        <time>2015-05-24T14:02:26Z</time>
      </trkpt>
      <trkpt lat="45.36538" lon="5.90232">
        <ele>1912.646692558</ele>
        <time>2015-05-24T14:02:31Z</time>
      </trkpt>
      <trkpt lat="45.36538" lon="5.90232">
        <ele>1912.646692558</ele>
        <time>2015-05-24T14:02:36Z</time>
      </trkpt>
      <trkpt lat="45.36538" lon="5.90232">
        <ele>1912.646692558</ele>
        <time>2015-05-24T14:02:41Z</time>
      </trkpt>
      <trkpt lat="45.36538" lon="5.90232">
        <ele>1912.646692558</ele>
        <time>2015-05-24T14:02:46Z</time>
      </trkpt>
      <trkpt lat="45.36538" lon="5.90232">
        <ele>1912.646692558</ele>
        <time>2015-05-24T14:02:51Z</time>
      </trkpt>
      <trkpt lat="45.36538" lon="5.90231">
        <ele>1912.646692558</ele>
        <time>2015-05-24T14:02:56Z</time>
      </trkpt>
      <trkpt lat="45.36538" lon="5.90231">
        <ele>1912.646692558</ele>
        <time>2015-05-24T14:03:01Z</time>
      </trkpt>
      <trkpt lat="45.36538" lon="5.90231">
        <ele>1912.646692558</ele>
        <time>2015-05-24T14:03:06Z</time>
      </trkpt>
      <trkpt lat="45.36538" lon="5.90231">
        <ele>1912.646692558</ele>
        <time>2015-05-24T14:03:11Z</time>
      </trkpt>
      <trkpt lat="45.36538" lon="5.90232">
        <ele>1912.646692558</ele>
        <time>2015-05-24T14:03:15Z</time>
      </trkpt>
      <trkpt lat="45.36538" lon="5.90232">
        <ele>1912.646692558</ele>
        <time>2015-05-24T14:03:21Z</time>
      </trkpt>
      <trkpt lat="45.36538" lon="5.90232">
        <ele>1912.646692558</ele>
        <time>2015-05-24T14:03:26Z</time>
      </trkpt>
      <trkpt lat="45.36538" lon="5.90232">
        <ele>1912.646692558</ele>
        <time>2015-05-24T14:03:31Z</time>
      </trkpt>
      <trkpt lat="45.36538" lon="5.90232">
        <ele>1912.646692558</ele>
        <time>2015-05-24T14:03:36Z</time>
      </trkpt>
      <trkpt lat="45.36538" lon="5.90232">
        <ele>1912.646692558</ele>
        <time>2015-05-24T14:03:41Z</time>
      </trkpt>
      <trkpt lat="45.36538" lon="5.90232">
        <ele>1912.646692558</ele>
        <time>2015-05-24T14:03:46Z</time>
      </trkpt>
      <trkpt lat="45.36538" lon="5.90232">
        <ele>1912.646692558</ele>
        <time>2015-05-24T14:03:51Z</time>
      </trkpt>
      <trkpt lat="45.36538" lon="5.90232">
        <ele>1912.646692558</ele>
        <time>2015-05-24T14:03:56Z</time>
      </trkpt>
      <trkpt lat="45.36538" lon="5.90232">
        <ele>1912.646692558</ele>
        <time>2015-05-24T14:04:01Z</time>
      </trkpt>
      <trkpt lat="45.36538" lon="5.90232">
        <ele>1912.646692558</ele>
        <time>2015-05-24T14:04:06Z</time>
      </trkpt>
      <trkpt lat="45.36538" lon="5.90232">
        <ele>1912.646692558</ele>
        <time>2015-05-24T14:04:11Z</time>
      </trkpt>
      <trkpt lat="45.36538" lon="5.90232">
        <ele>1912.646692558</ele>
        <time>2015-05-24T14:04:16Z</time>
      </trkpt>
      <trkpt lat="45.36538" lon="5.90232">
        <ele>1912.646692558</ele>
        <time>2015-05-24T14:04:21Z</time>
      </trkpt>
      <trkpt lat="45.36538" lon="5.90232">
        <ele>1912.646692558</ele>
        <time>2015-05-24T14:04:26Z</time>
      </trkpt>
      <trkpt lat="45.36538" lon="5.90232">
        <ele>1912.646692558</ele>
        <time>2015-05-24T14:04:31Z</time>
      </trkpt>
      <trkpt lat="45.36538" lon="5.90232">
        <ele>1912.646692558</ele>
        <time>2015-05-24T14:04:36Z</time>
      </trkpt>
      <trkpt lat="45.36538" lon="5.90232">
        <ele>1912.646692558</ele>
        <time>2015-05-24T14:04:41Z</time>
      </trkpt>
      <trkpt lat="45.36538" lon="5.90232">
        <ele>1912.646692558</ele>
        <time>2015-05-24T14:04:46Z</time>
      </trkpt>
      <trkpt lat="45.36538" lon="5.90232">
        <ele>1912.646692558</ele>
        <time>2015-05-24T14:04:51Z</time>
      </trkpt>
      <trkpt lat="45.36538" lon="5.90232">
        <ele>1912.646692558</ele>
        <time>2015-05-24T14:04:56Z</time>
      </trkpt>
      <trkpt lat="45.36537" lon="5.90233">
        <ele>1912.646692558</ele>
        <time>2015-05-24T14:05:01Z</time>
      </trkpt>
      <trkpt lat="45.36538" lon="5.90229">
        <ele>1912.646692558</ele>
        <time>2015-05-24T14:05:06Z</time>
      </trkpt>
      <trkpt lat="45.36537" lon="5.9023">
        <ele>1911.834605696</ele>
        <time>2015-05-24T14:05:11Z</time>
      </trkpt>
      <trkpt lat="45.36537" lon="5.90229">
        <ele>1911.834605696</ele>
        <time>2015-05-24T14:05:16Z</time>
      </trkpt>
      <trkpt lat="45.36537" lon="5.90229">
        <ele>1911.834605696</ele>
        <time>2015-05-24T14:05:21Z</time>
      </trkpt>
      <trkpt lat="45.36538" lon="5.90232">
        <ele>1911.834605696</ele>
        <time>2015-05-24T14:05:26Z</time>
      </trkpt>
      <trkpt lat="45.36537" lon="5.90235">
        <ele>1911.834605696</ele>
        <time>2015-05-24T14:05:31Z</time>
      </trkpt>
      <trkpt lat="45.36537" lon="5.9024">
        <ele>1911.834605696</ele>
        <time>2015-05-24T14:05:36Z</time>
      </trkpt>
      <trkpt lat="45.36537" lon="5.90239">
        <ele>1911.834605696</ele>
        <time>2015-05-24T14:05:41Z</time>
      </trkpt>
      <trkpt lat="45.36536" lon="5.9024">
        <ele>1910.796919715</ele>
        <time>2015-05-24T14:05:46Z</time>
      </trkpt>
      <trkpt lat="45.36536" lon="5.90239">
        <ele>1910.796919715</ele>
        <time>2015-05-24T14:05:51Z</time>
      </trkpt>
      <trkpt lat="45.36536" lon="5.90239">
        <ele>1910.796919715</ele>
        <time>2015-05-24T14:05:56Z</time>
      </trkpt>
      <trkpt lat="45.36536" lon="5.90239">
        <ele>1910.796919715</ele>
        <time>2015-05-24T14:06:01Z</time>
      </trkpt>
      <trkpt lat="45.36536" lon="5.90239">
        <ele>1910.796919715</ele>
        <time>2015-05-24T14:06:06Z</time>
      </trkpt>
      <trkpt lat="45.36536" lon="5.90239">
        <ele>1910.796919715</ele>
        <time>2015-05-24T14:06:11Z</time>
      </trkpt>
      <trkpt lat="45.36536" lon="5.90239">
        <ele>1910.796919715</ele>
        <time>2015-05-24T14:06:16Z</time>
      </trkpt>
      <trkpt lat="45.36536" lon="5.90239">
        <ele>1910.796919715</ele>
        <time>2015-05-24T14:06:21Z</time>
      </trkpt>
      <trkpt lat="45.36534" lon="5.90238">
        <ele>1910.796919715</ele>
        <time>2015-05-24T14:06:26Z</time>
      </trkpt>
      <trkpt lat="45.36534" lon="5.90238">
        <ele>1910.796919715</ele>
        <time>2015-05-24T14:06:30Z</time>
      </trkpt>
      <trkpt lat="45.36534" lon="5.90238">
        <ele>1910.796919715</ele>
        <time>2015-05-24T14:06:36Z</time>
      </trkpt>
      <trkpt lat="45.36534" lon="5.90238">
        <ele>1910.796919715</ele>
        <time>2015-05-24T14:06:41Z</time>
      </trkpt>
      <trkpt lat="45.36534" lon="5.90237">
        <ele>1910.796919715</ele>
        <time>2015-05-24T14:06:46Z</time>
      </trkpt>
      <trkpt lat="45.36533" lon="5.90238">
        <ele>1910.796919715</ele>
        <time>2015-05-24T14:06:51Z</time>
      </trkpt>
      <trkpt lat="45.36533" lon="5.90239">
        <ele>1910.796919715</ele>
        <time>2015-05-24T14:06:56Z</time>
      </trkpt>
      <trkpt lat="45.36533" lon="5.90239">
        <ele>1910.796919715</ele>
        <time>2015-05-24T14:07:01Z</time>
      </trkpt>
      <trkpt lat="45.36533" lon="5.90239">
        <ele>1910.796919715</ele>
        <time>2015-05-24T14:07:06Z</time>
      </trkpt>
      <trkpt lat="45.36533" lon="5.90239">
        <ele>1910.796919715</ele>
        <time>2015-05-24T14:07:11Z</time>
      </trkpt>
      <trkpt lat="45.36531" lon="5.90227">
        <ele>1910.419892089</ele>
        <time>2015-05-24T14:07:15Z</time>
      </trkpt>
      <trkpt lat="45.36531" lon="5.90225">
        <ele>1910.419892089</ele>
        <time>2015-05-24T14:07:21Z</time>
      </trkpt>
      <trkpt lat="45.36535" lon="5.90226">
        <ele>1910.419892089</ele>
        <time>2015-05-24T14:07:26Z</time>
      </trkpt>
      <trkpt lat="45.36536" lon="5.90225">
        <ele>1910.419892089</ele>
        <time>2015-05-24T14:07:31Z</time>
      </trkpt>
      <trkpt lat="45.36536" lon="5.90224">
        <ele>1910.419892089</ele>
        <time>2015-05-24T14:07:36Z</time>
      </trkpt>
      <trkpt lat="45.36536" lon="5.90224">
        <ele>1910.419892089</ele>
        <time>2015-05-24T14:07:41Z</time>
      </trkpt>
      <trkpt lat="45.36536" lon="5.90225">
        <ele>1910.419892089</ele>
        <time>2015-05-24T14:07:46Z</time>
      </trkpt>
      <trkpt lat="45.36537" lon="5.90226">
        <ele>1910.081529324</ele>
        <time>2015-05-24T14:07:51Z</time>
      </trkpt>
      <trkpt lat="45.36537" lon="5.90226">
        <ele>1910.081529324</ele>
        <time>2015-05-24T14:07:56Z</time>
      </trkpt>
      <trkpt lat="45.36537" lon="5.90226">
        <ele>1910.081529324</ele>
        <time>2015-05-24T14:08:01Z</time>
      </trkpt>
      <trkpt lat="45.36537" lon="5.90226">
        <ele>1910.081529324</ele>
        <time>2015-05-24T14:08:06Z</time>
      </trkpt>
      <trkpt lat="45.36537" lon="5.90226">
        <ele>1910.081529324</ele>
        <time>2015-05-24T14:08:11Z</time>
      </trkpt>
      <trkpt lat="45.36537" lon="5.90226">
        <ele>1910.081529324</ele>
        <time>2015-05-24T14:08:15Z</time>
      </trkpt>
      <trkpt lat="45.36537" lon="5.90226">
        <ele>1910.081529324</ele>
        <time>2015-05-24T14:08:21Z</time>
      </trkpt>
      <trkpt lat="45.36537" lon="5.90226">
        <ele>1910.081529324</ele>
        <time>2015-05-24T14:08:25Z</time>
      </trkpt>
      <trkpt lat="45.36537" lon="5.90226">
        <ele>1910.081529324</ele>
        <time>2015-05-24T14:08:31Z</time>
      </trkpt>
      <trkpt lat="45.36537" lon="5.90226">
        <ele>1910.081529324</ele>
        <time>2015-05-24T14:08:35Z</time>
      </trkpt>
      <trkpt lat="45.36537" lon="5.90226">
        <ele>1910.081529324</ele>
        <time>2015-05-24T14:08:40Z</time>
      </trkpt>
      <trkpt lat="45.36537" lon="5.90226">
        <ele>1910.081529324</ele>
        <time>2015-05-24T14:08:45Z</time>
      </trkpt>
      <trkpt lat="45.36537" lon="5.90226">
        <ele>1910.081529324</ele>
        <time>2015-05-24T14:08:51Z</time>
      </trkpt>
      <trkpt lat="45.36537" lon="5.90226">
        <ele>1910.081529324</ele>
        <time>2015-05-24T14:08:56Z</time>
      </trkpt>
      <trkpt lat="45.36537" lon="5.90226">
        <ele>1910.081529324</ele>
        <time>2015-05-24T14:09:01Z</time>
      </trkpt>
      <trkpt lat="45.36537" lon="5.90226">
        <ele>1910.081529324</ele>
        <time>2015-05-24T14:09:06Z</time>
      </trkpt>
      <trkpt lat="45.36537" lon="5.90226">
        <ele>1910.081529324</ele>
        <time>2015-05-24T14:09:11Z</time>
      </trkpt>
      <trkpt lat="45.36537" lon="5.90226">
        <ele>1910.081529324</ele>
        <time>2015-05-24T14:09:16Z</time>
      </trkpt>
      <trkpt lat="45.36537" lon="5.90226">
        <ele>1910.081529324</ele>
        <time>2015-05-24T14:09:21Z</time>
      </trkpt>
      <trkpt lat="45.36537" lon="5.90226">
        <ele>1910.081529324</ele>
        <time>2015-05-24T14:09:26Z</time>
      </trkpt>
      <trkpt lat="45.36537" lon="5.90226">
        <ele>1910.081529324</ele>
        <time>2015-05-24T14:09:31Z</time>
      </trkpt>
      <trkpt lat="45.36537" lon="5.90226">
        <ele>1910.081529324</ele>
        <time>2015-05-24T14:09:36Z</time>
      </trkpt>
      <trkpt lat="45.36537" lon="5.90226">
        <ele>1910.081529324</ele>
        <time>2015-05-24T14:09:41Z</time>
      </trkpt>
      <trkpt lat="45.36537" lon="5.90226">
        <ele>1910.081529324</ele>
        <time>2015-05-24T14:09:46Z</time>
      </trkpt>
      <trkpt lat="45.36541" lon="5.90229">
        <ele>1910.081529324</ele>
        <time>2015-05-24T14:09:51Z</time>
      </trkpt>
      <trkpt lat="45.36546" lon="5.90228">
        <ele>1909.781686524</ele>
        <time>2015-05-24T14:09:56Z</time>
      </trkpt>
      <trkpt lat="45.3655" lon="5.90228">
        <ele>1909.781686524</ele>
        <time>2015-05-24T14:10:01Z</time>
      </trkpt>
      <trkpt lat="45.36553" lon="5.90227">
        <ele>1909.781686524</ele>
        <time>2015-05-24T14:10:06Z</time>
      </trkpt>
      <trkpt lat="45.36557" lon="5.9023">
        <ele>1909.808169978</ele>
        <time>2015-05-24T14:10:11Z</time>
      </trkpt>
      <trkpt lat="45.3656" lon="5.90227">
        <ele>1909.808169978</ele>
        <time>2015-05-24T14:10:16Z</time>
      </trkpt>
      <trkpt lat="45.36564" lon="5.90226">
        <ele>1909.808169978</ele>
        <time>2015-05-24T14:10:21Z</time>
      </trkpt>
      <trkpt lat="45.36566" lon="5.90228">
        <ele>1909.99422826</ele>
        <time>2015-05-24T14:10:26Z</time>
      </trkpt>
      <trkpt lat="45.36566" lon="5.90231">
        <ele>1909.99422826</ele>
        <time>2015-05-24T14:10:31Z</time>
      </trkpt>
      <trkpt lat="45.36567" lon="5.9023">
        <ele>1909.99422826</ele>
        <time>2015-05-24T14:10:36Z</time>
      </trkpt>
      <trkpt lat="45.36567" lon="5.90231">
        <ele>1909.99422826</ele>
        <time>2015-05-24T14:10:41Z</time>
      </trkpt>
      <trkpt lat="45.36569" lon="5.9023">
        <ele>1909.99422826</ele>
        <time>2015-05-24T14:10:46Z</time>
      </trkpt>
      <trkpt lat="45.36572" lon="5.90228">
        <ele>1909.896530264</ele>
        <time>2015-05-24T14:10:51Z</time>
      </trkpt>
      <trkpt lat="45.36572" lon="5.90228">
        <ele>1909.896530264</ele>
        <time>2015-05-24T14:10:56Z</time>
      </trkpt>
      <trkpt lat="45.36572" lon="5.90228">
        <ele>1909.896530264</ele>
        <time>2015-05-24T14:11:01Z</time>
      </trkpt>
      <trkpt lat="45.36572" lon="5.90228">
        <ele>1909.896530264</ele>
        <time>2015-05-24T14:11:06Z</time>
      </trkpt>
      <trkpt lat="45.36577" lon="5.90228">
        <ele>1909.896530264</ele>
        <time>2015-05-24T14:11:11Z</time>
      </trkpt>
      <trkpt lat="45.36579" lon="5.90227">
        <ele>1909.896530264</ele>
        <time>2015-05-24T14:11:16Z</time>
      </trkpt>
      <trkpt lat="45.36581" lon="5.90224">
        <ele>1908.672621221</ele>
        <time>2015-05-24T14:11:21Z</time>
      </trkpt>
      <trkpt lat="45.36583" lon="5.90222">
        <ele>1908.672621221</ele>
        <time>2015-05-24T14:11:27Z</time>
      </trkpt>
      <trkpt lat="45.36587" lon="5.90217">
        <ele>1908.672621221</ele>
        <time>2015-05-24T14:11:31Z</time>
      </trkpt>
      <trkpt lat="45.36589" lon="5.90216">
        <ele>1907.56250025</ele>
        <time>2015-05-24T14:11:36Z</time>
      </trkpt>
      <trkpt lat="45.36589" lon="5.90217">
        <ele>1907.56250025</ele>
        <time>2015-05-24T14:11:40Z</time>
      </trkpt>
      <trkpt lat="45.36589" lon="5.90217">
        <ele>1907.56250025</ele>
        <time>2015-05-24T14:11:45Z</time>
      </trkpt>
      <trkpt lat="45.36589" lon="5.90216">
        <ele>1907.56250025</ele>
        <time>2015-05-24T14:11:51Z</time>
      </trkpt>
      <trkpt lat="45.36595" lon="5.90214">
        <ele>1907.56250025</ele>
        <time>2015-05-24T14:11:55Z</time>
      </trkpt>
      <trkpt lat="45.36595" lon="5.90212">
        <ele>1905.552943111</ele>
        <time>2015-05-24T14:12:00Z</time>
      </trkpt>
      <trkpt lat="45.36597" lon="5.9021">
        <ele>1905.552943111</ele>
        <time>2015-05-24T14:12:06Z</time>
      </trkpt>
      <trkpt lat="45.36601" lon="5.90207">
        <ele>1905.552943111</ele>
        <time>2015-05-24T14:12:11Z</time>
      </trkpt>
      <trkpt lat="45.366" lon="5.90206">
        <ele>1905.552943111</ele>
        <time>2015-05-24T14:12:16Z</time>
      </trkpt>
      <trkpt lat="45.36601" lon="5.90206">
        <ele>1905.552943111</ele>
        <time>2015-05-24T14:12:21Z</time>
      </trkpt>
      <trkpt lat="45.36602" lon="5.90203">
        <ele>1903.725086952</ele>
        <time>2015-05-24T14:12:26Z</time>
      </trkpt>
      <trkpt lat="45.36605" lon="5.90202">
        <ele>1903.725086952</ele>
        <time>2015-05-24T14:12:31Z</time>
      </trkpt>
      <trkpt lat="45.36609" lon="5.90202">
        <ele>1903.725086952</ele>
        <time>2015-05-24T14:12:36Z</time>
      </trkpt>
      <trkpt lat="45.3661" lon="5.90202">
        <ele>1903.725086952</ele>
        <time>2015-05-24T14:12:41Z</time>
      </trkpt>
      <trkpt lat="45.36609" lon="5.90202">
        <ele>1903.725086952</ele>
        <time>2015-05-24T14:12:46Z</time>
      </trkpt>
      <trkpt lat="45.36609" lon="5.90203">
        <ele>1903.725086952</ele>
        <time>2015-05-24T14:12:51Z</time>
      </trkpt>
      <trkpt lat="45.36607" lon="5.90204">
        <ele>1901.92709699</ele>
        <time>2015-05-24T14:12:56Z</time>
      </trkpt>
      <trkpt lat="45.36609" lon="5.90206">
        <ele>1901.92709699</ele>
        <time>2015-05-24T14:13:01Z</time>
      </trkpt>
      <trkpt lat="45.36608" lon="5.90207">
        <ele>1901.92709699</ele>
        <time>2015-05-24T14:13:06Z</time>
      </trkpt>
      <trkpt lat="45.36609" lon="5.90207">
        <ele>1901.92709699</ele>
        <time>2015-05-24T14:13:11Z</time>
      </trkpt>
      <trkpt lat="45.36608" lon="5.90207">
        <ele>1901.92709699</ele>
        <time>2015-05-24T14:13:16Z</time>
      </trkpt>
      <trkpt lat="45.36608" lon="5.90207">
        <ele>1901.92709699</ele>
        <time>2015-05-24T14:13:21Z</time>
      </trkpt>
      <trkpt lat="45.36608" lon="5.90207">
        <ele>1901.92709699</ele>
        <time>2015-05-24T14:13:26Z</time>
      </trkpt>
      <trkpt lat="45.36608" lon="5.90207">
        <ele>1901.92709699</ele>
        <time>2015-05-24T14:13:31Z</time>
      </trkpt>
      <trkpt lat="45.36608" lon="5.90207">
        <ele>1901.92709699</ele>
        <time>2015-05-24T14:13:36Z</time>
      </trkpt>
      <trkpt lat="45.36608" lon="5.90207">
        <ele>1901.92709699</ele>
        <time>2015-05-24T14:13:41Z</time>
      </trkpt>
      <trkpt lat="45.36608" lon="5.90207">
        <ele>1901.92709699</ele>
        <time>2015-05-24T14:13:46Z</time>
      </trkpt>
      <trkpt lat="45.36608" lon="5.90207">
        <ele>1901.92709699</ele>
        <time>2015-05-24T14:13:51Z</time>
      </trkpt>
      <trkpt lat="45.36608" lon="5.90207">
        <ele>1901.92709699</ele>
        <time>2015-05-24T14:13:56Z</time>
      </trkpt>
      <trkpt lat="45.36608" lon="5.90207">
        <ele>1901.92709699</ele>
        <time>2015-05-24T14:14:01Z</time>
      </trkpt>
      <trkpt lat="45.36609" lon="5.90207">
        <ele>1901.92709699</ele>
        <time>2015-05-24T14:14:06Z</time>
      </trkpt>
      <trkpt lat="45.36609" lon="5.90208">
        <ele>1901.92709699</ele>
        <time>2015-05-24T14:14:11Z</time>
      </trkpt>
      <trkpt lat="45.3661" lon="5.90207">
        <ele>1901.92709699</ele>
        <time>2015-05-24T14:14:16Z</time>
      </trkpt>
      <trkpt lat="45.3661" lon="5.90208">
        <ele>1901.92709699</ele>
        <time>2015-05-24T14:14:21Z</time>
      </trkpt>
      <trkpt lat="45.36611" lon="5.90208">
        <ele>1901.92709699</ele>
        <time>2015-05-24T14:14:26Z</time>
      </trkpt>
      <trkpt lat="45.36611" lon="5.90207">
        <ele>1901.92709699</ele>
        <time>2015-05-24T14:14:31Z</time>
      </trkpt>
      <trkpt lat="45.36611" lon="5.90207">
        <ele>1901.92709699</ele>
        <time>2015-05-24T14:14:36Z</time>
      </trkpt>
      <trkpt lat="45.36611" lon="5.90207">
        <ele>1901.92709699</ele>
        <time>2015-05-24T14:14:41Z</time>
      </trkpt>
      <trkpt lat="45.36611" lon="5.90207">
        <ele>1899.729827518</ele>
        <time>2015-05-24T14:14:46Z</time>
      </trkpt>
      <trkpt lat="45.3661" lon="5.90208">
        <ele>1899.729827518</ele>
        <time>2015-05-24T14:14:51Z</time>
      </trkpt>
      <trkpt lat="45.3661" lon="5.90209">
        <ele>1899.729827518</ele>
        <time>2015-05-24T14:14:56Z</time>
      </trkpt>
      <trkpt lat="45.3661" lon="5.90209">
        <ele>1899.729827518</ele>
        <time>2015-05-24T14:15:01Z</time>
      </trkpt>
      <trkpt lat="45.3661" lon="5.90209">
        <ele>1899.729827518</ele>
        <time>2015-05-24T14:15:06Z</time>
      </trkpt>
      <trkpt lat="45.36611" lon="5.90208">
        <ele>1899.729827518</ele>
        <time>2015-05-24T14:15:10Z</time>
      </trkpt>
      <trkpt lat="45.3661" lon="5.90206">
        <ele>1899.729827518</ele>
        <time>2015-05-24T14:15:16Z</time>
      </trkpt>
      <trkpt lat="45.36613" lon="5.90202">
        <ele>1899.729827518</ele>
        <time>2015-05-24T14:15:20Z</time>
      </trkpt>
      <trkpt lat="45.36612" lon="5.90203">
        <ele>1899.729827518</ele>
        <time>2015-05-24T14:15:26Z</time>
      </trkpt>
      <trkpt lat="45.36612" lon="5.90203">
        <ele>1897.889503389</ele>
        <time>2015-05-24T14:15:30Z</time>
      </trkpt>
      <trkpt lat="45.36613" lon="5.90204">
        <ele>1897.889503389</ele>
        <time>2015-05-24T14:15:37Z</time>
      </trkpt>
      <trkpt lat="45.36613" lon="5.90203">
        <ele>1897.889503389</ele>
        <time>2015-05-24T14:15:41Z</time>
      </trkpt>
      <trkpt lat="45.36613" lon="5.90202">
        <ele>1897.889503389</ele>
        <time>2015-05-24T14:15:46Z</time>
      </trkpt>
      <trkpt lat="45.36613" lon="5.90202">
        <ele>1897.889503389</ele>
        <time>2015-05-24T14:15:51Z</time>
      </trkpt>
      <trkpt lat="45.36613" lon="5.90202">
        <ele>1897.889503389</ele>
        <time>2015-05-24T14:15:56Z</time>
      </trkpt>
      <trkpt lat="45.36613" lon="5.90202">
        <ele>1897.889503389</ele>
        <time>2015-05-24T14:16:01Z</time>
      </trkpt>
      <trkpt lat="45.36613" lon="5.90202">
        <ele>1897.889503389</ele>
        <time>2015-05-24T14:16:06Z</time>
      </trkpt>
      <trkpt lat="45.36614" lon="5.90202">
        <ele>1897.889503389</ele>
        <time>2015-05-24T14:16:11Z</time>
      </trkpt>
      <trkpt lat="45.36616" lon="5.90199">
        <ele>1897.889503389</ele>
        <time>2015-05-24T14:16:16Z</time>
      </trkpt>
      <trkpt lat="45.36623" lon="5.90198">
        <ele>1895.808627406</ele>
        <time>2015-05-24T14:16:21Z</time>
      </trkpt>
      <trkpt lat="45.36626" lon="5.90198">
        <ele>1895.808627406</ele>
        <time>2015-05-24T14:16:26Z</time>
      </trkpt>
      <trkpt lat="45.36627" lon="5.90199">
        <ele>1895.808627406</ele>
        <time>2015-05-24T14:16:31Z</time>
      </trkpt>
      <trkpt lat="45.36627" lon="5.90199">
        <ele>1895.808627406</ele>
        <time>2015-05-24T14:16:36Z</time>
      </trkpt>
      <trkpt lat="45.36627" lon="5.90199">
        <ele>1895.808627406</ele>
        <time>2015-05-24T14:16:41Z</time>
      </trkpt>
      <trkpt lat="45.36627" lon="5.902">
        <ele>1895.808627406</ele>
        <time>2015-05-24T14:16:46Z</time>
      </trkpt>
      <trkpt lat="45.36626" lon="5.90201">
        <ele>1895.808627406</ele>
        <time>2015-05-24T14:16:51Z</time>
      </trkpt>
      <trkpt lat="45.36626" lon="5.90201">
        <ele>1895.808627406</ele>
        <time>2015-05-24T14:16:56Z</time>
      </trkpt>
      <trkpt lat="45.36626" lon="5.90201">
        <ele>1895.808627406</ele>
        <time>2015-05-24T14:17:01Z</time>
      </trkpt>
      <trkpt lat="45.36627" lon="5.902">
        <ele>1895.808627406</ele>
        <time>2015-05-24T14:17:06Z</time>
      </trkpt>
      <trkpt lat="45.36627" lon="5.902">
        <ele>1895.808627406</ele>
        <time>2015-05-24T14:17:11Z</time>
      </trkpt>
      <trkpt lat="45.36627" lon="5.902">
        <ele>1895.808627406</ele>
        <time>2015-05-24T14:17:16Z</time>
      </trkpt>
      <trkpt lat="45.36627" lon="5.902">
        <ele>1895.808627406</ele>
        <time>2015-05-24T14:17:21Z</time>
      </trkpt>
      <trkpt lat="45.36627" lon="5.902">
        <ele>1895.808627406</ele>
        <time>2015-05-24T14:17:26Z</time>
      </trkpt>
      <trkpt lat="45.36627" lon="5.902">
        <ele>1895.808627406</ele>
        <time>2015-05-24T14:17:31Z</time>
      </trkpt>
      <trkpt lat="45.36627" lon="5.90198">
        <ele>1895.808627406</ele>
        <time>2015-05-24T14:17:36Z</time>
      </trkpt>
      <trkpt lat="45.36625" lon="5.90195">
        <ele>1893.510540694</ele>
        <time>2015-05-24T14:17:41Z</time>
      </trkpt>
      <trkpt lat="45.36628" lon="5.90195">
        <ele>1893.510540694</ele>
        <time>2015-05-24T14:17:46Z</time>
      </trkpt>
      <trkpt lat="45.36632" lon="5.9019">
        <ele>1893.510540694</ele>
        <time>2015-05-24T14:17:51Z</time>
      </trkpt>
      <trkpt lat="45.36638" lon="5.90188">
        <ele>1890.873190065</ele>
        <time>2015-05-24T14:17:56Z</time>
      </trkpt>
      <trkpt lat="45.3664" lon="5.90187">
        <ele>1890.873190065</ele>
        <time>2015-05-24T14:18:01Z</time>
      </trkpt>
      <trkpt lat="45.36643" lon="5.90184">
        <ele>1890.873190065</ele>
        <time>2015-05-24T14:18:06Z</time>
      </trkpt>
      <trkpt lat="45.36647" lon="5.90183">
        <ele>1888.360702148</ele>
        <time>2015-05-24T14:18:11Z</time>
      </trkpt>
      <trkpt lat="45.36648" lon="5.90185">
        <ele>1888.360702148</ele>
        <time>2015-05-24T14:18:16Z</time>
      </trkpt>
      <trkpt lat="45.36652" lon="5.90184">
        <ele>1888.360702148</ele>
        <time>2015-05-24T14:18:21Z</time>
      </trkpt>
      <trkpt lat="45.36658" lon="5.9018">
        <ele>1885.393792273</ele>
        <time>2015-05-24T14:18:26Z</time>
      </trkpt>
      <trkpt lat="45.3666" lon="5.90179">
        <ele>1885.393792273</ele>
        <time>2015-05-24T14:18:30Z</time>
      </trkpt>
      <trkpt lat="45.36662" lon="5.90179">
        <ele>1885.393792273</ele>
        <time>2015-05-24T14:18:35Z</time>
      </trkpt>
      <trkpt lat="45.36665" lon="5.90177">
        <ele>1885.393792273</ele>
        <time>2015-05-24T14:18:41Z</time>
      </trkpt>
      <trkpt lat="45.36665" lon="5.90176">
        <ele>1885.393792273</ele>
        <time>2015-05-24T14:18:46Z</time>
      </trkpt>
      <trkpt lat="45.36665" lon="5.90176">
        <ele>1885.393792273</ele>
        <time>2015-05-24T14:18:51Z</time>
      </trkpt>
      <trkpt lat="45.36666" lon="5.90175">
        <ele>1882.445588127</ele>
        <time>2015-05-24T14:18:56Z</time>
      </trkpt>
      <trkpt lat="45.36666" lon="5.90175">
        <ele>1882.445588127</ele>
        <time>2015-05-24T14:19:01Z</time>
      </trkpt>
      <trkpt lat="45.36666" lon="5.90175">
        <ele>1882.445588127</ele>
        <time>2015-05-24T14:19:06Z</time>
      </trkpt>
      <trkpt lat="45.36666" lon="5.90175">
        <ele>1882.445588127</ele>
        <time>2015-05-24T14:19:11Z</time>
      </trkpt>
      <trkpt lat="45.36666" lon="5.90175">
        <ele>1882.445588127</ele>
        <time>2015-05-24T14:19:16Z</time>
      </trkpt>
      <trkpt lat="45.36668" lon="5.90175">
        <ele>1882.445588127</ele>
        <time>2015-05-24T14:19:21Z</time>
      </trkpt>
      <trkpt lat="45.36672" lon="5.90174">
        <ele>1882.445588127</ele>
        <time>2015-05-24T14:19:26Z</time>
      </trkpt>
      <trkpt lat="45.36678" lon="5.90172">
        <ele>1879.37776367</ele>
        <time>2015-05-24T14:19:31Z</time>
      </trkpt>
      <trkpt lat="45.36682" lon="5.9017">
        <ele>1879.37776367</ele>
        <time>2015-05-24T14:19:36Z</time>
      </trkpt>
      <trkpt lat="45.36684" lon="5.90169">
        <ele>1879.37776367</ele>
        <time>2015-05-24T14:19:41Z</time>
      </trkpt>
      <trkpt lat="45.36684" lon="5.90169">
        <ele>1879.37776367</ele>
        <time>2015-05-24T14:19:46Z</time>
      </trkpt>
      <trkpt lat="45.36687" lon="5.90168">
        <ele>1879.37776367</ele>
        <time>2015-05-24T14:19:51Z</time>
      </trkpt>
      <trkpt lat="45.36687" lon="5.90167">
        <ele>1875.197613783</ele>
        <time>2015-05-24T14:19:56Z</time>
      </trkpt>
      <trkpt lat="45.36687" lon="5.90167">
        <ele>1875.197613783</ele>
        <time>2015-05-24T14:20:01Z</time>
      </trkpt>
      <trkpt lat="45.36689" lon="5.90169">
        <ele>1875.197613783</ele>
        <time>2015-05-24T14:20:06Z</time>
      </trkpt>
      <trkpt lat="45.36689" lon="5.90168">
        <ele>1875.197613783</ele>
        <time>2015-05-24T14:20:11Z</time>
      </trkpt>
      <trkpt lat="45.3669" lon="5.90168">
        <ele>1875.197613783</ele>
        <time>2015-05-24T14:20:16Z</time>
      </trkpt>
      <trkpt lat="45.36696" lon="5.90168">
        <ele>1871.438149683</ele>
        <time>2015-05-24T14:20:21Z</time>
      </trkpt>
      <trkpt lat="45.367" lon="5.90171">
        <ele>1871.438149683</ele>
        <time>2015-05-24T14:20:26Z</time>
      </trkpt>
      <trkpt lat="45.36702" lon="5.90178">
        <ele>1868.07725087</ele>
        <time>2015-05-24T14:20:31Z</time>
      </trkpt>
      <trkpt lat="45.36703" lon="5.90175">
        <ele>1868.07725087</ele>
        <time>2015-05-24T14:20:36Z</time>
      </trkpt>
      <trkpt lat="45.36703" lon="5.90181">
        <ele>1868.07725087</ele>
        <time>2015-05-24T14:20:41Z</time>
      </trkpt>
      <trkpt lat="45.36702" lon="5.90182">
        <ele>1868.07725087</ele>
        <time>2015-05-24T14:20:46Z</time>
      </trkpt>
      <trkpt lat="45.36702" lon="5.90183">
        <ele>1868.07725087</ele>
        <time>2015-05-24T14:20:51Z</time>
      </trkpt>
      <trkpt lat="45.36702" lon="5.90182">
        <ele>1868.07725087</ele>
        <time>2015-05-24T14:20:56Z</time>
      </trkpt>
      <trkpt lat="45.36702" lon="5.90182">
        <ele>1868.07725087</ele>
        <time>2015-05-24T14:21:01Z</time>
      </trkpt>
      <trkpt lat="45.36704" lon="5.90187">
        <ele>1865.669516197</ele>
        <time>2015-05-24T14:21:06Z</time>
      </trkpt>
      <trkpt lat="45.36707" lon="5.90193">
        <ele>1865.669516197</ele>
        <time>2015-05-24T14:21:11Z</time>
      </trkpt>
      <trkpt lat="45.36708" lon="5.90201">
        <ele>1864.293562464</ele>
        <time>2015-05-24T14:21:16Z</time>
      </trkpt>
      <trkpt lat="45.36708" lon="5.90204">
        <ele>1864.293562464</ele>
        <time>2015-05-24T14:21:21Z</time>
      </trkpt>
      <trkpt lat="45.36709" lon="5.90204">
        <ele>1864.293562464</ele>
        <time>2015-05-24T14:21:26Z</time>
      </trkpt>
      <trkpt lat="45.36709" lon="5.90205">
        <ele>1864.293562464</ele>
        <time>2015-05-24T14:21:31Z</time>
      </trkpt>
      <trkpt lat="45.3671" lon="5.90205">
        <ele>1864.293562464</ele>
        <time>2015-05-24T14:21:36Z</time>
      </trkpt>
      <trkpt lat="45.36709" lon="5.90204">
        <ele>1864.293562464</ele>
        <time>2015-05-24T14:21:40Z</time>
      </trkpt>
      <trkpt lat="45.36708" lon="5.90204">
        <ele>1864.293562464</ele>
        <time>2015-05-24T14:21:46Z</time>
      </trkpt>
      <trkpt lat="45.36708" lon="5.90205">
        <ele>1864.293562464</ele>
        <time>2015-05-24T14:21:50Z</time>
      </trkpt>
      <trkpt lat="45.36708" lon="5.90205">
        <ele>1864.293562464</ele>
        <time>2015-05-24T14:21:56Z</time>
      </trkpt>
      <trkpt lat="45.36708" lon="5.90205">
        <ele>1864.293562464</ele>
        <time>2015-05-24T14:22:00Z</time>
      </trkpt>
      <trkpt lat="45.36708" lon="5.90205">
        <ele>1864.293562464</ele>
        <time>2015-05-24T14:22:07Z</time>
      </trkpt>
      <trkpt lat="45.36708" lon="5.90204">
        <ele>1864.293562464</ele>
        <time>2015-05-24T14:22:11Z</time>
      </trkpt>
      <trkpt lat="45.36708" lon="5.90206">
        <ele>1864.293562464</ele>
        <time>2015-05-24T14:22:15Z</time>
      </trkpt>
      <trkpt lat="45.36707" lon="5.90206">
        <ele>1864.293562464</ele>
        <time>2015-05-24T14:22:21Z</time>
      </trkpt>
      <trkpt lat="45.36707" lon="5.90206">
        <ele>1863.298551168</ele>
        <time>2015-05-24T14:22:26Z</time>
      </trkpt>
      <trkpt lat="45.36707" lon="5.90206">
        <ele>1863.298551168</ele>
        <time>2015-05-24T14:22:31Z</time>
      </trkpt>
      <trkpt lat="45.36707" lon="5.90206">
        <ele>1863.298551168</ele>
        <time>2015-05-24T14:22:36Z</time>
      </trkpt>
      <trkpt lat="45.36708" lon="5.90206">
        <ele>1863.298551168</ele>
        <time>2015-05-24T14:22:41Z</time>
      </trkpt>
      <trkpt lat="45.36708" lon="5.90206">
        <ele>1863.298551168</ele>
        <time>2015-05-24T14:22:46Z</time>
      </trkpt>
      <trkpt lat="45.36708" lon="5.90206">
        <ele>1863.298551168</ele>
        <time>2015-05-24T14:22:51Z</time>
      </trkpt>
      <trkpt lat="45.36707" lon="5.90206">
        <ele>1863.298551168</ele>
        <time>2015-05-24T14:22:56Z</time>
      </trkpt>
      <trkpt lat="45.36705" lon="5.90206">
        <ele>1863.298551168</ele>
        <time>2015-05-24T14:23:01Z</time>
      </trkpt>
      <trkpt lat="45.36703" lon="5.90204">
        <ele>1863.298551168</ele>
        <time>2015-05-24T14:23:06Z</time>
      </trkpt>
      <trkpt lat="45.36704" lon="5.90204">
        <ele>1863.298551168</ele>
        <time>2015-05-24T14:23:11Z</time>
      </trkpt>
      <trkpt lat="45.36705" lon="5.90205">
        <ele>1863.298551168</ele>
        <time>2015-05-24T14:23:16Z</time>
      </trkpt>
      <trkpt lat="45.36705" lon="5.90205">
        <ele>1863.298551168</ele>
        <time>2015-05-24T14:23:21Z</time>
      </trkpt>
      <trkpt lat="45.36705" lon="5.90204">
        <ele>1863.298551168</ele>
        <time>2015-05-24T14:23:26Z</time>
      </trkpt>
      <trkpt lat="45.36705" lon="5.90205">
        <ele>1863.298551168</ele>
        <time>2015-05-24T14:23:31Z</time>
      </trkpt>
      <trkpt lat="45.36704" lon="5.90205">
        <ele>1862.656610479</ele>
        <time>2015-05-24T14:23:35Z</time>
      </trkpt>
      <trkpt lat="45.36704" lon="5.90205">
        <ele>1862.656610479</ele>
        <time>2015-05-24T14:23:40Z</time>
      </trkpt>
      <trkpt lat="45.36706" lon="5.90206">
        <ele>1862.656610479</ele>
        <time>2015-05-24T14:23:45Z</time>
      </trkpt>
      <trkpt lat="45.36706" lon="5.90203">
        <ele>1862.656610479</ele>
        <time>2015-05-24T14:23:52Z</time>
      </trkpt>
      <trkpt lat="45.36709" lon="5.90203">
        <ele>1862.656610479</ele>
        <time>2015-05-24T14:23:56Z</time>
      </trkpt>
      <trkpt lat="45.36707" lon="5.90203">
        <ele>1862.656610479</ele>
        <time>2015-05-24T14:24:01Z</time>
      </trkpt>
      <trkpt lat="45.36705" lon="5.90203">
        <ele>1862.628944212</ele>
        <time>2015-05-24T14:24:06Z</time>
      </trkpt>
      <trkpt lat="45.36706" lon="5.90203">
        <ele>1862.628944212</ele>
        <time>2015-05-24T14:24:11Z</time>
      </trkpt>
      <trkpt lat="45.36706" lon="5.90203">
        <ele>1862.628944212</ele>
        <time>2015-05-24T14:24:16Z</time>
      </trkpt>
      <trkpt lat="45.36706" lon="5.90203">
        <ele>1862.628944212</ele>
        <time>2015-05-24T14:24:21Z</time>
      </trkpt>
      <trkpt lat="45.36706" lon="5.90203">
        <ele>1862.628944212</ele>
        <time>2015-05-24T14:24:26Z</time>
      </trkpt>
      <trkpt lat="45.36706" lon="5.90203">
        <ele>1862.628944212</ele>
        <time>2015-05-24T14:24:31Z</time>
      </trkpt>
      <trkpt lat="45.36706" lon="5.90203">
        <ele>1862.628944212</ele>
        <time>2015-05-24T14:24:36Z</time>
      </trkpt>
      <trkpt lat="45.36705" lon="5.90202">
        <ele>1862.628944212</ele>
        <time>2015-05-24T14:24:41Z</time>
      </trkpt>
      <trkpt lat="45.36704" lon="5.90202">
        <ele>1862.628944212</ele>
        <time>2015-05-24T14:24:46Z</time>
      </trkpt>
      <trkpt lat="45.36704" lon="5.90201">
        <ele>1862.628944212</ele>
        <time>2015-05-24T14:24:51Z</time>
      </trkpt>
      <trkpt lat="45.36704" lon="5.90202">
        <ele>1862.628944212</ele>
        <time>2015-05-24T14:24:56Z</time>
      </trkpt>
      <trkpt lat="45.36704" lon="5.90201">
        <ele>1862.628944212</ele>
        <time>2015-05-24T14:25:01Z</time>
      </trkpt>
      <trkpt lat="45.36704" lon="5.90201">
        <ele>1862.628944212</ele>
        <time>2015-05-24T14:25:06Z</time>
      </trkpt>
      <trkpt lat="45.36704" lon="5.902">
        <ele>1862.628944212</ele>
        <time>2015-05-24T14:25:11Z</time>
      </trkpt>
      <trkpt lat="45.36704" lon="5.902">
        <ele>1862.628944212</ele>
        <time>2015-05-24T14:25:16Z</time>
      </trkpt>
      <trkpt lat="45.36704" lon="5.902">
        <ele>1862.628944212</ele>
        <time>2015-05-24T14:25:20Z</time>
      </trkpt>
      <trkpt lat="45.36704" lon="5.902">
        <ele>1862.628944212</ele>
        <time>2015-05-24T14:25:25Z</time>
      </trkpt>
      <trkpt lat="45.36705" lon="5.90193">
        <ele>1862.302770558</ele>
        <time>2015-05-24T14:25:31Z</time>
      </trkpt>
      <trkpt lat="45.36702" lon="5.90189">
        <ele>1862.302770558</ele>
        <time>2015-05-24T14:25:36Z</time>
      </trkpt>
      <trkpt lat="45.36696" lon="5.90178">
        <ele>1862.130032808</ele>
        <time>2015-05-24T14:25:41Z</time>
      </trkpt>
      <trkpt lat="45.36692" lon="5.90176">
        <ele>1862.130032808</ele>
        <time>2015-05-24T14:25:46Z</time>
      </trkpt>
      <trkpt lat="45.36682" lon="5.90168">
        <ele>1862.096566119</ele>
        <time>2015-05-24T14:25:51Z</time>
      </trkpt>
      <trkpt lat="45.36684" lon="5.90161">
        <ele>1862.096566119</ele>
        <time>2015-05-24T14:25:56Z</time>
      </trkpt>
      <trkpt lat="45.36677" lon="5.90151">
        <ele>1861.468174017</ele>
        <time>2015-05-24T14:26:01Z</time>
      </trkpt>
      <trkpt lat="45.36679" lon="5.90146">
        <ele>1861.468174017</ele>
        <time>2015-05-24T14:26:06Z</time>
      </trkpt>
      <trkpt lat="45.36674" lon="5.90145">
        <ele>1860.574932067</ele>
        <time>2015-05-24T14:26:11Z</time>
      </trkpt>
      <trkpt lat="45.3667" lon="5.90144">
        <ele>1860.574932067</ele>
        <time>2015-05-24T14:26:16Z</time>
      </trkpt>
      <trkpt lat="45.36668" lon="5.90143">
        <ele>1860.574932067</ele>
        <time>2015-05-24T14:26:21Z</time>
      </trkpt>
      <trkpt lat="45.36665" lon="5.9015">
        <ele>1859.867429317</ele>
        <time>2015-05-24T14:26:26Z</time>
      </trkpt>
      <trkpt lat="45.36654" lon="5.90148">
        <ele>1858.753774404</ele>
        <time>2015-05-24T14:26:31Z</time>
      </trkpt>
      <trkpt lat="45.36649" lon="5.90143">
        <ele>1858.753774404</ele>
        <time>2015-05-24T14:26:36Z</time>
      </trkpt>
      <trkpt lat="45.36648" lon="5.90142">
        <ele>1858.753774404</ele>
        <time>2015-05-24T14:26:41Z</time>
      </trkpt>
      <trkpt lat="45.36643" lon="5.90142">
        <ele>1857.695402539</ele>
        <time>2015-05-24T14:26:46Z</time>
      </trkpt>
      <trkpt lat="45.36636" lon="5.90138">
        <ele>1857.695402539</ele>
        <time>2015-05-24T14:26:51Z</time>
      </trkpt>
      <trkpt lat="45.36633" lon="5.90135">
        <ele>1856.831413046</ele>
        <time>2015-05-24T14:26:56Z</time>
      </trkpt>
      <trkpt lat="45.36627" lon="5.90132">
        <ele>1856.831413046</ele>
        <time>2015-05-24T14:27:01Z</time>
      </trkpt>
      <trkpt lat="45.36621" lon="5.90133">
        <ele>1856.722423449</ele>
        <time>2015-05-24T14:27:06Z</time>
      </trkpt>
      <trkpt lat="45.36617" lon="5.90131">
        <ele>1856.722423449</ele>
        <time>2015-05-24T14:27:11Z</time>
      </trkpt>
      <trkpt lat="45.36612" lon="5.90127">
        <ele>1856.012262814</ele>
        <time>2015-05-24T14:27:16Z</time>
      </trkpt>
      <trkpt lat="45.36608" lon="5.90123">
        <ele>1856.012262814</ele>
        <time>2015-05-24T14:27:21Z</time>
      </trkpt>
      <trkpt lat="45.366" lon="5.90122">
        <ele>1855.319482561</ele>
        <time>2015-05-24T14:27:26Z</time>
      </trkpt>
      <trkpt lat="45.36596" lon="5.9012">
        <ele>1855.319482561</ele>
        <time>2015-05-24T14:27:31Z</time>
      </trkpt>
      <trkpt lat="45.36593" lon="5.90116">
        <ele>1855.319482561</ele>
        <time>2015-05-24T14:27:36Z</time>
      </trkpt>
      <trkpt lat="45.3659" lon="5.90111">
        <ele>1855.0730135</ele>
        <time>2015-05-24T14:27:41Z</time>
      </trkpt>
      <trkpt lat="45.36584" lon="5.90108">
        <ele>1855.0730135</ele>
        <time>2015-05-24T14:27:46Z</time>
      </trkpt>
      <trkpt lat="45.36579" lon="5.90108">
        <ele>1854.660234955</ele>
        <time>2015-05-24T14:27:51Z</time>
      </trkpt>
      <trkpt lat="45.36575" lon="5.90107">
        <ele>1854.660234955</ele>
        <time>2015-05-24T14:27:56Z</time>
      </trkpt>
      <trkpt lat="45.36575" lon="5.90099">
        <ele>1854.955105324</ele>
        <time>2015-05-24T14:28:01Z</time>
      </trkpt>
      <trkpt lat="45.36575" lon="5.90103">
        <ele>1854.955105324</ele>
        <time>2015-05-24T14:28:06Z</time>
      </trkpt>
      <trkpt lat="45.36575" lon="5.90103">
        <ele>1854.955105324</ele>
        <time>2015-05-24T14:28:11Z</time>
      </trkpt>
      <trkpt lat="45.36575" lon="5.90102">
        <ele>1854.955105324</ele>
        <time>2015-05-24T14:28:16Z</time>
      </trkpt>
      <trkpt lat="45.36575" lon="5.90102">
        <ele>1854.955105324</ele>
        <time>2015-05-24T14:28:21Z</time>
      </trkpt>
      <trkpt lat="45.36574" lon="5.90103">
        <ele>1854.955105324</ele>
        <time>2015-05-24T14:28:26Z</time>
      </trkpt>
      <trkpt lat="45.36574" lon="5.90103">
        <ele>1854.955105324</ele>
        <time>2015-05-24T14:28:30Z</time>
      </trkpt>
      <trkpt lat="45.36573" lon="5.90104">
        <ele>1854.955105324</ele>
        <time>2015-05-24T14:28:36Z</time>
      </trkpt>
      <trkpt lat="45.36573" lon="5.90104">
        <ele>1854.955105324</ele>
        <time>2015-05-24T14:28:40Z</time>
      </trkpt>
      <trkpt lat="45.36566" lon="5.90101">
        <ele>1856.18896358</ele>
        <time>2015-05-24T14:28:46Z</time>
      </trkpt>
      <trkpt lat="45.36562" lon="5.901">
        <ele>1856.18896358</ele>
        <time>2015-05-24T14:28:50Z</time>
      </trkpt>
      <trkpt lat="45.36552" lon="5.90099">
        <ele>1857.276545394</ele>
        <time>2015-05-24T14:28:56Z</time>
      </trkpt>
      <trkpt lat="45.36547" lon="5.90098">
        <ele>1857.276545394</ele>
        <time>2015-05-24T14:29:00Z</time>
      </trkpt>
      <trkpt lat="45.3654" lon="5.90097">
        <ele>1858.509762012</ele>
        <time>2015-05-24T14:29:06Z</time>
      </trkpt>
      <trkpt lat="45.36535" lon="5.90095">
        <ele>1858.509762012</ele>
        <time>2015-05-24T14:29:11Z</time>
      </trkpt>
      <trkpt lat="45.36529" lon="5.90094">
        <ele>1859.726398644</ele>
        <time>2015-05-24T14:29:16Z</time>
      </trkpt>
      <trkpt lat="45.36523" lon="5.90096">
        <ele>1859.726398644</ele>
        <time>2015-05-24T14:29:21Z</time>
      </trkpt>
      <trkpt lat="45.36518" lon="5.90095">
        <ele>1860.343945841</ele>
        <time>2015-05-24T14:29:26Z</time>
      </trkpt>
      <trkpt lat="45.36514" lon="5.90094">
        <ele>1860.343945841</ele>
        <time>2015-05-24T14:29:31Z</time>
      </trkpt>
      <trkpt lat="45.36508" lon="5.9009">
        <ele>1860.833233888</ele>
        <time>2015-05-24T14:29:36Z</time>
      </trkpt>
      <trkpt lat="45.36502" lon="5.90089">
        <ele>1860.833233888</ele>
        <time>2015-05-24T14:29:41Z</time>
      </trkpt>
      <trkpt lat="45.36499" lon="5.90093">
        <ele>1861.198633834</ele>
        <time>2015-05-24T14:29:46Z</time>
      </trkpt>
      <trkpt lat="45.36492" lon="5.90098">
        <ele>1861.198633834</ele>
        <time>2015-05-24T14:29:51Z</time>
      </trkpt>
      <trkpt lat="45.36486" lon="5.90099">
        <ele>1860.86820709</ele>
        <time>2015-05-24T14:29:56Z</time>
      </trkpt>
      <trkpt lat="45.36477" lon="5.90091">
        <ele>1861.187540283</ele>
        <time>2015-05-24T14:30:01Z</time>
      </trkpt>
      <trkpt lat="45.36472" lon="5.90087">
        <ele>1861.187540283</ele>
        <time>2015-05-24T14:30:06Z</time>
      </trkpt>
      <trkpt lat="45.36468" lon="5.90085">
        <ele>1861.816446234</ele>
        <time>2015-05-24T14:30:11Z</time>
      </trkpt>
      <trkpt lat="45.36461" lon="5.90081">
        <ele>1861.816446234</ele>
        <time>2015-05-24T14:30:16Z</time>
      </trkpt>
      <trkpt lat="45.36457" lon="5.90078">
        <ele>1862.43898061</ele>
        <time>2015-05-24T14:30:22Z</time>
      </trkpt>
      <trkpt lat="45.36451" lon="5.90079">
        <ele>1862.43898061</ele>
        <time>2015-05-24T14:30:26Z</time>
      </trkpt>
      <trkpt lat="45.36444" lon="5.90074">
        <ele>1863.194884987</ele>
        <time>2015-05-24T14:30:31Z</time>
      </trkpt>
      <trkpt lat="45.36441" lon="5.90073">
        <ele>1863.194884987</ele>
        <time>2015-05-24T14:30:36Z</time>
      </trkpt>
      <trkpt lat="45.36439" lon="5.90072">
        <ele>1863.194884987</ele>
        <time>2015-05-24T14:30:41Z</time>
      </trkpt>
      <trkpt lat="45.36437" lon="5.90072">
        <ele>1863.194884987</ele>
        <time>2015-05-24T14:30:46Z</time>
      </trkpt>
      <trkpt lat="45.36437" lon="5.90071">
        <ele>1863.194884987</ele>
        <time>2015-05-24T14:30:51Z</time>
      </trkpt>
      <trkpt lat="45.36437" lon="5.90072">
        <ele>1863.194884987</ele>
        <time>2015-05-24T14:30:56Z</time>
      </trkpt>
      <trkpt lat="45.36432" lon="5.90073">
        <ele>1863.781058202</ele>
        <time>2015-05-24T14:31:01Z</time>
      </trkpt>
      <trkpt lat="45.36432" lon="5.90081">
        <ele>1863.781058202</ele>
        <time>2015-05-24T14:31:06Z</time>
      </trkpt>
      <trkpt lat="45.36424" lon="5.90079">
        <ele>1864.349609071</ele>
        <time>2015-05-24T14:31:11Z</time>
      </trkpt>
      <trkpt lat="45.36416" lon="5.90081">
        <ele>1864.349609071</ele>
        <time>2015-05-24T14:31:16Z</time>
      </trkpt>
      <trkpt lat="45.36411" lon="5.90075">
        <ele>1865.185771936</ele>
        <time>2015-05-24T14:31:21Z</time>
      </trkpt>
      <trkpt lat="45.36405" lon="5.90075">
        <ele>1865.185771936</ele>
        <time>2015-05-24T14:31:26Z</time>
      </trkpt>
      <trkpt lat="45.364" lon="5.90078">
        <ele>1866.12088618</ele>
        <time>2015-05-24T14:31:31Z</time>
      </trkpt>
      <trkpt lat="45.36396" lon="5.9008">
        <ele>1866.12088618</ele>
        <time>2015-05-24T14:31:36Z</time>
      </trkpt>
      <trkpt lat="45.36391" lon="5.90079">
        <ele>1867.286771832</ele>
        <time>2015-05-24T14:31:41Z</time>
      </trkpt>
      <trkpt lat="45.36387" lon="5.90075">
        <ele>1867.286771832</ele>
        <time>2015-05-24T14:31:46Z</time>
      </trkpt>
      <trkpt lat="45.36382" lon="5.90075">
        <ele>1868.949180404</ele>
        <time>2015-05-24T14:31:50Z</time>
      </trkpt>
      <trkpt lat="45.36376" lon="5.9007">
        <ele>1868.949180404</ele>
        <time>2015-05-24T14:31:56Z</time>
      </trkpt>
      <trkpt lat="45.36371" lon="5.90068">
        <ele>1871.064883938</ele>
        <time>2015-05-24T14:32:00Z</time>
      </trkpt>
      <trkpt lat="45.36367" lon="5.90061">
        <ele>1871.064883938</ele>
        <time>2015-05-24T14:32:05Z</time>
      </trkpt>
      <trkpt lat="45.36362" lon="5.90059">
        <ele>1872.583944686</ele>
        <time>2015-05-24T14:32:11Z</time>
      </trkpt>
      <trkpt lat="45.36356" lon="5.90059">
        <ele>1872.583944686</ele>
        <time>2015-05-24T14:32:16Z</time>
      </trkpt>
      <trkpt lat="45.36353" lon="5.9006">
        <ele>1874.264732459</ele>
        <time>2015-05-24T14:32:21Z</time>
      </trkpt>
      <trkpt lat="45.36349" lon="5.90064">
        <ele>1874.264732459</ele>
        <time>2015-05-24T14:32:26Z</time>
      </trkpt>
      <trkpt lat="45.36348" lon="5.90063">
        <ele>1874.264732459</ele>
        <time>2015-05-24T14:32:30Z</time>
      </trkpt>
      <trkpt lat="45.36347" lon="5.90062">
        <ele>1874.264732459</ele>
        <time>2015-05-24T14:32:35Z</time>
      </trkpt>
      <trkpt lat="45.36347" lon="5.9006">
        <ele>1874.264732459</ele>
        <time>2015-05-24T14:32:42Z</time>
      </trkpt>
      <trkpt lat="45.36341" lon="5.90064">
        <ele>1875.51263169</ele>
        <time>2015-05-24T14:32:46Z</time>
      </trkpt>
      <trkpt lat="45.36339" lon="5.90063">
        <ele>1875.51263169</ele>
        <time>2015-05-24T14:32:51Z</time>
      </trkpt>
      <trkpt lat="45.36335" lon="5.90063">
        <ele>1875.51263169</ele>
        <time>2015-05-24T14:32:56Z</time>
      </trkpt>
      <trkpt lat="45.36328" lon="5.90062">
        <ele>1877.219216355</ele>
        <time>2015-05-24T14:33:01Z</time>
      </trkpt>
      <trkpt lat="45.36325" lon="5.90063">
        <ele>1877.219216355</ele>
        <time>2015-05-24T14:33:06Z</time>
      </trkpt>
      <trkpt lat="45.36317" lon="5.90054">
        <ele>1879.056576936</ele>
        <time>2015-05-24T14:33:11Z</time>
      </trkpt>
      <trkpt lat="45.36312" lon="5.90052">
        <ele>1879.056576936</ele>
        <time>2015-05-24T14:33:16Z</time>
      </trkpt>
      <trkpt lat="45.36306" lon="5.90053">
        <ele>1880.432492362</ele>
        <time>2015-05-24T14:33:21Z</time>
      </trkpt>
      <trkpt lat="45.36301" lon="5.9005">
        <ele>1880.432492362</ele>
        <time>2015-05-24T14:33:26Z</time>
      </trkpt>
      <trkpt lat="45.36296" lon="5.90042">
        <ele>1881.664398343</ele>
        <time>2015-05-24T14:33:31Z</time>
      </trkpt>
      <trkpt lat="45.3629" lon="5.90038">
        <ele>1881.664398343</ele>
        <time>2015-05-24T14:33:36Z</time>
      </trkpt>
      <trkpt lat="45.36284" lon="5.90034">
        <ele>1882.758784979</ele>
        <time>2015-05-24T14:33:41Z</time>
      </trkpt>
      <trkpt lat="45.36277" lon="5.90035">
        <ele>1882.758784979</ele>
        <time>2015-05-24T14:33:46Z</time>
      </trkpt>
      <trkpt lat="45.36273" lon="5.90029">
        <ele>1883.866352425</ele>
        <time>2015-05-24T14:33:51Z</time>
      </trkpt>
      <trkpt lat="45.36269" lon="5.90021">
        <ele>1883.866352425</ele>
        <time>2015-05-24T14:33:56Z</time>
      </trkpt>
      <trkpt lat="45.36265" lon="5.90015">
        <ele>1884.406323406</ele>
        <time>2015-05-24T14:34:01Z</time>
      </trkpt>
      <trkpt lat="45.3626" lon="5.90011">
        <ele>1884.406323406</ele>
        <time>2015-05-24T14:34:06Z</time>
      </trkpt>
      <trkpt lat="45.36257" lon="5.90009">
        <ele>1884.562911788</ele>
        <time>2015-05-24T14:34:11Z</time>
      </trkpt>
      <trkpt lat="45.36255" lon="5.90007">
        <ele>1884.562911788</ele>
        <time>2015-05-24T14:34:16Z</time>
      </trkpt>
      <trkpt lat="45.36253" lon="5.90001">
        <ele>1884.562911788</ele>
        <time>2015-05-24T14:34:21Z</time>
      </trkpt>
      <trkpt lat="45.36251" lon="5.90002">
        <ele>1884.562911788</ele>
        <time>2015-05-24T14:34:26Z</time>
      </trkpt>
      <trkpt lat="45.36252" lon="5.90002">
        <ele>1884.219822803</ele>
        <time>2015-05-24T14:34:31Z</time>
      </trkpt>
      <trkpt lat="45.36251" lon="5.9">
        <ele>1884.219822803</ele>
        <time>2015-05-24T14:34:36Z</time>
      </trkpt>
      <trkpt lat="45.36248" lon="5.89994">
        <ele>1884.219822803</ele>
        <time>2015-05-24T14:34:41Z</time>
      </trkpt>
      <trkpt lat="45.36247" lon="5.89978">
        <ele>1883.991421415</ele>
        <time>2015-05-24T14:34:46Z</time>
      </trkpt>
      <trkpt lat="45.36239" lon="5.89971">
        <ele>1883.582098596</ele>
        <time>2015-05-24T14:34:51Z</time>
      </trkpt>
      <trkpt lat="45.36233" lon="5.89961">
        <ele>1882.862709871</ele>
        <time>2015-05-24T14:34:56Z</time>
      </trkpt>
      <trkpt lat="45.3623" lon="5.89959">
        <ele>1882.862709871</ele>
        <time>2015-05-24T14:35:01Z</time>
      </trkpt>
      <trkpt lat="45.36225" lon="5.89953">
        <ele>1882.002804603</ele>
        <time>2015-05-24T14:35:06Z</time>
      </trkpt>
      <trkpt lat="45.3622" lon="5.89947">
        <ele>1882.002804603</ele>
        <time>2015-05-24T14:35:11Z</time>
      </trkpt>
      <trkpt lat="45.36215" lon="5.8994">
        <ele>1881.592304476</ele>
        <time>2015-05-24T14:35:16Z</time>
      </trkpt>
      <trkpt lat="45.36211" lon="5.89937">
        <ele>1881.592304476</ele>
        <time>2015-05-24T14:35:20Z</time>
      </trkpt>
      <trkpt lat="45.36208" lon="5.89927">
        <ele>1880.447284649</ele>
        <time>2015-05-24T14:35:26Z</time>
      </trkpt>
      <trkpt lat="45.36205" lon="5.89923">
        <ele>1880.447284649</ele>
        <time>2015-05-24T14:35:31Z</time>
      </trkpt>
      <trkpt lat="45.36199" lon="5.89921">
        <ele>1879.634586878</ele>
        <time>2015-05-24T14:35:36Z</time>
      </trkpt>
      <trkpt lat="45.36196" lon="5.89914">
        <ele>1879.634586878</ele>
        <time>2015-05-24T14:35:41Z</time>
      </trkpt>
      <trkpt lat="45.36191" lon="5.89907">
        <ele>1879.277138271</ele>
        <time>2015-05-24T14:35:46Z</time>
      </trkpt>
      <trkpt lat="45.36187" lon="5.89901">
        <ele>1879.277138271</ele>
        <time>2015-05-24T14:35:51Z</time>
      </trkpt>
      <trkpt lat="45.36181" lon="5.89899">
        <ele>1878.622932723</ele>
        <time>2015-05-24T14:35:56Z</time>
      </trkpt>
      <trkpt lat="45.36176" lon="5.89894">
        <ele>1878.622932723</ele>
        <time>2015-05-24T14:36:01Z</time>
      </trkpt>
      <trkpt lat="45.36172" lon="5.89889">
        <ele>1878.128957158</ele>
        <time>2015-05-24T14:36:06Z</time>
      </trkpt>
      <trkpt lat="45.36168" lon="5.89885">
        <ele>1878.128957158</ele>
        <time>2015-05-24T14:36:11Z</time>
      </trkpt>
      <trkpt lat="45.36168" lon="5.89886">
        <ele>1878.128957158</ele>
        <time>2015-05-24T14:36:16Z</time>
      </trkpt>
      <trkpt lat="45.36168" lon="5.89887">
        <ele>1878.128957158</ele>
        <time>2015-05-24T14:36:21Z</time>
      </trkpt>
      <trkpt lat="45.36165" lon="5.89885">
        <ele>1877.497642223</ele>
        <time>2015-05-24T14:36:26Z</time>
      </trkpt>
      <trkpt lat="45.36165" lon="5.89886">
        <ele>1877.497642223</ele>
        <time>2015-05-24T14:36:31Z</time>
      </trkpt>
      <trkpt lat="45.36165" lon="5.89887">
        <ele>1877.497642223</ele>
        <time>2015-05-24T14:36:36Z</time>
      </trkpt>
      <trkpt lat="45.36165" lon="5.89888">
        <ele>1877.497642223</ele>
        <time>2015-05-24T14:36:41Z</time>
      </trkpt>
      <trkpt lat="45.36159" lon="5.8988">
        <ele>1876.886006344</ele>
        <time>2015-05-24T14:36:46Z</time>
      </trkpt>
      <trkpt lat="45.36154" lon="5.89877">
        <ele>1876.886006344</ele>
        <time>2015-05-24T14:36:51Z</time>
      </trkpt>
      <trkpt lat="45.36148" lon="5.89875">
        <ele>1876.007145061</ele>
        <time>2015-05-24T14:36:56Z</time>
      </trkpt>
      <trkpt lat="45.3614" lon="5.89874">
        <ele>1876.007145061</ele>
        <time>2015-05-24T14:37:01Z</time>
      </trkpt>
      <trkpt lat="45.36135" lon="5.89873">
        <ele>1875.172415344</ele>
        <time>2015-05-24T14:37:06Z</time>
      </trkpt>
      <trkpt lat="45.36132" lon="5.89868">
        <ele>1875.172415344</ele>
        <time>2015-05-24T14:37:11Z</time>
      </trkpt>
      <trkpt lat="45.36129" lon="5.8987">
        <ele>1875.172415344</ele>
        <time>2015-05-24T14:37:16Z</time>
      </trkpt>
      <trkpt lat="45.36126" lon="5.8987">
        <ele>1874.381938361</ele>
        <time>2015-05-24T14:37:21Z</time>
      </trkpt>
      <trkpt lat="45.36122" lon="5.89873">
        <ele>1874.381938361</ele>
        <time>2015-05-24T14:37:26Z</time>
      </trkpt>
      <trkpt lat="45.36121" lon="5.89875">
        <ele>1874.381938361</ele>
        <time>2015-05-24T14:37:31Z</time>
      </trkpt>
      <trkpt lat="45.36118" lon="5.89878">
        <ele>1873.635676255</ele>
        <time>2015-05-24T14:37:36Z</time>
      </trkpt>
      <trkpt lat="45.36116" lon="5.89877">
        <ele>1873.635676255</ele>
        <time>2015-05-24T14:37:41Z</time>
      </trkpt>
      <trkpt lat="45.36115" lon="5.89874">
        <ele>1873.635676255</ele>
        <time>2015-05-24T14:37:46Z</time>
      </trkpt>
      <trkpt lat="45.36113" lon="5.89872">
        <ele>1873.635676255</ele>
        <time>2015-05-24T14:37:51Z</time>
      </trkpt>
      <trkpt lat="45.3611" lon="5.89869">
        <ele>1871.780544861</ele>
        <time>2015-05-24T14:37:56Z</time>
      </trkpt>
      <trkpt lat="45.36107" lon="5.89868">
        <ele>1871.780544861</ele>
        <time>2015-05-24T14:38:02Z</time>
      </trkpt>
      <trkpt lat="45.36106" lon="5.89866">
        <ele>1871.780544861</ele>
        <time>2015-05-24T14:38:06Z</time>
      </trkpt>
      <trkpt lat="45.36103" lon="5.89865">
        <ele>1871.780544861</ele>
        <time>2015-05-24T14:38:11Z</time>
      </trkpt>
      <trkpt lat="45.36103" lon="5.89866">
        <ele>1869.7687858</ele>
        <time>2015-05-24T14:38:16Z</time>
      </trkpt>
      <trkpt lat="45.36103" lon="5.89862">
        <ele>1869.7687858</ele>
        <time>2015-05-24T14:38:20Z</time>
      </trkpt>
      <trkpt lat="45.36105" lon="5.8986">
        <ele>1869.7687858</ele>
        <time>2015-05-24T14:38:25Z</time>
      </trkpt>
      <trkpt lat="45.36104" lon="5.89859">
        <ele>1869.7687858</ele>
        <time>2015-05-24T14:38:31Z</time>
      </trkpt>
      <trkpt lat="45.361" lon="5.89859">
        <ele>1867.041958109</ele>
        <time>2015-05-24T14:38:36Z</time>
      </trkpt>
      <trkpt lat="45.36097" lon="5.89857">
        <ele>1867.041958109</ele>
        <time>2015-05-24T14:38:41Z</time>
      </trkpt>
      <trkpt lat="45.3609" lon="5.89859">
        <ele>1864.525687059</ele>
        <time>2015-05-24T14:38:46Z</time>
      </trkpt>
      <trkpt lat="45.36086" lon="5.89861">
        <ele>1864.525687059</ele>
        <time>2015-05-24T14:38:51Z</time>
      </trkpt>
      <trkpt lat="45.36083" lon="5.8986">
        <ele>1864.525687059</ele>
        <time>2015-05-24T14:38:56Z</time>
      </trkpt>
      <trkpt lat="45.36078" lon="5.89859">
        <ele>1861.203474043</ele>
        <time>2015-05-24T14:39:01Z</time>
      </trkpt>
      <trkpt lat="45.36073" lon="5.89858">
        <ele>1861.203474043</ele>
        <time>2015-05-24T14:39:06Z</time>
      </trkpt>
      <trkpt lat="45.36068" lon="5.89854">
        <ele>1858.153198766</ele>
        <time>2015-05-24T14:39:11Z</time>
      </trkpt>
      <trkpt lat="45.36063" lon="5.89854">
        <ele>1858.153198766</ele>
        <time>2015-05-24T14:39:16Z</time>
      </trkpt>
      <trkpt lat="45.36063" lon="5.89853">
        <ele>1858.153198766</ele>
        <time>2015-05-24T14:39:21Z</time>
      </trkpt>
      <trkpt lat="45.36064" lon="5.89853">
        <ele>1858.153198766</ele>
        <time>2015-05-24T14:39:26Z</time>
      </trkpt>
      <trkpt lat="45.36064" lon="5.89853">
        <ele>1858.153198766</ele>
        <time>2015-05-24T14:39:31Z</time>
      </trkpt>
      <trkpt lat="45.36059" lon="5.89858">
        <ele>1854.931557096</ele>
        <time>2015-05-24T14:39:36Z</time>
      </trkpt>
      <trkpt lat="45.36055" lon="5.89857">
        <ele>1854.931557096</ele>
        <time>2015-05-24T14:39:41Z</time>
      </trkpt>
      <trkpt lat="45.3605" lon="5.89859">
        <ele>1851.272254235</ele>
        <time>2015-05-24T14:39:46Z</time>
      </trkpt>
      <trkpt lat="45.36047" lon="5.89856">
        <ele>1851.272254235</ele>
        <time>2015-05-24T14:39:51Z</time>
      </trkpt>
      <trkpt lat="45.36041" lon="5.89855">
        <ele>1847.794286734</ele>
        <time>2015-05-24T14:39:56Z</time>
      </trkpt>
      <trkpt lat="45.36034" lon="5.89857">
        <ele>1847.794286734</ele>
        <time>2015-05-24T14:40:01Z</time>
      </trkpt>
      <trkpt lat="45.36027" lon="5.8986">
        <ele>1844.926379328</ele>
        <time>2015-05-24T14:40:06Z</time>
      </trkpt>
      <trkpt lat="45.36024" lon="5.89856">
        <ele>1844.926379328</ele>
        <time>2015-05-24T14:40:11Z</time>
      </trkpt>
      <trkpt lat="45.36017" lon="5.8985">
        <ele>1841.766855915</ele>
        <time>2015-05-24T14:40:16Z</time>
      </trkpt>
      <trkpt lat="45.36012" lon="5.89849">
        <ele>1841.766855915</ele>
        <time>2015-05-24T14:40:21Z</time>
      </trkpt>
      <trkpt lat="45.36006" lon="5.89843">
        <ele>1839.066111677</ele>
        <time>2015-05-24T14:40:26Z</time>
      </trkpt>
      <trkpt lat="45.36002" lon="5.8984">
        <ele>1839.066111677</ele>
        <time>2015-05-24T14:40:31Z</time>
      </trkpt>
      <trkpt lat="45.36" lon="5.89838">
        <ele>1839.066111677</ele>
        <time>2015-05-24T14:40:36Z</time>
      </trkpt>
      <trkpt lat="45.35996" lon="5.89837">
        <ele>1836.220916051</ele>
        <time>2015-05-24T14:40:41Z</time>
      </trkpt>
      <trkpt lat="45.35993" lon="5.89838">
        <ele>1836.220916051</ele>
        <time>2015-05-24T14:40:46Z</time>
      </trkpt>
      <trkpt lat="45.35989" lon="5.89838">
        <ele>1836.220916051</ele>
        <time>2015-05-24T14:40:51Z</time>
      </trkpt>
      <trkpt lat="45.35988" lon="5.89838">
        <ele>1836.220916051</ele>
        <time>2015-05-24T14:40:56Z</time>
      </trkpt>
      <trkpt lat="45.35986" lon="5.89838">
        <ele>1833.393091733</ele>
        <time>2015-05-24T14:41:01Z</time>
      </trkpt>
      <trkpt lat="45.35984" lon="5.89838">
        <ele>1833.393091733</ele>
        <time>2015-05-24T14:41:06Z</time>
      </trkpt>
      <trkpt lat="45.35977" lon="5.89838">
        <ele>1833.393091733</ele>
        <time>2015-05-24T14:41:11Z</time>
      </trkpt>
      <trkpt lat="45.35973" lon="5.89841">
        <ele>1830.87641149</ele>
        <time>2015-05-24T14:41:16Z</time>
      </trkpt>
      <trkpt lat="45.35968" lon="5.89835">
        <ele>1830.87641149</ele>
        <time>2015-05-24T14:41:21Z</time>
      </trkpt>
      <trkpt lat="45.35958" lon="5.89823">
        <ele>1828.653745673</ele>
        <time>2015-05-24T14:41:26Z</time>
      </trkpt>
      <trkpt lat="45.3595" lon="5.89816">
        <ele>1826.852283018</ele>
        <time>2015-05-24T14:41:31Z</time>
      </trkpt>
      <trkpt lat="45.35946" lon="5.89813">
        <ele>1826.852283018</ele>
        <time>2015-05-24T14:41:36Z</time>
      </trkpt>
      <trkpt lat="45.35942" lon="5.8981">
        <ele>1826.852283018</ele>
        <time>2015-05-24T14:41:41Z</time>
      </trkpt>
      <trkpt lat="45.35939" lon="5.89808">
        <ele>1825.30024223</ele>
        <time>2015-05-24T14:41:46Z</time>
      </trkpt>
      <trkpt lat="45.35934" lon="5.89802">
        <ele>1825.30024223</ele>
        <time>2015-05-24T14:41:51Z</time>
      </trkpt>
      <trkpt lat="45.3593" lon="5.89796">
        <ele>1824.413990256</ele>
        <time>2015-05-24T14:41:56Z</time>
      </trkpt>
      <trkpt lat="45.35926" lon="5.89794">
        <ele>1824.413990256</ele>
        <time>2015-05-24T14:42:01Z</time>
      </trkpt>
      <trkpt lat="45.35922" lon="5.89787">
        <ele>1823.856679259</ele>
        <time>2015-05-24T14:42:06Z</time>
      </trkpt>
      <trkpt lat="45.35918" lon="5.89784">
        <ele>1823.856679259</ele>
        <time>2015-05-24T14:42:11Z</time>
      </trkpt>
      <trkpt lat="45.35914" lon="5.89779">
        <ele>1823.603314219</ele>
        <time>2015-05-24T14:42:16Z</time>
      </trkpt>
      <trkpt lat="45.3591" lon="5.89776">
        <ele>1823.603314219</ele>
        <time>2015-05-24T14:42:21Z</time>
      </trkpt>
      <trkpt lat="45.3591" lon="5.89775">
        <ele>1823.603314219</ele>
        <time>2015-05-24T14:42:26Z</time>
      </trkpt>
      <trkpt lat="45.35905" lon="5.89769">
        <ele>1823.77382013</ele>
        <time>2015-05-24T14:42:31Z</time>
      </trkpt>
      <trkpt lat="45.35899" lon="5.89761">
        <ele>1823.77382013</ele>
        <time>2015-05-24T14:42:36Z</time>
      </trkpt>
      <trkpt lat="45.35896" lon="5.89753">
        <ele>1823.901522713</ele>
        <time>2015-05-24T14:42:41Z</time>
      </trkpt>
      <trkpt lat="45.35891" lon="5.89748">
        <ele>1823.901522713</ele>
        <time>2015-05-24T14:42:46Z</time>
      </trkpt>
      <trkpt lat="45.35886" lon="5.89746">
        <ele>1823.554012266</ele>
        <time>2015-05-24T14:42:51Z</time>
      </trkpt>
      <trkpt lat="45.3588" lon="5.89747">
        <ele>1823.554012266</ele>
        <time>2015-05-24T14:42:56Z</time>
      </trkpt>
      <trkpt lat="45.35875" lon="5.89743">
        <ele>1823.340636353</ele>
        <time>2015-05-24T14:43:01Z</time>
      </trkpt>
      <trkpt lat="45.35872" lon="5.8974">
        <ele>1823.340636353</ele>
        <time>2015-05-24T14:43:06Z</time>
      </trkpt>
      <trkpt lat="45.35864" lon="5.89737">
        <ele>1823.681392331</ele>
        <time>2015-05-24T14:43:11Z</time>
      </trkpt>
      <trkpt lat="45.35861" lon="5.89735">
        <ele>1823.681392331</ele>
        <time>2015-05-24T14:43:16Z</time>
      </trkpt>
      <trkpt lat="45.35854" lon="5.89729">
        <ele>1824.53145432</ele>
        <time>2015-05-24T14:43:21Z</time>
      </trkpt>
      <trkpt lat="45.3585" lon="5.89724">
        <ele>1824.53145432</ele>
        <time>2015-05-24T14:43:26Z</time>
      </trkpt>
      <trkpt lat="45.35847" lon="5.89722">
        <ele>1824.53145432</ele>
        <time>2015-05-24T14:43:31Z</time>
      </trkpt>
      <trkpt lat="45.35845" lon="5.89722">
        <ele>1825.415462938</ele>
        <time>2015-05-24T14:43:36Z</time>
      </trkpt>
      <trkpt lat="45.35844" lon="5.89721">
        <ele>1825.415462938</ele>
        <time>2015-05-24T14:43:41Z</time>
      </trkpt>
      <trkpt lat="45.35845" lon="5.8972">
        <ele>1825.415462938</ele>
        <time>2015-05-24T14:43:46Z</time>
      </trkpt>
      <trkpt lat="45.35845" lon="5.8972">
        <ele>1825.415462938</ele>
        <time>2015-05-24T14:43:51Z</time>
      </trkpt>
      <trkpt lat="45.35844" lon="5.8972">
        <ele>1825.415462938</ele>
        <time>2015-05-24T14:43:56Z</time>
      </trkpt>
      <trkpt lat="45.35844" lon="5.8972">
        <ele>1825.415462938</ele>
        <time>2015-05-24T14:44:01Z</time>
      </trkpt>
      <trkpt lat="45.35844" lon="5.8972">
        <ele>1825.415462938</ele>
        <time>2015-05-24T14:44:06Z</time>
      </trkpt>
      <trkpt lat="45.35844" lon="5.8972">
        <ele>1825.415462938</ele>
        <time>2015-05-24T14:44:11Z</time>
      </trkpt>
      <trkpt lat="45.35844" lon="5.8972">
        <ele>1825.415462938</ele>
        <time>2015-05-24T14:44:16Z</time>
      </trkpt>
      <trkpt lat="45.35844" lon="5.8972">
        <ele>1825.415462938</ele>
        <time>2015-05-24T14:44:21Z</time>
      </trkpt>
      <trkpt lat="45.35844" lon="5.8972">
        <ele>1825.415462938</ele>
        <time>2015-05-24T14:44:25Z</time>
      </trkpt>
      <trkpt lat="45.35844" lon="5.8972">
        <ele>1825.415462938</ele>
        <time>2015-05-24T14:44:31Z</time>
      </trkpt>
      <trkpt lat="45.35844" lon="5.8972">
        <ele>1825.415462938</ele>
        <time>2015-05-24T14:44:35Z</time>
      </trkpt>
      <trkpt lat="45.35843" lon="5.89718">
        <ele>1825.415462938</ele>
        <time>2015-05-24T14:44:41Z</time>
      </trkpt>
      <trkpt lat="45.3584" lon="5.89716">
        <ele>1825.415462938</ele>
        <time>2015-05-24T14:44:45Z</time>
      </trkpt>
      <trkpt lat="45.35834" lon="5.89711">
        <ele>1826.03694929</ele>
        <time>2015-05-24T14:44:51Z</time>
      </trkpt>
      <trkpt lat="45.35829" lon="5.89707">
        <ele>1826.03694929</ele>
        <time>2015-05-24T14:44:56Z</time>
      </trkpt>
      <trkpt lat="45.35827" lon="5.89703">
        <ele>1826.986601094</ele>
        <time>2015-05-24T14:45:01Z</time>
      </trkpt>
      <trkpt lat="45.35822" lon="5.89696">
        <ele>1826.986601094</ele>
        <time>2015-05-24T14:45:06Z</time>
      </trkpt>
      <trkpt lat="45.35818" lon="5.89693">
        <ele>1828.090232095</ele>
        <time>2015-05-24T14:45:11Z</time>
      </trkpt>
      <trkpt lat="45.35813" lon="5.89688">
        <ele>1828.090232095</ele>
        <time>2015-05-24T14:45:16Z</time>
      </trkpt>
      <trkpt lat="45.3581" lon="5.8969">
        <ele>1828.609586293</ele>
        <time>2015-05-24T14:45:21Z</time>
      </trkpt>
      <trkpt lat="45.35808" lon="5.89691">
        <ele>1828.609586293</ele>
        <time>2015-05-24T14:45:26Z</time>
      </trkpt>
      <trkpt lat="45.35807" lon="5.89696">
        <ele>1828.609586293</ele>
        <time>2015-05-24T14:45:31Z</time>
      </trkpt>
      <trkpt lat="45.35806" lon="5.897">
        <ele>1828.609586293</ele>
        <time>2015-05-24T14:45:36Z</time>
      </trkpt>
      <trkpt lat="45.35807" lon="5.897">
        <ele>1827.718191965</ele>
        <time>2015-05-24T14:45:41Z</time>
      </trkpt>
      <trkpt lat="45.35806" lon="5.89701">
        <ele>1827.718191965</ele>
        <time>2015-05-24T14:45:46Z</time>
      </trkpt>
      <trkpt lat="45.35804" lon="5.897">
        <ele>1827.718191965</ele>
        <time>2015-05-24T14:45:51Z</time>
      </trkpt>
      <trkpt lat="45.35804" lon="5.89701">
        <ele>1827.718191965</ele>
        <time>2015-05-24T14:45:56Z</time>
      </trkpt>
      <trkpt lat="45.35804" lon="5.897">
        <ele>1827.718191965</ele>
        <time>2015-05-24T14:46:01Z</time>
      </trkpt>
      <trkpt lat="45.35804" lon="5.89701">
        <ele>1827.718191965</ele>
        <time>2015-05-24T14:46:06Z</time>
      </trkpt>
      <trkpt lat="45.35804" lon="5.89701">
        <ele>1827.718191965</ele>
        <time>2015-05-24T14:46:11Z</time>
      </trkpt>
      <trkpt lat="45.35804" lon="5.89701">
        <ele>1827.718191965</ele>
        <time>2015-05-24T14:46:16Z</time>
      </trkpt>
      <trkpt lat="45.35805" lon="5.89702">
        <ele>1827.718191965</ele>
        <time>2015-05-24T14:46:21Z</time>
      </trkpt>
      <trkpt lat="45.35809" lon="5.89708">
        <ele>1826.671837497</ele>
        <time>2015-05-24T14:46:26Z</time>
      </trkpt>
      <trkpt lat="45.35811" lon="5.89708">
        <ele>1826.671837497</ele>
        <time>2015-05-24T14:46:31Z</time>
      </trkpt>
      <trkpt lat="45.3581" lon="5.89711">
        <ele>1826.671837497</ele>
        <time>2015-05-24T14:46:36Z</time>
      </trkpt>
      <trkpt lat="45.3581" lon="5.89717">
        <ele>1826.671837497</ele>
        <time>2015-05-24T14:46:41Z</time>
      </trkpt>
      <trkpt lat="45.35809" lon="5.89723">
        <ele>1826.346314178</ele>
        <time>2015-05-24T14:46:46Z</time>
      </trkpt>
      <trkpt lat="45.35809" lon="5.89724">
        <ele>1826.346314178</ele>
        <time>2015-05-24T14:46:51Z</time>
      </trkpt>
      <trkpt lat="45.35808" lon="5.89724">
        <ele>1826.346314178</ele>
        <time>2015-05-24T14:46:56Z</time>
      </trkpt>
      <trkpt lat="45.35808" lon="5.89724">
        <ele>1826.346314178</ele>
        <time>2015-05-24T14:47:00Z</time>
      </trkpt>
      <trkpt lat="45.35808" lon="5.89723">
        <ele>1826.346314178</ele>
        <time>2015-05-24T14:47:05Z</time>
      </trkpt>
      <trkpt lat="45.35808" lon="5.89724">
        <ele>1826.346314178</ele>
        <time>2015-05-24T14:47:11Z</time>
      </trkpt>
      <trkpt lat="45.35806" lon="5.89727">
        <ele>1826.346314178</ele>
        <time>2015-05-24T14:47:16Z</time>
      </trkpt>
      <trkpt lat="45.35807" lon="5.89732">
        <ele>1826.346314178</ele>
        <time>2015-05-24T14:47:21Z</time>
      </trkpt>
      <trkpt lat="45.35807" lon="5.89729">
        <ele>1826.398209761</ele>
        <time>2015-05-24T14:47:26Z</time>
      </trkpt>
      <trkpt lat="45.35808" lon="5.89729">
        <ele>1826.398209761</ele>
        <time>2015-05-24T14:47:31Z</time>
      </trkpt>
      <trkpt lat="45.35808" lon="5.89735">
        <ele>1826.398209761</ele>
        <time>2015-05-24T14:47:36Z</time>
      </trkpt>
      <trkpt lat="45.35809" lon="5.89741">
        <ele>1826.398209761</ele>
        <time>2015-05-24T14:47:41Z</time>
      </trkpt>
      <trkpt lat="45.35808" lon="5.8974">
        <ele>1826.364214269</ele>
        <time>2015-05-24T14:47:45Z</time>
      </trkpt>
      <trkpt lat="45.35808" lon="5.89741">
        <ele>1826.364214269</ele>
        <time>2015-05-24T14:47:50Z</time>
      </trkpt>
      <trkpt lat="45.35808" lon="5.89736">
        <ele>1826.364214269</ele>
        <time>2015-05-24T14:47:55Z</time>
      </trkpt>
      <trkpt lat="45.35804" lon="5.89733">
        <ele>1825.38300723</ele>
        <time>2015-05-24T14:48:01Z</time>
      </trkpt>
      <trkpt lat="45.35804" lon="5.89732">
        <ele>1825.38300723</ele>
        <time>2015-05-24T14:48:05Z</time>
      </trkpt>
      <trkpt lat="45.35807" lon="5.89731">
        <ele>1825.38300723</ele>
        <time>2015-05-24T14:48:11Z</time>
      </trkpt>
      <trkpt lat="45.3581" lon="5.89733">
        <ele>1825.38300723</ele>
        <time>2015-05-24T14:48:16Z</time>
      </trkpt>
      <trkpt lat="45.35815" lon="5.89738">
        <ele>1823.235689883</ele>
        <time>2015-05-24T14:48:21Z</time>
      </trkpt>
      <trkpt lat="45.35817" lon="5.89742">
        <ele>1823.235689883</ele>
        <time>2015-05-24T14:48:26Z</time>
      </trkpt>
      <trkpt lat="45.35821" lon="5.89745">
        <ele>1823.235689883</ele>
        <time>2015-05-24T14:48:31Z</time>
      </trkpt>
      <trkpt lat="45.3582" lon="5.89744">
        <ele>1823.235689883</ele>
        <time>2015-05-24T14:48:36Z</time>
      </trkpt>
      <trkpt lat="45.3582" lon="5.89745">
        <ele>1821.740316973</ele>
        <time>2015-05-24T14:48:41Z</time>
      </trkpt>
      <trkpt lat="45.35822" lon="5.89752">
        <ele>1821.740316973</ele>
        <time>2015-05-24T14:48:46Z</time>
      </trkpt>
      <trkpt lat="45.3582" lon="5.8976">
        <ele>1820.706156931</ele>
        <time>2015-05-24T14:48:51Z</time>
      </trkpt>
      <trkpt lat="45.35819" lon="5.89758">
        <ele>1820.706156931</ele>
        <time>2015-05-24T14:48:57Z</time>
      </trkpt>
      <trkpt lat="45.35814" lon="5.89758">
        <ele>1820.706156931</ele>
        <time>2015-05-24T14:49:01Z</time>
      </trkpt>
      <trkpt lat="45.35813" lon="5.89765">
        <ele>1819.955230697</ele>
        <time>2015-05-24T14:49:06Z</time>
      </trkpt>
      <trkpt lat="45.35811" lon="5.89766">
        <ele>1819.955230697</ele>
        <time>2015-05-24T14:49:11Z</time>
      </trkpt>
      <trkpt lat="45.3581" lon="5.89768">
        <ele>1819.955230697</ele>
        <time>2015-05-24T14:49:16Z</time>
      </trkpt>
      <trkpt lat="45.35809" lon="5.89764">
        <ele>1819.955230697</ele>
        <time>2015-05-24T14:49:21Z</time>
      </trkpt>
      <trkpt lat="45.35809" lon="5.89766">
        <ele>1819.955230697</ele>
        <time>2015-05-24T14:49:26Z</time>
      </trkpt>
      <trkpt lat="45.35809" lon="5.89767">
        <ele>1819.955230697</ele>
        <time>2015-05-24T14:49:31Z</time>
      </trkpt>
      <trkpt lat="45.35809" lon="5.89768">
        <ele>1819.955230697</ele>
        <time>2015-05-24T14:49:36Z</time>
      </trkpt>
      <trkpt lat="45.35808" lon="5.89768">
        <ele>1818.457201625</ele>
        <time>2015-05-24T14:49:41Z</time>
      </trkpt>
      <trkpt lat="45.35798" lon="5.89774">
        <ele>1816.700653916</ele>
        <time>2015-05-24T14:49:46Z</time>
      </trkpt>
      <trkpt lat="45.35793" lon="5.89777">
        <ele>1816.700653916</ele>
        <time>2015-05-24T14:49:51Z</time>
      </trkpt>
      <trkpt lat="45.35792" lon="5.89779">
        <ele>1816.700653916</ele>
        <time>2015-05-24T14:49:56Z</time>
      </trkpt>
      <trkpt lat="45.35791" lon="5.8978">
        <ele>1816.700653916</ele>
        <time>2015-05-24T14:50:01Z</time>
      </trkpt>
      <trkpt lat="45.35791" lon="5.8978">
        <ele>1816.700653916</ele>
        <time>2015-05-24T14:50:06Z</time>
      </trkpt>
      <trkpt lat="45.35791" lon="5.8978">
        <ele>1816.700653916</ele>
        <time>2015-05-24T14:50:11Z</time>
      </trkpt>
      <trkpt lat="45.35791" lon="5.8978">
        <ele>1816.700653916</ele>
        <time>2015-05-24T14:50:16Z</time>
      </trkpt>
      <trkpt lat="45.35788" lon="5.89783">
        <ele>1814.994915462</ele>
        <time>2015-05-24T14:50:21Z</time>
      </trkpt>
      <trkpt lat="45.35784" lon="5.89793">
        <ele>1814.994915462</ele>
        <time>2015-05-24T14:50:26Z</time>
      </trkpt>
      <trkpt lat="45.3578" lon="5.89801">
        <ele>1814.63524388</ele>
        <time>2015-05-24T14:50:31Z</time>
      </trkpt>
      <trkpt lat="45.35773" lon="5.89799">
        <ele>1814.63524388</ele>
        <time>2015-05-24T14:50:36Z</time>
      </trkpt>
      <trkpt lat="45.3577" lon="5.89798">
        <ele>1814.079873444</ele>
        <time>2015-05-24T14:50:41Z</time>
      </trkpt>
      <trkpt lat="45.35766" lon="5.89797">
        <ele>1814.079873444</ele>
        <time>2015-05-24T14:50:46Z</time>
      </trkpt>
      <trkpt lat="45.35762" lon="5.89793">
        <ele>1813.630191738</ele>
        <time>2015-05-24T14:50:51Z</time>
      </trkpt>
      <trkpt lat="45.3576" lon="5.89788">
        <ele>1813.630191738</ele>
        <time>2015-05-24T14:50:56Z</time>
      </trkpt>
      <trkpt lat="45.35757" lon="5.89784">
        <ele>1813.630191738</ele>
        <time>2015-05-24T14:51:01Z</time>
      </trkpt>
      <trkpt lat="45.35754" lon="5.89781">
        <ele>1813.132831448</ele>
        <time>2015-05-24T14:51:06Z</time>
      </trkpt>
      <trkpt lat="45.35754" lon="5.89783">
        <ele>1813.132831448</ele>
        <time>2015-05-24T14:51:11Z</time>
      </trkpt>
      <trkpt lat="45.35751" lon="5.89782">
        <ele>1813.132831448</ele>
        <time>2015-05-24T14:51:16Z</time>
      </trkpt>
      <trkpt lat="45.35748" lon="5.89778">
        <ele>1813.132831448</ele>
        <time>2015-05-24T14:51:20Z</time>
      </trkpt>
      <trkpt lat="45.35744" lon="5.89773">
        <ele>1812.734065785</ele>
        <time>2015-05-24T14:51:25Z</time>
      </trkpt>
      <trkpt lat="45.35742" lon="5.89768">
        <ele>1812.734065785</ele>
        <time>2015-05-24T14:51:30Z</time>
      </trkpt>
      <trkpt lat="45.35739" lon="5.89758">
        <ele>1812.280944958</ele>
        <time>2015-05-24T14:51:37Z</time>
      </trkpt>
      <trkpt lat="45.35738" lon="5.89753">
        <ele>1812.280944958</ele>
        <time>2015-05-24T14:51:41Z</time>
      </trkpt>
      <trkpt lat="45.35738" lon="5.89745">
        <ele>1812.064265025</ele>
        <time>2015-05-24T14:51:46Z</time>
      </trkpt>
      <trkpt lat="45.35739" lon="5.89736">
        <ele>1812.064265025</ele>
        <time>2015-05-24T14:51:51Z</time>
      </trkpt>
      <trkpt lat="45.3574" lon="5.89731">
        <ele>1811.48815691</ele>
        <time>2015-05-24T14:51:56Z</time>
      </trkpt>
      <trkpt lat="45.35741" lon="5.89728">
        <ele>1811.48815691</ele>
        <time>2015-05-24T14:52:01Z</time>
      </trkpt>
      <trkpt lat="45.35739" lon="5.89724">
        <ele>1811.48815691</ele>
        <time>2015-05-24T14:52:06Z</time>
      </trkpt>
      <trkpt lat="45.3574" lon="5.89723">
        <ele>1811.48815691</ele>
        <time>2015-05-24T14:52:11Z</time>
      </trkpt>
      <trkpt lat="45.3574" lon="5.89716">
        <ele>1811.010339575</ele>
        <time>2015-05-24T14:52:16Z</time>
      </trkpt>
      <trkpt lat="45.3574" lon="5.89709">
        <ele>1811.010339575</ele>
        <time>2015-05-24T14:52:21Z</time>
      </trkpt>
      <trkpt lat="45.3574" lon="5.89699">
        <ele>1810.76644196</ele>
        <time>2015-05-24T14:52:26Z</time>
      </trkpt>
      <trkpt lat="45.35744" lon="5.89695">
        <ele>1810.76644196</ele>
        <time>2015-05-24T14:52:31Z</time>
      </trkpt>
      <trkpt lat="45.35744" lon="5.89688">
        <ele>1810.16095119</ele>
        <time>2015-05-24T14:52:36Z</time>
      </trkpt>
      <trkpt lat="45.35743" lon="5.8968">
        <ele>1810.16095119</ele>
        <time>2015-05-24T14:52:41Z</time>
      </trkpt>
      <trkpt lat="45.35741" lon="5.89674">
        <ele>1810.084261952</ele>
        <time>2015-05-24T14:52:46Z</time>
      </trkpt>
      <trkpt lat="45.35743" lon="5.8967">
        <ele>1810.084261952</ele>
        <time>2015-05-24T14:52:51Z</time>
      </trkpt>
      <trkpt lat="45.35744" lon="5.89672">
        <ele>1810.084261952</ele>
        <time>2015-05-24T14:52:56Z</time>
      </trkpt>
      <trkpt lat="45.35747" lon="5.89663">
        <ele>1809.054135133</ele>
        <time>2015-05-24T14:53:01Z</time>
      </trkpt>
      <trkpt lat="45.3575" lon="5.89664">
        <ele>1809.054135133</ele>
        <time>2015-05-24T14:53:06Z</time>
      </trkpt>
      <trkpt lat="45.3575" lon="5.89664">
        <ele>1809.054135133</ele>
        <time>2015-05-24T14:53:11Z</time>
      </trkpt>
      <trkpt lat="45.3575" lon="5.89659">
        <ele>1809.054135133</ele>
        <time>2015-05-24T14:53:16Z</time>
      </trkpt>
      <trkpt lat="45.35755" lon="5.89648">
        <ele>1807.429259781</ele>
        <time>2015-05-24T14:53:21Z</time>
      </trkpt>
      <trkpt lat="45.35756" lon="5.89639">
        <ele>1807.429259781</ele>
        <time>2015-05-24T14:53:26Z</time>
      </trkpt>
      <trkpt lat="45.35756" lon="5.89631">
        <ele>1805.687787014</ele>
        <time>2015-05-24T14:53:31Z</time>
      </trkpt>
      <trkpt lat="45.35757" lon="5.89622">
        <ele>1805.687787014</ele>
        <time>2015-05-24T14:53:36Z</time>
      </trkpt>
      <trkpt lat="45.35756" lon="5.89613">
        <ele>1803.408428043</ele>
        <time>2015-05-24T14:53:41Z</time>
      </trkpt>
      <trkpt lat="45.35759" lon="5.89604">
        <ele>1803.408428043</ele>
        <time>2015-05-24T14:53:46Z</time>
      </trkpt>
      <trkpt lat="45.3576" lon="5.89598">
        <ele>1800.922920959</ele>
        <time>2015-05-24T14:53:51Z</time>
      </trkpt>
      <trkpt lat="45.3576" lon="5.8959">
        <ele>1800.922920959</ele>
        <time>2015-05-24T14:53:56Z</time>
      </trkpt>
      <trkpt lat="45.35759" lon="5.89583">
        <ele>1797.962769986</ele>
        <time>2015-05-24T14:54:01Z</time>
      </trkpt>
      <trkpt lat="45.35761" lon="5.89573">
        <ele>1797.962769986</ele>
        <time>2015-05-24T14:54:06Z</time>
      </trkpt>
      <trkpt lat="45.35761" lon="5.89565">
        <ele>1794.280520879</ele>
        <time>2015-05-24T14:54:11Z</time>
      </trkpt>
      <trkpt lat="45.35758" lon="5.8956">
        <ele>1794.280520879</ele>
        <time>2015-05-24T14:54:16Z</time>
      </trkpt>
      <trkpt lat="45.35754" lon="5.89554">
        <ele>1790.657670503</ele>
        <time>2015-05-24T14:54:21Z</time>
      </trkpt>
      <trkpt lat="45.35753" lon="5.89549">
        <ele>1790.657670503</ele>
        <time>2015-05-24T14:54:25Z</time>
      </trkpt>
      <trkpt lat="45.35751" lon="5.89543">
        <ele>1790.657670503</ele>
        <time>2015-05-24T14:54:31Z</time>
      </trkpt>
      <trkpt lat="45.35747" lon="5.8954">
        <ele>1786.665201902</ele>
        <time>2015-05-24T14:54:36Z</time>
      </trkpt>
      <trkpt lat="45.3574" lon="5.89535">
        <ele>1786.665201902</ele>
        <time>2015-05-24T14:54:41Z</time>
      </trkpt>
      <trkpt lat="45.35736" lon="5.89532">
        <ele>1782.915359551</ele>
        <time>2015-05-24T14:54:46Z</time>
      </trkpt>
      <trkpt lat="45.35729" lon="5.89528">
        <ele>1782.915359551</ele>
        <time>2015-05-24T14:54:51Z</time>
      </trkpt>
      <trkpt lat="45.35721" lon="5.89529">
        <ele>1780.406979867</ele>
        <time>2015-05-24T14:54:56Z</time>
      </trkpt>
      <trkpt lat="45.35711" lon="5.89537">
        <ele>1778.764944074</ele>
        <time>2015-05-24T14:55:01Z</time>
      </trkpt>
      <trkpt lat="45.3571" lon="5.8955">
        <ele>1777.49504308</ele>
        <time>2015-05-24T14:55:06Z</time>
      </trkpt>
      <trkpt lat="45.35714" lon="5.89549">
        <ele>1777.49504308</ele>
        <time>2015-05-24T14:55:11Z</time>
      </trkpt>
      <trkpt lat="45.35715" lon="5.89557">
        <ele>1775.994110995</ele>
        <time>2015-05-24T14:55:16Z</time>
      </trkpt>
      <trkpt lat="45.35713" lon="5.89563">
        <ele>1775.994110995</ele>
        <time>2015-05-24T14:55:21Z</time>
      </trkpt>
      <trkpt lat="45.35713" lon="5.89567">
        <ele>1775.994110995</ele>
        <time>2015-05-24T14:55:26Z</time>
      </trkpt>
      <trkpt lat="45.35712" lon="5.89559">
        <ele>1773.847945379</ele>
        <time>2015-05-24T14:55:31Z</time>
      </trkpt>
      <trkpt lat="45.35708" lon="5.89556">
        <ele>1773.847945379</ele>
        <time>2015-05-24T14:55:37Z</time>
      </trkpt>
      <trkpt lat="45.35708" lon="5.89555">
        <ele>1773.847945379</ele>
        <time>2015-05-24T14:55:41Z</time>
      </trkpt>
      <trkpt lat="45.35706" lon="5.89551">
        <ele>1773.847945379</ele>
        <time>2015-05-24T14:55:46Z</time>
      </trkpt>
      <trkpt lat="45.35702" lon="5.89552">
        <ele>1771.539146317</ele>
        <time>2015-05-24T14:55:51Z</time>
      </trkpt>
      <trkpt lat="45.35698" lon="5.89552">
        <ele>1771.539146317</ele>
        <time>2015-05-24T14:55:56Z</time>
      </trkpt>
      <trkpt lat="45.35695" lon="5.8955">
        <ele>1771.539146317</ele>
        <time>2015-05-24T14:56:01Z</time>
      </trkpt>
      <trkpt lat="45.35692" lon="5.89549">
        <ele>1769.515218537</ele>
        <time>2015-05-24T14:56:06Z</time>
      </trkpt>
      <trkpt lat="45.35692" lon="5.89549">
        <ele>1769.515218537</ele>
        <time>2015-05-24T14:56:11Z</time>
      </trkpt>
      <trkpt lat="45.35689" lon="5.89551">
        <ele>1769.515218537</ele>
        <time>2015-05-24T14:56:16Z</time>
      </trkpt>
      <trkpt lat="45.35689" lon="5.89551">
        <ele>1769.515218537</ele>
        <time>2015-05-24T14:56:21Z</time>
      </trkpt>
      <trkpt lat="45.35689" lon="5.89551">
        <ele>1769.515218537</ele>
        <time>2015-05-24T14:56:26Z</time>
      </trkpt>
      <trkpt lat="45.35689" lon="5.89551">
        <ele>1769.515218537</ele>
        <time>2015-05-24T14:56:31Z</time>
      </trkpt>
      <trkpt lat="45.35689" lon="5.89551">
        <ele>1769.515218537</ele>
        <time>2015-05-24T14:56:36Z</time>
      </trkpt>
      <trkpt lat="45.35689" lon="5.89551">
        <ele>1769.515218537</ele>
        <time>2015-05-24T14:56:41Z</time>
      </trkpt>
      <trkpt lat="45.35692" lon="5.89549">
        <ele>1769.515218537</ele>
        <time>2015-05-24T14:56:46Z</time>
      </trkpt>
      <trkpt lat="45.35694" lon="5.89551">
        <ele>1767.901672667</ele>
        <time>2015-05-24T14:56:51Z</time>
      </trkpt>
      <trkpt lat="45.35694" lon="5.89552">
        <ele>1767.901672667</ele>
        <time>2015-05-24T14:56:56Z</time>
      </trkpt>
      <trkpt lat="45.35694" lon="5.89553">
        <ele>1767.901672667</ele>
        <time>2015-05-24T14:57:01Z</time>
      </trkpt>
      <trkpt lat="45.35694" lon="5.89553">
        <ele>1767.901672667</ele>
        <time>2015-05-24T14:57:06Z</time>
      </trkpt>
      <trkpt lat="45.35694" lon="5.89553">
        <ele>1767.901672667</ele>
        <time>2015-05-24T14:57:11Z</time>
      </trkpt>
      <trkpt lat="45.35694" lon="5.89553">
        <ele>1767.901672667</ele>
        <time>2015-05-24T14:57:16Z</time>
      </trkpt>
      <trkpt lat="45.35694" lon="5.89553">
        <ele>1767.901672667</ele>
        <time>2015-05-24T14:57:21Z</time>
      </trkpt>
      <trkpt lat="45.35694" lon="5.89553">
        <ele>1767.901672667</ele>
        <time>2015-05-24T14:57:26Z</time>
      </trkpt>
      <trkpt lat="45.35694" lon="5.89553">
        <ele>1767.901672667</ele>
        <time>2015-05-24T14:57:31Z</time>
      </trkpt>
      <trkpt lat="45.35694" lon="5.89553">
        <ele>1767.901672667</ele>
        <time>2015-05-24T14:57:36Z</time>
      </trkpt>
      <trkpt lat="45.35694" lon="5.89553">
        <ele>1767.901672667</ele>
        <time>2015-05-24T14:57:41Z</time>
      </trkpt>
      <trkpt lat="45.35694" lon="5.89553">
        <ele>1767.901672667</ele>
        <time>2015-05-24T14:57:46Z</time>
      </trkpt>
      <trkpt lat="45.35695" lon="5.89555">
        <ele>1767.901672667</ele>
        <time>2015-05-24T14:57:51Z</time>
      </trkpt>
      <trkpt lat="45.35696" lon="5.89567">
        <ele>1766.813550933</ele>
        <time>2015-05-24T14:57:56Z</time>
      </trkpt>
      <trkpt lat="45.35699" lon="5.89562">
        <ele>1766.813550933</ele>
        <time>2015-05-24T14:58:01Z</time>
      </trkpt>
      <trkpt lat="45.357" lon="5.89561">
        <ele>1766.813550933</ele>
        <time>2015-05-24T14:58:06Z</time>
      </trkpt>
      <trkpt lat="45.35699" lon="5.89562">
        <ele>1766.813550933</ele>
        <time>2015-05-24T14:58:11Z</time>
      </trkpt>
      <trkpt lat="45.357" lon="5.89567">
        <ele>1763.617761624</ele>
        <time>2015-05-24T14:58:16Z</time>
      </trkpt>
      <trkpt lat="45.357" lon="5.89569">
        <ele>1763.617761624</ele>
        <time>2015-05-24T14:58:21Z</time>
      </trkpt>
      <trkpt lat="45.357" lon="5.89569">
        <ele>1763.617761624</ele>
        <time>2015-05-24T14:58:26Z</time>
      </trkpt>
      <trkpt lat="45.35701" lon="5.89577">
        <ele>1763.617761624</ele>
        <time>2015-05-24T14:58:31Z</time>
      </trkpt>
      <trkpt lat="45.35698" lon="5.89577">
        <ele>1759.771454583</ele>
        <time>2015-05-24T14:58:36Z</time>
      </trkpt>
      <trkpt lat="45.35695" lon="5.89575">
        <ele>1759.771454583</ele>
        <time>2015-05-24T14:58:41Z</time>
      </trkpt>
      <trkpt lat="45.35691" lon="5.89578">
        <ele>1759.771454583</ele>
        <time>2015-05-24T14:58:46Z</time>
      </trkpt>
      <trkpt lat="45.35688" lon="5.8958">
        <ele>1756.338239338</ele>
        <time>2015-05-24T14:58:51Z</time>
      </trkpt>
      <trkpt lat="45.35685" lon="5.89579">
        <ele>1756.338239338</ele>
        <time>2015-05-24T14:58:56Z</time>
      </trkpt>
      <trkpt lat="45.35684" lon="5.89577">
        <ele>1756.338239338</ele>
        <time>2015-05-24T14:59:01Z</time>
      </trkpt>
      <trkpt lat="45.35683" lon="5.89576">
        <ele>1756.338239338</ele>
        <time>2015-05-24T14:59:06Z</time>
      </trkpt>
      <trkpt lat="45.35682" lon="5.89577">
        <ele>1756.338239338</ele>
        <time>2015-05-24T14:59:11Z</time>
      </trkpt>
      <trkpt lat="45.35682" lon="5.89577">
        <ele>1756.338239338</ele>
        <time>2015-05-24T14:59:16Z</time>
      </trkpt>
      <trkpt lat="45.35676" lon="5.89576">
        <ele>1753.581771018</ele>
        <time>2015-05-24T14:59:21Z</time>
      </trkpt>
      <trkpt lat="45.3567" lon="5.89574">
        <ele>1753.581771018</ele>
        <time>2015-05-24T14:59:26Z</time>
      </trkpt>
      <trkpt lat="45.35669" lon="5.89571">
        <ele>1753.581771018</ele>
        <time>2015-05-24T14:59:31Z</time>
      </trkpt>
      <trkpt lat="45.35668" lon="5.89573">
        <ele>1751.023767549</ele>
        <time>2015-05-24T14:59:36Z</time>
      </trkpt>
      <trkpt lat="45.35666" lon="5.89572">
        <ele>1751.023767549</ele>
        <time>2015-05-24T14:59:41Z</time>
      </trkpt>
      <trkpt lat="45.35662" lon="5.89577">
        <ele>1751.023767549</ele>
        <time>2015-05-24T14:59:46Z</time>
      </trkpt>
      <trkpt lat="45.35664" lon="5.89582">
        <ele>1749.229184123</ele>
        <time>2015-05-24T14:59:51Z</time>
      </trkpt>
      <trkpt lat="45.35666" lon="5.89583">
        <ele>1749.229184123</ele>
        <time>2015-05-24T14:59:56Z</time>
      </trkpt>
      <trkpt lat="45.35667" lon="5.89587">
        <ele>1749.229184123</ele>
        <time>2015-05-24T15:00:01Z</time>
      </trkpt>
      <trkpt lat="45.35667" lon="5.89583">
        <ele>1749.229184123</ele>
        <time>2015-05-24T15:00:06Z</time>
      </trkpt>
      <trkpt lat="45.35667" lon="5.89585">
        <ele>1749.229184123</ele>
        <time>2015-05-24T15:00:11Z</time>
      </trkpt>
      <trkpt lat="45.35667" lon="5.89585">
        <ele>1747.27810309</ele>
        <time>2015-05-24T15:00:16Z</time>
      </trkpt>
      <trkpt lat="45.35668" lon="5.89586">
        <ele>1747.27810309</ele>
        <time>2015-05-24T15:00:21Z</time>
      </trkpt>
      <trkpt lat="45.35668" lon="5.89586">
        <ele>1747.27810309</ele>
        <time>2015-05-24T15:00:26Z</time>
      </trkpt>
      <trkpt lat="45.35668" lon="5.89586">
        <ele>1747.27810309</ele>
        <time>2015-05-24T15:00:31Z</time>
      </trkpt>
      <trkpt lat="45.35668" lon="5.89589">
        <ele>1747.27810309</ele>
        <time>2015-05-24T15:00:36Z</time>
      </trkpt>
      <trkpt lat="45.35667" lon="5.89588">
        <ele>1747.27810309</ele>
        <time>2015-05-24T15:00:42Z</time>
      </trkpt>
      <trkpt lat="45.35666" lon="5.89587">
        <ele>1747.27810309</ele>
        <time>2015-05-24T15:00:46Z</time>
      </trkpt>
      <trkpt lat="45.35663" lon="5.89587">
        <ele>1747.27810309</ele>
        <time>2015-05-24T15:00:51Z</time>
      </trkpt>
      <trkpt lat="45.35658" lon="5.89589">
        <ele>1744.030282754</ele>
        <time>2015-05-24T15:00:56Z</time>
      </trkpt>
      <trkpt lat="45.35652" lon="5.8959">
        <ele>1744.030282754</ele>
        <time>2015-05-24T15:01:01Z</time>
      </trkpt>
      <trkpt lat="45.35647" lon="5.89587">
        <ele>1740.162097176</ele>
        <time>2015-05-24T15:01:06Z</time>
      </trkpt>
      <trkpt lat="45.35643" lon="5.89587">
        <ele>1740.162097176</ele>
        <time>2015-05-24T15:01:11Z</time>
      </trkpt>
      <trkpt lat="45.3564" lon="5.89588">
        <ele>1740.162097176</ele>
        <time>2015-05-24T15:01:16Z</time>
      </trkpt>
      <trkpt lat="45.35637" lon="5.8959">
        <ele>1735.869520448</ele>
        <time>2015-05-24T15:01:21Z</time>
      </trkpt>
      <trkpt lat="45.35638" lon="5.89599">
        <ele>1735.869520448</ele>
        <time>2015-05-24T15:01:26Z</time>
      </trkpt>
      <trkpt lat="45.35642" lon="5.89602">
        <ele>1732.488083946</ele>
        <time>2015-05-24T15:01:31Z</time>
      </trkpt>
      <trkpt lat="45.35648" lon="5.89611">
        <ele>1732.488083946</ele>
        <time>2015-05-24T15:01:36Z</time>
      </trkpt>
      <trkpt lat="45.3565" lon="5.89612">
        <ele>1729.955522666</ele>
        <time>2015-05-24T15:01:41Z</time>
      </trkpt>
      <trkpt lat="45.35653" lon="5.89616">
        <ele>1729.955522666</ele>
        <time>2015-05-24T15:01:46Z</time>
      </trkpt>
      <trkpt lat="45.35654" lon="5.89619">
        <ele>1729.955522666</ele>
        <time>2015-05-24T15:01:51Z</time>
      </trkpt>
      <trkpt lat="45.35657" lon="5.89619">
        <ele>1726.338180758</ele>
        <time>2015-05-24T15:01:56Z</time>
      </trkpt>
      <trkpt lat="45.35661" lon="5.89628">
        <ele>1726.338180758</ele>
        <time>2015-05-24T15:02:01Z</time>
      </trkpt>
      <trkpt lat="45.35662" lon="5.89634">
        <ele>1723.450129493</ele>
        <time>2015-05-24T15:02:06Z</time>
      </trkpt>
      <trkpt lat="45.35664" lon="5.8964">
        <ele>1723.450129493</ele>
        <time>2015-05-24T15:02:11Z</time>
      </trkpt>
      <trkpt lat="45.35667" lon="5.89642">
        <ele>1723.450129493</ele>
        <time>2015-05-24T15:02:16Z</time>
      </trkpt>
      <trkpt lat="45.3567" lon="5.89648">
        <ele>1721.384772018</ele>
        <time>2015-05-24T15:02:21Z</time>
      </trkpt>
      <trkpt lat="45.35665" lon="5.89644">
        <ele>1721.384772018</ele>
        <time>2015-05-24T15:02:26Z</time>
      </trkpt>
      <trkpt lat="45.35658" lon="5.89638">
        <ele>1716.767534471</ele>
        <time>2015-05-24T15:02:31Z</time>
      </trkpt>
      <trkpt lat="45.35658" lon="5.89632">
        <ele>1716.767534471</ele>
        <time>2015-05-24T15:02:36Z</time>
      </trkpt>
      <trkpt lat="45.35657" lon="5.89631">
        <ele>1716.767534471</ele>
        <time>2015-05-24T15:02:41Z</time>
      </trkpt>
      <trkpt lat="45.35657" lon="5.89629">
        <ele>1716.767534471</ele>
        <time>2015-05-24T15:02:46Z</time>
      </trkpt>
      <trkpt lat="45.35657" lon="5.89629">
        <ele>1716.767534471</ele>
        <time>2015-05-24T15:02:51Z</time>
      </trkpt>
      <trkpt lat="45.35657" lon="5.89629">
        <ele>1716.767534471</ele>
        <time>2015-05-24T15:02:56Z</time>
      </trkpt>
      <trkpt lat="45.35657" lon="5.89629">
        <ele>1716.767534471</ele>
        <time>2015-05-24T15:03:01Z</time>
      </trkpt>
      <trkpt lat="45.35657" lon="5.89629">
        <ele>1716.767534471</ele>
        <time>2015-05-24T15:03:06Z</time>
      </trkpt>
      <trkpt lat="45.35657" lon="5.89629">
        <ele>1716.767534471</ele>
        <time>2015-05-24T15:03:11Z</time>
      </trkpt>
      <trkpt lat="45.35657" lon="5.89629">
        <ele>1716.767534471</ele>
        <time>2015-05-24T15:03:16Z</time>
      </trkpt>
      <trkpt lat="45.35652" lon="5.89629">
        <ele>1711.090309484</ele>
        <time>2015-05-24T15:03:21Z</time>
      </trkpt>
      <trkpt lat="45.35646" lon="5.89632">
        <ele>1711.090309484</ele>
        <time>2015-05-24T15:03:26Z</time>
      </trkpt>
      <trkpt lat="45.3564" lon="5.8963">
        <ele>1705.30588484</ele>
        <time>2015-05-24T15:03:31Z</time>
      </trkpt>
      <trkpt lat="45.35639" lon="5.89629">
        <ele>1705.30588484</ele>
        <time>2015-05-24T15:03:36Z</time>
      </trkpt>
      <trkpt lat="45.35641" lon="5.89624">
        <ele>1705.30588484</ele>
        <time>2015-05-24T15:03:40Z</time>
      </trkpt>
      <trkpt lat="45.35647" lon="5.89624">
        <ele>1699.864860749</ele>
        <time>2015-05-24T15:03:46Z</time>
      </trkpt>
      <trkpt lat="45.35647" lon="5.89624">
        <ele>1699.864860749</ele>
        <time>2015-05-24T15:03:51Z</time>
      </trkpt>
      <trkpt lat="45.35648" lon="5.89627">
        <ele>1699.864860749</ele>
        <time>2015-05-24T15:03:56Z</time>
      </trkpt>
      <trkpt lat="45.35652" lon="5.89636">
        <ele>1694.463037799</ele>
        <time>2015-05-24T15:04:01Z</time>
      </trkpt>
      <trkpt lat="45.35651" lon="5.8964">
        <ele>1694.463037799</ele>
        <time>2015-05-24T15:04:06Z</time>
      </trkpt>
      <trkpt lat="45.35651" lon="5.89645">
        <ele>1694.463037799</ele>
        <time>2015-05-24T15:04:11Z</time>
      </trkpt>
      <trkpt lat="45.35652" lon="5.89653">
        <ele>1689.250591949</ele>
        <time>2015-05-24T15:04:16Z</time>
      </trkpt>
      <trkpt lat="45.35651" lon="5.8965">
        <ele>1689.250591949</ele>
        <time>2015-05-24T15:04:21Z</time>
      </trkpt>
      <trkpt lat="45.35646" lon="5.89648">
        <ele>1689.250591949</ele>
        <time>2015-05-24T15:04:26Z</time>
      </trkpt>
      <trkpt lat="45.3565" lon="5.89655">
        <ele>1684.654152742</ele>
        <time>2015-05-24T15:04:31Z</time>
      </trkpt>
      <trkpt lat="45.35648" lon="5.8966">
        <ele>1684.654152742</ele>
        <time>2015-05-24T15:04:36Z</time>
      </trkpt>
      <trkpt lat="45.35641" lon="5.89658">
        <ele>1680.202401342</ele>
        <time>2015-05-24T15:04:41Z</time>
      </trkpt>
      <trkpt lat="45.3564" lon="5.89653">
        <ele>1680.202401342</ele>
        <time>2015-05-24T15:04:46Z</time>
      </trkpt>
      <trkpt lat="45.35638" lon="5.89653">
        <ele>1680.202401342</ele>
        <time>2015-05-24T15:04:51Z</time>
      </trkpt>
      <trkpt lat="45.35638" lon="5.89651">
        <ele>1680.202401342</ele>
        <time>2015-05-24T15:04:56Z</time>
      </trkpt>
      <trkpt lat="45.35638" lon="5.89645">
        <ele>1675.025683146</ele>
        <time>2015-05-24T15:05:01Z</time>
      </trkpt>
      <trkpt lat="45.35635" lon="5.89642">
        <ele>1675.025683146</ele>
        <time>2015-05-24T15:05:06Z</time>
      </trkpt>
      <trkpt lat="45.35634" lon="5.89641">
        <ele>1675.025683146</ele>
        <time>2015-05-24T15:05:11Z</time>
      </trkpt>
      <trkpt lat="45.3563" lon="5.89639">
        <ele>1669.905261456</ele>
        <time>2015-05-24T15:05:16Z</time>
      </trkpt>
      <trkpt lat="45.35624" lon="5.89644">
        <ele>1669.905261456</ele>
        <time>2015-05-24T15:05:21Z</time>
      </trkpt>
      <trkpt lat="45.35623" lon="5.89649">
        <ele>1665.70873714</ele>
        <time>2015-05-24T15:05:26Z</time>
      </trkpt>
      <trkpt lat="45.35623" lon="5.89652">
        <ele>1665.70873714</ele>
        <time>2015-05-24T15:05:31Z</time>
      </trkpt>
      <trkpt lat="45.35624" lon="5.89655">
        <ele>1665.70873714</ele>
        <time>2015-05-24T15:05:36Z</time>
      </trkpt>
      <trkpt lat="45.35624" lon="5.8966">
        <ele>1665.70873714</ele>
        <time>2015-05-24T15:05:41Z</time>
      </trkpt>
      <trkpt lat="45.35626" lon="5.89667">
        <ele>1661.075492403</ele>
        <time>2015-05-24T15:05:46Z</time>
      </trkpt>
      <trkpt lat="45.35625" lon="5.89674">
        <ele>1661.075492403</ele>
        <time>2015-05-24T15:05:51Z</time>
      </trkpt>
      <trkpt lat="45.35623" lon="5.89682">
        <ele>1656.763415575</ele>
        <time>2015-05-24T15:05:56Z</time>
      </trkpt>
      <trkpt lat="45.35626" lon="5.89682">
        <ele>1656.763415575</ele>
        <time>2015-05-24T15:06:01Z</time>
      </trkpt>
      <trkpt lat="45.35627" lon="5.89688">
        <ele>1656.763415575</ele>
        <time>2015-05-24T15:06:06Z</time>
      </trkpt>
      <trkpt lat="45.35626" lon="5.89684">
        <ele>1651.888373167</ele>
        <time>2015-05-24T15:06:11Z</time>
      </trkpt>
      <trkpt lat="45.35626" lon="5.89683">
        <ele>1651.888373167</ele>
        <time>2015-05-24T15:06:16Z</time>
      </trkpt>
      <trkpt lat="45.35625" lon="5.89683">
        <ele>1651.888373167</ele>
        <time>2015-05-24T15:06:21Z</time>
      </trkpt>
      <trkpt lat="45.35624" lon="5.89683">
        <ele>1651.888373167</ele>
        <time>2015-05-24T15:06:26Z</time>
      </trkpt>
      <trkpt lat="45.35624" lon="5.89683">
        <ele>1651.888373167</ele>
        <time>2015-05-24T15:06:31Z</time>
      </trkpt>
      <trkpt lat="45.35624" lon="5.89683">
        <ele>1651.888373167</ele>
        <time>2015-05-24T15:06:36Z</time>
      </trkpt>
      <trkpt lat="45.35624" lon="5.89683">
        <ele>1651.888373167</ele>
        <time>2015-05-24T15:06:40Z</time>
      </trkpt>
      <trkpt lat="45.35624" lon="5.89683">
        <ele>1651.888373167</ele>
        <time>2015-05-24T15:06:46Z</time>
      </trkpt>
      <trkpt lat="45.35624" lon="5.89683">
        <ele>1651.888373167</ele>
        <time>2015-05-24T15:06:50Z</time>
      </trkpt>
      <trkpt lat="45.35624" lon="5.89683">
        <ele>1651.888373167</ele>
        <time>2015-05-24T15:06:55Z</time>
      </trkpt>
      <trkpt lat="45.35624" lon="5.89683">
        <ele>1651.888373167</ele>
        <time>2015-05-24T15:07:01Z</time>
      </trkpt>
      <trkpt lat="45.35624" lon="5.89683">
        <ele>1651.888373167</ele>
        <time>2015-05-24T15:07:05Z</time>
      </trkpt>
      <trkpt lat="45.35624" lon="5.89683">
        <ele>1651.888373167</ele>
        <time>2015-05-24T15:07:11Z</time>
      </trkpt>
      <trkpt lat="45.35624" lon="5.89683">
        <ele>1651.888373167</ele>
        <time>2015-05-24T15:07:15Z</time>
      </trkpt>
      <trkpt lat="45.35624" lon="5.89683">
        <ele>1651.888373167</ele>
        <time>2015-05-24T15:07:21Z</time>
      </trkpt>
      <trkpt lat="45.35624" lon="5.89683">
        <ele>1651.888373167</ele>
        <time>2015-05-24T15:07:26Z</time>
      </trkpt>
      <trkpt lat="45.35624" lon="5.89683">
        <ele>1651.888373167</ele>
        <time>2015-05-24T15:07:31Z</time>
      </trkpt>
      <trkpt lat="45.35624" lon="5.89683">
        <ele>1651.888373167</ele>
        <time>2015-05-24T15:07:36Z</time>
      </trkpt>
      <trkpt lat="45.35624" lon="5.89683">
        <ele>1651.888373167</ele>
        <time>2015-05-24T15:07:41Z</time>
      </trkpt>
      <trkpt lat="45.3562" lon="5.89686">
        <ele>1651.888373167</ele>
        <time>2015-05-24T15:07:46Z</time>
      </trkpt>
      <trkpt lat="45.35618" lon="5.89688">
        <ele>1647.361871886</ele>
        <time>2015-05-24T15:07:51Z</time>
      </trkpt>
      <trkpt lat="45.35617" lon="5.89689">
        <ele>1647.361871886</ele>
        <time>2015-05-24T15:07:56Z</time>
      </trkpt>
      <trkpt lat="45.35617" lon="5.89687">
        <ele>1647.361871886</ele>
        <time>2015-05-24T15:08:01Z</time>
      </trkpt>
      <trkpt lat="45.35615" lon="5.89688">
        <ele>1647.361871886</ele>
        <time>2015-05-24T15:08:06Z</time>
      </trkpt>
      <trkpt lat="45.35613" lon="5.89693">
        <ele>1647.361871886</ele>
        <time>2015-05-24T15:08:11Z</time>
      </trkpt>
      <trkpt lat="45.35616" lon="5.89698">
        <ele>1643.883154362</ele>
        <time>2015-05-24T15:08:16Z</time>
      </trkpt>
      <trkpt lat="45.35617" lon="5.89696">
        <ele>1643.883154362</ele>
        <time>2015-05-24T15:08:20Z</time>
      </trkpt>
      <trkpt lat="45.35619" lon="5.89695">
        <ele>1643.883154362</ele>
        <time>2015-05-24T15:08:26Z</time>
      </trkpt>
      <trkpt lat="45.35619" lon="5.89699">
        <ele>1643.883154362</ele>
        <time>2015-05-24T15:08:31Z</time>
      </trkpt>
      <trkpt lat="45.35619" lon="5.89702">
        <ele>1643.883154362</ele>
        <time>2015-05-24T15:08:36Z</time>
      </trkpt>
      <trkpt lat="45.3562" lon="5.89704">
        <ele>1640.367613798</ele>
        <time>2015-05-24T15:08:41Z</time>
      </trkpt>
      <trkpt lat="45.3562" lon="5.89705">
        <ele>1640.367613798</ele>
        <time>2015-05-24T15:08:46Z</time>
      </trkpt>
      <trkpt lat="45.35618" lon="5.8971">
        <ele>1640.367613798</ele>
        <time>2015-05-24T15:08:51Z</time>
      </trkpt>
      <trkpt lat="45.35615" lon="5.89712">
        <ele>1640.367613798</ele>
        <time>2015-05-24T15:08:56Z</time>
      </trkpt>
      <trkpt lat="45.35617" lon="5.89715">
        <ele>1637.107220563</ele>
        <time>2015-05-24T15:09:01Z</time>
      </trkpt>
      <trkpt lat="45.35619" lon="5.8972">
        <ele>1637.107220563</ele>
        <time>2015-05-24T15:09:06Z</time>
      </trkpt>
      <trkpt lat="45.35621" lon="5.89725">
        <ele>1637.107220563</ele>
        <time>2015-05-24T15:09:11Z</time>
      </trkpt>
      <trkpt lat="45.35626" lon="5.8973">
        <ele>1633.218701324</ele>
        <time>2015-05-24T15:09:16Z</time>
      </trkpt>
      <trkpt lat="45.35626" lon="5.89738">
        <ele>1633.218701324</ele>
        <time>2015-05-24T15:09:21Z</time>
      </trkpt>
      <trkpt lat="45.35625" lon="5.89745">
        <ele>1629.326361976</ele>
        <time>2015-05-24T15:09:26Z</time>
      </trkpt>
      <trkpt lat="45.35627" lon="5.89744">
        <ele>1629.326361976</ele>
        <time>2015-05-24T15:09:31Z</time>
      </trkpt>
      <trkpt lat="45.35627" lon="5.89746">
        <ele>1629.326361976</ele>
        <time>2015-05-24T15:09:36Z</time>
      </trkpt>
      <trkpt lat="45.35625" lon="5.8975">
        <ele>1629.326361976</ele>
        <time>2015-05-24T15:09:41Z</time>
      </trkpt>
      <trkpt lat="45.35627" lon="5.89754">
        <ele>1626.00848994</ele>
        <time>2015-05-24T15:09:46Z</time>
      </trkpt>
      <trkpt lat="45.35632" lon="5.89761">
        <ele>1626.00848994</ele>
        <time>2015-05-24T15:09:51Z</time>
      </trkpt>
      <trkpt lat="45.35632" lon="5.89768">
        <ele>1622.646233701</ele>
        <time>2015-05-24T15:09:56Z</time>
      </trkpt>
      <trkpt lat="45.35632" lon="5.89776">
        <ele>1622.646233701</ele>
        <time>2015-05-24T15:10:01Z</time>
      </trkpt>
      <trkpt lat="45.35632" lon="5.89781">
        <ele>1619.67495874</ele>
        <time>2015-05-24T15:10:06Z</time>
      </trkpt>
      <trkpt lat="45.35635" lon="5.89788">
        <ele>1619.67495874</ele>
        <time>2015-05-24T15:10:11Z</time>
      </trkpt>
      <trkpt lat="45.35636" lon="5.89793">
        <ele>1616.920373998</ele>
        <time>2015-05-24T15:10:16Z</time>
      </trkpt>
      <trkpt lat="45.35637" lon="5.89798">
        <ele>1616.920373998</ele>
        <time>2015-05-24T15:10:20Z</time>
      </trkpt>
      <trkpt lat="45.35635" lon="5.89805">
        <ele>1614.364376003</ele>
        <time>2015-05-24T15:10:25Z</time>
      </trkpt>
      <trkpt lat="45.35638" lon="5.89811">
        <ele>1614.364376003</ele>
        <time>2015-05-24T15:10:30Z</time>
      </trkpt>
      <trkpt lat="45.35636" lon="5.89815">
        <ele>1614.364376003</ele>
        <time>2015-05-24T15:10:36Z</time>
      </trkpt>
      <trkpt lat="45.35636" lon="5.89816">
        <ele>1614.364376003</ele>
        <time>2015-05-24T15:10:41Z</time>
      </trkpt>
      <trkpt lat="45.35634" lon="5.89816">
        <ele>1611.9895304</ele>
        <time>2015-05-24T15:10:46Z</time>
      </trkpt>
      <trkpt lat="45.35634" lon="5.89815">
        <ele>1611.9895304</ele>
        <time>2015-05-24T15:10:51Z</time>
      </trkpt>
      <trkpt lat="45.35635" lon="5.89815">
        <ele>1611.9895304</ele>
        <time>2015-05-24T15:10:56Z</time>
      </trkpt>
      <trkpt lat="45.35635" lon="5.89815">
        <ele>1611.9895304</ele>
        <time>2015-05-24T15:11:01Z</time>
      </trkpt>
      <trkpt lat="45.35635" lon="5.89815">
        <ele>1611.9895304</ele>
        <time>2015-05-24T15:11:06Z</time>
      </trkpt>
      <trkpt lat="45.35635" lon="5.89815">
        <ele>1611.9895304</ele>
        <time>2015-05-24T15:11:11Z</time>
      </trkpt>
      <trkpt lat="45.35635" lon="5.89815">
        <ele>1611.9895304</ele>
        <time>2015-05-24T15:11:16Z</time>
      </trkpt>
      <trkpt lat="45.35635" lon="5.89815">
        <ele>1611.9895304</ele>
        <time>2015-05-24T15:11:21Z</time>
      </trkpt>
      <trkpt lat="45.35635" lon="5.89815">
        <ele>1611.9895304</ele>
        <time>2015-05-24T15:11:26Z</time>
      </trkpt>
      <trkpt lat="45.35635" lon="5.89815">
        <ele>1611.9895304</ele>
        <time>2015-05-24T15:11:31Z</time>
      </trkpt>
      <trkpt lat="45.35637" lon="5.89818">
        <ele>1611.9895304</ele>
        <time>2015-05-24T15:11:36Z</time>
      </trkpt>
      <trkpt lat="45.35636" lon="5.89818">
        <ele>1611.9895304</ele>
        <time>2015-05-24T15:11:41Z</time>
      </trkpt>
      <trkpt lat="45.35637" lon="5.89817">
        <ele>1611.9895304</ele>
        <time>2015-05-24T15:11:46Z</time>
      </trkpt>
      <trkpt lat="45.35641" lon="5.89827">
        <ele>1609.202642442</ele>
        <time>2015-05-24T15:11:51Z</time>
      </trkpt>
      <trkpt lat="45.35643" lon="5.89837">
        <ele>1609.202642442</ele>
        <time>2015-05-24T15:11:56Z</time>
      </trkpt>
      <trkpt lat="45.35643" lon="5.89835">
        <ele>1606.752176842</ele>
        <time>2015-05-24T15:12:01Z</time>
      </trkpt>
      <trkpt lat="45.35642" lon="5.89835">
        <ele>1606.752176842</ele>
        <time>2015-05-24T15:12:06Z</time>
      </trkpt>
      <trkpt lat="45.35642" lon="5.89835">
        <ele>1606.752176842</ele>
        <time>2015-05-24T15:12:11Z</time>
      </trkpt>
      <trkpt lat="45.35642" lon="5.89835">
        <ele>1606.752176842</ele>
        <time>2015-05-24T15:12:16Z</time>
      </trkpt>
      <trkpt lat="45.35637" lon="5.89837">
        <ele>1606.752176842</ele>
        <time>2015-05-24T15:12:21Z</time>
      </trkpt>
      <trkpt lat="45.35634" lon="5.89836">
        <ele>1604.321836825</ele>
        <time>2015-05-24T15:12:26Z</time>
      </trkpt>
      <trkpt lat="45.35629" lon="5.89832">
        <ele>1604.321836825</ele>
        <time>2015-05-24T15:12:31Z</time>
      </trkpt>
      <trkpt lat="45.35625" lon="5.89829">
        <ele>1602.050794195</ele>
        <time>2015-05-24T15:12:36Z</time>
      </trkpt>
      <trkpt lat="45.35624" lon="5.89835">
        <ele>1602.050794195</ele>
        <time>2015-05-24T15:12:41Z</time>
      </trkpt>
      <trkpt lat="45.35626" lon="5.8984">
        <ele>1602.050794195</ele>
        <time>2015-05-24T15:12:46Z</time>
      </trkpt>
      <trkpt lat="45.35631" lon="5.89849">
        <ele>1599.635186966</ele>
        <time>2015-05-24T15:12:51Z</time>
      </trkpt>
      <trkpt lat="45.35638" lon="5.89853">
        <ele>1599.635186966</ele>
        <time>2015-05-24T15:12:56Z</time>
      </trkpt>
      <trkpt lat="45.3564" lon="5.89857">
        <ele>1598.090865492</ele>
        <time>2015-05-24T15:13:01Z</time>
      </trkpt>
      <trkpt lat="45.35641" lon="5.89864">
        <ele>1598.090865492</ele>
        <time>2015-05-24T15:13:06Z</time>
      </trkpt>
      <trkpt lat="45.35639" lon="5.89866">
        <ele>1598.090865492</ele>
        <time>2015-05-24T15:13:11Z</time>
      </trkpt>
      <trkpt lat="45.35637" lon="5.89866">
        <ele>1596.194943656</ele>
        <time>2015-05-24T15:13:16Z</time>
      </trkpt>
      <trkpt lat="45.35636" lon="5.89867">
        <ele>1596.194943656</ele>
        <time>2015-05-24T15:13:21Z</time>
      </trkpt>
      <trkpt lat="45.35636" lon="5.89867">
        <ele>1596.194943656</ele>
        <time>2015-05-24T15:13:26Z</time>
      </trkpt>
      <trkpt lat="45.35636" lon="5.89867">
        <ele>1596.194943656</ele>
        <time>2015-05-24T15:13:31Z</time>
      </trkpt>
      <trkpt lat="45.35636" lon="5.89869">
        <ele>1596.194943656</ele>
        <time>2015-05-24T15:13:35Z</time>
      </trkpt>
      <trkpt lat="45.35637" lon="5.89872">
        <ele>1596.194943656</ele>
        <time>2015-05-24T15:13:41Z</time>
      </trkpt>
      <trkpt lat="45.35637" lon="5.89878">
        <ele>1594.688813434</ele>
        <time>2015-05-24T15:13:45Z</time>
      </trkpt>
      <trkpt lat="45.35638" lon="5.89879">
        <ele>1594.688813434</ele>
        <time>2015-05-24T15:13:50Z</time>
      </trkpt>
      <trkpt lat="45.35639" lon="5.89879">
        <ele>1594.688813434</ele>
        <time>2015-05-24T15:13:56Z</time>
      </trkpt>
      <trkpt lat="45.35642" lon="5.89883">
        <ele>1594.688813434</ele>
        <time>2015-05-24T15:14:01Z</time>
      </trkpt>
      <trkpt lat="45.35641" lon="5.89889">
        <ele>1593.681896622</ele>
        <time>2015-05-24T15:14:06Z</time>
      </trkpt>
      <trkpt lat="45.35645" lon="5.89893">
        <ele>1593.681896622</ele>
        <time>2015-05-24T15:14:11Z</time>
      </trkpt>
      <trkpt lat="45.35645" lon="5.89895">
        <ele>1593.681896622</ele>
        <time>2015-05-24T15:14:16Z</time>
      </trkpt>
      <trkpt lat="45.35644" lon="5.89897">
        <ele>1593.681896622</ele>
        <time>2015-05-24T15:14:21Z</time>
      </trkpt>
      <trkpt lat="45.35645" lon="5.89904">
        <ele>1591.688998888</ele>
        <time>2015-05-24T15:14:26Z</time>
      </trkpt>
      <trkpt lat="45.35646" lon="5.89908">
        <ele>1591.688998888</ele>
        <time>2015-05-24T15:14:31Z</time>
      </trkpt>
      <trkpt lat="45.35646" lon="5.89911">
        <ele>1591.688998888</ele>
        <time>2015-05-24T15:14:36Z</time>
      </trkpt>
      <trkpt lat="45.35644" lon="5.8991">
        <ele>1591.688998888</ele>
        <time>2015-05-24T15:14:41Z</time>
      </trkpt>
      <trkpt lat="45.35643" lon="5.89917">
        <ele>1589.642630885</ele>
        <time>2015-05-24T15:14:46Z</time>
      </trkpt>
      <trkpt lat="45.3564" lon="5.89921">
        <ele>1589.642630885</ele>
        <time>2015-05-24T15:14:51Z</time>
      </trkpt>
      <trkpt lat="45.35639" lon="5.89928">
        <ele>1587.68646661</ele>
        <time>2015-05-24T15:14:56Z</time>
      </trkpt>
      <trkpt lat="45.3564" lon="5.89934">
        <ele>1587.68646661</ele>
        <time>2015-05-24T15:15:01Z</time>
      </trkpt>
      <trkpt lat="45.35639" lon="5.89941">
        <ele>1586.385787905</ele>
        <time>2015-05-24T15:15:06Z</time>
      </trkpt>
      <trkpt lat="45.35635" lon="5.89941">
        <ele>1586.385787905</ele>
        <time>2015-05-24T15:15:10Z</time>
      </trkpt>
      <trkpt lat="45.35631" lon="5.89944">
        <ele>1586.385787905</ele>
        <time>2015-05-24T15:15:15Z</time>
      </trkpt>
      <trkpt lat="45.35629" lon="5.89943">
        <ele>1584.965602702</ele>
        <time>2015-05-24T15:15:21Z</time>
      </trkpt>
      <trkpt lat="45.35625" lon="5.89945">
        <ele>1584.965602702</ele>
        <time>2015-05-24T15:15:26Z</time>
      </trkpt>
      <trkpt lat="45.35626" lon="5.89946">
        <ele>1584.965602702</ele>
        <time>2015-05-24T15:15:31Z</time>
      </trkpt>
      <trkpt lat="45.35627" lon="5.89946">
        <ele>1584.965602702</ele>
        <time>2015-05-24T15:15:36Z</time>
      </trkpt>
      <trkpt lat="45.35627" lon="5.89946">
        <ele>1584.965602702</ele>
        <time>2015-05-24T15:15:41Z</time>
      </trkpt>
      <trkpt lat="45.35627" lon="5.89946">
        <ele>1584.965602702</ele>
        <time>2015-05-24T15:15:46Z</time>
      </trkpt>
      <trkpt lat="45.35627" lon="5.89946">
        <ele>1584.965602702</ele>
        <time>2015-05-24T15:15:51Z</time>
      </trkpt>
      <trkpt lat="45.35628" lon="5.8995">
        <ele>1583.428840379</ele>
        <time>2015-05-24T15:15:56Z</time>
      </trkpt>
      <trkpt lat="45.35627" lon="5.89958">
        <ele>1583.428840379</ele>
        <time>2015-05-24T15:16:01Z</time>
      </trkpt>
      <trkpt lat="45.35625" lon="5.89963">
        <ele>1582.355096768</ele>
        <time>2015-05-24T15:16:06Z</time>
      </trkpt>
      <trkpt lat="45.35621" lon="5.8997">
        <ele>1582.355096768</ele>
        <time>2015-05-24T15:16:11Z</time>
      </trkpt>
      <trkpt lat="45.35621" lon="5.89973">
        <ele>1582.355096768</ele>
        <time>2015-05-24T15:16:16Z</time>
      </trkpt>
      <trkpt lat="45.35618" lon="5.89977">
        <ele>1581.127322342</ele>
        <time>2015-05-24T15:16:21Z</time>
      </trkpt>
      <trkpt lat="45.3562" lon="5.89976">
        <ele>1581.127322342</ele>
        <time>2015-05-24T15:16:26Z</time>
      </trkpt>
      <trkpt lat="45.35621" lon="5.89979">
        <ele>1581.127322342</ele>
        <time>2015-05-24T15:16:31Z</time>
      </trkpt>
      <trkpt lat="45.35621" lon="5.8998">
        <ele>1581.127322342</ele>
        <time>2015-05-24T15:16:36Z</time>
      </trkpt>
      <trkpt lat="45.35623" lon="5.89981">
        <ele>1581.127322342</ele>
        <time>2015-05-24T15:16:41Z</time>
      </trkpt>
      <trkpt lat="45.35623" lon="5.89981">
        <ele>1581.127322342</ele>
        <time>2015-05-24T15:16:46Z</time>
      </trkpt>
      <trkpt lat="45.35623" lon="5.89981">
        <ele>1581.127322342</ele>
        <time>2015-05-24T15:16:50Z</time>
      </trkpt>
      <trkpt lat="45.35624" lon="5.89993">
        <ele>1579.894912204</ele>
        <time>2015-05-24T15:16:55Z</time>
      </trkpt>
      <trkpt lat="45.35624" lon="5.90007">
        <ele>1578.5082143</ele>
        <time>2015-05-24T15:17:00Z</time>
      </trkpt>
      <trkpt lat="45.35624" lon="5.90021">
        <ele>1577.117368849</ele>
        <time>2015-05-24T15:17:06Z</time>
      </trkpt>
      <trkpt lat="45.35624" lon="5.90032">
        <ele>1577.117368849</ele>
        <time>2015-05-24T15:17:11Z</time>
      </trkpt>
      <trkpt lat="45.35624" lon="5.90042">
        <ele>1576.005759518</ele>
        <time>2015-05-24T15:17:16Z</time>
      </trkpt>
      <trkpt lat="45.35625" lon="5.90047">
        <ele>1576.005759518</ele>
        <time>2015-05-24T15:17:21Z</time>
      </trkpt>
      <trkpt lat="45.35629" lon="5.90053">
        <ele>1575.002991199</ele>
        <time>2015-05-24T15:17:26Z</time>
      </trkpt>
      <trkpt lat="45.35628" lon="5.90059">
        <ele>1575.002991199</ele>
        <time>2015-05-24T15:17:31Z</time>
      </trkpt>
      <trkpt lat="45.35632" lon="5.90063">
        <ele>1575.002991199</ele>
        <time>2015-05-24T15:17:36Z</time>
      </trkpt>
      <trkpt lat="45.35639" lon="5.90069">
        <ele>1573.086372289</ele>
        <time>2015-05-24T15:17:41Z</time>
      </trkpt>
      <trkpt lat="45.35649" lon="5.90077">
        <ele>1570.319838772</ele>
        <time>2015-05-24T15:17:46Z</time>
      </trkpt>
      <trkpt lat="45.35651" lon="5.90088">
        <ele>1570.319838772</ele>
        <time>2015-05-24T15:17:51Z</time>
      </trkpt>
      <trkpt lat="45.35658" lon="5.90085">
        <ele>1567.91806144</ele>
        <time>2015-05-24T15:17:56Z</time>
      </trkpt>
      <trkpt lat="45.35658" lon="5.90095">
        <ele>1567.91806144</ele>
        <time>2015-05-24T15:18:01Z</time>
      </trkpt>
      <trkpt lat="45.35663" lon="5.90094">
        <ele>1565.132166068</ele>
        <time>2015-05-24T15:18:06Z</time>
      </trkpt>
      <trkpt lat="45.35664" lon="5.901">
        <ele>1565.132166068</ele>
        <time>2015-05-24T15:18:11Z</time>
      </trkpt>
      <trkpt lat="45.35669" lon="5.90106">
        <ele>1562.422401454</ele>
        <time>2015-05-24T15:18:16Z</time>
      </trkpt>
      <trkpt lat="45.35669" lon="5.90104">
        <ele>1562.422401454</ele>
        <time>2015-05-24T15:18:21Z</time>
      </trkpt>
      <trkpt lat="45.35671" lon="5.90109">
        <ele>1562.422401454</ele>
        <time>2015-05-24T15:18:26Z</time>
      </trkpt>
      <trkpt lat="45.35671" lon="5.90123">
        <ele>1559.206349382</ele>
        <time>2015-05-24T15:18:31Z</time>
      </trkpt>
      <trkpt lat="45.3567" lon="5.90139">
        <ele>1556.81936657</ele>
        <time>2015-05-24T15:18:36Z</time>
      </trkpt>
      <trkpt lat="45.35677" lon="5.90138">
        <ele>1556.81936657</ele>
        <time>2015-05-24T15:18:41Z</time>
      </trkpt>
      <trkpt lat="45.35679" lon="5.90143">
        <ele>1554.190726795</ele>
        <time>2015-05-24T15:18:46Z</time>
      </trkpt>
      <trkpt lat="45.35682" lon="5.90148">
        <ele>1554.190726795</ele>
        <time>2015-05-24T15:18:51Z</time>
      </trkpt>
      <trkpt lat="45.35685" lon="5.90156">
        <ele>1551.770256204</ele>
        <time>2015-05-24T15:18:56Z</time>
      </trkpt>
      <trkpt lat="45.35684" lon="5.90158">
        <ele>1551.770256204</ele>
        <time>2015-05-24T15:19:00Z</time>
      </trkpt>
      <trkpt lat="45.35684" lon="5.90161">
        <ele>1551.770256204</ele>
        <time>2015-05-24T15:19:05Z</time>
      </trkpt>
      <trkpt lat="45.35684" lon="5.90163">
        <ele>1551.770256204</ele>
        <time>2015-05-24T15:19:10Z</time>
      </trkpt>
      <trkpt lat="45.35684" lon="5.90163">
        <ele>1551.770256204</ele>
        <time>2015-05-24T15:19:15Z</time>
      </trkpt>
      <trkpt lat="45.35684" lon="5.90163">
        <ele>1551.770256204</ele>
        <time>2015-05-24T15:19:20Z</time>
      </trkpt>
      <trkpt lat="45.35684" lon="5.90163">
        <ele>1551.770256204</ele>
        <time>2015-05-24T15:19:25Z</time>
      </trkpt>
      <trkpt lat="45.35684" lon="5.90163">
        <ele>1551.770256204</ele>
        <time>2015-05-24T15:19:30Z</time>
      </trkpt>
      <trkpt lat="45.35684" lon="5.90163">
        <ele>1551.770256204</ele>
        <time>2015-05-24T15:19:37Z</time>
      </trkpt>
      <trkpt lat="45.35684" lon="5.90163">
        <ele>1551.770256204</ele>
        <time>2015-05-24T15:19:41Z</time>
      </trkpt>
      <trkpt lat="45.35684" lon="5.90163">
        <ele>1551.770256204</ele>
        <time>2015-05-24T15:19:46Z</time>
      </trkpt>
      <trkpt lat="45.35684" lon="5.90163">
        <ele>1551.770256204</ele>
        <time>2015-05-24T15:19:51Z</time>
      </trkpt>
      <trkpt lat="45.35678" lon="5.90166">
        <ele>1549.974254845</ele>
        <time>2015-05-24T15:19:56Z</time>
      </trkpt>
      <trkpt lat="45.35671" lon="5.90165">
        <ele>1549.974254845</ele>
        <time>2015-05-24T15:20:01Z</time>
      </trkpt>
      <trkpt lat="45.35667" lon="5.90164">
        <ele>1547.457452405</ele>
        <time>2015-05-24T15:20:05Z</time>
      </trkpt>
      <trkpt lat="45.3566" lon="5.90167">
        <ele>1547.457452405</ele>
        <time>2015-05-24T15:20:12Z</time>
      </trkpt>
      <trkpt lat="45.35654" lon="5.90162">
        <ele>1544.41662606</ele>
        <time>2015-05-24T15:20:16Z</time>
      </trkpt>
      <trkpt lat="45.3565" lon="5.90164">
        <ele>1544.41662606</ele>
        <time>2015-05-24T15:20:21Z</time>
      </trkpt>
      <trkpt lat="45.35644" lon="5.90168">
        <ele>1540.89154075</ele>
        <time>2015-05-24T15:20:26Z</time>
      </trkpt>
      <trkpt lat="45.35638" lon="5.90171">
        <ele>1540.89154075</ele>
        <time>2015-05-24T15:20:31Z</time>
      </trkpt>
      <trkpt lat="45.35636" lon="5.90171">
        <ele>1540.89154075</ele>
        <time>2015-05-24T15:20:36Z</time>
      </trkpt>
      <trkpt lat="45.35633" lon="5.9017">
        <ele>1537.064584458</ele>
        <time>2015-05-24T15:20:41Z</time>
      </trkpt>
      <trkpt lat="45.35627" lon="5.90173">
        <ele>1537.064584458</ele>
        <time>2015-05-24T15:20:46Z</time>
      </trkpt>
      <trkpt lat="45.35622" lon="5.90174">
        <ele>1533.393878528</ele>
        <time>2015-05-24T15:20:51Z</time>
      </trkpt>
      <trkpt lat="45.35615" lon="5.90173">
        <ele>1533.393878528</ele>
        <time>2015-05-24T15:20:56Z</time>
      </trkpt>
      <trkpt lat="45.35616" lon="5.90171">
        <ele>1533.393878528</ele>
        <time>2015-05-24T15:21:01Z</time>
      </trkpt>
      <trkpt lat="45.35614" lon="5.90172">
        <ele>1529.582945355</ele>
        <time>2015-05-24T15:21:06Z</time>
      </trkpt>
      <trkpt lat="45.35613" lon="5.90172">
        <ele>1529.582945355</ele>
        <time>2015-05-24T15:21:11Z</time>
      </trkpt>
      <trkpt lat="45.35613" lon="5.90172">
        <ele>1529.582945355</ele>
        <time>2015-05-24T15:21:16Z</time>
      </trkpt>
      <trkpt lat="45.35608" lon="5.90175">
        <ele>1529.582945355</ele>
        <time>2015-05-24T15:21:21Z</time>
      </trkpt>
      <trkpt lat="45.35601" lon="5.90174">
        <ele>1525.501625011</ele>
        <time>2015-05-24T15:21:26Z</time>
      </trkpt>
      <trkpt lat="45.35597" lon="5.90172">
        <ele>1525.501625011</ele>
        <time>2015-05-24T15:21:31Z</time>
      </trkpt>
      <trkpt lat="45.35591" lon="5.90169">
        <ele>1520.741873887</ele>
        <time>2015-05-24T15:21:36Z</time>
      </trkpt>
      <trkpt lat="45.35582" lon="5.90168">
        <ele>1520.741873887</ele>
        <time>2015-05-24T15:21:41Z</time>
      </trkpt>
      <trkpt lat="45.35577" lon="5.90172">
        <ele>1516.800975655</ele>
        <time>2015-05-24T15:21:46Z</time>
      </trkpt>
      <trkpt lat="45.35571" lon="5.90174">
        <ele>1516.800975655</ele>
        <time>2015-05-24T15:21:51Z</time>
      </trkpt>
      <trkpt lat="45.35562" lon="5.90172">
        <ele>1512.758138387</ele>
        <time>2015-05-24T15:21:56Z</time>
      </trkpt>
      <trkpt lat="45.35555" lon="5.90169">
        <ele>1512.758138387</ele>
        <time>2015-05-24T15:22:01Z</time>
      </trkpt>
      <trkpt lat="45.3555" lon="5.90169">
        <ele>1508.048694347</ele>
        <time>2015-05-24T15:22:06Z</time>
      </trkpt>
      <trkpt lat="45.35547" lon="5.9017">
        <ele>1508.048694347</ele>
        <time>2015-05-24T15:22:11Z</time>
      </trkpt>
      <trkpt lat="45.35544" lon="5.90171">
        <ele>1508.048694347</ele>
        <time>2015-05-24T15:22:16Z</time>
      </trkpt>
      <trkpt lat="45.35536" lon="5.90173">
        <ele>1503.736510674</ele>
        <time>2015-05-24T15:22:21Z</time>
      </trkpt>
      <trkpt lat="45.35532" lon="5.90171">
        <ele>1503.736510674</ele>
        <time>2015-05-24T15:22:25Z</time>
      </trkpt>
      <trkpt lat="45.35524" lon="5.90175">
        <ele>1499.653249917</ele>
        <time>2015-05-24T15:22:32Z</time>
      </trkpt>
      <trkpt lat="45.35516" lon="5.90175">
        <ele>1499.653249917</ele>
        <time>2015-05-24T15:22:36Z</time>
      </trkpt>
      <trkpt lat="45.3551" lon="5.90174">
        <ele>1495.93046067</ele>
        <time>2015-05-24T15:22:41Z</time>
      </trkpt>
      <trkpt lat="45.35503" lon="5.90174">
        <ele>1495.93046067</ele>
        <time>2015-05-24T15:22:46Z</time>
      </trkpt>
      <trkpt lat="45.35497" lon="5.90173">
        <ele>1491.968392012</ele>
        <time>2015-05-24T15:22:51Z</time>
      </trkpt>
      <trkpt lat="45.35498" lon="5.90171">
        <ele>1491.968392012</ele>
        <time>2015-05-24T15:22:56Z</time>
      </trkpt>
      <trkpt lat="45.35498" lon="5.90171">
        <ele>1491.968392012</ele>
        <time>2015-05-24T15:23:01Z</time>
      </trkpt>
      <trkpt lat="45.35494" lon="5.90174">
        <ele>1491.968392012</ele>
        <time>2015-05-24T15:23:06Z</time>
      </trkpt>
      <trkpt lat="45.35493" lon="5.90177">
        <ele>1491.968392012</ele>
        <time>2015-05-24T15:23:11Z</time>
      </trkpt>
      <trkpt lat="45.35492" lon="5.90181">
        <ele>1486.923721833</ele>
        <time>2015-05-24T15:23:16Z</time>
      </trkpt>
      <trkpt lat="45.35491" lon="5.90182">
        <ele>1486.923721833</ele>
        <time>2015-05-24T15:23:21Z</time>
      </trkpt>
      <trkpt lat="45.35489" lon="5.90187">
        <ele>1486.923721833</ele>
        <time>2015-05-24T15:23:26Z</time>
      </trkpt>
      <trkpt lat="45.35485" lon="5.90196">
        <ele>1482.035585619</ele>
        <time>2015-05-24T15:23:31Z</time>
      </trkpt>
      <trkpt lat="45.35484" lon="5.90204">
        <ele>1482.035585619</ele>
        <time>2015-05-24T15:23:36Z</time>
      </trkpt>
      <trkpt lat="45.35483" lon="5.90212">
        <ele>1477.442780853</ele>
        <time>2015-05-24T15:23:41Z</time>
      </trkpt>
      <trkpt lat="45.35482" lon="5.90221">
        <ele>1477.442780853</ele>
        <time>2015-05-24T15:23:46Z</time>
      </trkpt>
      <trkpt lat="45.35481" lon="5.90229">
        <ele>1473.417088497</ele>
        <time>2015-05-24T15:23:51Z</time>
      </trkpt>
      <trkpt lat="45.35478" lon="5.90237">
        <ele>1473.417088497</ele>
        <time>2015-05-24T15:23:56Z</time>
      </trkpt>
      <trkpt lat="45.35476" lon="5.90243">
        <ele>1469.488067365</ele>
        <time>2015-05-24T15:24:00Z</time>
      </trkpt>
      <trkpt lat="45.35474" lon="5.90244">
        <ele>1469.488067365</ele>
        <time>2015-05-24T15:24:05Z</time>
      </trkpt>
      <trkpt lat="45.35475" lon="5.90244">
        <ele>1469.488067365</ele>
        <time>2015-05-24T15:24:10Z</time>
      </trkpt>
      <trkpt lat="45.35475" lon="5.90244">
        <ele>1469.488067365</ele>
        <time>2015-05-24T15:24:15Z</time>
      </trkpt>
      <trkpt lat="45.35475" lon="5.90244">
        <ele>1469.488067365</ele>
        <time>2015-05-24T15:24:20Z</time>
      </trkpt>
      <trkpt lat="45.35475" lon="5.90244">
        <ele>1469.488067365</ele>
        <time>2015-05-24T15:24:25Z</time>
      </trkpt>
      <trkpt lat="45.35475" lon="5.90244">
        <ele>1469.488067365</ele>
        <time>2015-05-24T15:24:30Z</time>
      </trkpt>
      <trkpt lat="45.35474" lon="5.90243">
        <ele>1469.488067365</ele>
        <time>2015-05-24T15:24:35Z</time>
      </trkpt>
      <trkpt lat="45.35473" lon="5.90246">
        <ele>1469.488067365</ele>
        <time>2015-05-24T15:24:40Z</time>
      </trkpt>
      <trkpt lat="45.35473" lon="5.90252">
        <ele>1465.651782217</ele>
        <time>2015-05-24T15:24:46Z</time>
      </trkpt>
      <trkpt lat="45.35473" lon="5.90262">
        <ele>1465.651782217</ele>
        <time>2015-05-24T15:24:51Z</time>
      </trkpt>
      <trkpt lat="45.35476" lon="5.90268">
        <ele>1462.336544812</ele>
        <time>2015-05-24T15:24:56Z</time>
      </trkpt>
      <trkpt lat="45.35477" lon="5.90275">
        <ele>1462.336544812</ele>
        <time>2015-05-24T15:25:01Z</time>
      </trkpt>
      <trkpt lat="45.35477" lon="5.90279">
        <ele>1462.336544812</ele>
        <time>2015-05-24T15:25:06Z</time>
      </trkpt>
      <trkpt lat="45.35475" lon="5.90279">
        <ele>1458.784738028</ele>
        <time>2015-05-24T15:25:10Z</time>
      </trkpt>
      <trkpt lat="45.35475" lon="5.90279">
        <ele>1458.784738028</ele>
        <time>2015-05-24T15:25:15Z</time>
      </trkpt>
      <trkpt lat="45.35474" lon="5.90278">
        <ele>1458.784738028</ele>
        <time>2015-05-24T15:25:20Z</time>
      </trkpt>
      <trkpt lat="45.35473" lon="5.90278">
        <ele>1458.784738028</ele>
        <time>2015-05-24T15:25:25Z</time>
      </trkpt>
      <trkpt lat="45.35472" lon="5.90275">
        <ele>1458.784738028</ele>
        <time>2015-05-24T15:25:30Z</time>
      </trkpt>
      <trkpt lat="45.35473" lon="5.90273">
        <ele>1458.784738028</ele>
        <time>2015-05-24T15:25:35Z</time>
      </trkpt>
      <trkpt lat="45.35473" lon="5.90273">
        <ele>1458.784738028</ele>
        <time>2015-05-24T15:25:40Z</time>
      </trkpt>
      <trkpt lat="45.35471" lon="5.90274">
        <ele>1458.784738028</ele>
        <time>2015-05-24T15:25:45Z</time>
      </trkpt>
      <trkpt lat="45.35472" lon="5.90277">
        <ele>1456.312508827</ele>
        <time>2015-05-24T15:25:52Z</time>
      </trkpt>
      <trkpt lat="45.35465" lon="5.90275">
        <ele>1456.312508827</ele>
        <time>2015-05-24T15:25:56Z</time>
      </trkpt>
      <trkpt lat="45.35468" lon="5.90275">
        <ele>1456.312508827</ele>
        <time>2015-05-24T15:26:01Z</time>
      </trkpt>
      <trkpt lat="45.35467" lon="5.90276">
        <ele>1454.695078518</ele>
        <time>2015-05-24T15:26:06Z</time>
      </trkpt>
      <trkpt lat="45.35467" lon="5.90276">
        <ele>1454.695078518</ele>
        <time>2015-05-24T15:26:11Z</time>
      </trkpt>
      <trkpt lat="45.35467" lon="5.90276">
        <ele>1454.695078518</ele>
        <time>2015-05-24T15:26:16Z</time>
      </trkpt>
      <trkpt lat="45.35467" lon="5.90276">
        <ele>1454.695078518</ele>
        <time>2015-05-24T15:26:21Z</time>
      </trkpt>
      <trkpt lat="45.35467" lon="5.90276">
        <ele>1454.695078518</ele>
        <time>2015-05-24T15:26:25Z</time>
      </trkpt>
      <trkpt lat="45.35467" lon="5.90276">
        <ele>1454.695078518</ele>
        <time>2015-05-24T15:26:31Z</time>
      </trkpt>
      <trkpt lat="45.35467" lon="5.90276">
        <ele>1454.695078518</ele>
        <time>2015-05-24T15:26:35Z</time>
      </trkpt>
      <trkpt lat="45.35467" lon="5.90277">
        <ele>1454.695078518</ele>
        <time>2015-05-24T15:26:40Z</time>
      </trkpt>
      <trkpt lat="45.35467" lon="5.90277">
        <ele>1454.695078518</ele>
        <time>2015-05-24T15:26:46Z</time>
      </trkpt>
      <trkpt lat="45.35467" lon="5.90277">
        <ele>1454.695078518</ele>
        <time>2015-05-24T15:26:50Z</time>
      </trkpt>
      <trkpt lat="45.35467" lon="5.90277">
        <ele>1454.695078518</ele>
        <time>2015-05-24T15:26:56Z</time>
      </trkpt>
      <trkpt lat="45.35467" lon="5.90277">
        <ele>1454.695078518</ele>
        <time>2015-05-24T15:27:01Z</time>
      </trkpt>
      <trkpt lat="45.35467" lon="5.90277">
        <ele>1454.695078518</ele>
        <time>2015-05-24T15:27:06Z</time>
      </trkpt>
      <trkpt lat="45.35467" lon="5.90277">
        <ele>1454.695078518</ele>
        <time>2015-05-24T15:27:11Z</time>
      </trkpt>
      <trkpt lat="45.35467" lon="5.90277">
        <ele>1454.695078518</ele>
        <time>2015-05-24T15:27:16Z</time>
      </trkpt>
      <trkpt lat="45.35467" lon="5.90277">
        <ele>1454.695078518</ele>
        <time>2015-05-24T15:27:21Z</time>
      </trkpt>
      <trkpt lat="45.35467" lon="5.90277">
        <ele>1454.695078518</ele>
        <time>2015-05-24T15:27:26Z</time>
      </trkpt>
      <trkpt lat="45.35467" lon="5.90277">
        <ele>1454.695078518</ele>
        <time>2015-05-24T15:27:31Z</time>
      </trkpt>
      <trkpt lat="45.35467" lon="5.90277">
        <ele>1454.695078518</ele>
        <time>2015-05-24T15:27:36Z</time>
      </trkpt>
      <trkpt lat="45.35467" lon="5.90277">
        <ele>1454.695078518</ele>
        <time>2015-05-24T15:27:41Z</time>
      </trkpt>
      <trkpt lat="45.35467" lon="5.90277">
        <ele>1454.695078518</ele>
        <time>2015-05-24T15:27:46Z</time>
      </trkpt>
      <trkpt lat="45.35468" lon="5.90276">
        <ele>1454.695078518</ele>
        <time>2015-05-24T15:27:51Z</time>
      </trkpt>
      <trkpt lat="45.35469" lon="5.90278">
        <ele>1454.695078518</ele>
        <time>2015-05-24T15:27:56Z</time>
      </trkpt>
      <trkpt lat="45.35471" lon="5.90287">
        <ele>1453.289358598</ele>
        <time>2015-05-24T15:28:01Z</time>
      </trkpt>
      <trkpt lat="45.35475" lon="5.90291">
        <ele>1453.289358598</ele>
        <time>2015-05-24T15:28:06Z</time>
      </trkpt>
      <trkpt lat="45.35484" lon="5.90296">
        <ele>1450.922385631</ele>
        <time>2015-05-24T15:28:11Z</time>
      </trkpt>
      <trkpt lat="45.35484" lon="5.90296">
        <ele>1450.922385631</ele>
        <time>2015-05-24T15:28:15Z</time>
      </trkpt>
      <trkpt lat="45.35484" lon="5.90296">
        <ele>1450.922385631</ele>
        <time>2015-05-24T15:28:20Z</time>
      </trkpt>
      <trkpt lat="45.35484" lon="5.90296">
        <ele>1450.922385631</ele>
        <time>2015-05-24T15:28:25Z</time>
      </trkpt>
      <trkpt lat="45.35486" lon="5.90294">
        <ele>1450.922385631</ele>
        <time>2015-05-24T15:28:30Z</time>
      </trkpt>
      <trkpt lat="45.35489" lon="5.90293">
        <ele>1450.922385631</ele>
        <time>2015-05-24T15:28:35Z</time>
      </trkpt>
      <trkpt lat="45.35493" lon="5.90288">
        <ele>1448.671663166</ele>
        <time>2015-05-24T15:28:40Z</time>
      </trkpt>
      <trkpt lat="45.35493" lon="5.90284">
        <ele>1448.671663166</ele>
        <time>2015-05-24T15:28:45Z</time>
      </trkpt>
      <trkpt lat="45.35499" lon="5.90282">
        <ele>1448.671663166</ele>
        <time>2015-05-24T15:28:50Z</time>
      </trkpt>
      <trkpt lat="45.35499" lon="5.90284">
        <ele>1446.670500737</ele>
        <time>2015-05-24T15:28:55Z</time>
      </trkpt>
      <trkpt lat="45.35505" lon="5.9028">
        <ele>1446.670500737</ele>
        <time>2015-05-24T15:29:00Z</time>
      </trkpt>
      <trkpt lat="45.35509" lon="5.90281">
        <ele>1444.897568252</ele>
        <time>2015-05-24T15:29:05Z</time>
      </trkpt>
      <trkpt lat="45.35512" lon="5.90282">
        <ele>1444.897568252</ele>
        <time>2015-05-24T15:29:10Z</time>
      </trkpt>
      <trkpt lat="45.35516" lon="5.90291">
        <ele>1443.620661424</ele>
        <time>2015-05-24T15:29:15Z</time>
      </trkpt>
      <trkpt lat="45.35516" lon="5.90294">
        <ele>1443.620661424</ele>
        <time>2015-05-24T15:29:20Z</time>
      </trkpt>
      <trkpt lat="45.35515" lon="5.90295">
        <ele>1443.620661424</ele>
        <time>2015-05-24T15:29:25Z</time>
      </trkpt>
      <trkpt lat="45.35518" lon="5.90299">
        <ele>1443.620661424</ele>
        <time>2015-05-24T15:29:30Z</time>
      </trkpt>
      <trkpt lat="45.35519" lon="5.90298">
        <ele>1443.620661424</ele>
        <time>2015-05-24T15:29:35Z</time>
      </trkpt>
      <trkpt lat="45.35519" lon="5.90304">
        <ele>1442.077723812</ele>
        <time>2015-05-24T15:29:40Z</time>
      </trkpt>
      <trkpt lat="45.35518" lon="5.9031">
        <ele>1442.077723812</ele>
        <time>2015-05-24T15:29:45Z</time>
      </trkpt>
      <trkpt lat="45.3552" lon="5.90316">
        <ele>1440.428095259</ele>
        <time>2015-05-24T15:29:50Z</time>
      </trkpt>
      <trkpt lat="45.35522" lon="5.90319">
        <ele>1440.428095259</ele>
        <time>2015-05-24T15:29:55Z</time>
      </trkpt>
      <trkpt lat="45.35523" lon="5.90321">
        <ele>1440.428095259</ele>
        <time>2015-05-24T15:30:00Z</time>
      </trkpt>
      <trkpt lat="45.35523" lon="5.90323">
        <ele>1440.428095259</ele>
        <time>2015-05-24T15:30:05Z</time>
      </trkpt>
      <trkpt lat="45.35523" lon="5.90323">
        <ele>1440.428095259</ele>
        <time>2015-05-24T15:30:10Z</time>
      </trkpt>
      <trkpt lat="45.35523" lon="5.90323">
        <ele>1440.428095259</ele>
        <time>2015-05-24T15:30:15Z</time>
      </trkpt>
      <trkpt lat="45.35523" lon="5.90323">
        <ele>1440.428095259</ele>
        <time>2015-05-24T15:30:20Z</time>
      </trkpt>
      <trkpt lat="45.35523" lon="5.90323">
        <ele>1440.428095259</ele>
        <time>2015-05-24T15:30:25Z</time>
      </trkpt>
      <trkpt lat="45.35527" lon="5.90327">
        <ele>1437.95505696</ele>
        <time>2015-05-24T15:30:30Z</time>
      </trkpt>
      <trkpt lat="45.35537" lon="5.90332">
        <ele>1436.014430299</ele>
        <time>2015-05-24T15:30:35Z</time>
      </trkpt>
      <trkpt lat="45.35546" lon="5.90342">
        <ele>1433.987531884</ele>
        <time>2015-05-24T15:30:40Z</time>
      </trkpt>
      <trkpt lat="45.35551" lon="5.90345">
        <ele>1433.987531884</ele>
        <time>2015-05-24T15:30:45Z</time>
      </trkpt>
      <trkpt lat="45.35556" lon="5.90351">
        <ele>1433.030742225</ele>
        <time>2015-05-24T15:30:50Z</time>
      </trkpt>
      <trkpt lat="45.35564" lon="5.90358">
        <ele>1433.030742225</ele>
        <time>2015-05-24T15:30:55Z</time>
      </trkpt>
      <trkpt lat="45.35568" lon="5.90362">
        <ele>1431.76265067</ele>
        <time>2015-05-24T15:31:00Z</time>
      </trkpt>
      <trkpt lat="45.35575" lon="5.90362">
        <ele>1431.76265067</ele>
        <time>2015-05-24T15:31:05Z</time>
      </trkpt>
      <trkpt lat="45.35578" lon="5.90366">
        <ele>1430.05714321</ele>
        <time>2015-05-24T15:31:10Z</time>
      </trkpt>
      <trkpt lat="45.35583" lon="5.9037">
        <ele>1430.05714321</ele>
        <time>2015-05-24T15:31:15Z</time>
      </trkpt>
      <trkpt lat="45.35587" lon="5.90371">
        <ele>1428.375106965</ele>
        <time>2015-05-24T15:31:20Z</time>
      </trkpt>
      <trkpt lat="45.35591" lon="5.90373">
        <ele>1428.375106965</ele>
        <time>2015-05-24T15:31:25Z</time>
      </trkpt>
      <trkpt lat="45.35596" lon="5.90381">
        <ele>1426.134800529</ele>
        <time>2015-05-24T15:31:30Z</time>
      </trkpt>
      <trkpt lat="45.356" lon="5.90384">
        <ele>1426.134800529</ele>
        <time>2015-05-24T15:31:35Z</time>
      </trkpt>
      <trkpt lat="45.35603" lon="5.90388">
        <ele>1426.134800529</ele>
        <time>2015-05-24T15:31:40Z</time>
      </trkpt>
      <trkpt lat="45.35611" lon="5.904">
        <ele>1423.951748518</ele>
        <time>2015-05-24T15:31:45Z</time>
      </trkpt>
      <trkpt lat="45.35617" lon="5.90412">
        <ele>1421.96384394</ele>
        <time>2015-05-24T15:31:50Z</time>
      </trkpt>
      <trkpt lat="45.35622" lon="5.90401">
        <ele>1419.721937555</ele>
        <time>2015-05-24T15:31:55Z</time>
      </trkpt>
      <trkpt lat="45.35627" lon="5.90404">
        <ele>1419.721937555</ele>
        <time>2015-05-24T15:32:01Z</time>
      </trkpt>
      <trkpt lat="45.35631" lon="5.9041">
        <ele>1421.278119021</ele>
        <time>2015-05-24T15:32:05Z</time>
      </trkpt>
      <trkpt lat="45.35633" lon="5.90429">
        <ele>1420.288469801</ele>
        <time>2015-05-24T15:32:10Z</time>
      </trkpt>
      <trkpt lat="45.35638" lon="5.90435">
        <ele>1420.288469801</ele>
        <time>2015-05-24T15:32:15Z</time>
      </trkpt>
      <trkpt lat="45.35644" lon="5.90437">
        <ele>1417.655557785</ele>
        <time>2015-05-24T15:32:20Z</time>
      </trkpt>
      <trkpt lat="45.35647" lon="5.9044">
        <ele>1417.655557785</ele>
        <time>2015-05-24T15:32:25Z</time>
      </trkpt>
      <trkpt lat="45.3565" lon="5.90447">
        <ele>1417.655557785</ele>
        <time>2015-05-24T15:32:30Z</time>
      </trkpt>
      <trkpt lat="45.35652" lon="5.90457">
        <ele>1414.364473765</ele>
        <time>2015-05-24T15:32:35Z</time>
      </trkpt>
      <trkpt lat="45.35653" lon="5.90461">
        <ele>1414.364473765</ele>
        <time>2015-05-24T15:32:40Z</time>
      </trkpt>
      <trkpt lat="45.3565" lon="5.90479">
        <ele>1411.474006466</ele>
        <time>2015-05-24T15:32:46Z</time>
      </trkpt>
      <trkpt lat="45.35654" lon="5.90488">
        <ele>1411.474006466</ele>
        <time>2015-05-24T15:32:50Z</time>
      </trkpt>
      <trkpt lat="45.35654" lon="5.90497">
        <ele>1408.811251084</ele>
        <time>2015-05-24T15:32:55Z</time>
      </trkpt>
      <trkpt lat="45.35654" lon="5.90506">
        <ele>1408.811251084</ele>
        <time>2015-05-24T15:33:00Z</time>
      </trkpt>
      <trkpt lat="45.35658" lon="5.90513">
        <ele>1405.92723132</ele>
        <time>2015-05-24T15:33:05Z</time>
      </trkpt>
      <trkpt lat="45.35661" lon="5.90518">
        <ele>1405.92723132</ele>
        <time>2015-05-24T15:33:10Z</time>
      </trkpt>
      <trkpt lat="45.35664" lon="5.90517">
        <ele>1405.92723132</ele>
        <time>2015-05-24T15:33:15Z</time>
      </trkpt>
      <trkpt lat="45.35667" lon="5.90525">
        <ele>1402.262539781</ele>
        <time>2015-05-24T15:33:20Z</time>
      </trkpt>
      <trkpt lat="45.35669" lon="5.9053">
        <ele>1402.262539781</ele>
        <time>2015-05-24T15:33:25Z</time>
      </trkpt>
      <trkpt lat="45.35671" lon="5.90532">
        <ele>1402.262539781</ele>
        <time>2015-05-24T15:33:30Z</time>
      </trkpt>
      <trkpt lat="45.35675" lon="5.90569">
        <ele>1397.301118122</ele>
        <time>2015-05-24T15:33:45Z</time>
      </trkpt>
      <trkpt lat="45.35681" lon="5.90567">
        <ele>1397.301118122</ele>
        <time>2015-05-24T15:33:50Z</time>
      </trkpt>
      <trkpt lat="45.35683" lon="5.90578">
        <ele>1392.58606185</ele>
        <time>2015-05-24T15:33:55Z</time>
      </trkpt>
      <trkpt lat="45.35686" lon="5.90581">
        <ele>1392.58606185</ele>
        <time>2015-05-24T15:34:00Z</time>
      </trkpt>
      <trkpt lat="45.35694" lon="5.90583">
        <ele>1387.817118797</ele>
        <time>2015-05-24T15:34:05Z</time>
      </trkpt>
      <trkpt lat="45.35699" lon="5.90584">
        <ele>1387.817118797</ele>
        <time>2015-05-24T15:34:10Z</time>
      </trkpt>
      <trkpt lat="45.35704" lon="5.90588">
        <ele>1383.86914735</ele>
        <time>2015-05-24T15:34:15Z</time>
      </trkpt>
      <trkpt lat="45.35712" lon="5.90588">
        <ele>1383.86914735</ele>
        <time>2015-05-24T15:34:20Z</time>
      </trkpt>
      <trkpt lat="45.35719" lon="5.9059">
        <ele>1379.821098244</ele>
        <time>2015-05-24T15:34:25Z</time>
      </trkpt>
      <trkpt lat="45.35721" lon="5.906">
        <ele>1379.821098244</ele>
        <time>2015-05-24T15:34:30Z</time>
      </trkpt>
      <trkpt lat="45.35722" lon="5.90614">
        <ele>1375.972733818</ele>
        <time>2015-05-24T15:34:35Z</time>
      </trkpt>
      <trkpt lat="45.35725" lon="5.90619">
        <ele>1375.972733818</ele>
        <time>2015-05-24T15:34:40Z</time>
      </trkpt>
      <trkpt lat="45.35724" lon="5.90631">
        <ele>1372.168872783</ele>
        <time>2015-05-24T15:34:45Z</time>
      </trkpt>
      <trkpt lat="45.35728" lon="5.90641">
        <ele>1372.168872783</ele>
        <time>2015-05-24T15:34:50Z</time>
      </trkpt>
      <trkpt lat="45.35726" lon="5.90651">
        <ele>1368.409681157</ele>
        <time>2015-05-24T15:34:55Z</time>
      </trkpt>
      <trkpt lat="45.35728" lon="5.90661">
        <ele>1368.409681157</ele>
        <time>2015-05-24T15:35:00Z</time>
      </trkpt>
      <trkpt lat="45.35729" lon="5.90664">
        <ele>1364.983364084</ele>
        <time>2015-05-24T15:35:05Z</time>
      </trkpt>
      <trkpt lat="45.35734" lon="5.90675">
        <ele>1361.579525608</ele>
        <time>2015-05-24T15:35:10Z</time>
      </trkpt>
      <trkpt lat="45.35741" lon="5.90679">
        <ele>1361.579525608</ele>
        <time>2015-05-24T15:35:15Z</time>
      </trkpt>
      <trkpt lat="45.35744" lon="5.90687">
        <ele>1358.198675255</ele>
        <time>2015-05-24T15:35:20Z</time>
      </trkpt>
      <trkpt lat="45.35748" lon="5.90693">
        <ele>1358.198675255</ele>
        <time>2015-05-24T15:35:25Z</time>
      </trkpt>
      <trkpt lat="45.35753" lon="5.90698">
        <ele>1354.985274014</ele>
        <time>2015-05-24T15:35:30Z</time>
      </trkpt>
      <trkpt lat="45.35757" lon="5.90708">
        <ele>1354.985274014</ele>
        <time>2015-05-24T15:35:36Z</time>
      </trkpt>
      <trkpt lat="45.35762" lon="5.90709">
        <ele>1351.928531078</ele>
        <time>2015-05-24T15:35:40Z</time>
      </trkpt>
      <trkpt lat="45.35763" lon="5.90723">
        <ele>1348.441504379</ele>
        <time>2015-05-24T15:35:46Z</time>
      </trkpt>
      <trkpt lat="45.35768" lon="5.90726">
        <ele>1348.441504379</ele>
        <time>2015-05-24T15:35:51Z</time>
      </trkpt>
      <trkpt lat="45.3577" lon="5.90725">
        <ele>1348.441504379</ele>
        <time>2015-05-24T15:35:55Z</time>
      </trkpt>
      <trkpt lat="45.35772" lon="5.90731">
        <ele>1345.278516025</ele>
        <time>2015-05-24T15:36:01Z</time>
      </trkpt>
      <trkpt lat="45.35776" lon="5.90739">
        <ele>1345.278516025</ele>
        <time>2015-05-24T15:36:06Z</time>
      </trkpt>
      <trkpt lat="45.35784" lon="5.90749">
        <ele>1342.128729337</ele>
        <time>2015-05-24T15:36:11Z</time>
      </trkpt>
      <trkpt lat="45.35789" lon="5.90746">
        <ele>1342.128729337</ele>
        <time>2015-05-24T15:36:16Z</time>
      </trkpt>
      <trkpt lat="45.35791" lon="5.90743">
        <ele>1342.128729337</ele>
        <time>2015-05-24T15:36:20Z</time>
      </trkpt>
      <trkpt lat="45.35797" lon="5.9075">
        <ele>1338.12759928</ele>
        <time>2015-05-24T15:36:25Z</time>
      </trkpt>
      <trkpt lat="45.35799" lon="5.90758">
        <ele>1338.12759928</ele>
        <time>2015-05-24T15:36:30Z</time>
      </trkpt>
      <trkpt lat="45.35802" lon="5.90764">
        <ele>1333.773415611</ele>
        <time>2015-05-24T15:36:35Z</time>
      </trkpt>
      <trkpt lat="45.35801" lon="5.90764">
        <ele>1333.773415611</ele>
        <time>2015-05-24T15:36:40Z</time>
      </trkpt>
      <trkpt lat="45.358" lon="5.90764">
        <ele>1333.773415611</ele>
        <time>2015-05-24T15:36:45Z</time>
      </trkpt>
      <trkpt lat="45.358" lon="5.90763">
        <ele>1333.773415611</ele>
        <time>2015-05-24T15:36:50Z</time>
      </trkpt>
      <trkpt lat="45.358" lon="5.90763">
        <ele>1333.773415611</ele>
        <time>2015-05-24T15:36:55Z</time>
      </trkpt>
      <trkpt lat="45.35801" lon="5.90763">
        <ele>1333.773415611</ele>
        <time>2015-05-24T15:37:00Z</time>
      </trkpt>
      <trkpt lat="45.35801" lon="5.90766">
        <ele>1333.773415611</ele>
        <time>2015-05-24T15:37:05Z</time>
      </trkpt>
      <trkpt lat="45.35801" lon="5.90767">
        <ele>1333.773415611</ele>
        <time>2015-05-24T15:37:10Z</time>
      </trkpt>
      <trkpt lat="45.35801" lon="5.90767">
        <ele>1333.773415611</ele>
        <time>2015-05-24T15:37:15Z</time>
      </trkpt>
      <trkpt lat="45.35801" lon="5.90767">
        <ele>1333.773415611</ele>
        <time>2015-05-24T15:37:25Z</time>
      </trkpt>
      <trkpt lat="45.358" lon="5.90766">
        <ele>1333.773415611</ele>
        <time>2015-05-24T15:37:31Z</time>
      </trkpt>
      <trkpt lat="45.358" lon="5.90766">
        <ele>1333.773415611</ele>
        <time>2015-05-24T15:37:35Z</time>
      </trkpt>
      <trkpt lat="45.358" lon="5.90765">
        <ele>1329.38467647</ele>
        <time>2015-05-24T15:37:40Z</time>
      </trkpt>
      <trkpt lat="45.358" lon="5.90766">
        <ele>1329.38467647</ele>
        <time>2015-05-24T15:37:45Z</time>
      </trkpt>
      <trkpt lat="45.358" lon="5.90766">
        <ele>1329.38467647</ele>
        <time>2015-05-24T15:37:50Z</time>
      </trkpt>
      <trkpt lat="45.358" lon="5.90766">
        <ele>1329.38467647</ele>
        <time>2015-05-24T15:37:55Z</time>
      </trkpt>
      <trkpt lat="45.358" lon="5.90766">
        <ele>1329.38467647</ele>
        <time>2015-05-24T15:38:00Z</time>
      </trkpt>
      <trkpt lat="45.358" lon="5.90766">
        <ele>1329.38467647</ele>
        <time>2015-05-24T15:38:05Z</time>
      </trkpt>
      <trkpt lat="45.358" lon="5.90766">
        <ele>1329.38467647</ele>
        <time>2015-05-24T15:38:10Z</time>
      </trkpt>
      <trkpt lat="45.358" lon="5.90766">
        <ele>1329.38467647</ele>
        <time>2015-05-24T15:38:15Z</time>
      </trkpt>
      <trkpt lat="45.358" lon="5.90766">
        <ele>1329.38467647</ele>
        <time>2015-05-24T15:38:20Z</time>
      </trkpt>
      <trkpt lat="45.358" lon="5.90766">
        <ele>1329.38467647</ele>
        <time>2015-05-24T15:38:25Z</time>
      </trkpt>
      <trkpt lat="45.358" lon="5.90766">
        <ele>1329.38467647</ele>
        <time>2015-05-24T15:38:30Z</time>
      </trkpt>
      <trkpt lat="45.35806" lon="5.90781">
        <ele>1327.274067933</ele>
        <time>2015-05-24T15:38:45Z</time>
      </trkpt>
      <trkpt lat="45.35809" lon="5.90786">
        <ele>1327.274067933</ele>
        <time>2015-05-24T15:38:50Z</time>
      </trkpt>
      <trkpt lat="45.3581" lon="5.90787">
        <ele>1327.274067933</ele>
        <time>2015-05-24T15:38:55Z</time>
      </trkpt>
      <trkpt lat="45.35812" lon="5.90786">
        <ele>1327.274067933</ele>
        <time>2015-05-24T15:39:00Z</time>
      </trkpt>
      <trkpt lat="45.35813" lon="5.90787">
        <ele>1324.678147165</ele>
        <time>2015-05-24T15:39:05Z</time>
      </trkpt>
      <trkpt lat="45.35815" lon="5.90791">
        <ele>1324.678147165</ele>
        <time>2015-05-24T15:39:10Z</time>
      </trkpt>
      <trkpt lat="45.35815" lon="5.90797">
        <ele>1324.678147165</ele>
        <time>2015-05-24T15:39:15Z</time>
      </trkpt>
      <trkpt lat="45.35812" lon="5.908">
        <ele>1321.919989415</ele>
        <time>2015-05-24T15:39:20Z</time>
      </trkpt>
      <trkpt lat="45.3581" lon="5.90803">
        <ele>1321.919989415</ele>
        <time>2015-05-24T15:39:25Z</time>
      </trkpt>
      <trkpt lat="45.35809" lon="5.90809">
        <ele>1321.919989415</ele>
        <time>2015-05-24T15:39:30Z</time>
      </trkpt>
      <trkpt lat="45.3581" lon="5.9081">
        <ele>1321.919989415</ele>
        <time>2015-05-24T15:39:35Z</time>
      </trkpt>
      <trkpt lat="45.35811" lon="5.90809">
        <ele>1321.919989415</ele>
        <time>2015-05-24T15:39:40Z</time>
      </trkpt>
      <trkpt lat="45.35811" lon="5.90809">
        <ele>1319.731664659</ele>
        <time>2015-05-24T15:39:45Z</time>
      </trkpt>
      <trkpt lat="45.35811" lon="5.90809">
        <ele>1319.731664659</ele>
        <time>2015-05-24T15:39:50Z</time>
      </trkpt>
      <trkpt lat="45.35808" lon="5.90812">
        <ele>1319.731664659</ele>
        <time>2015-05-24T15:39:55Z</time>
      </trkpt>
      <trkpt lat="45.35809" lon="5.90815">
        <ele>1319.731664659</ele>
        <time>2015-05-24T15:40:01Z</time>
      </trkpt>
      <trkpt lat="45.35806" lon="5.90819">
        <ele>1317.060479899</ele>
        <time>2015-05-24T15:40:05Z</time>
      </trkpt>
      <trkpt lat="45.35807" lon="5.90823">
        <ele>1317.060479899</ele>
        <time>2015-05-24T15:40:10Z</time>
      </trkpt>
      <trkpt lat="45.35809" lon="5.90829">
        <ele>1317.060479899</ele>
        <time>2015-05-24T15:40:15Z</time>
      </trkpt>
      <trkpt lat="45.35809" lon="5.90832">
        <ele>1313.941158391</ele>
        <time>2015-05-24T15:40:21Z</time>
      </trkpt>
      <trkpt lat="45.35812" lon="5.90838">
        <ele>1313.941158391</ele>
        <time>2015-05-24T15:40:26Z</time>
      </trkpt>
      <trkpt lat="45.35812" lon="5.90845">
        <ele>1310.695310507</ele>
        <time>2015-05-24T15:40:30Z</time>
      </trkpt>
      <trkpt lat="45.35808" lon="5.90848">
        <ele>1310.695310507</ele>
        <time>2015-05-24T15:40:35Z</time>
      </trkpt>
      <trkpt lat="45.35808" lon="5.90854">
        <ele>1310.695310507</ele>
        <time>2015-05-24T15:40:40Z</time>
      </trkpt>
      <trkpt lat="45.35808" lon="5.90858">
        <ele>1307.188904204</ele>
        <time>2015-05-24T15:40:46Z</time>
      </trkpt>
      <trkpt lat="45.35805" lon="5.9086">
        <ele>1307.188904204</ele>
        <time>2015-05-24T15:40:50Z</time>
      </trkpt>
      <trkpt lat="45.35803" lon="5.90867">
        <ele>1307.188904204</ele>
        <time>2015-05-24T15:40:55Z</time>
      </trkpt>
      <trkpt lat="45.35807" lon="5.90871">
        <ele>1304.163114381</ele>
        <time>2015-05-24T15:41:00Z</time>
      </trkpt>
      <trkpt lat="45.35809" lon="5.90874">
        <ele>1304.163114381</ele>
        <time>2015-05-24T15:41:07Z</time>
      </trkpt>
      <trkpt lat="45.35812" lon="5.90877">
        <ele>1304.163114381</ele>
        <time>2015-05-24T15:41:10Z</time>
      </trkpt>
      <trkpt lat="45.35813" lon="5.90886">
        <ele>1300.57395036</ele>
        <time>2015-05-24T15:41:16Z</time>
      </trkpt>
      <trkpt lat="45.3581" lon="5.90894">
        <ele>1300.57395036</ele>
        <time>2015-05-24T15:41:22Z</time>
      </trkpt>
      <trkpt lat="45.35814" lon="5.90901">
        <ele>1297.473212535</ele>
        <time>2015-05-24T15:41:26Z</time>
      </trkpt>
      <trkpt lat="45.35817" lon="5.90912">
        <ele>1297.473212535</ele>
        <time>2015-05-24T15:41:30Z</time>
      </trkpt>
      <trkpt lat="45.35819" lon="5.90913">
        <ele>1294.681141634</ele>
        <time>2015-05-24T15:41:35Z</time>
      </trkpt>
      <trkpt lat="45.3582" lon="5.90915">
        <ele>1294.681141634</ele>
        <time>2015-05-24T15:41:40Z</time>
      </trkpt>
      <trkpt lat="45.35821" lon="5.90915">
        <ele>1294.681141634</ele>
        <time>2015-05-24T15:41:45Z</time>
      </trkpt>
      <trkpt lat="45.3582" lon="5.90917">
        <ele>1294.681141634</ele>
        <time>2015-05-24T15:41:50Z</time>
      </trkpt>
      <trkpt lat="45.35819" lon="5.90916">
        <ele>1294.681141634</ele>
        <time>2015-05-24T15:41:55Z</time>
      </trkpt>
      <trkpt lat="45.35819" lon="5.90917">
        <ele>1294.681141634</ele>
        <time>2015-05-24T15:42:00Z</time>
      </trkpt>
      <trkpt lat="45.35819" lon="5.90917">
        <ele>1294.681141634</ele>
        <time>2015-05-24T15:42:05Z</time>
      </trkpt>
      <trkpt lat="45.35819" lon="5.90917">
        <ele>1294.681141634</ele>
        <time>2015-05-24T15:42:10Z</time>
      </trkpt>
      <trkpt lat="45.35819" lon="5.90917">
        <ele>1294.681141634</ele>
        <time>2015-05-24T15:42:15Z</time>
      </trkpt>
      <trkpt lat="45.35819" lon="5.90917">
        <ele>1294.681141634</ele>
        <time>2015-05-24T15:42:21Z</time>
      </trkpt>
      <trkpt lat="45.35823" lon="5.90921">
        <ele>1294.681141634</ele>
        <time>2015-05-24T15:42:26Z</time>
      </trkpt>
      <trkpt lat="45.35832" lon="5.9093">
        <ele>1291.742061471</ele>
        <time>2015-05-24T15:42:31Z</time>
      </trkpt>
      <trkpt lat="45.35837" lon="5.90935">
        <ele>1291.742061471</ele>
        <time>2015-05-24T15:42:35Z</time>
      </trkpt>
      <trkpt lat="45.3584" lon="5.9094">
        <ele>1287.657704068</ele>
        <time>2015-05-24T15:42:41Z</time>
      </trkpt>
      <trkpt lat="45.35844" lon="5.90946">
        <ele>1287.657704068</ele>
        <time>2015-05-24T15:42:46Z</time>
      </trkpt>
      <trkpt lat="45.35843" lon="5.90957">
        <ele>1284.532649349</ele>
        <time>2015-05-24T15:42:51Z</time>
      </trkpt>
      <trkpt lat="45.35848" lon="5.90963">
        <ele>1284.532649349</ele>
        <time>2015-05-24T15:42:56Z</time>
      </trkpt>
      <trkpt lat="45.35848" lon="5.90972">
        <ele>1281.720153489</ele>
        <time>2015-05-24T15:43:00Z</time>
      </trkpt>
      <trkpt lat="45.35842" lon="5.90977">
        <ele>1281.720153489</ele>
        <time>2015-05-24T15:43:05Z</time>
      </trkpt>
      <trkpt lat="45.3584" lon="5.90972">
        <ele>1278.908298285</ele>
        <time>2015-05-24T15:43:10Z</time>
      </trkpt>
      <trkpt lat="45.3584" lon="5.90973">
        <ele>1278.908298285</ele>
        <time>2015-05-24T15:43:15Z</time>
      </trkpt>
      <trkpt lat="45.35841" lon="5.90972">
        <ele>1278.908298285</ele>
        <time>2015-05-24T15:43:20Z</time>
      </trkpt>
      <trkpt lat="45.35841" lon="5.90972">
        <ele>1278.908298285</ele>
        <time>2015-05-24T15:43:25Z</time>
      </trkpt>
      <trkpt lat="45.35841" lon="5.90972">
        <ele>1278.908298285</ele>
        <time>2015-05-24T15:43:30Z</time>
      </trkpt>
      <trkpt lat="45.3584" lon="5.90972">
        <ele>1278.908298285</ele>
        <time>2015-05-24T15:43:45Z</time>
      </trkpt>
      <trkpt lat="45.3584" lon="5.90973">
        <ele>1278.908298285</ele>
        <time>2015-05-24T15:43:51Z</time>
      </trkpt>
      <trkpt lat="45.35841" lon="5.90978">
        <ele>1278.908298285</ele>
        <time>2015-05-24T15:43:56Z</time>
      </trkpt>
      <trkpt lat="45.35845" lon="5.90982">
        <ele>1276.240383615</ele>
        <time>2015-05-24T15:44:00Z</time>
      </trkpt>
      <trkpt lat="45.35845" lon="5.90983">
        <ele>1276.240383615</ele>
        <time>2015-05-24T15:44:05Z</time>
      </trkpt>
      <trkpt lat="45.35845" lon="5.90982">
        <ele>1276.240383615</ele>
        <time>2015-05-24T15:44:10Z</time>
      </trkpt>
      <trkpt lat="45.35844" lon="5.90982">
        <ele>1276.240383615</ele>
        <time>2015-05-24T15:44:15Z</time>
      </trkpt>
      <trkpt lat="45.35843" lon="5.90983">
        <ele>1276.240383615</ele>
        <time>2015-05-24T15:44:20Z</time>
      </trkpt>
      <trkpt lat="45.35843" lon="5.90983">
        <ele>1276.240383615</ele>
        <time>2015-05-24T15:44:25Z</time>
      </trkpt>
      <trkpt lat="45.35843" lon="5.90983">
        <ele>1276.240383615</ele>
        <time>2015-05-24T15:44:30Z</time>
      </trkpt>
      <trkpt lat="45.35844" lon="5.90983">
        <ele>1276.240383615</ele>
        <time>2015-05-24T15:44:35Z</time>
      </trkpt>
      <trkpt lat="45.35844" lon="5.90983">
        <ele>1276.240383615</ele>
        <time>2015-05-24T15:44:40Z</time>
      </trkpt>
      <trkpt lat="45.35845" lon="5.90999">
        <ele>1274.136979587</ele>
        <time>2015-05-24T15:44:45Z</time>
      </trkpt>
      <trkpt lat="45.35849" lon="5.91008">
        <ele>1274.136979587</ele>
        <time>2015-05-24T15:44:50Z</time>
      </trkpt>
      <trkpt lat="45.35849" lon="5.91018">
        <ele>1271.97738451</ele>
        <time>2015-05-24T15:44:55Z</time>
      </trkpt>
      <trkpt lat="45.35852" lon="5.91022">
        <ele>1271.97738451</ele>
        <time>2015-05-24T15:45:00Z</time>
      </trkpt>
      <trkpt lat="45.35852" lon="5.91031">
        <ele>1269.042530348</ele>
        <time>2015-05-24T15:45:05Z</time>
      </trkpt>
      <trkpt lat="45.35853" lon="5.91037">
        <ele>1269.042530348</ele>
        <time>2015-05-24T15:45:10Z</time>
      </trkpt>
      <trkpt lat="45.35853" lon="5.91041">
        <ele>1269.042530348</ele>
        <time>2015-05-24T15:45:15Z</time>
      </trkpt>
      <trkpt lat="45.35856" lon="5.91048">
        <ele>1266.541788659</ele>
        <time>2015-05-24T15:45:20Z</time>
      </trkpt>
      <trkpt lat="45.35856" lon="5.91055">
        <ele>1266.541788659</ele>
        <time>2015-05-24T15:45:25Z</time>
      </trkpt>
      <trkpt lat="45.35856" lon="5.91064">
        <ele>1264.585699168</ele>
        <time>2015-05-24T15:45:30Z</time>
      </trkpt>
      <trkpt lat="45.35858" lon="5.91072">
        <ele>1264.585699168</ele>
        <time>2015-05-24T15:45:35Z</time>
      </trkpt>
      <trkpt lat="45.3586" lon="5.91077">
        <ele>1263.41927598</ele>
        <time>2015-05-24T15:45:40Z</time>
      </trkpt>
      <trkpt lat="45.35865" lon="5.91076">
        <ele>1263.41927598</ele>
        <time>2015-05-24T15:45:45Z</time>
      </trkpt>
      <trkpt lat="45.35867" lon="5.91085">
        <ele>1260.961558599</ele>
        <time>2015-05-24T15:45:50Z</time>
      </trkpt>
      <trkpt lat="45.35872" lon="5.91093">
        <ele>1260.961558599</ele>
        <time>2015-05-24T15:45:55Z</time>
      </trkpt>
      <trkpt lat="45.35876" lon="5.91096">
        <ele>1258.458546206</ele>
        <time>2015-05-24T15:46:00Z</time>
      </trkpt>
      <trkpt lat="45.35877" lon="5.91103">
        <ele>1258.458546206</ele>
        <time>2015-05-24T15:46:06Z</time>
      </trkpt>
      <trkpt lat="45.35882" lon="5.91104">
        <ele>1255.767865741</ele>
        <time>2015-05-24T15:46:11Z</time>
      </trkpt>
      <trkpt lat="45.35886" lon="5.91106">
        <ele>1255.767865741</ele>
        <time>2015-05-24T15:46:17Z</time>
      </trkpt>
      <trkpt lat="45.3589" lon="5.91113">
        <ele>1253.334609657</ele>
        <time>2015-05-24T15:46:21Z</time>
      </trkpt>
      <trkpt lat="45.35893" lon="5.91121">
        <ele>1253.334609657</ele>
        <time>2015-05-24T15:46:26Z</time>
      </trkpt>
      <trkpt lat="45.35897" lon="5.91123">
        <ele>1250.849933705</ele>
        <time>2015-05-24T15:46:30Z</time>
      </trkpt>
      <trkpt lat="45.35901" lon="5.91126">
        <ele>1250.849933705</ele>
        <time>2015-05-24T15:46:35Z</time>
      </trkpt>
      <trkpt lat="45.35906" lon="5.9113">
        <ele>1249.180755222</ele>
        <time>2015-05-24T15:46:40Z</time>
      </trkpt>
      <trkpt lat="45.35909" lon="5.91131">
        <ele>1249.180755222</ele>
        <time>2015-05-24T15:46:47Z</time>
      </trkpt>
      <trkpt lat="45.35912" lon="5.91134">
        <ele>1249.180755222</ele>
        <time>2015-05-24T15:46:50Z</time>
      </trkpt>
      <trkpt lat="45.35916" lon="5.91135">
        <ele>1247.831065005</ele>
        <time>2015-05-24T15:46:56Z</time>
      </trkpt>
      <trkpt lat="45.35925" lon="5.91139">
        <ele>1246.340445106</ele>
        <time>2015-05-24T15:47:01Z</time>
      </trkpt>
      <trkpt lat="45.35926" lon="5.91144">
        <ele>1246.340445106</ele>
        <time>2015-05-24T15:47:06Z</time>
      </trkpt>
      <trkpt lat="45.35927" lon="5.91142">
        <ele>1246.340445106</ele>
        <time>2015-05-24T15:47:10Z</time>
      </trkpt>
      <trkpt lat="45.3593" lon="5.91148">
        <ele>1244.282752407</ele>
        <time>2015-05-24T15:47:15Z</time>
      </trkpt>
      <trkpt lat="45.35936" lon="5.91145">
        <ele>1244.282752407</ele>
        <time>2015-05-24T15:47:20Z</time>
      </trkpt>
      <trkpt lat="45.35941" lon="5.9114">
        <ele>1242.417692445</ele>
        <time>2015-05-24T15:47:25Z</time>
      </trkpt>
      <trkpt lat="45.35944" lon="5.91142">
        <ele>1242.417692445</ele>
        <time>2015-05-24T15:47:30Z</time>
      </trkpt>
      <trkpt lat="45.35954" lon="5.91146">
        <ele>1241.016359807</ele>
        <time>2015-05-24T15:47:35Z</time>
      </trkpt>
      <trkpt lat="45.35959" lon="5.91151">
        <ele>1241.016359807</ele>
        <time>2015-05-24T15:47:40Z</time>
      </trkpt>
      <trkpt lat="45.35962" lon="5.91156">
        <ele>1239.31993072</ele>
        <time>2015-05-24T15:47:45Z</time>
      </trkpt>
      <trkpt lat="45.35971" lon="5.91155">
        <ele>1239.31993072</ele>
        <time>2015-05-24T15:47:50Z</time>
      </trkpt>
      <trkpt lat="45.35974" lon="5.91156">
        <ele>1238.21145525</ele>
        <time>2015-05-24T15:47:55Z</time>
      </trkpt>
      <trkpt lat="45.35974" lon="5.91155">
        <ele>1238.21145525</ele>
        <time>2015-05-24T15:48:00Z</time>
      </trkpt>
      <trkpt lat="45.35974" lon="5.91155">
        <ele>1238.21145525</ele>
        <time>2015-05-24T15:48:05Z</time>
      </trkpt>
      <trkpt lat="45.35975" lon="5.91154">
        <ele>1238.21145525</ele>
        <time>2015-05-24T15:48:10Z</time>
      </trkpt>
      <trkpt lat="45.35975" lon="5.91154">
        <ele>1238.21145525</ele>
        <time>2015-05-24T15:48:15Z</time>
      </trkpt>
      <trkpt lat="45.35975" lon="5.91154">
        <ele>1238.21145525</ele>
        <time>2015-05-24T15:48:20Z</time>
      </trkpt>
      <trkpt lat="45.35975" lon="5.91154">
        <ele>1238.21145525</ele>
        <time>2015-05-24T15:48:25Z</time>
      </trkpt>
      <trkpt lat="45.35975" lon="5.91154">
        <ele>1238.21145525</ele>
        <time>2015-05-24T15:48:30Z</time>
      </trkpt>
      <trkpt lat="45.35975" lon="5.91154">
        <ele>1238.21145525</ele>
        <time>2015-05-24T15:48:36Z</time>
      </trkpt>
      <trkpt lat="45.35975" lon="5.91154">
        <ele>1238.21145525</ele>
        <time>2015-05-24T15:48:41Z</time>
      </trkpt>
      <trkpt lat="45.3597" lon="5.9116">
        <ele>1235.048880609</ele>
        <time>2015-05-24T15:48:45Z</time>
      </trkpt>
      <trkpt lat="45.35962" lon="5.9116">
        <ele>1235.048880609</ele>
        <time>2015-05-24T15:48:50Z</time>
      </trkpt>
      <trkpt lat="45.35962" lon="5.91162">
        <ele>1231.857529481</ele>
        <time>2015-05-24T15:48:56Z</time>
      </trkpt>
      <trkpt lat="45.3596" lon="5.91164">
        <ele>1231.857529481</ele>
        <time>2015-05-24T15:49:00Z</time>
      </trkpt>
      <trkpt lat="45.35961" lon="5.91165">
        <ele>1231.857529481</ele>
        <time>2015-05-24T15:49:05Z</time>
      </trkpt>
      <trkpt lat="45.3596" lon="5.91167">
        <ele>1231.857529481</ele>
        <time>2015-05-24T15:49:11Z</time>
      </trkpt>
      <trkpt lat="45.35953" lon="5.91173">
        <ele>1229.217106696</ele>
        <time>2015-05-24T15:49:16Z</time>
      </trkpt>
      <trkpt lat="45.35949" lon="5.91174">
        <ele>1229.217106696</ele>
        <time>2015-05-24T15:49:21Z</time>
      </trkpt>
      <trkpt lat="45.35948" lon="5.91176">
        <ele>1229.217106696</ele>
        <time>2015-05-24T15:49:25Z</time>
      </trkpt>
      <trkpt lat="45.35945" lon="5.91187">
        <ele>1225.789816132</ele>
        <time>2015-05-24T15:49:30Z</time>
      </trkpt>
      <trkpt lat="45.35942" lon="5.91186">
        <ele>1225.789816132</ele>
        <time>2015-05-24T15:49:35Z</time>
      </trkpt>
      <trkpt lat="45.35939" lon="5.91192">
        <ele>1223.076521767</ele>
        <time>2015-05-24T15:49:40Z</time>
      </trkpt>
      <trkpt lat="45.35933" lon="5.91193">
        <ele>1223.076521767</ele>
        <time>2015-05-24T15:49:45Z</time>
      </trkpt>
      <trkpt lat="45.35929" lon="5.91198">
        <ele>1220.880670001</ele>
        <time>2015-05-24T15:49:50Z</time>
      </trkpt>
      <trkpt lat="45.35928" lon="5.91198">
        <ele>1220.880670001</ele>
        <time>2015-05-24T15:49:57Z</time>
      </trkpt>
      <trkpt lat="45.35928" lon="5.91201">
        <ele>1220.880670001</ele>
        <time>2015-05-24T15:50:01Z</time>
      </trkpt>
      <trkpt lat="45.35921" lon="5.91214">
        <ele>1218.586417121</ele>
        <time>2015-05-24T15:50:05Z</time>
      </trkpt>
      <trkpt lat="45.35925" lon="5.912">
        <ele>1217.208712556</ele>
        <time>2015-05-24T15:50:12Z</time>
      </trkpt>
      <trkpt lat="45.35919" lon="5.91205">
        <ele>1217.208712556</ele>
        <time>2015-05-24T15:50:16Z</time>
      </trkpt>
      <trkpt lat="45.35915" lon="5.91211">
        <ele>1215.235542315</ele>
        <time>2015-05-24T15:50:20Z</time>
      </trkpt>
      <trkpt lat="45.35915" lon="5.91212">
        <ele>1215.235542315</ele>
        <time>2015-05-24T15:50:26Z</time>
      </trkpt>
      <trkpt lat="45.35915" lon="5.91212">
        <ele>1215.235542315</ele>
        <time>2015-05-24T15:50:30Z</time>
      </trkpt>
      <trkpt lat="45.35914" lon="5.91212">
        <ele>1215.235542315</ele>
        <time>2015-05-24T15:50:35Z</time>
      </trkpt>
      <trkpt lat="45.35914" lon="5.91213">
        <ele>1215.235542315</ele>
        <time>2015-05-24T15:50:40Z</time>
      </trkpt>
      <trkpt lat="45.35914" lon="5.91213">
        <ele>1215.235542315</ele>
        <time>2015-05-24T15:50:45Z</time>
      </trkpt>
      <trkpt lat="45.35914" lon="5.91213">
        <ele>1215.235542315</ele>
        <time>2015-05-24T15:50:50Z</time>
      </trkpt>
      <trkpt lat="45.35914" lon="5.91214">
        <ele>1215.235542315</ele>
        <time>2015-05-24T15:50:56Z</time>
      </trkpt>
      <trkpt lat="45.35913" lon="5.91217">
        <ele>1215.235542315</ele>
        <time>2015-05-24T15:51:00Z</time>
      </trkpt>
      <trkpt lat="45.35909" lon="5.91223">
        <ele>1212.852913664</ele>
        <time>2015-05-24T15:51:05Z</time>
      </trkpt>
      <trkpt lat="45.35905" lon="5.91225">
        <ele>1212.852913664</ele>
        <time>2015-05-24T15:51:11Z</time>
      </trkpt>
      <trkpt lat="45.35904" lon="5.91223">
        <ele>1212.852913664</ele>
        <time>2015-05-24T15:51:15Z</time>
      </trkpt>
      <trkpt lat="45.35904" lon="5.91221">
        <ele>1212.852913664</ele>
        <time>2015-05-24T15:51:20Z</time>
      </trkpt>
      <trkpt lat="45.35903" lon="5.91222">
        <ele>1212.852913664</ele>
        <time>2015-05-24T15:51:25Z</time>
      </trkpt>
      <trkpt lat="45.35903" lon="5.91223">
        <ele>1212.852913664</ele>
        <time>2015-05-24T15:51:30Z</time>
      </trkpt>
      <trkpt lat="45.35903" lon="5.91222">
        <ele>1212.852913664</ele>
        <time>2015-05-24T15:51:35Z</time>
      </trkpt>
      <trkpt lat="45.35903" lon="5.91222">
        <ele>1212.852913664</ele>
        <time>2015-05-24T15:51:40Z</time>
      </trkpt>
      <trkpt lat="45.35903" lon="5.91222">
        <ele>1212.852913664</ele>
        <time>2015-05-24T15:51:46Z</time>
      </trkpt>
      <trkpt lat="45.35903" lon="5.91222">
        <ele>1212.852913664</ele>
        <time>2015-05-24T15:51:51Z</time>
      </trkpt>
      <trkpt lat="45.35891" lon="5.91232">
        <ele>1210.0902638</ele>
        <time>2015-05-24T15:51:56Z</time>
      </trkpt>
      <trkpt lat="45.35884" lon="5.91245">
        <ele>1207.408322275</ele>
        <time>2015-05-24T15:52:00Z</time>
      </trkpt>
      <trkpt lat="45.35882" lon="5.91247">
        <ele>1207.408322275</ele>
        <time>2015-05-24T15:52:05Z</time>
      </trkpt>
      <trkpt lat="45.35877" lon="5.91254">
        <ele>1205.666134076</ele>
        <time>2015-05-24T15:52:10Z</time>
      </trkpt>
      <trkpt lat="45.35874" lon="5.91257">
        <ele>1205.666134076</ele>
        <time>2015-05-24T15:52:16Z</time>
      </trkpt>
      <trkpt lat="45.35871" lon="5.91263">
        <ele>1204.071831809</ele>
        <time>2015-05-24T15:52:21Z</time>
      </trkpt>
      <trkpt lat="45.35865" lon="5.91264">
        <ele>1204.071831809</ele>
        <time>2015-05-24T15:52:26Z</time>
      </trkpt>
      <trkpt lat="45.35859" lon="5.91263">
        <ele>1201.891354139</ele>
        <time>2015-05-24T15:52:31Z</time>
      </trkpt>
      <trkpt lat="45.35856" lon="5.91264">
        <ele>1201.891354139</ele>
        <time>2015-05-24T15:52:35Z</time>
      </trkpt>
      <trkpt lat="45.35853" lon="5.91267">
        <ele>1201.891354139</ele>
        <time>2015-05-24T15:52:42Z</time>
      </trkpt>
      <trkpt lat="45.35851" lon="5.91269">
        <ele>1200.463816829</ele>
        <time>2015-05-24T15:52:46Z</time>
      </trkpt>
      <trkpt lat="45.35851" lon="5.91269">
        <ele>1200.463816829</ele>
        <time>2015-05-24T15:52:51Z</time>
      </trkpt>
      <trkpt lat="45.3585" lon="5.9127">
        <ele>1200.463816829</ele>
        <time>2015-05-24T15:52:56Z</time>
      </trkpt>
      <trkpt lat="45.3585" lon="5.91271">
        <ele>1200.463816829</ele>
        <time>2015-05-24T15:53:01Z</time>
      </trkpt>
      <trkpt lat="45.3585" lon="5.91271">
        <ele>1200.463816829</ele>
        <time>2015-05-24T15:53:05Z</time>
      </trkpt>
      <trkpt lat="45.35849" lon="5.91271">
        <ele>1200.463816829</ele>
        <time>2015-05-24T15:53:11Z</time>
      </trkpt>
      <trkpt lat="45.35841" lon="5.91273">
        <ele>1199.442686224</ele>
        <time>2015-05-24T15:53:16Z</time>
      </trkpt>
      <trkpt lat="45.35837" lon="5.91277">
        <ele>1199.442686224</ele>
        <time>2015-05-24T15:53:21Z</time>
      </trkpt>
      <trkpt lat="45.35831" lon="5.91288">
        <ele>1198.217582656</ele>
        <time>2015-05-24T15:53:26Z</time>
      </trkpt>
      <trkpt lat="45.35827" lon="5.91294">
        <ele>1198.217582656</ele>
        <time>2015-05-24T15:53:31Z</time>
      </trkpt>
      <trkpt lat="45.35818" lon="5.91294">
        <ele>1195.503043361</ele>
        <time>2015-05-24T15:53:35Z</time>
      </trkpt>
      <trkpt lat="45.35818" lon="5.91289">
        <ele>1195.503043361</ele>
        <time>2015-05-24T15:53:40Z</time>
      </trkpt>
      <trkpt lat="45.35818" lon="5.91291">
        <ele>1195.503043361</ele>
        <time>2015-05-24T15:53:45Z</time>
      </trkpt>
      <trkpt lat="45.35816" lon="5.9129">
        <ele>1195.503043361</ele>
        <time>2015-05-24T15:53:50Z</time>
      </trkpt>
      <trkpt lat="45.35816" lon="5.91291">
        <ele>1195.503043361</ele>
        <time>2015-05-24T15:53:56Z</time>
      </trkpt>
      <trkpt lat="45.35817" lon="5.9129">
        <ele>1195.503043361</ele>
        <time>2015-05-24T15:54:01Z</time>
      </trkpt>
      <trkpt lat="45.35817" lon="5.9129">
        <ele>1195.503043361</ele>
        <time>2015-05-24T15:54:06Z</time>
      </trkpt>
      <trkpt lat="45.35817" lon="5.91291">
        <ele>1195.503043361</ele>
        <time>2015-05-24T15:54:10Z</time>
      </trkpt>
      <trkpt lat="45.35814" lon="5.91295">
        <ele>1192.27394344</ele>
        <time>2015-05-24T15:54:16Z</time>
      </trkpt>
      <trkpt lat="45.35811" lon="5.91307">
        <ele>1189.290936212</ele>
        <time>2015-05-24T15:54:20Z</time>
      </trkpt>
      <trkpt lat="45.35803" lon="5.91312">
        <ele>1186.537604705</ele>
        <time>2015-05-24T15:54:26Z</time>
      </trkpt>
      <trkpt lat="45.35796" lon="5.91314">
        <ele>1186.537604705</ele>
        <time>2015-05-24T15:54:30Z</time>
      </trkpt>
      <trkpt lat="45.3579" lon="5.91319">
        <ele>1183.709915712</ele>
        <time>2015-05-24T15:54:35Z</time>
      </trkpt>
      <trkpt lat="45.35781" lon="5.91317">
        <ele>1183.709915712</ele>
        <time>2015-05-24T15:54:41Z</time>
      </trkpt>
      <trkpt lat="45.35775" lon="5.91322">
        <ele>1180.670526019</ele>
        <time>2015-05-24T15:54:46Z</time>
      </trkpt>
      <trkpt lat="45.3577" lon="5.91324">
        <ele>1180.670526019</ele>
        <time>2015-05-24T15:54:51Z</time>
      </trkpt>
      <trkpt lat="45.35769" lon="5.91326">
        <ele>1180.670526019</ele>
        <time>2015-05-24T15:54:55Z</time>
      </trkpt>
      <trkpt lat="45.35764" lon="5.91334">
        <ele>1177.436914979</ele>
        <time>2015-05-24T15:55:00Z</time>
      </trkpt>
      <trkpt lat="45.35756" lon="5.91335">
        <ele>1177.436914979</ele>
        <time>2015-05-24T15:55:05Z</time>
      </trkpt>
      <trkpt lat="45.3575" lon="5.91335">
        <ele>1174.458177302</ele>
        <time>2015-05-24T15:55:10Z</time>
      </trkpt>
      <trkpt lat="45.35745" lon="5.91334">
        <ele>1174.458177302</ele>
        <time>2015-05-24T15:55:16Z</time>
      </trkpt>
      <trkpt lat="45.35742" lon="5.91334">
        <ele>1174.458177302</ele>
        <time>2015-05-24T15:55:20Z</time>
      </trkpt>
      <trkpt lat="45.35739" lon="5.91332">
        <ele>1170.564491643</ele>
        <time>2015-05-24T15:55:25Z</time>
      </trkpt>
      <trkpt lat="45.35739" lon="5.91334">
        <ele>1170.564491643</ele>
        <time>2015-05-24T15:55:30Z</time>
      </trkpt>
      <trkpt lat="45.35738" lon="5.91334">
        <ele>1170.564491643</ele>
        <time>2015-05-24T15:55:35Z</time>
      </trkpt>
      <trkpt lat="45.35738" lon="5.91334">
        <ele>1170.564491643</ele>
        <time>2015-05-24T15:55:40Z</time>
      </trkpt>
      <trkpt lat="45.35738" lon="5.91334">
        <ele>1170.564491643</ele>
        <time>2015-05-24T15:55:45Z</time>
      </trkpt>
      <trkpt lat="45.35738" lon="5.91336">
        <ele>1170.564491643</ele>
        <time>2015-05-24T15:55:50Z</time>
      </trkpt>
      <trkpt lat="45.35737" lon="5.91345">
        <ele>1166.403873547</ele>
        <time>2015-05-24T15:55:56Z</time>
      </trkpt>
      <trkpt lat="45.35732" lon="5.9135">
        <ele>1166.403873547</ele>
        <time>2015-05-24T15:56:01Z</time>
      </trkpt>
      <trkpt lat="45.35731" lon="5.91356">
        <ele>1163.442143997</ele>
        <time>2015-05-24T15:56:05Z</time>
      </trkpt>
      <trkpt lat="45.35728" lon="5.91355">
        <ele>1163.442143997</ele>
        <time>2015-05-24T15:56:10Z</time>
      </trkpt>
      <trkpt lat="45.35725" lon="5.91359">
        <ele>1163.442143997</ele>
        <time>2015-05-24T15:56:15Z</time>
      </trkpt>
      <trkpt lat="45.35723" lon="5.91367">
        <ele>1161.016510418</ele>
        <time>2015-05-24T15:56:20Z</time>
      </trkpt>
      <trkpt lat="45.35721" lon="5.9137">
        <ele>1161.016510418</ele>
        <time>2015-05-24T15:56:26Z</time>
      </trkpt>
      <trkpt lat="45.3572" lon="5.91375">
        <ele>1161.016510418</ele>
        <time>2015-05-24T15:56:30Z</time>
      </trkpt>
      <trkpt lat="45.35722" lon="5.91383">
        <ele>1158.655454295</ele>
        <time>2015-05-24T15:56:37Z</time>
      </trkpt>
      <trkpt lat="45.3572" lon="5.91386">
        <ele>1158.655454295</ele>
        <time>2015-05-24T15:56:40Z</time>
      </trkpt>
      <trkpt lat="45.35721" lon="5.91393">
        <ele>1158.655454295</ele>
        <time>2015-05-24T15:56:45Z</time>
      </trkpt>
      <trkpt lat="45.35719" lon="5.91394">
        <ele>1155.777777633</ele>
        <time>2015-05-24T15:56:50Z</time>
      </trkpt>
      <trkpt lat="45.35716" lon="5.91403">
        <ele>1155.777777633</ele>
        <time>2015-05-24T15:56:56Z</time>
      </trkpt>
      <trkpt lat="45.35712" lon="5.9141">
        <ele>1153.143401838</ele>
        <time>2015-05-24T15:57:01Z</time>
      </trkpt>
      <trkpt lat="45.3571" lon="5.9142">
        <ele>1153.143401838</ele>
        <time>2015-05-24T15:57:06Z</time>
      </trkpt>
      <trkpt lat="45.35708" lon="5.91426">
        <ele>1150.879273554</ele>
        <time>2015-05-24T15:57:10Z</time>
      </trkpt>
      <trkpt lat="45.35706" lon="5.91435">
        <ele>1150.879273554</ele>
        <time>2015-05-24T15:57:15Z</time>
      </trkpt>
      <trkpt lat="45.35705" lon="5.91442">
        <ele>1148.669618487</ele>
        <time>2015-05-24T15:57:22Z</time>
      </trkpt>
      <trkpt lat="45.35706" lon="5.91443">
        <ele>1148.669618487</ele>
        <time>2015-05-24T15:57:26Z</time>
      </trkpt>
      <trkpt lat="45.35707" lon="5.91444">
        <ele>1148.669618487</ele>
        <time>2015-05-24T15:57:31Z</time>
      </trkpt>
      <trkpt lat="45.35707" lon="5.91452">
        <ele>1148.669618487</ele>
        <time>2015-05-24T15:57:36Z</time>
      </trkpt>
      <trkpt lat="45.35705" lon="5.91456">
        <ele>1146.509906626</ele>
        <time>2015-05-24T15:57:41Z</time>
      </trkpt>
      <trkpt lat="45.35706" lon="5.91462">
        <ele>1146.509906626</ele>
        <time>2015-05-24T15:57:45Z</time>
      </trkpt>
      <trkpt lat="45.35704" lon="5.91463">
        <ele>1146.509906626</ele>
        <time>2015-05-24T15:57:51Z</time>
      </trkpt>
      <trkpt lat="45.35703" lon="5.91467">
        <ele>1146.509906626</ele>
        <time>2015-05-24T15:57:56Z</time>
      </trkpt>
      <trkpt lat="45.35703" lon="5.91467">
        <ele>1146.509906626</ele>
        <time>2015-05-24T15:58:00Z</time>
      </trkpt>
      <trkpt lat="45.35703" lon="5.91467">
        <ele>1143.96344736</ele>
        <time>2015-05-24T15:58:05Z</time>
      </trkpt>
      <trkpt lat="45.35703" lon="5.91467">
        <ele>1143.96344736</ele>
        <time>2015-05-24T15:58:10Z</time>
      </trkpt>
      <trkpt lat="45.35702" lon="5.91467">
        <ele>1143.96344736</ele>
        <time>2015-05-24T15:58:16Z</time>
      </trkpt>
      <trkpt lat="45.35702" lon="5.91468">
        <ele>1143.96344736</ele>
        <time>2015-05-24T15:58:21Z</time>
      </trkpt>
      <trkpt lat="45.35701" lon="5.91467">
        <ele>1143.96344736</ele>
        <time>2015-05-24T15:58:25Z</time>
      </trkpt>
      <trkpt lat="45.35701" lon="5.91467">
        <ele>1143.96344736</ele>
        <time>2015-05-24T15:58:30Z</time>
      </trkpt>
      <trkpt lat="45.35701" lon="5.91467">
        <ele>1143.96344736</ele>
        <time>2015-05-24T15:58:35Z</time>
      </trkpt>
      <trkpt lat="45.35701" lon="5.91467">
        <ele>1143.96344736</ele>
        <time>2015-05-24T15:58:40Z</time>
      </trkpt>
      <trkpt lat="45.35701" lon="5.91467">
        <ele>1143.96344736</ele>
        <time>2015-05-24T15:58:45Z</time>
      </trkpt>
      <trkpt lat="45.35701" lon="5.91467">
        <ele>1143.96344736</ele>
        <time>2015-05-24T15:58:50Z</time>
      </trkpt>
      <trkpt lat="45.35701" lon="5.91468">
        <ele>1143.96344736</ele>
        <time>2015-05-24T15:58:56Z</time>
      </trkpt>
      <trkpt lat="45.35703" lon="5.91474">
        <ele>1143.96344736</ele>
        <time>2015-05-24T15:59:01Z</time>
      </trkpt>
      <trkpt lat="45.35705" lon="5.91477">
        <ele>1141.059029323</ele>
        <time>2015-05-24T15:59:05Z</time>
      </trkpt>
      <trkpt lat="45.35704" lon="5.91476">
        <ele>1141.059029323</ele>
        <time>2015-05-24T15:59:10Z</time>
      </trkpt>
      <trkpt lat="45.35704" lon="5.91487">
        <ele>1141.059029323</ele>
        <time>2015-05-24T15:59:15Z</time>
      </trkpt>
      <trkpt lat="45.35704" lon="5.91501">
        <ele>1138.54486918</ele>
        <time>2015-05-24T15:59:21Z</time>
      </trkpt>
      <trkpt lat="45.357" lon="5.91506">
        <ele>1138.54486918</ele>
        <time>2015-05-24T15:59:26Z</time>
      </trkpt>
      <trkpt lat="45.35695" lon="5.91509">
        <ele>1135.671995888</ele>
        <time>2015-05-24T15:59:31Z</time>
      </trkpt>
      <trkpt lat="45.35692" lon="5.91515">
        <ele>1135.671995888</ele>
        <time>2015-05-24T15:59:36Z</time>
      </trkpt>
      <trkpt lat="45.35688" lon="5.9152">
        <ele>1132.6121113</ele>
        <time>2015-05-24T15:59:41Z</time>
      </trkpt>
      <trkpt lat="45.35684" lon="5.91517">
        <ele>1132.6121113</ele>
        <time>2015-05-24T15:59:46Z</time>
      </trkpt>
      <trkpt lat="45.35682" lon="5.91521">
        <ele>1132.6121113</ele>
        <time>2015-05-24T15:59:51Z</time>
      </trkpt>
      <trkpt lat="45.35678" lon="5.91526">
        <ele>1129.236584348</ele>
        <time>2015-05-24T15:59:56Z</time>
      </trkpt>
      <trkpt lat="45.35679" lon="5.91529">
        <ele>1129.236584348</ele>
        <time>2015-05-24T16:00:01Z</time>
      </trkpt>
      <trkpt lat="45.35678" lon="5.91534">
        <ele>1129.236584348</ele>
        <time>2015-05-24T16:00:05Z</time>
      </trkpt>
      <trkpt lat="45.35673" lon="5.91537">
        <ele>1126.435872217</ele>
        <time>2015-05-24T16:00:10Z</time>
      </trkpt>
      <trkpt lat="45.35672" lon="5.91539">
        <ele>1126.435872217</ele>
        <time>2015-05-24T16:00:15Z</time>
      </trkpt>
      <trkpt lat="45.35672" lon="5.91548">
        <ele>1126.435872217</ele>
        <time>2015-05-24T16:00:20Z</time>
      </trkpt>
      <trkpt lat="45.35669" lon="5.91562">
        <ele>1123.880490734</ele>
        <time>2015-05-24T16:00:27Z</time>
      </trkpt>
      <trkpt lat="45.35669" lon="5.91566">
        <ele>1123.880490734</ele>
        <time>2015-05-24T16:00:31Z</time>
      </trkpt>
      <trkpt lat="45.35667" lon="5.91573">
        <ele>1123.880490734</ele>
        <time>2015-05-24T16:00:36Z</time>
      </trkpt>
      <trkpt lat="45.35662" lon="5.9158">
        <ele>1121.696776725</ele>
        <time>2015-05-24T16:00:41Z</time>
      </trkpt>
      <trkpt lat="45.3566" lon="5.91583">
        <ele>1121.696776725</ele>
        <time>2015-05-24T16:00:46Z</time>
      </trkpt>
      <trkpt lat="45.35658" lon="5.91592">
        <ele>1120.000717533</ele>
        <time>2015-05-24T16:00:52Z</time>
      </trkpt>
      <trkpt lat="45.35658" lon="5.91592">
        <ele>1120.000717533</ele>
        <time>2015-05-24T16:00:56Z</time>
      </trkpt>
      <trkpt lat="45.35657" lon="5.91597">
        <ele>1120.000717533</ele>
        <time>2015-05-24T16:01:02Z</time>
      </trkpt>
      <trkpt lat="45.35651" lon="5.91602">
        <ele>1117.745500011</ele>
        <time>2015-05-24T16:01:06Z</time>
      </trkpt>
      <trkpt lat="45.35648" lon="5.91608">
        <ele>1117.745500011</ele>
        <time>2015-05-24T16:01:10Z</time>
      </trkpt>
      <trkpt lat="45.35647" lon="5.91617">
        <ele>1115.836205453</ele>
        <time>2015-05-24T16:01:15Z</time>
      </trkpt>
      <trkpt lat="45.35642" lon="5.91625">
        <ele>1115.836205453</ele>
        <time>2015-05-24T16:01:20Z</time>
      </trkpt>
      <trkpt lat="45.35637" lon="5.91636">
        <ele>1113.669333893</ele>
        <time>2015-05-24T16:01:25Z</time>
      </trkpt>
      <trkpt lat="45.35635" lon="5.91646">
        <ele>1113.669333893</ele>
        <time>2015-05-24T16:01:31Z</time>
      </trkpt>
      <trkpt lat="45.35633" lon="5.91652">
        <ele>1111.406988659</ele>
        <time>2015-05-24T16:01:36Z</time>
      </trkpt>
      <trkpt lat="45.35626" lon="5.91657">
        <ele>1111.406988659</ele>
        <time>2015-05-24T16:01:42Z</time>
      </trkpt>
      <trkpt lat="45.35622" lon="5.91661">
        <ele>1108.623182963</ele>
        <time>2015-05-24T16:01:46Z</time>
      </trkpt>
      <trkpt lat="45.35618" lon="5.91666">
        <ele>1108.623182963</ele>
        <time>2015-05-24T16:01:51Z</time>
      </trkpt>
      <trkpt lat="45.35614" lon="5.9167">
        <ele>1105.789348736</ele>
        <time>2015-05-24T16:01:55Z</time>
      </trkpt>
      <trkpt lat="45.35612" lon="5.91678">
        <ele>1105.789348736</ele>
        <time>2015-05-24T16:02:02Z</time>
      </trkpt>
      <trkpt lat="45.35605" lon="5.91686">
        <ele>1103.918869229</ele>
        <time>2015-05-24T16:02:05Z</time>
      </trkpt>
      <trkpt lat="45.35601" lon="5.91694">
        <ele>1103.918869229</ele>
        <time>2015-05-24T16:02:11Z</time>
      </trkpt>
      <trkpt lat="45.356" lon="5.91701">
        <ele>1102.074536195</ele>
        <time>2015-05-24T16:02:16Z</time>
      </trkpt>
      <trkpt lat="45.356" lon="5.91708">
        <ele>1102.074536195</ele>
        <time>2015-05-24T16:02:21Z</time>
      </trkpt>
      <trkpt lat="45.35591" lon="5.91707">
        <ele>1099.676137259</ele>
        <time>2015-05-24T16:02:25Z</time>
      </trkpt>
      <trkpt lat="45.35587" lon="5.91705">
        <ele>1099.676137259</ele>
        <time>2015-05-24T16:02:30Z</time>
      </trkpt>
      <trkpt lat="45.35588" lon="5.91707">
        <ele>1099.676137259</ele>
        <time>2015-05-24T16:02:36Z</time>
      </trkpt>
      <trkpt lat="45.35588" lon="5.91707">
        <ele>1099.676137259</ele>
        <time>2015-05-24T16:02:41Z</time>
      </trkpt>
      <trkpt lat="45.35588" lon="5.91707">
        <ele>1099.676137259</ele>
        <time>2015-05-24T16:02:46Z</time>
      </trkpt>
      <trkpt lat="45.35588" lon="5.91707">
        <ele>1099.676137259</ele>
        <time>2015-05-24T16:02:51Z</time>
      </trkpt>
      <trkpt lat="45.35588" lon="5.91707">
        <ele>1099.676137259</ele>
        <time>2015-05-24T16:02:56Z</time>
      </trkpt>
      <trkpt lat="45.35588" lon="5.91707">
        <ele>1099.676137259</ele>
        <time>2015-05-24T16:03:00Z</time>
      </trkpt>
      <trkpt lat="45.35588" lon="5.91707">
        <ele>1099.676137259</ele>
        <time>2015-05-24T16:03:06Z</time>
      </trkpt>
      <trkpt lat="45.35588" lon="5.91707">
        <ele>1099.676137259</ele>
        <time>2015-05-24T16:03:10Z</time>
      </trkpt>
      <trkpt lat="45.35588" lon="5.91707">
        <ele>1099.676137259</ele>
        <time>2015-05-24T16:03:15Z</time>
      </trkpt>
      <trkpt lat="45.35588" lon="5.91707">
        <ele>1099.676137259</ele>
        <time>2015-05-24T16:03:22Z</time>
      </trkpt>
      <trkpt lat="45.35588" lon="5.91707">
        <ele>1099.676137259</ele>
        <time>2015-05-24T16:03:25Z</time>
      </trkpt>
      <trkpt lat="45.35588" lon="5.91707">
        <ele>1099.676137259</ele>
        <time>2015-05-24T16:03:31Z</time>
      </trkpt>
      <trkpt lat="45.35588" lon="5.91707">
        <ele>1099.676137259</ele>
        <time>2015-05-24T16:03:36Z</time>
      </trkpt>
      <trkpt lat="45.35588" lon="5.91707">
        <ele>1099.676137259</ele>
        <time>2015-05-24T16:03:41Z</time>
      </trkpt>
      <trkpt lat="45.35588" lon="5.91707">
        <ele>1099.676137259</ele>
        <time>2015-05-24T16:03:45Z</time>
      </trkpt>
      <trkpt lat="45.35588" lon="5.91707">
        <ele>1099.676137259</ele>
        <time>2015-05-24T16:03:50Z</time>
      </trkpt>
      <trkpt lat="45.35588" lon="5.91707">
        <ele>1099.676137259</ele>
        <time>2015-05-24T16:03:55Z</time>
      </trkpt>
      <trkpt lat="45.35588" lon="5.91707">
        <ele>1099.676137259</ele>
        <time>2015-05-24T16:04:00Z</time>
      </trkpt>
      <trkpt lat="45.35588" lon="5.91707">
        <ele>1099.676137259</ele>
        <time>2015-05-24T16:04:05Z</time>
      </trkpt>
      <trkpt lat="45.35588" lon="5.91707">
        <ele>1099.676137259</ele>
        <time>2015-05-24T16:04:10Z</time>
      </trkpt>
      <trkpt lat="45.35588" lon="5.91707">
        <ele>1099.676137259</ele>
        <time>2015-05-24T16:04:15Z</time>
      </trkpt>
      <trkpt lat="45.35588" lon="5.91707">
        <ele>1099.676137259</ele>
        <time>2015-05-24T16:04:21Z</time>
      </trkpt>
      <trkpt lat="45.35588" lon="5.91707">
        <ele>1099.676137259</ele>
        <time>2015-05-24T16:04:25Z</time>
      </trkpt>
      <trkpt lat="45.35588" lon="5.91707">
        <ele>1099.676137259</ele>
        <time>2015-05-24T16:04:30Z</time>
      </trkpt>
      <trkpt lat="45.35588" lon="5.91707">
        <ele>1099.676137259</ele>
        <time>2015-05-24T16:04:35Z</time>
      </trkpt>
      <trkpt lat="45.35588" lon="5.91707">
        <ele>1099.676137259</ele>
        <time>2015-05-24T16:04:41Z</time>
      </trkpt>
      <trkpt lat="45.35588" lon="5.91707">
        <ele>1099.676137259</ele>
        <time>2015-05-24T16:04:46Z</time>
      </trkpt>
      <trkpt lat="45.35588" lon="5.91707">
        <ele>1099.676137259</ele>
        <time>2015-05-24T16:04:51Z</time>
      </trkpt>
      <trkpt lat="45.35588" lon="5.91707">
        <ele>1099.676137259</ele>
        <time>2015-05-24T16:04:56Z</time>
      </trkpt>
      <trkpt lat="45.35586" lon="5.91707">
        <ele>1099.676137259</ele>
        <time>2015-05-24T16:05:01Z</time>
      </trkpt>
      <trkpt lat="45.35582" lon="5.91706">
        <ele>1096.475859955</ele>
        <time>2015-05-24T16:05:05Z</time>
      </trkpt>
      <trkpt lat="45.35576" lon="5.91706">
        <ele>1096.475859955</ele>
        <time>2015-05-24T16:05:10Z</time>
      </trkpt>
      <trkpt lat="45.35571" lon="5.91706">
        <ele>1093.111013544</ele>
        <time>2015-05-24T16:05:15Z</time>
      </trkpt>
      <trkpt lat="45.35566" lon="5.91709">
        <ele>1093.111013544</ele>
        <time>2015-05-24T16:05:20Z</time>
      </trkpt>
      <trkpt lat="45.35562" lon="5.91711">
        <ele>1090.172551307</ele>
        <time>2015-05-24T16:05:25Z</time>
      </trkpt>
      <trkpt lat="45.35561" lon="5.91712">
        <ele>1090.172551307</ele>
        <time>2015-05-24T16:05:30Z</time>
      </trkpt>
      <trkpt lat="45.35557" lon="5.91717">
        <ele>1090.172551307</ele>
        <time>2015-05-24T16:05:36Z</time>
      </trkpt>
      <trkpt lat="45.3556" lon="5.9172">
        <ele>1087.774481209</ele>
        <time>2015-05-24T16:05:41Z</time>
      </trkpt>
      <trkpt lat="45.3556" lon="5.91725">
        <ele>1087.774481209</ele>
        <time>2015-05-24T16:05:45Z</time>
      </trkpt>
      <trkpt lat="45.3556" lon="5.91732">
        <ele>1087.774481209</ele>
        <time>2015-05-24T16:05:51Z</time>
      </trkpt>
      <trkpt lat="45.35561" lon="5.91737">
        <ele>1085.156245427</ele>
        <time>2015-05-24T16:05:56Z</time>
      </trkpt>
      <trkpt lat="45.35562" lon="5.91739">
        <ele>1085.156245427</ele>
        <time>2015-05-24T16:06:01Z</time>
      </trkpt>
      <trkpt lat="45.35559" lon="5.91744">
        <ele>1085.156245427</ele>
        <time>2015-05-24T16:06:05Z</time>
      </trkpt>
      <trkpt lat="45.35556" lon="5.91749">
        <ele>1082.6225428</ele>
        <time>2015-05-24T16:06:11Z</time>
      </trkpt>
      <trkpt lat="45.35553" lon="5.91754">
        <ele>1082.6225428</ele>
        <time>2015-05-24T16:06:15Z</time>
      </trkpt>
      <trkpt lat="45.35555" lon="5.91757">
        <ele>1082.6225428</ele>
        <time>2015-05-24T16:06:20Z</time>
      </trkpt>
      <trkpt lat="45.35555" lon="5.91757">
        <ele>1082.6225428</ele>
        <time>2015-05-24T16:06:25Z</time>
      </trkpt>
      <trkpt lat="45.35555" lon="5.91759">
        <ele>1080.023109205</ele>
        <time>2015-05-24T16:06:30Z</time>
      </trkpt>
      <trkpt lat="45.35555" lon="5.91759">
        <ele>1080.023109205</ele>
        <time>2015-05-24T16:06:35Z</time>
      </trkpt>
      <trkpt lat="45.35554" lon="5.91759">
        <ele>1080.023109205</ele>
        <time>2015-05-24T16:06:41Z</time>
      </trkpt>
      <trkpt lat="45.35549" lon="5.91769">
        <ele>1077.651228144</ele>
        <time>2015-05-24T16:06:45Z</time>
      </trkpt>
      <trkpt lat="45.35544" lon="5.91775">
        <ele>1077.651228144</ele>
        <time>2015-05-24T16:06:50Z</time>
      </trkpt>
      <trkpt lat="45.35539" lon="5.91778">
        <ele>1075.057436295</ele>
        <time>2015-05-24T16:06:55Z</time>
      </trkpt>
      <trkpt lat="45.35532" lon="5.91781">
        <ele>1075.057436295</ele>
        <time>2015-05-24T16:07:00Z</time>
      </trkpt>
      <trkpt lat="45.35527" lon="5.91787">
        <ele>1072.25823563</ele>
        <time>2015-05-24T16:07:05Z</time>
      </trkpt>
      <trkpt lat="45.35523" lon="5.91787">
        <ele>1072.25823563</ele>
        <time>2015-05-24T16:07:10Z</time>
      </trkpt>
      <trkpt lat="45.35519" lon="5.91787">
        <ele>1072.25823563</ele>
        <time>2015-05-24T16:07:15Z</time>
      </trkpt>
      <trkpt lat="45.35519" lon="5.91791">
        <ele>1068.116592225</ele>
        <time>2015-05-24T16:07:20Z</time>
      </trkpt>
      <trkpt lat="45.35516" lon="5.91792">
        <ele>1068.116592225</ele>
        <time>2015-05-24T16:07:25Z</time>
      </trkpt>
      <trkpt lat="45.35517" lon="5.91794">
        <ele>1068.116592225</ele>
        <time>2015-05-24T16:07:30Z</time>
      </trkpt>
      <trkpt lat="45.35514" lon="5.91796">
        <ele>1068.116592225</ele>
        <time>2015-05-24T16:07:36Z</time>
      </trkpt>
      <trkpt lat="45.35514" lon="5.91797">
        <ele>1068.116592225</ele>
        <time>2015-05-24T16:07:41Z</time>
      </trkpt>
      <trkpt lat="45.35514" lon="5.91798">
        <ele>1068.116592225</ele>
        <time>2015-05-24T16:07:46Z</time>
      </trkpt>
      <trkpt lat="45.35514" lon="5.91798">
        <ele>1068.116592225</ele>
        <time>2015-05-24T16:07:50Z</time>
      </trkpt>
      <trkpt lat="45.35514" lon="5.91798">
        <ele>1068.116592225</ele>
        <time>2015-05-24T16:07:55Z</time>
      </trkpt>
      <trkpt lat="45.35514" lon="5.91798">
        <ele>1068.116592225</ele>
        <time>2015-05-24T16:08:01Z</time>
      </trkpt>
      <trkpt lat="45.35514" lon="5.91798">
        <ele>1068.116592225</ele>
        <time>2015-05-24T16:08:05Z</time>
      </trkpt>
      <trkpt lat="45.3552" lon="5.91804">
        <ele>1065.041418572</ele>
        <time>2015-05-24T16:08:11Z</time>
      </trkpt>
      <trkpt lat="45.35521" lon="5.91804">
        <ele>1065.041418572</ele>
        <time>2015-05-24T16:08:15Z</time>
      </trkpt>
      <trkpt lat="45.35527" lon="5.91808">
        <ele>1065.041418572</ele>
        <time>2015-05-24T16:08:20Z</time>
      </trkpt>
      <trkpt lat="45.35534" lon="5.91814">
        <ele>1062.667660364</ele>
        <time>2015-05-24T16:08:25Z</time>
      </trkpt>
      <trkpt lat="45.35538" lon="5.9182">
        <ele>1062.667660364</ele>
        <time>2015-05-24T16:08:30Z</time>
      </trkpt>
      <trkpt lat="45.35547" lon="5.91832">
        <ele>1061.087427539</ele>
        <time>2015-05-24T16:08:35Z</time>
      </trkpt>
      <trkpt lat="45.35548" lon="5.91835">
        <ele>1061.087427539</ele>
        <time>2015-05-24T16:08:40Z</time>
      </trkpt>
      <trkpt lat="45.35553" lon="5.91833">
        <ele>1061.087427539</ele>
        <time>2015-05-24T16:08:45Z</time>
      </trkpt>
      <trkpt lat="45.35559" lon="5.91837">
        <ele>1059.807376708</ele>
        <time>2015-05-24T16:08:50Z</time>
      </trkpt>
      <trkpt lat="45.35563" lon="5.91841">
        <ele>1059.807376708</ele>
        <time>2015-05-24T16:08:55Z</time>
      </trkpt>
      <trkpt lat="45.35562" lon="5.91843">
        <ele>1059.807376708</ele>
        <time>2015-05-24T16:09:00Z</time>
      </trkpt>
    </trkseg>
  </trk>
</gpx>